<?xml version="1.0" encoding="UTF-8" standalone="no" ?>
<gpx xmlns="http://www.topografix.com/GPX/1/1" xmlns:xsi="http://www.w3.org/2001/XMLSchema-instance" xsi:schemaLocation="http://www.topografix.com/GPX/1/1 http://www.topografix.com/GPX/1/1/gpx.xsd" version="1.1" creator="VisuGPX - https://www.visugpx.com">
  <metadata>
    <name>2017-08-26 Bike ride VTT-Amberieux-Saone O Quincieux O</name>
    <desc><![CDATA[2017-08-26 Bike ride VTT-Amberieux-Saone O Quincieux O]]></desc>
  </metadata>
  <wpt lat="45.92445" lon="4.73725">
    <ele>174</ele>
    <name><![CDATA[2017-08-26 11:03 (Start)]]></name>
  </wpt>
  <wpt lat="45.92462" lon="4.73712">
    <ele>174</ele>
    <name><![CDATA[2017-08-26 11:03 (End)]]></name>
    <desc><![CDATA[Created by Google My Tracks on Android  Name: 2017-08-26 11:03 Activity type: biking Description: - Total distance: 21.11 km (13.1 mi) Total time: 1:23:06 Moving time: 1:15:59 Average speed: 15.24 km/h (9.5 mi/h) Average moving speed: 16.67 km/h (10.4 mi/h) Max speed: 26.31 km/h (16.3 mi/h) Average pace: 3:56 min/km (6:20 min/mi) Average moving pace: 3:36 min/km (5:48 min/mi) Fastest pace: 2:17 min/km (3:40 min/mi) Max elevation: 191 m (626 ft) Min elevation: 123 m (402 ft) Elevation gain: 407 m (1334 ft) Max grade: 24 % Min grade: -8 % Recorded: 26/08/2017 11:03]]></desc>
  </wpt>
  <trk>
    <name><![CDATA[2017-08-26 11:03]]></name>
    <trkseg>
      <trkpt lat="45.92445" lon="4.73725">
        <ele>174</ele>
        <time>2017-08-26T09:03:32.874Z</time>
      </trkpt>
      <trkpt lat="45.92447" lon="4.73718">
        <ele>174</ele>
        <time>2017-08-26T09:04:09Z</time>
      </trkpt>
      <trkpt lat="45.92456" lon="4.73715">
        <ele>174</ele>
        <time>2017-08-26T09:04:10Z</time>
      </trkpt>
      <trkpt lat="45.92458" lon="4.73703">
        <ele>174</ele>
        <time>2017-08-26T09:04:30Z</time>
      </trkpt>
      <trkpt lat="45.92458" lon="4.73702">
        <ele>174</ele>
        <time>2017-08-26T09:04:31Z</time>
      </trkpt>
      <trkpt lat="45.9246" lon="4.73691">
        <ele>174</ele>
        <time>2017-08-26T09:04:35Z</time>
      </trkpt>
      <trkpt lat="45.92461" lon="4.73688">
        <ele>174</ele>
        <time>2017-08-26T09:04:36Z</time>
      </trkpt>
      <trkpt lat="45.92462" lon="4.73676">
        <ele>174</ele>
        <time>2017-08-26T09:04:39Z</time>
      </trkpt>
      <trkpt lat="45.92462" lon="4.73671">
        <ele>174</ele>
        <time>2017-08-26T09:04:40Z</time>
      </trkpt>
      <trkpt lat="45.92463" lon="4.7366">
        <ele>174</ele>
        <time>2017-08-26T09:04:42Z</time>
      </trkpt>
      <trkpt lat="45.92464" lon="4.73655">
        <ele>174</ele>
        <time>2017-08-26T09:04:43Z</time>
      </trkpt>
      <trkpt lat="45.92468" lon="4.73645">
        <ele>174</ele>
        <time>2017-08-26T09:04:45Z</time>
      </trkpt>
      <trkpt lat="45.9247" lon="4.73641">
        <ele>174</ele>
        <time>2017-08-26T09:04:46Z</time>
      </trkpt>
      <trkpt lat="45.92478" lon="4.73637">
        <ele>174</ele>
        <time>2017-08-26T09:04:48Z</time>
      </trkpt>
      <trkpt lat="45.92482" lon="4.73637">
        <ele>174</ele>
        <time>2017-08-26T09:04:49Z</time>
      </trkpt>
      <trkpt lat="45.92487" lon="4.73636">
        <ele>174</ele>
        <time>2017-08-26T09:04:50Z</time>
      </trkpt>
      <trkpt lat="45.92492" lon="4.73637">
        <ele>174</ele>
        <time>2017-08-26T09:04:51Z</time>
      </trkpt>
      <trkpt lat="45.925" lon="4.73635">
        <ele>174</ele>
        <time>2017-08-26T09:04:53Z</time>
      </trkpt>
      <trkpt lat="45.92504" lon="4.73634">
        <ele>174</ele>
        <time>2017-08-26T09:04:54Z</time>
      </trkpt>
      <trkpt lat="45.92511" lon="4.73632">
        <ele>173</ele>
        <time>2017-08-26T09:04:56Z</time>
      </trkpt>
      <trkpt lat="45.92516" lon="4.73632">
        <ele>173</ele>
        <time>2017-08-26T09:04:57Z</time>
      </trkpt>
      <trkpt lat="45.9252" lon="4.73632">
        <ele>173</ele>
        <time>2017-08-26T09:04:58Z</time>
      </trkpt>
      <trkpt lat="45.92526" lon="4.7363">
        <ele>173</ele>
        <time>2017-08-26T09:04:59Z</time>
      </trkpt>
      <trkpt lat="45.92535" lon="4.73629">
        <ele>173</ele>
        <time>2017-08-26T09:05:01Z</time>
      </trkpt>
      <trkpt lat="45.9254" lon="4.73628">
        <ele>173</ele>
        <time>2017-08-26T09:05:02Z</time>
      </trkpt>
      <trkpt lat="45.92545" lon="4.73627">
        <ele>173</ele>
        <time>2017-08-26T09:05:03Z</time>
      </trkpt>
      <trkpt lat="45.92551" lon="4.73626">
        <ele>173</ele>
        <time>2017-08-26T09:05:04Z</time>
      </trkpt>
      <trkpt lat="45.92556" lon="4.73624">
        <ele>173</ele>
        <time>2017-08-26T09:05:05Z</time>
      </trkpt>
      <trkpt lat="45.9256" lon="4.73622">
        <ele>173</ele>
        <time>2017-08-26T09:05:06Z</time>
      </trkpt>
      <trkpt lat="45.92565" lon="4.7362">
        <ele>173</ele>
        <time>2017-08-26T09:05:07Z</time>
      </trkpt>
      <trkpt lat="45.92569" lon="4.73619">
        <ele>173</ele>
        <time>2017-08-26T09:05:08Z</time>
      </trkpt>
      <trkpt lat="45.92577" lon="4.73616">
        <ele>173</ele>
        <time>2017-08-26T09:05:10Z</time>
      </trkpt>
      <trkpt lat="45.92581" lon="4.73615">
        <ele>173</ele>
        <time>2017-08-26T09:05:11Z</time>
      </trkpt>
      <trkpt lat="45.92588" lon="4.73615">
        <ele>173</ele>
        <time>2017-08-26T09:05:13Z</time>
      </trkpt>
      <trkpt lat="45.92593" lon="4.73616">
        <ele>173</ele>
        <time>2017-08-26T09:05:14Z</time>
      </trkpt>
      <trkpt lat="45.92598" lon="4.73616">
        <ele>173</ele>
        <time>2017-08-26T09:05:15Z</time>
      </trkpt>
      <trkpt lat="45.92602" lon="4.73617">
        <ele>173</ele>
        <time>2017-08-26T09:05:16Z</time>
      </trkpt>
      <trkpt lat="45.92607" lon="4.7362">
        <ele>173</ele>
        <time>2017-08-26T09:05:17Z</time>
      </trkpt>
      <trkpt lat="45.92611" lon="4.73626">
        <ele>173</ele>
        <time>2017-08-26T09:05:18Z</time>
      </trkpt>
      <trkpt lat="45.92615" lon="4.73633">
        <ele>173</ele>
        <time>2017-08-26T09:05:19Z</time>
      </trkpt>
      <trkpt lat="45.92619" lon="4.73641">
        <ele>173</ele>
        <time>2017-08-26T09:05:20Z</time>
      </trkpt>
      <trkpt lat="45.92622" lon="4.73648">
        <ele>173</ele>
        <time>2017-08-26T09:05:21Z</time>
      </trkpt>
      <trkpt lat="45.92625" lon="4.73654">
        <ele>173</ele>
        <time>2017-08-26T09:05:22Z</time>
      </trkpt>
      <trkpt lat="45.92628" lon="4.7366">
        <ele>173</ele>
        <time>2017-08-26T09:05:23Z</time>
      </trkpt>
      <trkpt lat="45.92632" lon="4.73666">
        <ele>173</ele>
        <time>2017-08-26T09:05:24Z</time>
      </trkpt>
      <trkpt lat="45.92635" lon="4.73671">
        <ele>173</ele>
        <time>2017-08-26T09:05:25Z</time>
      </trkpt>
      <trkpt lat="45.92638" lon="4.73675">
        <ele>173</ele>
        <time>2017-08-26T09:05:26Z</time>
      </trkpt>
      <trkpt lat="45.92645" lon="4.73684">
        <ele>173</ele>
        <time>2017-08-26T09:05:28Z</time>
      </trkpt>
      <trkpt lat="45.92648" lon="4.73688">
        <ele>173</ele>
        <time>2017-08-26T09:05:29Z</time>
      </trkpt>
      <trkpt lat="45.92652" lon="4.73692">
        <ele>173</ele>
        <time>2017-08-26T09:05:30Z</time>
      </trkpt>
      <trkpt lat="45.92657" lon="4.73694">
        <ele>173</ele>
        <time>2017-08-26T09:05:31Z</time>
      </trkpt>
      <trkpt lat="45.92663" lon="4.73698">
        <ele>173</ele>
        <time>2017-08-26T09:05:32Z</time>
      </trkpt>
      <trkpt lat="45.92668" lon="4.73701">
        <ele>174</ele>
        <time>2017-08-26T09:05:33Z</time>
      </trkpt>
      <trkpt lat="45.92673" lon="4.73704">
        <ele>174</ele>
        <time>2017-08-26T09:05:34Z</time>
      </trkpt>
      <trkpt lat="45.92678" lon="4.73707">
        <ele>173</ele>
        <time>2017-08-26T09:05:35Z</time>
      </trkpt>
      <trkpt lat="45.92684" lon="4.73709">
        <ele>173</ele>
        <time>2017-08-26T09:05:36Z</time>
      </trkpt>
      <trkpt lat="45.9269" lon="4.7371">
        <ele>173</ele>
        <time>2017-08-26T09:05:37Z</time>
      </trkpt>
      <trkpt lat="45.92695" lon="4.73712">
        <ele>173</ele>
        <time>2017-08-26T09:05:38Z</time>
      </trkpt>
      <trkpt lat="45.927" lon="4.73713">
        <ele>173</ele>
        <time>2017-08-26T09:05:39Z</time>
      </trkpt>
      <trkpt lat="45.92705" lon="4.73714">
        <ele>173</ele>
        <time>2017-08-26T09:05:40Z</time>
      </trkpt>
      <trkpt lat="45.9271" lon="4.73715">
        <ele>173</ele>
        <time>2017-08-26T09:05:41Z</time>
      </trkpt>
      <trkpt lat="45.92715" lon="4.73716">
        <ele>173</ele>
        <time>2017-08-26T09:05:42Z</time>
      </trkpt>
      <trkpt lat="45.9272" lon="4.73717">
        <ele>173</ele>
        <time>2017-08-26T09:05:43Z</time>
      </trkpt>
      <trkpt lat="45.92729" lon="4.73719">
        <ele>173</ele>
        <time>2017-08-26T09:05:45Z</time>
      </trkpt>
      <trkpt lat="45.92733" lon="4.7372">
        <ele>173</ele>
        <time>2017-08-26T09:05:46Z</time>
      </trkpt>
      <trkpt lat="45.92741" lon="4.7372">
        <ele>173</ele>
        <time>2017-08-26T09:05:48Z</time>
      </trkpt>
      <trkpt lat="45.92746" lon="4.73721">
        <ele>173</ele>
        <time>2017-08-26T09:05:49Z</time>
      </trkpt>
      <trkpt lat="45.9275" lon="4.73722">
        <ele>172</ele>
        <time>2017-08-26T09:05:50Z</time>
      </trkpt>
      <trkpt lat="45.92755" lon="4.73724">
        <ele>172</ele>
        <time>2017-08-26T09:05:51Z</time>
      </trkpt>
      <trkpt lat="45.92759" lon="4.73725">
        <ele>172</ele>
        <time>2017-08-26T09:05:52Z</time>
      </trkpt>
      <trkpt lat="45.92764" lon="4.73728">
        <ele>172</ele>
        <time>2017-08-26T09:05:53Z</time>
      </trkpt>
      <trkpt lat="45.92771" lon="4.73731">
        <ele>172</ele>
        <time>2017-08-26T09:05:55Z</time>
      </trkpt>
      <trkpt lat="45.92775" lon="4.73732">
        <ele>172</ele>
        <time>2017-08-26T09:05:56Z</time>
      </trkpt>
      <trkpt lat="45.92777" lon="4.73742">
        <ele>172</ele>
        <time>2017-08-26T09:05:58Z</time>
      </trkpt>
      <trkpt lat="45.92778" lon="4.73748">
        <ele>172</ele>
        <time>2017-08-26T09:05:59Z</time>
      </trkpt>
      <trkpt lat="45.9278" lon="4.73753">
        <ele>173</ele>
        <time>2017-08-26T09:06:00Z</time>
      </trkpt>
      <trkpt lat="45.92785" lon="4.73758">
        <ele>173</ele>
        <time>2017-08-26T09:06:01Z</time>
      </trkpt>
      <trkpt lat="45.92789" lon="4.73761">
        <ele>173</ele>
        <time>2017-08-26T09:06:02Z</time>
      </trkpt>
      <trkpt lat="45.92794" lon="4.73763">
        <ele>173</ele>
        <time>2017-08-26T09:06:03Z</time>
      </trkpt>
      <trkpt lat="45.92799" lon="4.73765">
        <ele>173</ele>
        <time>2017-08-26T09:06:04Z</time>
      </trkpt>
      <trkpt lat="45.92803" lon="4.73767">
        <ele>173</ele>
        <time>2017-08-26T09:06:05Z</time>
      </trkpt>
      <trkpt lat="45.92808" lon="4.73769">
        <ele>173</ele>
        <time>2017-08-26T09:06:06Z</time>
      </trkpt>
      <trkpt lat="45.92812" lon="4.73773">
        <ele>173</ele>
        <time>2017-08-26T09:06:07Z</time>
      </trkpt>
      <trkpt lat="45.92817" lon="4.73775">
        <ele>173</ele>
        <time>2017-08-26T09:06:08Z</time>
      </trkpt>
      <trkpt lat="45.92822" lon="4.73779">
        <ele>173</ele>
        <time>2017-08-26T09:06:09Z</time>
      </trkpt>
      <trkpt lat="45.92827" lon="4.73782">
        <ele>173</ele>
        <time>2017-08-26T09:06:10Z</time>
      </trkpt>
      <trkpt lat="45.92831" lon="4.73786">
        <ele>173</ele>
        <time>2017-08-26T09:06:11Z</time>
      </trkpt>
      <trkpt lat="45.92836" lon="4.73789">
        <ele>173</ele>
        <time>2017-08-26T09:06:12Z</time>
      </trkpt>
      <trkpt lat="45.92841" lon="4.73792">
        <ele>173</ele>
        <time>2017-08-26T09:06:13Z</time>
      </trkpt>
      <trkpt lat="45.92845" lon="4.73796">
        <ele>173</ele>
        <time>2017-08-26T09:06:14Z</time>
      </trkpt>
      <trkpt lat="45.92849" lon="4.73801">
        <ele>173</ele>
        <time>2017-08-26T09:06:15Z</time>
      </trkpt>
      <trkpt lat="45.92851" lon="4.73808">
        <ele>173</ele>
        <time>2017-08-26T09:06:16Z</time>
      </trkpt>
      <trkpt lat="45.92854" lon="4.73814">
        <ele>173</ele>
        <time>2017-08-26T09:06:17Z</time>
      </trkpt>
      <trkpt lat="45.92856" lon="4.7382">
        <ele>173</ele>
        <time>2017-08-26T09:06:18Z</time>
      </trkpt>
      <trkpt lat="45.92858" lon="4.73827">
        <ele>173</ele>
        <time>2017-08-26T09:06:19Z</time>
      </trkpt>
      <trkpt lat="45.9286" lon="4.73833">
        <ele>173</ele>
        <time>2017-08-26T09:06:20Z</time>
      </trkpt>
      <trkpt lat="45.92862" lon="4.7384">
        <ele>173</ele>
        <time>2017-08-26T09:06:21Z</time>
      </trkpt>
      <trkpt lat="45.92864" lon="4.73848">
        <ele>173</ele>
        <time>2017-08-26T09:06:22Z</time>
      </trkpt>
      <trkpt lat="45.92866" lon="4.73856">
        <ele>173</ele>
        <time>2017-08-26T09:06:23Z</time>
      </trkpt>
      <trkpt lat="45.92869" lon="4.73863">
        <ele>173</ele>
        <time>2017-08-26T09:06:24Z</time>
      </trkpt>
      <trkpt lat="45.92871" lon="4.73871">
        <ele>173</ele>
        <time>2017-08-26T09:06:25Z</time>
      </trkpt>
      <trkpt lat="45.92874" lon="4.7388">
        <ele>173</ele>
        <time>2017-08-26T09:06:26Z</time>
      </trkpt>
      <trkpt lat="45.92875" lon="4.73888">
        <ele>173</ele>
        <time>2017-08-26T09:06:27Z</time>
      </trkpt>
      <trkpt lat="45.92877" lon="4.73897">
        <ele>173</ele>
        <time>2017-08-26T09:06:28Z</time>
      </trkpt>
      <trkpt lat="45.92878" lon="4.73904">
        <ele>173</ele>
        <time>2017-08-26T09:06:29Z</time>
      </trkpt>
      <trkpt lat="45.92879" lon="4.73912">
        <ele>173</ele>
        <time>2017-08-26T09:06:30Z</time>
      </trkpt>
      <trkpt lat="45.92879" lon="4.73919">
        <ele>172</ele>
        <time>2017-08-26T09:06:31Z</time>
      </trkpt>
      <trkpt lat="45.92879" lon="4.73927">
        <ele>172</ele>
        <time>2017-08-26T09:06:32Z</time>
      </trkpt>
      <trkpt lat="45.92879" lon="4.73933">
        <ele>172</ele>
        <time>2017-08-26T09:06:33Z</time>
      </trkpt>
      <trkpt lat="45.9288" lon="4.73939">
        <ele>172</ele>
        <time>2017-08-26T09:06:34Z</time>
      </trkpt>
      <trkpt lat="45.92881" lon="4.73946">
        <ele>172</ele>
        <time>2017-08-26T09:06:35Z</time>
      </trkpt>
      <trkpt lat="45.92882" lon="4.73952">
        <ele>172</ele>
        <time>2017-08-26T09:06:36Z</time>
      </trkpt>
      <trkpt lat="45.92883" lon="4.73959">
        <ele>172</ele>
        <time>2017-08-26T09:06:37Z</time>
      </trkpt>
      <trkpt lat="45.92884" lon="4.73966">
        <ele>172</ele>
        <time>2017-08-26T09:06:38Z</time>
      </trkpt>
      <trkpt lat="45.92883" lon="4.73973">
        <ele>172</ele>
        <time>2017-08-26T09:06:39Z</time>
      </trkpt>
      <trkpt lat="45.92883" lon="4.7398">
        <ele>172</ele>
        <time>2017-08-26T09:06:40Z</time>
      </trkpt>
      <trkpt lat="45.92881" lon="4.73986">
        <ele>172</ele>
        <time>2017-08-26T09:06:41Z</time>
      </trkpt>
      <trkpt lat="45.92879" lon="4.73998">
        <ele>172</ele>
        <time>2017-08-26T09:06:43Z</time>
      </trkpt>
      <trkpt lat="45.92878" lon="4.74004">
        <ele>172</ele>
        <time>2017-08-26T09:06:44Z</time>
      </trkpt>
      <trkpt lat="45.92878" lon="4.74011">
        <ele>172</ele>
        <time>2017-08-26T09:06:45Z</time>
      </trkpt>
      <trkpt lat="45.92878" lon="4.74018">
        <ele>172</ele>
        <time>2017-08-26T09:06:46Z</time>
      </trkpt>
      <trkpt lat="45.9288" lon="4.74025">
        <ele>172</ele>
        <time>2017-08-26T09:06:47Z</time>
      </trkpt>
      <trkpt lat="45.92883" lon="4.74031">
        <ele>172</ele>
        <time>2017-08-26T09:06:48Z</time>
      </trkpt>
      <trkpt lat="45.92887" lon="4.74036">
        <ele>172</ele>
        <time>2017-08-26T09:06:49Z</time>
      </trkpt>
      <trkpt lat="45.92892" lon="4.7404">
        <ele>172</ele>
        <time>2017-08-26T09:06:50Z</time>
      </trkpt>
      <trkpt lat="45.92897" lon="4.74044">
        <ele>172</ele>
        <time>2017-08-26T09:06:51Z</time>
      </trkpt>
      <trkpt lat="45.92901" lon="4.74048">
        <ele>172</ele>
        <time>2017-08-26T09:06:52Z</time>
      </trkpt>
      <trkpt lat="45.92904" lon="4.74053">
        <ele>172</ele>
        <time>2017-08-26T09:06:53Z</time>
      </trkpt>
      <trkpt lat="45.92908" lon="4.74059">
        <ele>172</ele>
        <time>2017-08-26T09:06:54Z</time>
      </trkpt>
      <trkpt lat="45.92911" lon="4.74064">
        <ele>173</ele>
        <time>2017-08-26T09:06:55Z</time>
      </trkpt>
      <trkpt lat="45.92912" lon="4.74071">
        <ele>173</ele>
        <time>2017-08-26T09:06:56Z</time>
      </trkpt>
      <trkpt lat="45.92911" lon="4.74083">
        <ele>173</ele>
        <time>2017-08-26T09:06:58Z</time>
      </trkpt>
      <trkpt lat="45.92909" lon="4.74088">
        <ele>173</ele>
        <time>2017-08-26T09:06:59Z</time>
      </trkpt>
      <trkpt lat="45.92905" lon="4.74097">
        <ele>172</ele>
        <time>2017-08-26T09:07:01Z</time>
      </trkpt>
      <trkpt lat="45.92902" lon="4.741">
        <ele>172</ele>
        <time>2017-08-26T09:07:02Z</time>
      </trkpt>
      <trkpt lat="45.92897" lon="4.74105">
        <ele>172</ele>
        <time>2017-08-26T09:07:04Z</time>
      </trkpt>
      <trkpt lat="45.92894" lon="4.74109">
        <ele>172</ele>
        <time>2017-08-26T09:07:05Z</time>
      </trkpt>
      <trkpt lat="45.9289" lon="4.74115">
        <ele>172</ele>
        <time>2017-08-26T09:07:07Z</time>
      </trkpt>
      <trkpt lat="45.92888" lon="4.74119">
        <ele>172</ele>
        <time>2017-08-26T09:07:08Z</time>
      </trkpt>
      <trkpt lat="45.92885" lon="4.74128">
        <ele>172</ele>
        <time>2017-08-26T09:07:10Z</time>
      </trkpt>
      <trkpt lat="45.92884" lon="4.74132">
        <ele>172</ele>
        <time>2017-08-26T09:07:11Z</time>
      </trkpt>
      <trkpt lat="45.92883" lon="4.74142">
        <ele>172</ele>
        <time>2017-08-26T09:07:13Z</time>
      </trkpt>
      <trkpt lat="45.92883" lon="4.74147">
        <ele>172</ele>
        <time>2017-08-26T09:07:14Z</time>
      </trkpt>
      <trkpt lat="45.92886" lon="4.74157">
        <ele>172</ele>
        <time>2017-08-26T09:07:16Z</time>
      </trkpt>
      <trkpt lat="45.92889" lon="4.74161">
        <ele>172</ele>
        <time>2017-08-26T09:07:17Z</time>
      </trkpt>
      <trkpt lat="45.92895" lon="4.74168">
        <ele>172</ele>
        <time>2017-08-26T09:07:19Z</time>
      </trkpt>
      <trkpt lat="45.92899" lon="4.7417">
        <ele>172</ele>
        <time>2017-08-26T09:07:20Z</time>
      </trkpt>
      <trkpt lat="45.92907" lon="4.74175">
        <ele>172</ele>
        <time>2017-08-26T09:07:22Z</time>
      </trkpt>
      <trkpt lat="45.9291" lon="4.74178">
        <ele>172</ele>
        <time>2017-08-26T09:07:23Z</time>
      </trkpt>
      <trkpt lat="45.92917" lon="4.74183">
        <ele>171</ele>
        <time>2017-08-26T09:07:25Z</time>
      </trkpt>
      <trkpt lat="45.92921" lon="4.74186">
        <ele>171</ele>
        <time>2017-08-26T09:07:26Z</time>
      </trkpt>
      <trkpt lat="45.92927" lon="4.74189">
        <ele>171</ele>
        <time>2017-08-26T09:07:28Z</time>
      </trkpt>
      <trkpt lat="45.9293" lon="4.7419">
        <ele>170</ele>
        <time>2017-08-26T09:07:29Z</time>
      </trkpt>
      <trkpt lat="45.92936" lon="4.74195">
        <ele>170</ele>
        <time>2017-08-26T09:07:31Z</time>
      </trkpt>
      <trkpt lat="45.92939" lon="4.74197">
        <ele>170</ele>
        <time>2017-08-26T09:07:32Z</time>
      </trkpt>
      <trkpt lat="45.92946" lon="4.74201">
        <ele>170</ele>
        <time>2017-08-26T09:07:34Z</time>
      </trkpt>
      <trkpt lat="45.92949" lon="4.74203">
        <ele>170</ele>
        <time>2017-08-26T09:07:35Z</time>
      </trkpt>
      <trkpt lat="45.92956" lon="4.74204">
        <ele>170</ele>
        <time>2017-08-26T09:07:37Z</time>
      </trkpt>
      <trkpt lat="45.92959" lon="4.74202">
        <ele>170</ele>
        <time>2017-08-26T09:07:38Z</time>
      </trkpt>
      <trkpt lat="45.92964" lon="4.74199">
        <ele>170</ele>
        <time>2017-08-26T09:07:39Z</time>
      </trkpt>
      <trkpt lat="45.92968" lon="4.74195">
        <ele>170</ele>
        <time>2017-08-26T09:07:40Z</time>
      </trkpt>
      <trkpt lat="45.92971" lon="4.7419">
        <ele>170</ele>
        <time>2017-08-26T09:07:41Z</time>
      </trkpt>
      <trkpt lat="45.92974" lon="4.74185">
        <ele>170</ele>
        <time>2017-08-26T09:07:42Z</time>
      </trkpt>
      <trkpt lat="45.92977" lon="4.74178">
        <ele>170</ele>
        <time>2017-08-26T09:07:43Z</time>
      </trkpt>
      <trkpt lat="45.92979" lon="4.74171">
        <ele>170</ele>
        <time>2017-08-26T09:07:44Z</time>
      </trkpt>
      <trkpt lat="45.92981" lon="4.74164">
        <ele>170</ele>
        <time>2017-08-26T09:07:45Z</time>
      </trkpt>
      <trkpt lat="45.92983" lon="4.74156">
        <ele>170</ele>
        <time>2017-08-26T09:07:46Z</time>
      </trkpt>
      <trkpt lat="45.92985" lon="4.74147">
        <ele>170</ele>
        <time>2017-08-26T09:07:47Z</time>
      </trkpt>
      <trkpt lat="45.92987" lon="4.74139">
        <ele>171</ele>
        <time>2017-08-26T09:07:48Z</time>
      </trkpt>
      <trkpt lat="45.9299" lon="4.74129">
        <ele>171</ele>
        <time>2017-08-26T09:07:49Z</time>
      </trkpt>
      <trkpt lat="45.92992" lon="4.74119">
        <ele>171</ele>
        <time>2017-08-26T09:07:50Z</time>
      </trkpt>
      <trkpt lat="45.92994" lon="4.74109">
        <ele>171</ele>
        <time>2017-08-26T09:07:51Z</time>
      </trkpt>
      <trkpt lat="45.92996" lon="4.74098">
        <ele>171</ele>
        <time>2017-08-26T09:07:52Z</time>
      </trkpt>
      <trkpt lat="45.92997" lon="4.74087">
        <ele>171</ele>
        <time>2017-08-26T09:07:53Z</time>
      </trkpt>
      <trkpt lat="45.92998" lon="4.74075">
        <ele>171</ele>
        <time>2017-08-26T09:07:54Z</time>
      </trkpt>
      <trkpt lat="45.92998" lon="4.74064">
        <ele>171</ele>
        <time>2017-08-26T09:07:55Z</time>
      </trkpt>
      <trkpt lat="45.92998" lon="4.74054">
        <ele>171</ele>
        <time>2017-08-26T09:07:56Z</time>
      </trkpt>
      <trkpt lat="45.92998" lon="4.74044">
        <ele>171</ele>
        <time>2017-08-26T09:07:57Z</time>
      </trkpt>
      <trkpt lat="45.92998" lon="4.74034">
        <ele>171</ele>
        <time>2017-08-26T09:07:58Z</time>
      </trkpt>
      <trkpt lat="45.93" lon="4.74025">
        <ele>171</ele>
        <time>2017-08-26T09:07:59Z</time>
      </trkpt>
      <trkpt lat="45.93002" lon="4.74016">
        <ele>170</ele>
        <time>2017-08-26T09:08:00Z</time>
      </trkpt>
      <trkpt lat="45.93005" lon="4.74009">
        <ele>170</ele>
        <time>2017-08-26T09:08:01Z</time>
      </trkpt>
      <trkpt lat="45.93009" lon="4.74002">
        <ele>170</ele>
        <time>2017-08-26T09:08:02Z</time>
      </trkpt>
      <trkpt lat="45.93014" lon="4.73998">
        <ele>170</ele>
        <time>2017-08-26T09:08:03Z</time>
      </trkpt>
      <trkpt lat="45.93019" lon="4.73995">
        <ele>169</ele>
        <time>2017-08-26T09:08:04Z</time>
      </trkpt>
      <trkpt lat="45.93026" lon="4.73995">
        <ele>169</ele>
        <time>2017-08-26T09:08:05Z</time>
      </trkpt>
      <trkpt lat="45.93032" lon="4.73996">
        <ele>169</ele>
        <time>2017-08-26T09:08:06Z</time>
      </trkpt>
      <trkpt lat="45.93037" lon="4.73998">
        <ele>169</ele>
        <time>2017-08-26T09:08:07Z</time>
      </trkpt>
      <trkpt lat="45.93042" lon="4.74001">
        <ele>169</ele>
        <time>2017-08-26T09:08:08Z</time>
      </trkpt>
      <trkpt lat="45.93047" lon="4.74003">
        <ele>169</ele>
        <time>2017-08-26T09:08:09Z</time>
      </trkpt>
      <trkpt lat="45.93052" lon="4.74006">
        <ele>169</ele>
        <time>2017-08-26T09:08:10Z</time>
      </trkpt>
      <trkpt lat="45.93057" lon="4.74007">
        <ele>169</ele>
        <time>2017-08-26T09:08:11Z</time>
      </trkpt>
      <trkpt lat="45.93061" lon="4.7401">
        <ele>169</ele>
        <time>2017-08-26T09:08:12Z</time>
      </trkpt>
      <trkpt lat="45.93066" lon="4.74012">
        <ele>169</ele>
        <time>2017-08-26T09:08:13Z</time>
      </trkpt>
      <trkpt lat="45.93071" lon="4.74015">
        <ele>169</ele>
        <time>2017-08-26T09:08:14Z</time>
      </trkpt>
      <trkpt lat="45.93077" lon="4.74016">
        <ele>169</ele>
        <time>2017-08-26T09:08:15Z</time>
      </trkpt>
      <trkpt lat="45.93082" lon="4.74017">
        <ele>169</ele>
        <time>2017-08-26T09:08:16Z</time>
      </trkpt>
      <trkpt lat="45.93087" lon="4.74018">
        <ele>168</ele>
        <time>2017-08-26T09:08:17Z</time>
      </trkpt>
      <trkpt lat="45.93092" lon="4.74019">
        <ele>168</ele>
        <time>2017-08-26T09:08:18Z</time>
      </trkpt>
      <trkpt lat="45.93097" lon="4.74021">
        <ele>168</ele>
        <time>2017-08-26T09:08:19Z</time>
      </trkpt>
      <trkpt lat="45.93102" lon="4.74022">
        <ele>168</ele>
        <time>2017-08-26T09:08:20Z</time>
      </trkpt>
      <trkpt lat="45.93106" lon="4.74023">
        <ele>168</ele>
        <time>2017-08-26T09:08:21Z</time>
      </trkpt>
      <trkpt lat="45.93111" lon="4.74024">
        <ele>168</ele>
        <time>2017-08-26T09:08:22Z</time>
      </trkpt>
      <trkpt lat="45.93116" lon="4.74026">
        <ele>168</ele>
        <time>2017-08-26T09:08:23Z</time>
      </trkpt>
      <trkpt lat="45.9312" lon="4.74029">
        <ele>168</ele>
        <time>2017-08-26T09:08:24Z</time>
      </trkpt>
      <trkpt lat="45.93128" lon="4.74032">
        <ele>168</ele>
        <time>2017-08-26T09:08:25Z</time>
      </trkpt>
      <trkpt lat="45.93132" lon="4.74034">
        <ele>168</ele>
        <time>2017-08-26T09:08:26Z</time>
      </trkpt>
      <trkpt lat="45.93136" lon="4.74038">
        <ele>168</ele>
        <time>2017-08-26T09:08:27Z</time>
      </trkpt>
      <trkpt lat="45.9314" lon="4.74042">
        <ele>168</ele>
        <time>2017-08-26T09:08:28Z</time>
      </trkpt>
      <trkpt lat="45.93144" lon="4.74046">
        <ele>168</ele>
        <time>2017-08-26T09:08:29Z</time>
      </trkpt>
      <trkpt lat="45.93148" lon="4.74049">
        <ele>168</ele>
        <time>2017-08-26T09:08:30Z</time>
      </trkpt>
      <trkpt lat="45.93155" lon="4.74056">
        <ele>168</ele>
        <time>2017-08-26T09:08:32Z</time>
      </trkpt>
      <trkpt lat="45.93159" lon="4.74059">
        <ele>168</ele>
        <time>2017-08-26T09:08:33Z</time>
      </trkpt>
      <trkpt lat="45.93163" lon="4.74063">
        <ele>168</ele>
        <time>2017-08-26T09:08:34Z</time>
      </trkpt>
      <trkpt lat="45.93167" lon="4.74066">
        <ele>168</ele>
        <time>2017-08-26T09:08:35Z</time>
      </trkpt>
      <trkpt lat="45.93172" lon="4.7407">
        <ele>168</ele>
        <time>2017-08-26T09:08:36Z</time>
      </trkpt>
      <trkpt lat="45.93177" lon="4.74074">
        <ele>168</ele>
        <time>2017-08-26T09:08:37Z</time>
      </trkpt>
      <trkpt lat="45.93181" lon="4.74079">
        <ele>168</ele>
        <time>2017-08-26T09:08:38Z</time>
      </trkpt>
      <trkpt lat="45.93186" lon="4.74083">
        <ele>168</ele>
        <time>2017-08-26T09:08:39Z</time>
      </trkpt>
      <trkpt lat="45.9319" lon="4.74088">
        <ele>168</ele>
        <time>2017-08-26T09:08:40Z</time>
      </trkpt>
      <trkpt lat="45.93195" lon="4.74092">
        <ele>167</ele>
        <time>2017-08-26T09:08:41Z</time>
      </trkpt>
      <trkpt lat="45.93199" lon="4.74096">
        <ele>167</ele>
        <time>2017-08-26T09:08:42Z</time>
      </trkpt>
      <trkpt lat="45.93204" lon="4.74101">
        <ele>167</ele>
        <time>2017-08-26T09:08:43Z</time>
      </trkpt>
      <trkpt lat="45.93208" lon="4.74105">
        <ele>167</ele>
        <time>2017-08-26T09:08:44Z</time>
      </trkpt>
      <trkpt lat="45.93213" lon="4.74108">
        <ele>167</ele>
        <time>2017-08-26T09:08:45Z</time>
      </trkpt>
      <trkpt lat="45.93217" lon="4.74111">
        <ele>167</ele>
        <time>2017-08-26T09:08:46Z</time>
      </trkpt>
      <trkpt lat="45.93222" lon="4.74113">
        <ele>167</ele>
        <time>2017-08-26T09:08:47Z</time>
      </trkpt>
      <trkpt lat="45.93231" lon="4.74114">
        <ele>167</ele>
        <time>2017-08-26T09:08:49Z</time>
      </trkpt>
      <trkpt lat="45.93235" lon="4.74113">
        <ele>167</ele>
        <time>2017-08-26T09:08:50Z</time>
      </trkpt>
      <trkpt lat="45.93239" lon="4.74111">
        <ele>167</ele>
        <time>2017-08-26T09:08:51Z</time>
      </trkpt>
      <trkpt lat="45.93242" lon="4.74106">
        <ele>167</ele>
        <time>2017-08-26T09:08:52Z</time>
      </trkpt>
      <trkpt lat="45.93246" lon="4.74101">
        <ele>167</ele>
        <time>2017-08-26T09:08:53Z</time>
      </trkpt>
      <trkpt lat="45.93249" lon="4.74095">
        <ele>167</ele>
        <time>2017-08-26T09:08:54Z</time>
      </trkpt>
      <trkpt lat="45.93252" lon="4.74089">
        <ele>167</ele>
        <time>2017-08-26T09:08:55Z</time>
      </trkpt>
      <trkpt lat="45.93255" lon="4.74084">
        <ele>167</ele>
        <time>2017-08-26T09:08:56Z</time>
      </trkpt>
      <trkpt lat="45.93259" lon="4.74078">
        <ele>167</ele>
        <time>2017-08-26T09:08:57Z</time>
      </trkpt>
      <trkpt lat="45.93262" lon="4.74072">
        <ele>167</ele>
        <time>2017-08-26T09:08:58Z</time>
      </trkpt>
      <trkpt lat="45.93265" lon="4.74066">
        <ele>167</ele>
        <time>2017-08-26T09:08:59Z</time>
      </trkpt>
      <trkpt lat="45.93267" lon="4.74061">
        <ele>168</ele>
        <time>2017-08-26T09:09:00Z</time>
      </trkpt>
      <trkpt lat="45.93272" lon="4.7405">
        <ele>168</ele>
        <time>2017-08-26T09:09:02Z</time>
      </trkpt>
      <trkpt lat="45.93274" lon="4.74045">
        <ele>168</ele>
        <time>2017-08-26T09:09:03Z</time>
      </trkpt>
      <trkpt lat="45.93276" lon="4.7404">
        <ele>168</ele>
        <time>2017-08-26T09:09:04Z</time>
      </trkpt>
      <trkpt lat="45.93279" lon="4.74035">
        <ele>168</ele>
        <time>2017-08-26T09:09:05Z</time>
      </trkpt>
      <trkpt lat="45.93283" lon="4.7403">
        <ele>168</ele>
        <time>2017-08-26T09:09:06Z</time>
      </trkpt>
      <trkpt lat="45.93285" lon="4.74024">
        <ele>168</ele>
        <time>2017-08-26T09:09:07Z</time>
      </trkpt>
      <trkpt lat="45.93289" lon="4.74013">
        <ele>168</ele>
        <time>2017-08-26T09:09:09Z</time>
      </trkpt>
      <trkpt lat="45.93291" lon="4.74009">
        <ele>168</ele>
        <time>2017-08-26T09:09:10Z</time>
      </trkpt>
      <trkpt lat="45.93297" lon="4.73999">
        <ele>168</ele>
        <time>2017-08-26T09:09:12Z</time>
      </trkpt>
      <trkpt lat="45.93299" lon="4.73995">
        <ele>168</ele>
        <time>2017-08-26T09:09:13Z</time>
      </trkpt>
      <trkpt lat="45.93302" lon="4.7399">
        <ele>168</ele>
        <time>2017-08-26T09:09:14Z</time>
      </trkpt>
      <trkpt lat="45.93305" lon="4.73984">
        <ele>168</ele>
        <time>2017-08-26T09:09:15Z</time>
      </trkpt>
      <trkpt lat="45.93308" lon="4.73978">
        <ele>168</ele>
        <time>2017-08-26T09:09:16Z</time>
      </trkpt>
      <trkpt lat="45.93311" lon="4.73972">
        <ele>168</ele>
        <time>2017-08-26T09:09:17Z</time>
      </trkpt>
      <trkpt lat="45.93314" lon="4.73966">
        <ele>168</ele>
        <time>2017-08-26T09:09:18Z</time>
      </trkpt>
      <trkpt lat="45.93317" lon="4.7396">
        <ele>168</ele>
        <time>2017-08-26T09:09:19Z</time>
      </trkpt>
      <trkpt lat="45.9332" lon="4.73955">
        <ele>168</ele>
        <time>2017-08-26T09:09:20Z</time>
      </trkpt>
      <trkpt lat="45.93323" lon="4.73949">
        <ele>168</ele>
        <time>2017-08-26T09:09:21Z</time>
      </trkpt>
      <trkpt lat="45.93329" lon="4.7394">
        <ele>168</ele>
        <time>2017-08-26T09:09:23Z</time>
      </trkpt>
      <trkpt lat="45.93331" lon="4.73935">
        <ele>168</ele>
        <time>2017-08-26T09:09:24Z</time>
      </trkpt>
      <trkpt lat="45.93336" lon="4.73927">
        <ele>168</ele>
        <time>2017-08-26T09:09:26Z</time>
      </trkpt>
      <trkpt lat="45.93339" lon="4.73922">
        <ele>168</ele>
        <time>2017-08-26T09:09:27Z</time>
      </trkpt>
      <trkpt lat="45.93345" lon="4.73913">
        <ele>168</ele>
        <time>2017-08-26T09:09:29Z</time>
      </trkpt>
      <trkpt lat="45.93348" lon="4.73908">
        <ele>168</ele>
        <time>2017-08-26T09:09:30Z</time>
      </trkpt>
      <trkpt lat="45.93351" lon="4.73902">
        <ele>168</ele>
        <time>2017-08-26T09:09:31Z</time>
      </trkpt>
      <trkpt lat="45.93354" lon="4.73897">
        <ele>168</ele>
        <time>2017-08-26T09:09:32Z</time>
      </trkpt>
      <trkpt lat="45.93358" lon="4.73892">
        <ele>168</ele>
        <time>2017-08-26T09:09:33Z</time>
      </trkpt>
      <trkpt lat="45.93361" lon="4.73888">
        <ele>168</ele>
        <time>2017-08-26T09:09:34Z</time>
      </trkpt>
      <trkpt lat="45.93368" lon="4.73882">
        <ele>168</ele>
        <time>2017-08-26T09:09:36Z</time>
      </trkpt>
      <trkpt lat="45.93371" lon="4.73878">
        <ele>168</ele>
        <time>2017-08-26T09:09:37Z</time>
      </trkpt>
      <trkpt lat="45.93377" lon="4.73872">
        <ele>169</ele>
        <time>2017-08-26T09:09:39Z</time>
      </trkpt>
      <trkpt lat="45.9338" lon="4.7387">
        <ele>169</ele>
        <time>2017-08-26T09:09:40Z</time>
      </trkpt>
      <trkpt lat="45.93388" lon="4.73866">
        <ele>169</ele>
        <time>2017-08-26T09:09:42Z</time>
      </trkpt>
      <trkpt lat="45.93392" lon="4.73864">
        <ele>169</ele>
        <time>2017-08-26T09:09:43Z</time>
      </trkpt>
      <trkpt lat="45.934" lon="4.73858">
        <ele>169</ele>
        <time>2017-08-26T09:09:45Z</time>
      </trkpt>
      <trkpt lat="45.93404" lon="4.73855">
        <ele>169</ele>
        <time>2017-08-26T09:09:46Z</time>
      </trkpt>
      <trkpt lat="45.93408" lon="4.73852">
        <ele>169</ele>
        <time>2017-08-26T09:09:47Z</time>
      </trkpt>
      <trkpt lat="45.93412" lon="4.73849">
        <ele>169</ele>
        <time>2017-08-26T09:09:48Z</time>
      </trkpt>
      <trkpt lat="45.93416" lon="4.73847">
        <ele>169</ele>
        <time>2017-08-26T09:09:49Z</time>
      </trkpt>
      <trkpt lat="45.93421" lon="4.73844">
        <ele>169</ele>
        <time>2017-08-26T09:09:50Z</time>
      </trkpt>
      <trkpt lat="45.93428" lon="4.7384">
        <ele>169</ele>
        <time>2017-08-26T09:09:52Z</time>
      </trkpt>
      <trkpt lat="45.93432" lon="4.73838">
        <ele>169</ele>
        <time>2017-08-26T09:09:53Z</time>
      </trkpt>
      <trkpt lat="45.93438" lon="4.73835">
        <ele>169</ele>
        <time>2017-08-26T09:09:55Z</time>
      </trkpt>
      <trkpt lat="45.93442" lon="4.73833">
        <ele>169</ele>
        <time>2017-08-26T09:09:56Z</time>
      </trkpt>
      <trkpt lat="45.9345" lon="4.7383">
        <ele>169</ele>
        <time>2017-08-26T09:09:58Z</time>
      </trkpt>
      <trkpt lat="45.93454" lon="4.73828">
        <ele>169</ele>
        <time>2017-08-26T09:09:59Z</time>
      </trkpt>
      <trkpt lat="45.93459" lon="4.73826">
        <ele>169</ele>
        <time>2017-08-26T09:10:00Z</time>
      </trkpt>
      <trkpt lat="45.93463" lon="4.73824">
        <ele>169</ele>
        <time>2017-08-26T09:10:01Z</time>
      </trkpt>
      <trkpt lat="45.93472" lon="4.73822">
        <ele>169</ele>
        <time>2017-08-26T09:10:03Z</time>
      </trkpt>
      <trkpt lat="45.93475" lon="4.7382">
        <ele>169</ele>
        <time>2017-08-26T09:10:04Z</time>
      </trkpt>
      <trkpt lat="45.93483" lon="4.73816">
        <ele>169</ele>
        <time>2017-08-26T09:10:06Z</time>
      </trkpt>
      <trkpt lat="45.93486" lon="4.73814">
        <ele>169</ele>
        <time>2017-08-26T09:10:07Z</time>
      </trkpt>
      <trkpt lat="45.93494" lon="4.73808">
        <ele>169</ele>
        <time>2017-08-26T09:10:09Z</time>
      </trkpt>
      <trkpt lat="45.93498" lon="4.73805">
        <ele>169</ele>
        <time>2017-08-26T09:10:10Z</time>
      </trkpt>
      <trkpt lat="45.93502" lon="4.73802">
        <ele>169</ele>
        <time>2017-08-26T09:10:11Z</time>
      </trkpt>
      <trkpt lat="45.93506" lon="4.73799">
        <ele>169</ele>
        <time>2017-08-26T09:10:12Z</time>
      </trkpt>
      <trkpt lat="45.9351" lon="4.73795">
        <ele>169</ele>
        <time>2017-08-26T09:10:13Z</time>
      </trkpt>
      <trkpt lat="45.93514" lon="4.73791">
        <ele>169</ele>
        <time>2017-08-26T09:10:14Z</time>
      </trkpt>
      <trkpt lat="45.9352" lon="4.73784">
        <ele>169</ele>
        <time>2017-08-26T09:10:16Z</time>
      </trkpt>
      <trkpt lat="45.93523" lon="4.73781">
        <ele>169</ele>
        <time>2017-08-26T09:10:17Z</time>
      </trkpt>
      <trkpt lat="45.9353" lon="4.73773">
        <ele>169</ele>
        <time>2017-08-26T09:10:19Z</time>
      </trkpt>
      <trkpt lat="45.93533" lon="4.7377">
        <ele>169</ele>
        <time>2017-08-26T09:10:20Z</time>
      </trkpt>
      <trkpt lat="45.93537" lon="4.73765">
        <ele>169</ele>
        <time>2017-08-26T09:10:21Z</time>
      </trkpt>
      <trkpt lat="45.93541" lon="4.73761">
        <ele>169</ele>
        <time>2017-08-26T09:10:22Z</time>
      </trkpt>
      <trkpt lat="45.93545" lon="4.73757">
        <ele>169</ele>
        <time>2017-08-26T09:10:23Z</time>
      </trkpt>
      <trkpt lat="45.93549" lon="4.73753">
        <ele>169</ele>
        <time>2017-08-26T09:10:24Z</time>
      </trkpt>
      <trkpt lat="45.93553" lon="4.73749">
        <ele>169</ele>
        <time>2017-08-26T09:10:25Z</time>
      </trkpt>
      <trkpt lat="45.93556" lon="4.73745">
        <ele>169</ele>
        <time>2017-08-26T09:10:26Z</time>
      </trkpt>
      <trkpt lat="45.93563" lon="4.73738">
        <ele>169</ele>
        <time>2017-08-26T09:10:28Z</time>
      </trkpt>
      <trkpt lat="45.93566" lon="4.73734">
        <ele>169</ele>
        <time>2017-08-26T09:10:29Z</time>
      </trkpt>
      <trkpt lat="45.93573" lon="4.73727">
        <ele>169</ele>
        <time>2017-08-26T09:10:31Z</time>
      </trkpt>
      <trkpt lat="45.93577" lon="4.73723">
        <ele>169</ele>
        <time>2017-08-26T09:10:32Z</time>
      </trkpt>
      <trkpt lat="45.93581" lon="4.73719">
        <ele>169</ele>
        <time>2017-08-26T09:10:33Z</time>
      </trkpt>
      <trkpt lat="45.93584" lon="4.73713">
        <ele>169</ele>
        <time>2017-08-26T09:10:34Z</time>
      </trkpt>
      <trkpt lat="45.93586" lon="4.73707">
        <ele>169</ele>
        <time>2017-08-26T09:10:35Z</time>
      </trkpt>
      <trkpt lat="45.93588" lon="4.737">
        <ele>169</ele>
        <time>2017-08-26T09:10:36Z</time>
      </trkpt>
      <trkpt lat="45.93589" lon="4.73693">
        <ele>169</ele>
        <time>2017-08-26T09:10:37Z</time>
      </trkpt>
      <trkpt lat="45.93589" lon="4.73686">
        <ele>169</ele>
        <time>2017-08-26T09:10:38Z</time>
      </trkpt>
      <trkpt lat="45.93588" lon="4.73674">
        <ele>168</ele>
        <time>2017-08-26T09:10:40Z</time>
      </trkpt>
      <trkpt lat="45.93587" lon="4.73668">
        <ele>168</ele>
        <time>2017-08-26T09:10:41Z</time>
      </trkpt>
      <trkpt lat="45.93586" lon="4.73657">
        <ele>168</ele>
        <time>2017-08-26T09:10:43Z</time>
      </trkpt>
      <trkpt lat="45.93586" lon="4.73651">
        <ele>168</ele>
        <time>2017-08-26T09:10:44Z</time>
      </trkpt>
      <trkpt lat="45.93585" lon="4.73645">
        <ele>168</ele>
        <time>2017-08-26T09:10:45Z</time>
      </trkpt>
      <trkpt lat="45.93585" lon="4.73638">
        <ele>168</ele>
        <time>2017-08-26T09:10:46Z</time>
      </trkpt>
      <trkpt lat="45.93584" lon="4.73631">
        <ele>168</ele>
        <time>2017-08-26T09:10:47Z</time>
      </trkpt>
      <trkpt lat="45.93583" lon="4.73625">
        <ele>168</ele>
        <time>2017-08-26T09:10:48Z</time>
      </trkpt>
      <trkpt lat="45.93583" lon="4.73618">
        <ele>168</ele>
        <time>2017-08-26T09:10:49Z</time>
      </trkpt>
      <trkpt lat="45.93582" lon="4.7361">
        <ele>168</ele>
        <time>2017-08-26T09:10:50Z</time>
      </trkpt>
      <trkpt lat="45.93581" lon="4.73603">
        <ele>168</ele>
        <time>2017-08-26T09:10:51Z</time>
      </trkpt>
      <trkpt lat="45.9358" lon="4.73595">
        <ele>168</ele>
        <time>2017-08-26T09:10:52Z</time>
      </trkpt>
      <trkpt lat="45.93579" lon="4.73588">
        <ele>168</ele>
        <time>2017-08-26T09:10:53Z</time>
      </trkpt>
      <trkpt lat="45.93579" lon="4.73581">
        <ele>168</ele>
        <time>2017-08-26T09:10:54Z</time>
      </trkpt>
      <trkpt lat="45.93578" lon="4.73575">
        <ele>168</ele>
        <time>2017-08-26T09:10:55Z</time>
      </trkpt>
      <trkpt lat="45.93578" lon="4.73568">
        <ele>168</ele>
        <time>2017-08-26T09:10:56Z</time>
      </trkpt>
      <trkpt lat="45.93576" lon="4.73556">
        <ele>168</ele>
        <time>2017-08-26T09:10:58Z</time>
      </trkpt>
      <trkpt lat="45.93575" lon="4.73551">
        <ele>168</ele>
        <time>2017-08-26T09:10:59Z</time>
      </trkpt>
      <trkpt lat="45.93573" lon="4.7354">
        <ele>169</ele>
        <time>2017-08-26T09:11:01Z</time>
      </trkpt>
      <trkpt lat="45.93573" lon="4.73535">
        <ele>169</ele>
        <time>2017-08-26T09:11:02Z</time>
      </trkpt>
      <trkpt lat="45.93571" lon="4.73522">
        <ele>168</ele>
        <time>2017-08-26T09:11:04Z</time>
      </trkpt>
      <trkpt lat="45.9357" lon="4.73516">
        <ele>168</ele>
        <time>2017-08-26T09:11:05Z</time>
      </trkpt>
      <trkpt lat="45.93569" lon="4.73509">
        <ele>168</ele>
        <time>2017-08-26T09:11:06Z</time>
      </trkpt>
      <trkpt lat="45.93567" lon="4.73502">
        <ele>168</ele>
        <time>2017-08-26T09:11:07Z</time>
      </trkpt>
      <trkpt lat="45.93565" lon="4.73496">
        <ele>169</ele>
        <time>2017-08-26T09:11:08Z</time>
      </trkpt>
      <trkpt lat="45.93563" lon="4.73491">
        <ele>169</ele>
        <time>2017-08-26T09:11:09Z</time>
      </trkpt>
      <trkpt lat="45.93559" lon="4.7348">
        <ele>169</ele>
        <time>2017-08-26T09:11:11Z</time>
      </trkpt>
      <trkpt lat="45.93558" lon="4.73475">
        <ele>169</ele>
        <time>2017-08-26T09:11:12Z</time>
      </trkpt>
      <trkpt lat="45.93555" lon="4.73465">
        <ele>169</ele>
        <time>2017-08-26T09:11:14Z</time>
      </trkpt>
      <trkpt lat="45.93553" lon="4.7346">
        <ele>169</ele>
        <time>2017-08-26T09:11:15Z</time>
      </trkpt>
      <trkpt lat="45.93551" lon="4.73453">
        <ele>169</ele>
        <time>2017-08-26T09:11:16Z</time>
      </trkpt>
      <trkpt lat="45.93549" lon="4.73447">
        <ele>169</ele>
        <time>2017-08-26T09:11:17Z</time>
      </trkpt>
      <trkpt lat="45.93547" lon="4.73441">
        <ele>169</ele>
        <time>2017-08-26T09:11:18Z</time>
      </trkpt>
      <trkpt lat="45.93546" lon="4.73434">
        <ele>169</ele>
        <time>2017-08-26T09:11:19Z</time>
      </trkpt>
      <trkpt lat="45.93545" lon="4.73427">
        <ele>169</ele>
        <time>2017-08-26T09:11:20Z</time>
      </trkpt>
      <trkpt lat="45.93543" lon="4.73421">
        <ele>169</ele>
        <time>2017-08-26T09:11:21Z</time>
      </trkpt>
      <trkpt lat="45.93541" lon="4.73409">
        <ele>169</ele>
        <time>2017-08-26T09:11:23Z</time>
      </trkpt>
      <trkpt lat="45.9354" lon="4.73404">
        <ele>169</ele>
        <time>2017-08-26T09:11:24Z</time>
      </trkpt>
      <trkpt lat="45.93538" lon="4.73394">
        <ele>169</ele>
        <time>2017-08-26T09:11:26Z</time>
      </trkpt>
      <trkpt lat="45.93537" lon="4.73389">
        <ele>169</ele>
        <time>2017-08-26T09:11:27Z</time>
      </trkpt>
      <trkpt lat="45.93535" lon="4.73377">
        <ele>169</ele>
        <time>2017-08-26T09:11:29Z</time>
      </trkpt>
      <trkpt lat="45.93534" lon="4.73371">
        <ele>169</ele>
        <time>2017-08-26T09:11:30Z</time>
      </trkpt>
      <trkpt lat="45.93533" lon="4.73364">
        <ele>169</ele>
        <time>2017-08-26T09:11:31Z</time>
      </trkpt>
      <trkpt lat="45.93532" lon="4.73357">
        <ele>169</ele>
        <time>2017-08-26T09:11:32Z</time>
      </trkpt>
      <trkpt lat="45.93531" lon="4.7335">
        <ele>169</ele>
        <time>2017-08-26T09:11:33Z</time>
      </trkpt>
      <trkpt lat="45.9353" lon="4.73343">
        <ele>169</ele>
        <time>2017-08-26T09:11:34Z</time>
      </trkpt>
      <trkpt lat="45.93529" lon="4.73337">
        <ele>169</ele>
        <time>2017-08-26T09:11:35Z</time>
      </trkpt>
      <trkpt lat="45.93527" lon="4.73331">
        <ele>169</ele>
        <time>2017-08-26T09:11:36Z</time>
      </trkpt>
      <trkpt lat="45.93524" lon="4.73319">
        <ele>169</ele>
        <time>2017-08-26T09:11:38Z</time>
      </trkpt>
      <trkpt lat="45.93523" lon="4.73314">
        <ele>169</ele>
        <time>2017-08-26T09:11:39Z</time>
      </trkpt>
      <trkpt lat="45.93521" lon="4.73303">
        <ele>169</ele>
        <time>2017-08-26T09:11:41Z</time>
      </trkpt>
      <trkpt lat="45.9352" lon="4.73297">
        <ele>169</ele>
        <time>2017-08-26T09:11:42Z</time>
      </trkpt>
      <trkpt lat="45.93519" lon="4.73291">
        <ele>169</ele>
        <time>2017-08-26T09:11:43Z</time>
      </trkpt>
      <trkpt lat="45.93518" lon="4.73284">
        <ele>169</ele>
        <time>2017-08-26T09:11:44Z</time>
      </trkpt>
      <trkpt lat="45.93516" lon="4.73277">
        <ele>169</ele>
        <time>2017-08-26T09:11:45Z</time>
      </trkpt>
      <trkpt lat="45.93515" lon="4.7327">
        <ele>169</ele>
        <time>2017-08-26T09:11:46Z</time>
      </trkpt>
      <trkpt lat="45.93513" lon="4.73258">
        <ele>169</ele>
        <time>2017-08-26T09:11:48Z</time>
      </trkpt>
      <trkpt lat="45.93512" lon="4.73252">
        <ele>169</ele>
        <time>2017-08-26T09:11:49Z</time>
      </trkpt>
      <trkpt lat="45.9351" lon="4.73242">
        <ele>169</ele>
        <time>2017-08-26T09:11:51Z</time>
      </trkpt>
      <trkpt lat="45.93509" lon="4.73236">
        <ele>169</ele>
        <time>2017-08-26T09:11:52Z</time>
      </trkpt>
      <trkpt lat="45.93508" lon="4.7323">
        <ele>169</ele>
        <time>2017-08-26T09:11:53Z</time>
      </trkpt>
      <trkpt lat="45.93507" lon="4.73223">
        <ele>169</ele>
        <time>2017-08-26T09:11:54Z</time>
      </trkpt>
      <trkpt lat="45.93505" lon="4.73216">
        <ele>169</ele>
        <time>2017-08-26T09:11:55Z</time>
      </trkpt>
      <trkpt lat="45.93504" lon="4.73209">
        <ele>169</ele>
        <time>2017-08-26T09:11:56Z</time>
      </trkpt>
      <trkpt lat="45.93503" lon="4.73202">
        <ele>169</ele>
        <time>2017-08-26T09:11:57Z</time>
      </trkpt>
      <trkpt lat="45.93501" lon="4.73195">
        <ele>169</ele>
        <time>2017-08-26T09:11:58Z</time>
      </trkpt>
      <trkpt lat="45.93497" lon="4.73184">
        <ele>169</ele>
        <time>2017-08-26T09:12:00Z</time>
      </trkpt>
      <trkpt lat="45.93495" lon="4.73179">
        <ele>169</ele>
        <time>2017-08-26T09:12:01Z</time>
      </trkpt>
      <trkpt lat="45.93492" lon="4.73169">
        <ele>170</ele>
        <time>2017-08-26T09:12:03Z</time>
      </trkpt>
      <trkpt lat="45.93491" lon="4.73164">
        <ele>170</ele>
        <time>2017-08-26T09:12:04Z</time>
      </trkpt>
      <trkpt lat="45.93487" lon="4.73154">
        <ele>170</ele>
        <time>2017-08-26T09:12:06Z</time>
      </trkpt>
      <trkpt lat="45.93486" lon="4.73148">
        <ele>170</ele>
        <time>2017-08-26T09:12:07Z</time>
      </trkpt>
      <trkpt lat="45.93485" lon="4.73141">
        <ele>170</ele>
        <time>2017-08-26T09:12:08Z</time>
      </trkpt>
      <trkpt lat="45.93484" lon="4.73134">
        <ele>170</ele>
        <time>2017-08-26T09:12:09Z</time>
      </trkpt>
      <trkpt lat="45.93484" lon="4.73127">
        <ele>170</ele>
        <time>2017-08-26T09:12:10Z</time>
      </trkpt>
      <trkpt lat="45.93484" lon="4.73121">
        <ele>170</ele>
        <time>2017-08-26T09:12:11Z</time>
      </trkpt>
      <trkpt lat="45.93483" lon="4.73109">
        <ele>170</ele>
        <time>2017-08-26T09:12:13Z</time>
      </trkpt>
      <trkpt lat="45.93483" lon="4.73103">
        <ele>170</ele>
        <time>2017-08-26T09:12:14Z</time>
      </trkpt>
      <trkpt lat="45.93484" lon="4.73097">
        <ele>170</ele>
        <time>2017-08-26T09:12:15Z</time>
      </trkpt>
      <trkpt lat="45.93484" lon="4.7309">
        <ele>170</ele>
        <time>2017-08-26T09:12:16Z</time>
      </trkpt>
      <trkpt lat="45.93485" lon="4.73082">
        <ele>170</ele>
        <time>2017-08-26T09:12:17Z</time>
      </trkpt>
      <trkpt lat="45.93485" lon="4.73075">
        <ele>170</ele>
        <time>2017-08-26T09:12:18Z</time>
      </trkpt>
      <trkpt lat="45.93485" lon="4.73068">
        <ele>170</ele>
        <time>2017-08-26T09:12:19Z</time>
      </trkpt>
      <trkpt lat="45.93485" lon="4.73061">
        <ele>170</ele>
        <time>2017-08-26T09:12:20Z</time>
      </trkpt>
      <trkpt lat="45.93485" lon="4.73048">
        <ele>170</ele>
        <time>2017-08-26T09:12:22Z</time>
      </trkpt>
      <trkpt lat="45.93486" lon="4.73042">
        <ele>170</ele>
        <time>2017-08-26T09:12:23Z</time>
      </trkpt>
      <trkpt lat="45.93486" lon="4.7303">
        <ele>170</ele>
        <time>2017-08-26T09:12:25Z</time>
      </trkpt>
      <trkpt lat="45.93486" lon="4.73025">
        <ele>170</ele>
        <time>2017-08-26T09:12:26Z</time>
      </trkpt>
      <trkpt lat="45.93487" lon="4.73014">
        <ele>170</ele>
        <time>2017-08-26T09:12:28Z</time>
      </trkpt>
      <trkpt lat="45.93488" lon="4.73007">
        <ele>170</ele>
        <time>2017-08-26T09:12:29Z</time>
      </trkpt>
      <trkpt lat="45.93489" lon="4.73">
        <ele>170</ele>
        <time>2017-08-26T09:12:30Z</time>
      </trkpt>
      <trkpt lat="45.93489" lon="4.72992">
        <ele>170</ele>
        <time>2017-08-26T09:12:31Z</time>
      </trkpt>
      <trkpt lat="45.9349" lon="4.72985">
        <ele>170</ele>
        <time>2017-08-26T09:12:32Z</time>
      </trkpt>
      <trkpt lat="45.93491" lon="4.72978">
        <ele>171</ele>
        <time>2017-08-26T09:12:33Z</time>
      </trkpt>
      <trkpt lat="45.93493" lon="4.72965">
        <ele>171</ele>
        <time>2017-08-26T09:12:35Z</time>
      </trkpt>
      <trkpt lat="45.93494" lon="4.7296">
        <ele>171</ele>
        <time>2017-08-26T09:12:36Z</time>
      </trkpt>
      <trkpt lat="45.93498" lon="4.72949">
        <ele>171</ele>
        <time>2017-08-26T09:12:38Z</time>
      </trkpt>
      <trkpt lat="45.93499" lon="4.72944">
        <ele>171</ele>
        <time>2017-08-26T09:12:39Z</time>
      </trkpt>
      <trkpt lat="45.93501" lon="4.72933">
        <ele>171</ele>
        <time>2017-08-26T09:12:41Z</time>
      </trkpt>
      <trkpt lat="45.93503" lon="4.72927">
        <ele>171</ele>
        <time>2017-08-26T09:12:42Z</time>
      </trkpt>
      <trkpt lat="45.93506" lon="4.72921">
        <ele>172</ele>
        <time>2017-08-26T09:12:43Z</time>
      </trkpt>
      <trkpt lat="45.93509" lon="4.72916">
        <ele>172</ele>
        <time>2017-08-26T09:12:44Z</time>
      </trkpt>
      <trkpt lat="45.93516" lon="4.72909">
        <ele>172</ele>
        <time>2017-08-26T09:12:46Z</time>
      </trkpt>
      <trkpt lat="45.9352" lon="4.72905">
        <ele>172</ele>
        <time>2017-08-26T09:12:47Z</time>
      </trkpt>
      <trkpt lat="45.93527" lon="4.72897">
        <ele>172</ele>
        <time>2017-08-26T09:12:49Z</time>
      </trkpt>
      <trkpt lat="45.93531" lon="4.72893">
        <ele>172</ele>
        <time>2017-08-26T09:12:50Z</time>
      </trkpt>
      <trkpt lat="45.93534" lon="4.72888">
        <ele>172</ele>
        <time>2017-08-26T09:12:51Z</time>
      </trkpt>
      <trkpt lat="45.93538" lon="4.72883">
        <ele>172</ele>
        <time>2017-08-26T09:12:52Z</time>
      </trkpt>
      <trkpt lat="45.93543" lon="4.72879">
        <ele>172</ele>
        <time>2017-08-26T09:12:53Z</time>
      </trkpt>
      <trkpt lat="45.93546" lon="4.72875">
        <ele>172</ele>
        <time>2017-08-26T09:12:54Z</time>
      </trkpt>
      <trkpt lat="45.93553" lon="4.72867">
        <ele>172</ele>
        <time>2017-08-26T09:12:56Z</time>
      </trkpt>
      <trkpt lat="45.93556" lon="4.72864">
        <ele>172</ele>
        <time>2017-08-26T09:12:57Z</time>
      </trkpt>
      <trkpt lat="45.93563" lon="4.72858">
        <ele>172</ele>
        <time>2017-08-26T09:12:59Z</time>
      </trkpt>
      <trkpt lat="45.93566" lon="4.72855">
        <ele>172</ele>
        <time>2017-08-26T09:13:00Z</time>
      </trkpt>
      <trkpt lat="45.9357" lon="4.72851">
        <ele>172</ele>
        <time>2017-08-26T09:13:01Z</time>
      </trkpt>
      <trkpt lat="45.93574" lon="4.72848">
        <ele>172</ele>
        <time>2017-08-26T09:13:02Z</time>
      </trkpt>
      <trkpt lat="45.93578" lon="4.72844">
        <ele>172</ele>
        <time>2017-08-26T09:13:03Z</time>
      </trkpt>
      <trkpt lat="45.93582" lon="4.72841">
        <ele>172</ele>
        <time>2017-08-26T09:13:04Z</time>
      </trkpt>
      <trkpt lat="45.93586" lon="4.72838">
        <ele>172</ele>
        <time>2017-08-26T09:13:05Z</time>
      </trkpt>
      <trkpt lat="45.9359" lon="4.72834">
        <ele>172</ele>
        <time>2017-08-26T09:13:06Z</time>
      </trkpt>
      <trkpt lat="45.93598" lon="4.72828">
        <ele>173</ele>
        <time>2017-08-26T09:13:08Z</time>
      </trkpt>
      <trkpt lat="45.93602" lon="4.72825">
        <ele>173</ele>
        <time>2017-08-26T09:13:09Z</time>
      </trkpt>
      <trkpt lat="45.93609" lon="4.72819">
        <ele>173</ele>
        <time>2017-08-26T09:13:11Z</time>
      </trkpt>
      <trkpt lat="45.93612" lon="4.72817">
        <ele>173</ele>
        <time>2017-08-26T09:13:12Z</time>
      </trkpt>
      <trkpt lat="45.93619" lon="4.72812">
        <ele>173</ele>
        <time>2017-08-26T09:13:14Z</time>
      </trkpt>
      <trkpt lat="45.93622" lon="4.72808">
        <ele>173</ele>
        <time>2017-08-26T09:13:15Z</time>
      </trkpt>
      <trkpt lat="45.93626" lon="4.72805">
        <ele>173</ele>
        <time>2017-08-26T09:13:16Z</time>
      </trkpt>
      <trkpt lat="45.93631" lon="4.72802">
        <ele>173</ele>
        <time>2017-08-26T09:13:17Z</time>
      </trkpt>
      <trkpt lat="45.93635" lon="4.72799">
        <ele>173</ele>
        <time>2017-08-26T09:13:18Z</time>
      </trkpt>
      <trkpt lat="45.93639" lon="4.72796">
        <ele>173</ele>
        <time>2017-08-26T09:13:19Z</time>
      </trkpt>
      <trkpt lat="45.93647" lon="4.7279">
        <ele>173</ele>
        <time>2017-08-26T09:13:21Z</time>
      </trkpt>
      <trkpt lat="45.93651" lon="4.72787">
        <ele>173</ele>
        <time>2017-08-26T09:13:22Z</time>
      </trkpt>
      <trkpt lat="45.93657" lon="4.72782">
        <ele>174</ele>
        <time>2017-08-26T09:13:24Z</time>
      </trkpt>
      <trkpt lat="45.9366" lon="4.7278">
        <ele>174</ele>
        <time>2017-08-26T09:13:25Z</time>
      </trkpt>
      <trkpt lat="45.93668" lon="4.72774">
        <ele>173</ele>
        <time>2017-08-26T09:13:27Z</time>
      </trkpt>
      <trkpt lat="45.93672" lon="4.72771">
        <ele>173</ele>
        <time>2017-08-26T09:13:28Z</time>
      </trkpt>
      <trkpt lat="45.93679" lon="4.72765">
        <ele>173</ele>
        <time>2017-08-26T09:13:30Z</time>
      </trkpt>
      <trkpt lat="45.93682" lon="4.72762">
        <ele>173</ele>
        <time>2017-08-26T09:13:31Z</time>
      </trkpt>
      <trkpt lat="45.93686" lon="4.72758">
        <ele>173</ele>
        <time>2017-08-26T09:13:32Z</time>
      </trkpt>
      <trkpt lat="45.9369" lon="4.72754">
        <ele>172</ele>
        <time>2017-08-26T09:13:33Z</time>
      </trkpt>
      <trkpt lat="45.93695" lon="4.72751">
        <ele>172</ele>
        <time>2017-08-26T09:13:34Z</time>
      </trkpt>
      <trkpt lat="45.93699" lon="4.72746">
        <ele>173</ele>
        <time>2017-08-26T09:13:35Z</time>
      </trkpt>
      <trkpt lat="45.93703" lon="4.72742">
        <ele>173</ele>
        <time>2017-08-26T09:13:36Z</time>
      </trkpt>
      <trkpt lat="45.93707" lon="4.72738">
        <ele>173</ele>
        <time>2017-08-26T09:13:37Z</time>
      </trkpt>
      <trkpt lat="45.93711" lon="4.72734">
        <ele>173</ele>
        <time>2017-08-26T09:13:38Z</time>
      </trkpt>
      <trkpt lat="45.93715" lon="4.7273">
        <ele>173</ele>
        <time>2017-08-26T09:13:39Z</time>
      </trkpt>
      <trkpt lat="45.93723" lon="4.72724">
        <ele>173</ele>
        <time>2017-08-26T09:13:41Z</time>
      </trkpt>
      <trkpt lat="45.93726" lon="4.72721">
        <ele>173</ele>
        <time>2017-08-26T09:13:42Z</time>
      </trkpt>
      <trkpt lat="45.9373" lon="4.72718">
        <ele>173</ele>
        <time>2017-08-26T09:13:43Z</time>
      </trkpt>
      <trkpt lat="45.93734" lon="4.72714">
        <ele>173</ele>
        <time>2017-08-26T09:13:44Z</time>
      </trkpt>
      <trkpt lat="45.93739" lon="4.72709">
        <ele>173</ele>
        <time>2017-08-26T09:13:45Z</time>
      </trkpt>
      <trkpt lat="45.93743" lon="4.72705">
        <ele>173</ele>
        <time>2017-08-26T09:13:46Z</time>
      </trkpt>
      <trkpt lat="45.93748" lon="4.72701">
        <ele>173</ele>
        <time>2017-08-26T09:13:47Z</time>
      </trkpt>
      <trkpt lat="45.93752" lon="4.72696">
        <ele>172</ele>
        <time>2017-08-26T09:13:48Z</time>
      </trkpt>
      <trkpt lat="45.93756" lon="4.72692">
        <ele>172</ele>
        <time>2017-08-26T09:13:49Z</time>
      </trkpt>
      <trkpt lat="45.93759" lon="4.72688">
        <ele>172</ele>
        <time>2017-08-26T09:13:50Z</time>
      </trkpt>
      <trkpt lat="45.93766" lon="4.7268">
        <ele>173</ele>
        <time>2017-08-26T09:13:52Z</time>
      </trkpt>
      <trkpt lat="45.93769" lon="4.72676">
        <ele>173</ele>
        <time>2017-08-26T09:13:53Z</time>
      </trkpt>
      <trkpt lat="45.93775" lon="4.72668">
        <ele>172</ele>
        <time>2017-08-26T09:13:55Z</time>
      </trkpt>
      <trkpt lat="45.93779" lon="4.72664">
        <ele>173</ele>
        <time>2017-08-26T09:13:56Z</time>
      </trkpt>
      <trkpt lat="45.93782" lon="4.7266">
        <ele>173</ele>
        <time>2017-08-26T09:13:57Z</time>
      </trkpt>
      <trkpt lat="45.93786" lon="4.72655">
        <ele>173</ele>
        <time>2017-08-26T09:13:58Z</time>
      </trkpt>
      <trkpt lat="45.9379" lon="4.72649">
        <ele>173</ele>
        <time>2017-08-26T09:13:59Z</time>
      </trkpt>
      <trkpt lat="45.93794" lon="4.72644">
        <ele>173</ele>
        <time>2017-08-26T09:14:00Z</time>
      </trkpt>
      <trkpt lat="45.93798" lon="4.72639">
        <ele>173</ele>
        <time>2017-08-26T09:14:01Z</time>
      </trkpt>
      <trkpt lat="45.93802" lon="4.72633">
        <ele>173</ele>
        <time>2017-08-26T09:14:02Z</time>
      </trkpt>
      <trkpt lat="45.93806" lon="4.72628">
        <ele>173</ele>
        <time>2017-08-26T09:14:03Z</time>
      </trkpt>
      <trkpt lat="45.93809" lon="4.72623">
        <ele>173</ele>
        <time>2017-08-26T09:14:04Z</time>
      </trkpt>
      <trkpt lat="45.93813" lon="4.72618">
        <ele>173</ele>
        <time>2017-08-26T09:14:05Z</time>
      </trkpt>
      <trkpt lat="45.93816" lon="4.72613">
        <ele>173</ele>
        <time>2017-08-26T09:14:06Z</time>
      </trkpt>
      <trkpt lat="45.93818" lon="4.72607">
        <ele>173</ele>
        <time>2017-08-26T09:14:07Z</time>
      </trkpt>
      <trkpt lat="45.93818" lon="4.726">
        <ele>173</ele>
        <time>2017-08-26T09:14:08Z</time>
      </trkpt>
      <trkpt lat="45.93816" lon="4.72589">
        <ele>174</ele>
        <time>2017-08-26T09:14:10Z</time>
      </trkpt>
      <trkpt lat="45.93813" lon="4.72585">
        <ele>174</ele>
        <time>2017-08-26T09:14:11Z</time>
      </trkpt>
      <trkpt lat="45.93806" lon="4.72578">
        <ele>174</ele>
        <time>2017-08-26T09:14:13Z</time>
      </trkpt>
      <trkpt lat="45.93802" lon="4.72574">
        <ele>174</ele>
        <time>2017-08-26T09:14:14Z</time>
      </trkpt>
      <trkpt lat="45.93798" lon="4.7257">
        <ele>174</ele>
        <time>2017-08-26T09:14:15Z</time>
      </trkpt>
      <trkpt lat="45.93794" lon="4.72566">
        <ele>174</ele>
        <time>2017-08-26T09:14:16Z</time>
      </trkpt>
      <trkpt lat="45.9379" lon="4.72562">
        <ele>174</ele>
        <time>2017-08-26T09:14:17Z</time>
      </trkpt>
      <trkpt lat="45.93785" lon="4.72559">
        <ele>173</ele>
        <time>2017-08-26T09:14:18Z</time>
      </trkpt>
      <trkpt lat="45.93782" lon="4.72555">
        <ele>173</ele>
        <time>2017-08-26T09:14:19Z</time>
      </trkpt>
      <trkpt lat="45.93777" lon="4.72554">
        <ele>173</ele>
        <time>2017-08-26T09:14:20Z</time>
      </trkpt>
      <trkpt lat="45.93771" lon="4.72546">
        <ele>173</ele>
        <time>2017-08-26T09:14:22Z</time>
      </trkpt>
      <trkpt lat="45.93768" lon="4.72545">
        <ele>173</ele>
        <time>2017-08-26T09:14:23Z</time>
      </trkpt>
      <trkpt lat="45.93761" lon="4.72538">
        <ele>173</ele>
        <time>2017-08-26T09:14:25Z</time>
      </trkpt>
      <trkpt lat="45.93757" lon="4.72534">
        <ele>173</ele>
        <time>2017-08-26T09:14:26Z</time>
      </trkpt>
      <trkpt lat="45.93753" lon="4.7253">
        <ele>172</ele>
        <time>2017-08-26T09:14:27Z</time>
      </trkpt>
      <trkpt lat="45.93749" lon="4.72526">
        <ele>172</ele>
        <time>2017-08-26T09:14:28Z</time>
      </trkpt>
      <trkpt lat="45.93745" lon="4.72521">
        <ele>171</ele>
        <time>2017-08-26T09:14:29Z</time>
      </trkpt>
      <trkpt lat="45.9374" lon="4.72517">
        <ele>171</ele>
        <time>2017-08-26T09:14:30Z</time>
      </trkpt>
      <trkpt lat="45.93736" lon="4.72513">
        <ele>171</ele>
        <time>2017-08-26T09:14:31Z</time>
      </trkpt>
      <trkpt lat="45.93732" lon="4.7251">
        <ele>171</ele>
        <time>2017-08-26T09:14:32Z</time>
      </trkpt>
      <trkpt lat="45.93724" lon="4.72503">
        <ele>171</ele>
        <time>2017-08-26T09:14:34Z</time>
      </trkpt>
      <trkpt lat="45.93721" lon="4.725">
        <ele>171</ele>
        <time>2017-08-26T09:14:35Z</time>
      </trkpt>
      <trkpt lat="45.93714" lon="4.72494">
        <ele>171</ele>
        <time>2017-08-26T09:14:37Z</time>
      </trkpt>
      <trkpt lat="45.93709" lon="4.7249">
        <ele>171</ele>
        <time>2017-08-26T09:14:38Z</time>
      </trkpt>
      <trkpt lat="45.93705" lon="4.72485">
        <ele>171</ele>
        <time>2017-08-26T09:14:39Z</time>
      </trkpt>
      <trkpt lat="45.937" lon="4.72481">
        <ele>171</ele>
        <time>2017-08-26T09:14:40Z</time>
      </trkpt>
      <trkpt lat="45.93696" lon="4.72477">
        <ele>171</ele>
        <time>2017-08-26T09:14:41Z</time>
      </trkpt>
      <trkpt lat="45.93692" lon="4.72473">
        <ele>171</ele>
        <time>2017-08-26T09:14:42Z</time>
      </trkpt>
      <trkpt lat="45.93688" lon="4.72469">
        <ele>171</ele>
        <time>2017-08-26T09:14:43Z</time>
      </trkpt>
      <trkpt lat="45.93685" lon="4.72465">
        <ele>171</ele>
        <time>2017-08-26T09:14:44Z</time>
      </trkpt>
      <trkpt lat="45.93678" lon="4.72458">
        <ele>171</ele>
        <time>2017-08-26T09:14:46Z</time>
      </trkpt>
      <trkpt lat="45.93674" lon="4.72455">
        <ele>171</ele>
        <time>2017-08-26T09:14:47Z</time>
      </trkpt>
      <trkpt lat="45.93668" lon="4.72449">
        <ele>171</ele>
        <time>2017-08-26T09:14:49Z</time>
      </trkpt>
      <trkpt lat="45.93665" lon="4.72446">
        <ele>172</ele>
        <time>2017-08-26T09:14:50Z</time>
      </trkpt>
      <trkpt lat="45.93661" lon="4.72438">
        <ele>172</ele>
        <time>2017-08-26T09:14:52Z</time>
      </trkpt>
      <trkpt lat="45.93659" lon="4.72432">
        <ele>172</ele>
        <time>2017-08-26T09:14:53Z</time>
      </trkpt>
      <trkpt lat="45.93656" lon="4.72427">
        <ele>172</ele>
        <time>2017-08-26T09:14:54Z</time>
      </trkpt>
      <trkpt lat="45.93653" lon="4.72422">
        <ele>172</ele>
        <time>2017-08-26T09:14:55Z</time>
      </trkpt>
      <trkpt lat="45.93646" lon="4.72413">
        <ele>172</ele>
        <time>2017-08-26T09:14:57Z</time>
      </trkpt>
      <trkpt lat="45.93644" lon="4.72408">
        <ele>172</ele>
        <time>2017-08-26T09:14:58Z</time>
      </trkpt>
      <trkpt lat="45.93637" lon="4.72399">
        <ele>172</ele>
        <time>2017-08-26T09:15:01Z</time>
      </trkpt>
      <trkpt lat="45.93636" lon="4.72396">
        <ele>172</ele>
        <time>2017-08-26T09:15:02Z</time>
      </trkpt>
      <trkpt lat="45.93629" lon="4.72388">
        <ele>172</ele>
        <time>2017-08-26T09:15:05Z</time>
      </trkpt>
      <trkpt lat="45.93627" lon="4.72385">
        <ele>172</ele>
        <time>2017-08-26T09:15:06Z</time>
      </trkpt>
      <trkpt lat="45.93621" lon="4.72379">
        <ele>172</ele>
        <time>2017-08-26T09:15:08Z</time>
      </trkpt>
      <trkpt lat="45.93618" lon="4.72376">
        <ele>172</ele>
        <time>2017-08-26T09:15:09Z</time>
      </trkpt>
      <trkpt lat="45.93612" lon="4.7237">
        <ele>172</ele>
        <time>2017-08-26T09:15:11Z</time>
      </trkpt>
      <trkpt lat="45.93609" lon="4.72367">
        <ele>172</ele>
        <time>2017-08-26T09:15:12Z</time>
      </trkpt>
      <trkpt lat="45.93604" lon="4.72361">
        <ele>172</ele>
        <time>2017-08-26T09:15:14Z</time>
      </trkpt>
      <trkpt lat="45.93601" lon="4.72358">
        <ele>172</ele>
        <time>2017-08-26T09:15:15Z</time>
      </trkpt>
      <trkpt lat="45.93595" lon="4.72354">
        <ele>172</ele>
        <time>2017-08-26T09:15:17Z</time>
      </trkpt>
      <trkpt lat="45.93591" lon="4.72351">
        <ele>172</ele>
        <time>2017-08-26T09:15:18Z</time>
      </trkpt>
      <trkpt lat="45.93586" lon="4.72346">
        <ele>173</ele>
        <time>2017-08-26T09:15:20Z</time>
      </trkpt>
      <trkpt lat="45.93583" lon="4.72344">
        <ele>173</ele>
        <time>2017-08-26T09:15:21Z</time>
      </trkpt>
      <trkpt lat="45.93577" lon="4.72339">
        <ele>173</ele>
        <time>2017-08-26T09:15:23Z</time>
      </trkpt>
      <trkpt lat="45.93574" lon="4.72336">
        <ele>173</ele>
        <time>2017-08-26T09:15:24Z</time>
      </trkpt>
      <trkpt lat="45.93567" lon="4.72332">
        <ele>173</ele>
        <time>2017-08-26T09:15:26Z</time>
      </trkpt>
      <trkpt lat="45.93563" lon="4.72331">
        <ele>173</ele>
        <time>2017-08-26T09:15:27Z</time>
      </trkpt>
      <trkpt lat="45.93556" lon="4.72328">
        <ele>173</ele>
        <time>2017-08-26T09:15:29Z</time>
      </trkpt>
      <trkpt lat="45.93553" lon="4.72327">
        <ele>173</ele>
        <time>2017-08-26T09:15:30Z</time>
      </trkpt>
      <trkpt lat="45.93545" lon="4.72324">
        <ele>173</ele>
        <time>2017-08-26T09:15:33Z</time>
      </trkpt>
      <trkpt lat="45.93543" lon="4.72323">
        <ele>173</ele>
        <time>2017-08-26T09:15:34Z</time>
      </trkpt>
      <trkpt lat="45.93535" lon="4.72321">
        <ele>173</ele>
        <time>2017-08-26T09:15:37Z</time>
      </trkpt>
      <trkpt lat="45.93533" lon="4.72321">
        <ele>173</ele>
        <time>2017-08-26T09:15:38Z</time>
      </trkpt>
      <trkpt lat="45.93524" lon="4.7232">
        <ele>173</ele>
        <time>2017-08-26T09:15:42Z</time>
      </trkpt>
      <trkpt lat="45.93522" lon="4.72322">
        <ele>173</ele>
        <time>2017-08-26T09:15:43Z</time>
      </trkpt>
      <trkpt lat="45.93519" lon="4.72311">
        <ele>173</ele>
        <time>2017-08-26T09:15:54Z</time>
      </trkpt>
      <trkpt lat="45.9352" lon="4.72308">
        <ele>173</ele>
        <time>2017-08-26T09:15:55Z</time>
      </trkpt>
      <trkpt lat="45.93524" lon="4.723">
        <ele>172</ele>
        <time>2017-08-26T09:15:58Z</time>
      </trkpt>
      <trkpt lat="45.93525" lon="4.72296">
        <ele>172</ele>
        <time>2017-08-26T09:15:59Z</time>
      </trkpt>
      <trkpt lat="45.93528" lon="4.72286">
        <ele>172</ele>
        <time>2017-08-26T09:16:02Z</time>
      </trkpt>
      <trkpt lat="45.93529" lon="4.72282">
        <ele>172</ele>
        <time>2017-08-26T09:16:03Z</time>
      </trkpt>
      <trkpt lat="45.93533" lon="4.72276">
        <ele>172</ele>
        <time>2017-08-26T09:16:05Z</time>
      </trkpt>
      <trkpt lat="45.93535" lon="4.72272">
        <ele>172</ele>
        <time>2017-08-26T09:16:06Z</time>
      </trkpt>
      <trkpt lat="45.93538" lon="4.72264">
        <ele>172</ele>
        <time>2017-08-26T09:16:08Z</time>
      </trkpt>
      <trkpt lat="45.93539" lon="4.7226">
        <ele>172</ele>
        <time>2017-08-26T09:16:09Z</time>
      </trkpt>
      <trkpt lat="45.93543" lon="4.72253">
        <ele>172</ele>
        <time>2017-08-26T09:16:11Z</time>
      </trkpt>
      <trkpt lat="45.93544" lon="4.72249">
        <ele>172</ele>
        <time>2017-08-26T09:16:12Z</time>
      </trkpt>
      <trkpt lat="45.93548" lon="4.72242">
        <ele>172</ele>
        <time>2017-08-26T09:16:14Z</time>
      </trkpt>
      <trkpt lat="45.9355" lon="4.72237">
        <ele>172</ele>
        <time>2017-08-26T09:16:15Z</time>
      </trkpt>
      <trkpt lat="45.93554" lon="4.72232">
        <ele>173</ele>
        <time>2017-08-26T09:16:17Z</time>
      </trkpt>
      <trkpt lat="45.93558" lon="4.72231">
        <ele>173</ele>
        <time>2017-08-26T09:16:18Z</time>
      </trkpt>
      <trkpt lat="45.93564" lon="4.72234">
        <ele>173</ele>
        <time>2017-08-26T09:16:20Z</time>
      </trkpt>
      <trkpt lat="45.93567" lon="4.72237">
        <ele>173</ele>
        <time>2017-08-26T09:16:21Z</time>
      </trkpt>
      <trkpt lat="45.93572" lon="4.72242">
        <ele>173</ele>
        <time>2017-08-26T09:16:23Z</time>
      </trkpt>
      <trkpt lat="45.93575" lon="4.72244">
        <ele>173</ele>
        <time>2017-08-26T09:16:24Z</time>
      </trkpt>
      <trkpt lat="45.93581" lon="4.7225">
        <ele>173</ele>
        <time>2017-08-26T09:16:26Z</time>
      </trkpt>
      <trkpt lat="45.93584" lon="4.72253">
        <ele>173</ele>
        <time>2017-08-26T09:16:27Z</time>
      </trkpt>
      <trkpt lat="45.9359" lon="4.7226">
        <ele>173</ele>
        <time>2017-08-26T09:16:30Z</time>
      </trkpt>
      <trkpt lat="45.93593" lon="4.72263">
        <ele>173</ele>
        <time>2017-08-26T09:16:31Z</time>
      </trkpt>
      <trkpt lat="45.93599" lon="4.72268">
        <ele>173</ele>
        <time>2017-08-26T09:16:33Z</time>
      </trkpt>
      <trkpt lat="45.93601" lon="4.72271">
        <ele>173</ele>
        <time>2017-08-26T09:16:34Z</time>
      </trkpt>
      <trkpt lat="45.93608" lon="4.72278">
        <ele>172</ele>
        <time>2017-08-26T09:16:36Z</time>
      </trkpt>
      <trkpt lat="45.93611" lon="4.72282">
        <ele>172</ele>
        <time>2017-08-26T09:16:37Z</time>
      </trkpt>
      <trkpt lat="45.93615" lon="4.72285">
        <ele>172</ele>
        <time>2017-08-26T09:16:38Z</time>
      </trkpt>
      <trkpt lat="45.93619" lon="4.72288">
        <ele>172</ele>
        <time>2017-08-26T09:16:39Z</time>
      </trkpt>
      <trkpt lat="45.93626" lon="4.72296">
        <ele>172</ele>
        <time>2017-08-26T09:16:41Z</time>
      </trkpt>
      <trkpt lat="45.9363" lon="4.72299">
        <ele>172</ele>
        <time>2017-08-26T09:16:42Z</time>
      </trkpt>
      <trkpt lat="45.93637" lon="4.72306">
        <ele>172</ele>
        <time>2017-08-26T09:16:44Z</time>
      </trkpt>
      <trkpt lat="45.9364" lon="4.72309">
        <ele>172</ele>
        <time>2017-08-26T09:16:45Z</time>
      </trkpt>
      <trkpt lat="45.93646" lon="4.72314">
        <ele>172</ele>
        <time>2017-08-26T09:16:47Z</time>
      </trkpt>
      <trkpt lat="45.93648" lon="4.72316">
        <ele>172</ele>
        <time>2017-08-26T09:16:48Z</time>
      </trkpt>
      <trkpt lat="45.93653" lon="4.72324">
        <ele>172</ele>
        <time>2017-08-26T09:16:50Z</time>
      </trkpt>
      <trkpt lat="45.93657" lon="4.72328">
        <ele>171</ele>
        <time>2017-08-26T09:16:51Z</time>
      </trkpt>
      <trkpt lat="45.93663" lon="4.72335">
        <ele>171</ele>
        <time>2017-08-26T09:16:53Z</time>
      </trkpt>
      <trkpt lat="45.93665" lon="4.72337">
        <ele>171</ele>
        <time>2017-08-26T09:16:54Z</time>
      </trkpt>
      <trkpt lat="45.93672" lon="4.72339">
        <ele>171</ele>
        <time>2017-08-26T09:16:58Z</time>
      </trkpt>
      <trkpt lat="45.93675" lon="4.72341">
        <ele>171</ele>
        <time>2017-08-26T09:16:59Z</time>
      </trkpt>
      <trkpt lat="45.93681" lon="4.72346">
        <ele>171</ele>
        <time>2017-08-26T09:17:01Z</time>
      </trkpt>
      <trkpt lat="45.93684" lon="4.7235">
        <ele>171</ele>
        <time>2017-08-26T09:17:02Z</time>
      </trkpt>
      <trkpt lat="45.93691" lon="4.72358">
        <ele>171</ele>
        <time>2017-08-26T09:17:04Z</time>
      </trkpt>
      <trkpt lat="45.93694" lon="4.72362">
        <ele>171</ele>
        <time>2017-08-26T09:17:05Z</time>
      </trkpt>
      <trkpt lat="45.93698" lon="4.72365">
        <ele>171</ele>
        <time>2017-08-26T09:17:06Z</time>
      </trkpt>
      <trkpt lat="45.93702" lon="4.72368">
        <ele>171</ele>
        <time>2017-08-26T09:17:07Z</time>
      </trkpt>
      <trkpt lat="45.93709" lon="4.72374">
        <ele>172</ele>
        <time>2017-08-26T09:17:09Z</time>
      </trkpt>
      <trkpt lat="45.93713" lon="4.72376">
        <ele>171</ele>
        <time>2017-08-26T09:17:10Z</time>
      </trkpt>
      <trkpt lat="45.93721" lon="4.72381">
        <ele>171</ele>
        <time>2017-08-26T09:17:12Z</time>
      </trkpt>
      <trkpt lat="45.93725" lon="4.72386">
        <ele>171</ele>
        <time>2017-08-26T09:17:13Z</time>
      </trkpt>
      <trkpt lat="45.93729" lon="4.7239">
        <ele>171</ele>
        <time>2017-08-26T09:17:14Z</time>
      </trkpt>
      <trkpt lat="45.93733" lon="4.72393">
        <ele>171</ele>
        <time>2017-08-26T09:17:15Z</time>
      </trkpt>
      <trkpt lat="45.93737" lon="4.72397">
        <ele>171</ele>
        <time>2017-08-26T09:17:16Z</time>
      </trkpt>
      <trkpt lat="45.93741" lon="4.72401">
        <ele>171</ele>
        <time>2017-08-26T09:17:17Z</time>
      </trkpt>
      <trkpt lat="45.93746" lon="4.72405">
        <ele>171</ele>
        <time>2017-08-26T09:17:18Z</time>
      </trkpt>
      <trkpt lat="45.9375" lon="4.72409">
        <ele>171</ele>
        <time>2017-08-26T09:17:19Z</time>
      </trkpt>
      <trkpt lat="45.93754" lon="4.72412">
        <ele>171</ele>
        <time>2017-08-26T09:17:20Z</time>
      </trkpt>
      <trkpt lat="45.93759" lon="4.72416">
        <ele>171</ele>
        <time>2017-08-26T09:17:21Z</time>
      </trkpt>
      <trkpt lat="45.93762" lon="4.7242">
        <ele>171</ele>
        <time>2017-08-26T09:17:22Z</time>
      </trkpt>
      <trkpt lat="45.93766" lon="4.72423">
        <ele>171</ele>
        <time>2017-08-26T09:17:23Z</time>
      </trkpt>
      <trkpt lat="45.9377" lon="4.72427">
        <ele>171</ele>
        <time>2017-08-26T09:17:24Z</time>
      </trkpt>
      <trkpt lat="45.93774" lon="4.7243">
        <ele>171</ele>
        <time>2017-08-26T09:17:25Z</time>
      </trkpt>
      <trkpt lat="45.93781" lon="4.72437">
        <ele>172</ele>
        <time>2017-08-26T09:17:27Z</time>
      </trkpt>
      <trkpt lat="45.93784" lon="4.7244">
        <ele>172</ele>
        <time>2017-08-26T09:17:28Z</time>
      </trkpt>
      <trkpt lat="45.93788" lon="4.72444">
        <ele>172</ele>
        <time>2017-08-26T09:17:29Z</time>
      </trkpt>
      <trkpt lat="45.93792" lon="4.72447">
        <ele>172</ele>
        <time>2017-08-26T09:17:30Z</time>
      </trkpt>
      <trkpt lat="45.93797" lon="4.7245">
        <ele>172</ele>
        <time>2017-08-26T09:17:31Z</time>
      </trkpt>
      <trkpt lat="45.93802" lon="4.72454">
        <ele>172</ele>
        <time>2017-08-26T09:17:32Z</time>
      </trkpt>
      <trkpt lat="45.93807" lon="4.72459">
        <ele>172</ele>
        <time>2017-08-26T09:17:33Z</time>
      </trkpt>
      <trkpt lat="45.93811" lon="4.72463">
        <ele>172</ele>
        <time>2017-08-26T09:17:34Z</time>
      </trkpt>
      <trkpt lat="45.93815" lon="4.72467">
        <ele>172</ele>
        <time>2017-08-26T09:17:35Z</time>
      </trkpt>
      <trkpt lat="45.93819" lon="4.7247">
        <ele>172</ele>
        <time>2017-08-26T09:17:36Z</time>
      </trkpt>
      <trkpt lat="45.93821" lon="4.72478">
        <ele>173</ele>
        <time>2017-08-26T09:17:37Z</time>
      </trkpt>
      <trkpt lat="45.93826" lon="4.72482">
        <ele>173</ele>
        <time>2017-08-26T09:17:38Z</time>
      </trkpt>
      <trkpt lat="45.9383" lon="4.72486">
        <ele>173</ele>
        <time>2017-08-26T09:17:39Z</time>
      </trkpt>
      <trkpt lat="45.93834" lon="4.72489">
        <ele>173</ele>
        <time>2017-08-26T09:17:40Z</time>
      </trkpt>
      <trkpt lat="45.93839" lon="4.72491">
        <ele>173</ele>
        <time>2017-08-26T09:17:41Z</time>
      </trkpt>
      <trkpt lat="45.93844" lon="4.72492">
        <ele>173</ele>
        <time>2017-08-26T09:17:42Z</time>
      </trkpt>
      <trkpt lat="45.93849" lon="4.72494">
        <ele>173</ele>
        <time>2017-08-26T09:17:43Z</time>
      </trkpt>
      <trkpt lat="45.93855" lon="4.72496">
        <ele>173</ele>
        <time>2017-08-26T09:17:44Z</time>
      </trkpt>
      <trkpt lat="45.93857" lon="4.72503">
        <ele>173</ele>
        <time>2017-08-26T09:17:45Z</time>
      </trkpt>
      <trkpt lat="45.93859" lon="4.72509">
        <ele>173</ele>
        <time>2017-08-26T09:17:46Z</time>
      </trkpt>
      <trkpt lat="45.93865" lon="4.72516">
        <ele>173</ele>
        <time>2017-08-26T09:17:48Z</time>
      </trkpt>
      <trkpt lat="45.93869" lon="4.72517">
        <ele>173</ele>
        <time>2017-08-26T09:17:49Z</time>
      </trkpt>
      <trkpt lat="45.93874" lon="4.72518">
        <ele>173</ele>
        <time>2017-08-26T09:17:50Z</time>
      </trkpt>
      <trkpt lat="45.93879" lon="4.72516">
        <ele>173</ele>
        <time>2017-08-26T09:17:51Z</time>
      </trkpt>
      <trkpt lat="45.93883" lon="4.72512">
        <ele>173</ele>
        <time>2017-08-26T09:17:52Z</time>
      </trkpt>
      <trkpt lat="45.93887" lon="4.72508">
        <ele>173</ele>
        <time>2017-08-26T09:17:53Z</time>
      </trkpt>
      <trkpt lat="45.93891" lon="4.72503">
        <ele>173</ele>
        <time>2017-08-26T09:17:54Z</time>
      </trkpt>
      <trkpt lat="45.93895" lon="4.72498">
        <ele>172</ele>
        <time>2017-08-26T09:17:55Z</time>
      </trkpt>
      <trkpt lat="45.93899" lon="4.72494">
        <ele>172</ele>
        <time>2017-08-26T09:17:56Z</time>
      </trkpt>
      <trkpt lat="45.93902" lon="4.7249">
        <ele>172</ele>
        <time>2017-08-26T09:17:57Z</time>
      </trkpt>
      <trkpt lat="45.93906" lon="4.72486">
        <ele>172</ele>
        <time>2017-08-26T09:17:58Z</time>
      </trkpt>
      <trkpt lat="45.9391" lon="4.72482">
        <ele>172</ele>
        <time>2017-08-26T09:17:59Z</time>
      </trkpt>
      <trkpt lat="45.93913" lon="4.72477">
        <ele>172</ele>
        <time>2017-08-26T09:18:00Z</time>
      </trkpt>
      <trkpt lat="45.93917" lon="4.72473">
        <ele>171</ele>
        <time>2017-08-26T09:18:01Z</time>
      </trkpt>
      <trkpt lat="45.9392" lon="4.72469">
        <ele>171</ele>
        <time>2017-08-26T09:18:02Z</time>
      </trkpt>
      <trkpt lat="45.93924" lon="4.72464">
        <ele>171</ele>
        <time>2017-08-26T09:18:03Z</time>
      </trkpt>
      <trkpt lat="45.93927" lon="4.7246">
        <ele>171</ele>
        <time>2017-08-26T09:18:04Z</time>
      </trkpt>
      <trkpt lat="45.9393" lon="4.72455">
        <ele>171</ele>
        <time>2017-08-26T09:18:05Z</time>
      </trkpt>
      <trkpt lat="45.93934" lon="4.72451">
        <ele>171</ele>
        <time>2017-08-26T09:18:06Z</time>
      </trkpt>
      <trkpt lat="45.93937" lon="4.72446">
        <ele>171</ele>
        <time>2017-08-26T09:18:07Z</time>
      </trkpt>
      <trkpt lat="45.93941" lon="4.72442">
        <ele>171</ele>
        <time>2017-08-26T09:18:08Z</time>
      </trkpt>
      <trkpt lat="45.93945" lon="4.72438">
        <ele>171</ele>
        <time>2017-08-26T09:18:09Z</time>
      </trkpt>
      <trkpt lat="45.93948" lon="4.72433">
        <ele>171</ele>
        <time>2017-08-26T09:18:10Z</time>
      </trkpt>
      <trkpt lat="45.93951" lon="4.72429">
        <ele>171</ele>
        <time>2017-08-26T09:18:11Z</time>
      </trkpt>
      <trkpt lat="45.93955" lon="4.72424">
        <ele>171</ele>
        <time>2017-08-26T09:18:12Z</time>
      </trkpt>
      <trkpt lat="45.93958" lon="4.7242">
        <ele>171</ele>
        <time>2017-08-26T09:18:13Z</time>
      </trkpt>
      <trkpt lat="45.93962" lon="4.72416">
        <ele>171</ele>
        <time>2017-08-26T09:18:14Z</time>
      </trkpt>
      <trkpt lat="45.93965" lon="4.72412">
        <ele>171</ele>
        <time>2017-08-26T09:18:15Z</time>
      </trkpt>
      <trkpt lat="45.93969" lon="4.72408">
        <ele>171</ele>
        <time>2017-08-26T09:18:16Z</time>
      </trkpt>
      <trkpt lat="45.93972" lon="4.72403">
        <ele>171</ele>
        <time>2017-08-26T09:18:17Z</time>
      </trkpt>
      <trkpt lat="45.93976" lon="4.72399">
        <ele>171</ele>
        <time>2017-08-26T09:18:18Z</time>
      </trkpt>
      <trkpt lat="45.9398" lon="4.72395">
        <ele>171</ele>
        <time>2017-08-26T09:18:19Z</time>
      </trkpt>
      <trkpt lat="45.93984" lon="4.7239">
        <ele>171</ele>
        <time>2017-08-26T09:18:20Z</time>
      </trkpt>
      <trkpt lat="45.93989" lon="4.72385">
        <ele>171</ele>
        <time>2017-08-26T09:18:21Z</time>
      </trkpt>
      <trkpt lat="45.93993" lon="4.7238">
        <ele>171</ele>
        <time>2017-08-26T09:18:22Z</time>
      </trkpt>
      <trkpt lat="45.93997" lon="4.72374">
        <ele>171</ele>
        <time>2017-08-26T09:18:23Z</time>
      </trkpt>
      <trkpt lat="45.94002" lon="4.72369">
        <ele>171</ele>
        <time>2017-08-26T09:18:24Z</time>
      </trkpt>
      <trkpt lat="45.94005" lon="4.72364">
        <ele>171</ele>
        <time>2017-08-26T09:18:25Z</time>
      </trkpt>
      <trkpt lat="45.94008" lon="4.72359">
        <ele>171</ele>
        <time>2017-08-26T09:18:26Z</time>
      </trkpt>
      <trkpt lat="45.94012" lon="4.72354">
        <ele>171</ele>
        <time>2017-08-26T09:18:27Z</time>
      </trkpt>
      <trkpt lat="45.94018" lon="4.72346">
        <ele>171</ele>
        <time>2017-08-26T09:18:29Z</time>
      </trkpt>
      <trkpt lat="45.94021" lon="4.72342">
        <ele>171</ele>
        <time>2017-08-26T09:18:30Z</time>
      </trkpt>
      <trkpt lat="45.94024" lon="4.72338">
        <ele>171</ele>
        <time>2017-08-26T09:18:31Z</time>
      </trkpt>
      <trkpt lat="45.94028" lon="4.72333">
        <ele>171</ele>
        <time>2017-08-26T09:18:32Z</time>
      </trkpt>
      <trkpt lat="45.94032" lon="4.72329">
        <ele>171</ele>
        <time>2017-08-26T09:18:33Z</time>
      </trkpt>
      <trkpt lat="45.94037" lon="4.72323">
        <ele>171</ele>
        <time>2017-08-26T09:18:34Z</time>
      </trkpt>
      <trkpt lat="45.94041" lon="4.72318">
        <ele>171</ele>
        <time>2017-08-26T09:18:35Z</time>
      </trkpt>
      <trkpt lat="45.94045" lon="4.72312">
        <ele>171</ele>
        <time>2017-08-26T09:18:36Z</time>
      </trkpt>
      <trkpt lat="45.94049" lon="4.72306">
        <ele>171</ele>
        <time>2017-08-26T09:18:37Z</time>
      </trkpt>
      <trkpt lat="45.94052" lon="4.72302">
        <ele>171</ele>
        <time>2017-08-26T09:18:38Z</time>
      </trkpt>
      <trkpt lat="45.94056" lon="4.72298">
        <ele>171</ele>
        <time>2017-08-26T09:18:39Z</time>
      </trkpt>
      <trkpt lat="45.9406" lon="4.72294">
        <ele>171</ele>
        <time>2017-08-26T09:18:40Z</time>
      </trkpt>
      <trkpt lat="45.94067" lon="4.72287">
        <ele>171</ele>
        <time>2017-08-26T09:18:42Z</time>
      </trkpt>
      <trkpt lat="45.9407" lon="4.72284">
        <ele>171</ele>
        <time>2017-08-26T09:18:43Z</time>
      </trkpt>
      <trkpt lat="45.94074" lon="4.72281">
        <ele>171</ele>
        <time>2017-08-26T09:18:44Z</time>
      </trkpt>
      <trkpt lat="45.94078" lon="4.72277">
        <ele>171</ele>
        <time>2017-08-26T09:18:45Z</time>
      </trkpt>
      <trkpt lat="45.94082" lon="4.72274">
        <ele>171</ele>
        <time>2017-08-26T09:18:46Z</time>
      </trkpt>
      <trkpt lat="45.94086" lon="4.72272">
        <ele>171</ele>
        <time>2017-08-26T09:18:47Z</time>
      </trkpt>
      <trkpt lat="45.94091" lon="4.7227">
        <ele>171</ele>
        <time>2017-08-26T09:18:48Z</time>
      </trkpt>
      <trkpt lat="45.94096" lon="4.72269">
        <ele>171</ele>
        <time>2017-08-26T09:18:49Z</time>
      </trkpt>
      <trkpt lat="45.941" lon="4.72269">
        <ele>171</ele>
        <time>2017-08-26T09:18:50Z</time>
      </trkpt>
      <trkpt lat="45.94105" lon="4.7227">
        <ele>171</ele>
        <time>2017-08-26T09:18:51Z</time>
      </trkpt>
      <trkpt lat="45.94112" lon="4.72273">
        <ele>171</ele>
        <time>2017-08-26T09:18:53Z</time>
      </trkpt>
      <trkpt lat="45.94116" lon="4.72275">
        <ele>171</ele>
        <time>2017-08-26T09:18:54Z</time>
      </trkpt>
      <trkpt lat="45.94123" lon="4.72279">
        <ele>171</ele>
        <time>2017-08-26T09:18:56Z</time>
      </trkpt>
      <trkpt lat="45.94127" lon="4.72281">
        <ele>171</ele>
        <time>2017-08-26T09:18:57Z</time>
      </trkpt>
      <trkpt lat="45.94131" lon="4.72283">
        <ele>171</ele>
        <time>2017-08-26T09:18:58Z</time>
      </trkpt>
      <trkpt lat="45.94136" lon="4.72285">
        <ele>171</ele>
        <time>2017-08-26T09:18:59Z</time>
      </trkpt>
      <trkpt lat="45.94141" lon="4.72287">
        <ele>171</ele>
        <time>2017-08-26T09:19:00Z</time>
      </trkpt>
      <trkpt lat="45.94146" lon="4.72289">
        <ele>171</ele>
        <time>2017-08-26T09:19:01Z</time>
      </trkpt>
      <trkpt lat="45.94151" lon="4.72291">
        <ele>171</ele>
        <time>2017-08-26T09:19:02Z</time>
      </trkpt>
      <trkpt lat="45.94157" lon="4.72291">
        <ele>171</ele>
        <time>2017-08-26T09:19:03Z</time>
      </trkpt>
      <trkpt lat="45.94161" lon="4.72292">
        <ele>171</ele>
        <time>2017-08-26T09:19:04Z</time>
      </trkpt>
      <trkpt lat="45.94166" lon="4.72292">
        <ele>171</ele>
        <time>2017-08-26T09:19:05Z</time>
      </trkpt>
      <trkpt lat="45.94171" lon="4.72293">
        <ele>171</ele>
        <time>2017-08-26T09:19:06Z</time>
      </trkpt>
      <trkpt lat="45.94175" lon="4.72293">
        <ele>171</ele>
        <time>2017-08-26T09:19:07Z</time>
      </trkpt>
      <trkpt lat="45.94184" lon="4.72294">
        <ele>171</ele>
        <time>2017-08-26T09:19:09Z</time>
      </trkpt>
      <trkpt lat="45.94188" lon="4.72294">
        <ele>171</ele>
        <time>2017-08-26T09:19:10Z</time>
      </trkpt>
      <trkpt lat="45.94192" lon="4.72294">
        <ele>171</ele>
        <time>2017-08-26T09:19:11Z</time>
      </trkpt>
      <trkpt lat="45.94197" lon="4.72294">
        <ele>171</ele>
        <time>2017-08-26T09:19:12Z</time>
      </trkpt>
      <trkpt lat="45.94202" lon="4.72295">
        <ele>171</ele>
        <time>2017-08-26T09:19:13Z</time>
      </trkpt>
      <trkpt lat="45.94207" lon="4.72295">
        <ele>171</ele>
        <time>2017-08-26T09:19:14Z</time>
      </trkpt>
      <trkpt lat="45.94212" lon="4.72295">
        <ele>171</ele>
        <time>2017-08-26T09:19:15Z</time>
      </trkpt>
      <trkpt lat="45.94217" lon="4.72294">
        <ele>171</ele>
        <time>2017-08-26T09:19:16Z</time>
      </trkpt>
      <trkpt lat="45.94222" lon="4.72293">
        <ele>171</ele>
        <time>2017-08-26T09:19:17Z</time>
      </trkpt>
      <trkpt lat="45.94226" lon="4.72292">
        <ele>171</ele>
        <time>2017-08-26T09:19:18Z</time>
      </trkpt>
      <trkpt lat="45.94233" lon="4.7229">
        <ele>171</ele>
        <time>2017-08-26T09:19:20Z</time>
      </trkpt>
      <trkpt lat="45.94238" lon="4.72287">
        <ele>171</ele>
        <time>2017-08-26T09:19:21Z</time>
      </trkpt>
      <trkpt lat="45.94242" lon="4.72286">
        <ele>171</ele>
        <time>2017-08-26T09:19:22Z</time>
      </trkpt>
      <trkpt lat="45.94247" lon="4.72285">
        <ele>171</ele>
        <time>2017-08-26T09:19:23Z</time>
      </trkpt>
      <trkpt lat="45.94251" lon="4.72283">
        <ele>171</ele>
        <time>2017-08-26T09:19:24Z</time>
      </trkpt>
      <trkpt lat="45.94256" lon="4.72279">
        <ele>171</ele>
        <time>2017-08-26T09:19:25Z</time>
      </trkpt>
      <trkpt lat="45.94265" lon="4.72277">
        <ele>171</ele>
        <time>2017-08-26T09:19:27Z</time>
      </trkpt>
      <trkpt lat="45.94269" lon="4.72278">
        <ele>171</ele>
        <time>2017-08-26T09:19:28Z</time>
      </trkpt>
      <trkpt lat="45.94275" lon="4.72285">
        <ele>171</ele>
        <time>2017-08-26T09:19:30Z</time>
      </trkpt>
      <trkpt lat="45.94277" lon="4.72291">
        <ele>171</ele>
        <time>2017-08-26T09:19:31Z</time>
      </trkpt>
      <trkpt lat="45.94279" lon="4.72297">
        <ele>171</ele>
        <time>2017-08-26T09:19:32Z</time>
      </trkpt>
      <trkpt lat="45.94282" lon="4.72303">
        <ele>171</ele>
        <time>2017-08-26T09:19:33Z</time>
      </trkpt>
      <trkpt lat="45.94285" lon="4.72309">
        <ele>171</ele>
        <time>2017-08-26T09:19:34Z</time>
      </trkpt>
      <trkpt lat="45.94288" lon="4.72315">
        <ele>171</ele>
        <time>2017-08-26T09:19:35Z</time>
      </trkpt>
      <trkpt lat="45.94291" lon="4.72321">
        <ele>171</ele>
        <time>2017-08-26T09:19:36Z</time>
      </trkpt>
      <trkpt lat="45.94293" lon="4.72328">
        <ele>171</ele>
        <time>2017-08-26T09:19:37Z</time>
      </trkpt>
      <trkpt lat="45.94296" lon="4.72334">
        <ele>172</ele>
        <time>2017-08-26T09:19:38Z</time>
      </trkpt>
      <trkpt lat="45.94298" lon="4.72339">
        <ele>172</ele>
        <time>2017-08-26T09:19:39Z</time>
      </trkpt>
      <trkpt lat="45.94303" lon="4.7235">
        <ele>172</ele>
        <time>2017-08-26T09:19:41Z</time>
      </trkpt>
      <trkpt lat="45.94306" lon="4.72355">
        <ele>172</ele>
        <time>2017-08-26T09:19:42Z</time>
      </trkpt>
      <trkpt lat="45.9431" lon="4.72366">
        <ele>172</ele>
        <time>2017-08-26T09:19:44Z</time>
      </trkpt>
      <trkpt lat="45.94313" lon="4.72372">
        <ele>172</ele>
        <time>2017-08-26T09:19:45Z</time>
      </trkpt>
      <trkpt lat="45.94315" lon="4.72378">
        <ele>172</ele>
        <time>2017-08-26T09:19:46Z</time>
      </trkpt>
      <trkpt lat="45.94318" lon="4.72384">
        <ele>172</ele>
        <time>2017-08-26T09:19:47Z</time>
      </trkpt>
      <trkpt lat="45.94321" lon="4.7239">
        <ele>172</ele>
        <time>2017-08-26T09:19:48Z</time>
      </trkpt>
      <trkpt lat="45.94323" lon="4.72396">
        <ele>172</ele>
        <time>2017-08-26T09:19:49Z</time>
      </trkpt>
      <trkpt lat="45.94326" lon="4.72401">
        <ele>173</ele>
        <time>2017-08-26T09:19:50Z</time>
      </trkpt>
      <trkpt lat="45.9433" lon="4.72407">
        <ele>173</ele>
        <time>2017-08-26T09:19:51Z</time>
      </trkpt>
      <trkpt lat="45.94333" lon="4.72414">
        <ele>173</ele>
        <time>2017-08-26T09:19:52Z</time>
      </trkpt>
      <trkpt lat="45.94336" lon="4.7242">
        <ele>173</ele>
        <time>2017-08-26T09:19:53Z</time>
      </trkpt>
      <trkpt lat="45.94339" lon="4.72427">
        <ele>173</ele>
        <time>2017-08-26T09:19:54Z</time>
      </trkpt>
      <trkpt lat="45.94342" lon="4.72433">
        <ele>173</ele>
        <time>2017-08-26T09:19:55Z</time>
      </trkpt>
      <trkpt lat="45.94346" lon="4.72439">
        <ele>173</ele>
        <time>2017-08-26T09:19:56Z</time>
      </trkpt>
      <trkpt lat="45.94349" lon="4.72444">
        <ele>173</ele>
        <time>2017-08-26T09:19:57Z</time>
      </trkpt>
      <trkpt lat="45.94353" lon="4.72455">
        <ele>173</ele>
        <time>2017-08-26T09:19:59Z</time>
      </trkpt>
      <trkpt lat="45.94355" lon="4.7246">
        <ele>173</ele>
        <time>2017-08-26T09:20:00Z</time>
      </trkpt>
      <trkpt lat="45.9436" lon="4.7247">
        <ele>173</ele>
        <time>2017-08-26T09:20:02Z</time>
      </trkpt>
      <trkpt lat="45.94363" lon="4.72475">
        <ele>173</ele>
        <time>2017-08-26T09:20:03Z</time>
      </trkpt>
      <trkpt lat="45.94365" lon="4.72482">
        <ele>173</ele>
        <time>2017-08-26T09:20:04Z</time>
      </trkpt>
      <trkpt lat="45.94368" lon="4.72489">
        <ele>173</ele>
        <time>2017-08-26T09:20:05Z</time>
      </trkpt>
      <trkpt lat="45.9437" lon="4.72496">
        <ele>173</ele>
        <time>2017-08-26T09:20:06Z</time>
      </trkpt>
      <trkpt lat="45.94373" lon="4.72502">
        <ele>173</ele>
        <time>2017-08-26T09:20:07Z</time>
      </trkpt>
      <trkpt lat="45.94375" lon="4.72509">
        <ele>173</ele>
        <time>2017-08-26T09:20:08Z</time>
      </trkpt>
      <trkpt lat="45.94377" lon="4.72515">
        <ele>174</ele>
        <time>2017-08-26T09:20:09Z</time>
      </trkpt>
      <trkpt lat="45.94379" lon="4.72521">
        <ele>174</ele>
        <time>2017-08-26T09:20:10Z</time>
      </trkpt>
      <trkpt lat="45.9438" lon="4.72527">
        <ele>174</ele>
        <time>2017-08-26T09:20:11Z</time>
      </trkpt>
      <trkpt lat="45.94383" lon="4.72538">
        <ele>174</ele>
        <time>2017-08-26T09:20:13Z</time>
      </trkpt>
      <trkpt lat="45.94384" lon="4.72544">
        <ele>173</ele>
        <time>2017-08-26T09:20:14Z</time>
      </trkpt>
      <trkpt lat="45.94387" lon="4.72556">
        <ele>173</ele>
        <time>2017-08-26T09:20:16Z</time>
      </trkpt>
      <trkpt lat="45.94388" lon="4.72563">
        <ele>173</ele>
        <time>2017-08-26T09:20:17Z</time>
      </trkpt>
      <trkpt lat="45.9439" lon="4.7257">
        <ele>173</ele>
        <time>2017-08-26T09:20:18Z</time>
      </trkpt>
      <trkpt lat="45.94391" lon="4.72578">
        <ele>173</ele>
        <time>2017-08-26T09:20:19Z</time>
      </trkpt>
      <trkpt lat="45.94392" lon="4.72586">
        <ele>173</ele>
        <time>2017-08-26T09:20:20Z</time>
      </trkpt>
      <trkpt lat="45.94393" lon="4.72594">
        <ele>173</ele>
        <time>2017-08-26T09:20:21Z</time>
      </trkpt>
      <trkpt lat="45.94394" lon="4.72601">
        <ele>173</ele>
        <time>2017-08-26T09:20:22Z</time>
      </trkpt>
      <trkpt lat="45.94395" lon="4.72608">
        <ele>173</ele>
        <time>2017-08-26T09:20:23Z</time>
      </trkpt>
      <trkpt lat="45.94396" lon="4.72615">
        <ele>173</ele>
        <time>2017-08-26T09:20:24Z</time>
      </trkpt>
      <trkpt lat="45.94397" lon="4.72622">
        <ele>173</ele>
        <time>2017-08-26T09:20:25Z</time>
      </trkpt>
      <trkpt lat="45.94399" lon="4.72634">
        <ele>174</ele>
        <time>2017-08-26T09:20:27Z</time>
      </trkpt>
      <trkpt lat="45.94399" lon="4.7264">
        <ele>174</ele>
        <time>2017-08-26T09:20:28Z</time>
      </trkpt>
      <trkpt lat="45.944" lon="4.72651">
        <ele>174</ele>
        <time>2017-08-26T09:20:30Z</time>
      </trkpt>
      <trkpt lat="45.94401" lon="4.72658">
        <ele>174</ele>
        <time>2017-08-26T09:20:31Z</time>
      </trkpt>
      <trkpt lat="45.94402" lon="4.72665">
        <ele>174</ele>
        <time>2017-08-26T09:20:32Z</time>
      </trkpt>
      <trkpt lat="45.94403" lon="4.72672">
        <ele>173</ele>
        <time>2017-08-26T09:20:33Z</time>
      </trkpt>
      <trkpt lat="45.94404" lon="4.72679">
        <ele>173</ele>
        <time>2017-08-26T09:20:34Z</time>
      </trkpt>
      <trkpt lat="45.94404" lon="4.72686">
        <ele>173</ele>
        <time>2017-08-26T09:20:35Z</time>
      </trkpt>
      <trkpt lat="45.94405" lon="4.72692">
        <ele>173</ele>
        <time>2017-08-26T09:20:36Z</time>
      </trkpt>
      <trkpt lat="45.94405" lon="4.727">
        <ele>172</ele>
        <time>2017-08-26T09:20:37Z</time>
      </trkpt>
      <trkpt lat="45.94406" lon="4.72707">
        <ele>172</ele>
        <time>2017-08-26T09:20:38Z</time>
      </trkpt>
      <trkpt lat="45.94407" lon="4.72714">
        <ele>172</ele>
        <time>2017-08-26T09:20:39Z</time>
      </trkpt>
      <trkpt lat="45.94408" lon="4.72721">
        <ele>172</ele>
        <time>2017-08-26T09:20:40Z</time>
      </trkpt>
      <trkpt lat="45.94409" lon="4.72728">
        <ele>172</ele>
        <time>2017-08-26T09:20:41Z</time>
      </trkpt>
      <trkpt lat="45.94409" lon="4.72735">
        <ele>172</ele>
        <time>2017-08-26T09:20:42Z</time>
      </trkpt>
      <trkpt lat="45.9441" lon="4.72742">
        <ele>171</ele>
        <time>2017-08-26T09:20:43Z</time>
      </trkpt>
      <trkpt lat="45.94411" lon="4.72749">
        <ele>171</ele>
        <time>2017-08-26T09:20:44Z</time>
      </trkpt>
      <trkpt lat="45.94413" lon="4.72756">
        <ele>170</ele>
        <time>2017-08-26T09:20:45Z</time>
      </trkpt>
      <trkpt lat="45.94414" lon="4.72763">
        <ele>170</ele>
        <time>2017-08-26T09:20:46Z</time>
      </trkpt>
      <trkpt lat="45.94415" lon="4.7277">
        <ele>169</ele>
        <time>2017-08-26T09:20:47Z</time>
      </trkpt>
      <trkpt lat="45.94417" lon="4.72777">
        <ele>169</ele>
        <time>2017-08-26T09:20:48Z</time>
      </trkpt>
      <trkpt lat="45.94418" lon="4.72784">
        <ele>168</ele>
        <time>2017-08-26T09:20:49Z</time>
      </trkpt>
      <trkpt lat="45.94419" lon="4.72791">
        <ele>168</ele>
        <time>2017-08-26T09:20:50Z</time>
      </trkpt>
      <trkpt lat="45.9442" lon="4.72798">
        <ele>167</ele>
        <time>2017-08-26T09:20:51Z</time>
      </trkpt>
      <trkpt lat="45.94421" lon="4.72804">
        <ele>167</ele>
        <time>2017-08-26T09:20:52Z</time>
      </trkpt>
      <trkpt lat="45.94422" lon="4.72811">
        <ele>167</ele>
        <time>2017-08-26T09:20:53Z</time>
      </trkpt>
      <trkpt lat="45.94423" lon="4.72818">
        <ele>167</ele>
        <time>2017-08-26T09:20:54Z</time>
      </trkpt>
      <trkpt lat="45.94424" lon="4.72824">
        <ele>167</ele>
        <time>2017-08-26T09:20:55Z</time>
      </trkpt>
      <trkpt lat="45.94425" lon="4.72832">
        <ele>166</ele>
        <time>2017-08-26T09:20:56Z</time>
      </trkpt>
      <trkpt lat="45.94426" lon="4.72838">
        <ele>166</ele>
        <time>2017-08-26T09:20:57Z</time>
      </trkpt>
      <trkpt lat="45.94427" lon="4.72845">
        <ele>166</ele>
        <time>2017-08-26T09:20:58Z</time>
      </trkpt>
      <trkpt lat="45.94428" lon="4.72852">
        <ele>166</ele>
        <time>2017-08-26T09:20:59Z</time>
      </trkpt>
      <trkpt lat="45.94429" lon="4.72858">
        <ele>166</ele>
        <time>2017-08-26T09:21:00Z</time>
      </trkpt>
      <trkpt lat="45.9443" lon="4.72865">
        <ele>166</ele>
        <time>2017-08-26T09:21:01Z</time>
      </trkpt>
      <trkpt lat="45.94431" lon="4.72872">
        <ele>166</ele>
        <time>2017-08-26T09:21:02Z</time>
      </trkpt>
      <trkpt lat="45.94432" lon="4.72879">
        <ele>166</ele>
        <time>2017-08-26T09:21:03Z</time>
      </trkpt>
      <trkpt lat="45.94434" lon="4.7289">
        <ele>166</ele>
        <time>2017-08-26T09:21:05Z</time>
      </trkpt>
      <trkpt lat="45.94435" lon="4.72895">
        <ele>166</ele>
        <time>2017-08-26T09:21:06Z</time>
      </trkpt>
      <trkpt lat="45.94436" lon="4.72906">
        <ele>166</ele>
        <time>2017-08-26T09:21:08Z</time>
      </trkpt>
      <trkpt lat="45.94436" lon="4.72912">
        <ele>166</ele>
        <time>2017-08-26T09:21:09Z</time>
      </trkpt>
      <trkpt lat="45.94438" lon="4.72924">
        <ele>167</ele>
        <time>2017-08-26T09:21:11Z</time>
      </trkpt>
      <trkpt lat="45.94439" lon="4.72931">
        <ele>167</ele>
        <time>2017-08-26T09:21:12Z</time>
      </trkpt>
      <trkpt lat="45.9444" lon="4.72937">
        <ele>167</ele>
        <time>2017-08-26T09:21:13Z</time>
      </trkpt>
      <trkpt lat="45.9444" lon="4.72943">
        <ele>167</ele>
        <time>2017-08-26T09:21:14Z</time>
      </trkpt>
      <trkpt lat="45.94441" lon="4.7295">
        <ele>167</ele>
        <time>2017-08-26T09:21:15Z</time>
      </trkpt>
      <trkpt lat="45.94442" lon="4.72957">
        <ele>167</ele>
        <time>2017-08-26T09:21:16Z</time>
      </trkpt>
      <trkpt lat="45.94443" lon="4.72964">
        <ele>167</ele>
        <time>2017-08-26T09:21:17Z</time>
      </trkpt>
      <trkpt lat="45.94444" lon="4.72971">
        <ele>167</ele>
        <time>2017-08-26T09:21:18Z</time>
      </trkpt>
      <trkpt lat="45.94445" lon="4.72979">
        <ele>167</ele>
        <time>2017-08-26T09:21:19Z</time>
      </trkpt>
      <trkpt lat="45.94446" lon="4.72987">
        <ele>167</ele>
        <time>2017-08-26T09:21:20Z</time>
      </trkpt>
      <trkpt lat="45.94448" lon="4.72995">
        <ele>167</ele>
        <time>2017-08-26T09:21:21Z</time>
      </trkpt>
      <trkpt lat="45.94449" lon="4.73004">
        <ele>169</ele>
        <time>2017-08-26T09:21:22Z</time>
      </trkpt>
      <trkpt lat="45.9445" lon="4.73012">
        <ele>169</ele>
        <time>2017-08-26T09:21:23Z</time>
      </trkpt>
      <trkpt lat="45.94451" lon="4.73021">
        <ele>169</ele>
        <time>2017-08-26T09:21:24Z</time>
      </trkpt>
      <trkpt lat="45.94453" lon="4.7303">
        <ele>169</ele>
        <time>2017-08-26T09:21:25Z</time>
      </trkpt>
      <trkpt lat="45.94454" lon="4.73039">
        <ele>169</ele>
        <time>2017-08-26T09:21:26Z</time>
      </trkpt>
      <trkpt lat="45.94455" lon="4.73049">
        <ele>169</ele>
        <time>2017-08-26T09:21:27Z</time>
      </trkpt>
      <trkpt lat="45.94455" lon="4.73058">
        <ele>170</ele>
        <time>2017-08-26T09:21:28Z</time>
      </trkpt>
      <trkpt lat="45.94456" lon="4.73067">
        <ele>170</ele>
        <time>2017-08-26T09:21:29Z</time>
      </trkpt>
      <trkpt lat="45.94458" lon="4.73074">
        <ele>170</ele>
        <time>2017-08-26T09:21:30Z</time>
      </trkpt>
      <trkpt lat="45.94461" lon="4.73079">
        <ele>170</ele>
        <time>2017-08-26T09:21:31Z</time>
      </trkpt>
      <trkpt lat="45.94466" lon="4.73081">
        <ele>170</ele>
        <time>2017-08-26T09:21:32Z</time>
      </trkpt>
      <trkpt lat="45.94472" lon="4.73083">
        <ele>170</ele>
        <time>2017-08-26T09:21:33Z</time>
      </trkpt>
      <trkpt lat="45.94478" lon="4.73084">
        <ele>172</ele>
        <time>2017-08-26T09:21:34Z</time>
      </trkpt>
      <trkpt lat="45.94484" lon="4.73086">
        <ele>172</ele>
        <time>2017-08-26T09:21:35Z</time>
      </trkpt>
      <trkpt lat="45.9449" lon="4.7309">
        <ele>172</ele>
        <time>2017-08-26T09:21:36Z</time>
      </trkpt>
      <trkpt lat="45.94496" lon="4.73093">
        <ele>172</ele>
        <time>2017-08-26T09:21:37Z</time>
      </trkpt>
      <trkpt lat="45.94502" lon="4.73096">
        <ele>172</ele>
        <time>2017-08-26T09:21:38Z</time>
      </trkpt>
      <trkpt lat="45.94508" lon="4.73099">
        <ele>172</ele>
        <time>2017-08-26T09:21:39Z</time>
      </trkpt>
      <trkpt lat="45.94514" lon="4.73102">
        <ele>172</ele>
        <time>2017-08-26T09:21:40Z</time>
      </trkpt>
      <trkpt lat="45.94519" lon="4.73104">
        <ele>173</ele>
        <time>2017-08-26T09:21:41Z</time>
      </trkpt>
      <trkpt lat="45.94525" lon="4.73107">
        <ele>173</ele>
        <time>2017-08-26T09:21:42Z</time>
      </trkpt>
      <trkpt lat="45.9453" lon="4.73109">
        <ele>173</ele>
        <time>2017-08-26T09:21:43Z</time>
      </trkpt>
      <trkpt lat="45.94535" lon="4.7311">
        <ele>173</ele>
        <time>2017-08-26T09:21:44Z</time>
      </trkpt>
      <trkpt lat="45.94543" lon="4.73115">
        <ele>173</ele>
        <time>2017-08-26T09:21:46Z</time>
      </trkpt>
      <trkpt lat="45.94548" lon="4.73117">
        <ele>173</ele>
        <time>2017-08-26T09:21:47Z</time>
      </trkpt>
      <trkpt lat="45.94555" lon="4.73119">
        <ele>173</ele>
        <time>2017-08-26T09:21:49Z</time>
      </trkpt>
      <trkpt lat="45.94557" lon="4.73119">
        <ele>173</ele>
        <time>2017-08-26T09:21:50Z</time>
      </trkpt>
      <trkpt lat="45.9456" lon="4.7312">
        <ele>173</ele>
        <time>2017-08-26T09:21:52Z</time>
      </trkpt>
      <trkpt lat="45.94561" lon="4.73119">
        <ele>173</ele>
        <time>2017-08-26T09:21:53Z</time>
      </trkpt>
      <trkpt lat="45.94557" lon="4.73119">
        <ele>173</ele>
        <time>2017-08-26T09:21:56Z</time>
      </trkpt>
      <trkpt lat="45.94556" lon="4.73118">
        <ele>173</ele>
        <time>2017-08-26T09:21:57Z</time>
      </trkpt>
      <trkpt lat="45.94555" lon="4.73106">
        <ele>173</ele>
        <time>2017-08-26T09:21:59Z</time>
      </trkpt>
      <trkpt lat="45.94556" lon="4.73102">
        <ele>173</ele>
        <time>2017-08-26T09:22:00Z</time>
      </trkpt>
      <trkpt lat="45.94557" lon="4.73092">
        <ele>172</ele>
        <time>2017-08-26T09:22:02Z</time>
      </trkpt>
      <trkpt lat="45.94557" lon="4.73087">
        <ele>172</ele>
        <time>2017-08-26T09:22:03Z</time>
      </trkpt>
      <trkpt lat="45.94558" lon="4.73074">
        <ele>172</ele>
        <time>2017-08-26T09:22:05Z</time>
      </trkpt>
      <trkpt lat="45.94558" lon="4.73068">
        <ele>172</ele>
        <time>2017-08-26T09:22:06Z</time>
      </trkpt>
      <trkpt lat="45.94557" lon="4.73056">
        <ele>172</ele>
        <time>2017-08-26T09:22:08Z</time>
      </trkpt>
      <trkpt lat="45.94558" lon="4.7305">
        <ele>172</ele>
        <time>2017-08-26T09:22:09Z</time>
      </trkpt>
      <trkpt lat="45.94557" lon="4.73039">
        <ele>171</ele>
        <time>2017-08-26T09:22:11Z</time>
      </trkpt>
      <trkpt lat="45.94555" lon="4.73034">
        <ele>171</ele>
        <time>2017-08-26T09:22:12Z</time>
      </trkpt>
      <trkpt lat="45.94549" lon="4.73028">
        <ele>171</ele>
        <time>2017-08-26T09:22:14Z</time>
      </trkpt>
      <trkpt lat="45.94546" lon="4.73024">
        <ele>171</ele>
        <time>2017-08-26T09:22:15Z</time>
      </trkpt>
      <trkpt lat="45.9454" lon="4.73017">
        <ele>171</ele>
        <time>2017-08-26T09:22:17Z</time>
      </trkpt>
      <trkpt lat="45.94536" lon="4.73014">
        <ele>171</ele>
        <time>2017-08-26T09:22:18Z</time>
      </trkpt>
      <trkpt lat="45.94531" lon="4.73011">
        <ele>171</ele>
        <time>2017-08-26T09:22:19Z</time>
      </trkpt>
      <trkpt lat="45.94525" lon="4.73011">
        <ele>171</ele>
        <time>2017-08-26T09:22:20Z</time>
      </trkpt>
      <trkpt lat="45.9452" lon="4.73011">
        <ele>171</ele>
        <time>2017-08-26T09:22:21Z</time>
      </trkpt>
      <trkpt lat="45.94515" lon="4.73011">
        <ele>171</ele>
        <time>2017-08-26T09:22:22Z</time>
      </trkpt>
      <trkpt lat="45.94509" lon="4.73011">
        <ele>171</ele>
        <time>2017-08-26T09:22:23Z</time>
      </trkpt>
      <trkpt lat="45.94503" lon="4.73011">
        <ele>171</ele>
        <time>2017-08-26T09:22:24Z</time>
      </trkpt>
      <trkpt lat="45.94498" lon="4.73012">
        <ele>170</ele>
        <time>2017-08-26T09:22:25Z</time>
      </trkpt>
      <trkpt lat="45.94493" lon="4.73014">
        <ele>170</ele>
        <time>2017-08-26T09:22:26Z</time>
      </trkpt>
      <trkpt lat="45.94488" lon="4.73015">
        <ele>170</ele>
        <time>2017-08-26T09:22:27Z</time>
      </trkpt>
      <trkpt lat="45.94484" lon="4.73015">
        <ele>170</ele>
        <time>2017-08-26T09:22:28Z</time>
      </trkpt>
      <trkpt lat="45.94475" lon="4.73016">
        <ele>170</ele>
        <time>2017-08-26T09:22:30Z</time>
      </trkpt>
      <trkpt lat="45.94471" lon="4.73016">
        <ele>170</ele>
        <time>2017-08-26T09:22:31Z</time>
      </trkpt>
      <trkpt lat="45.94464" lon="4.73017">
        <ele>169</ele>
        <time>2017-08-26T09:22:33Z</time>
      </trkpt>
      <trkpt lat="45.94461" lon="4.73017">
        <ele>169</ele>
        <time>2017-08-26T09:22:34Z</time>
      </trkpt>
      <trkpt lat="45.94453" lon="4.73018">
        <ele>169</ele>
        <time>2017-08-26T09:22:36Z</time>
      </trkpt>
      <trkpt lat="45.94449" lon="4.73019">
        <ele>169</ele>
        <time>2017-08-26T09:22:37Z</time>
      </trkpt>
      <trkpt lat="45.94441" lon="4.73024">
        <ele>169</ele>
        <time>2017-08-26T09:22:39Z</time>
      </trkpt>
      <trkpt lat="45.94438" lon="4.73026">
        <ele>169</ele>
        <time>2017-08-26T09:22:40Z</time>
      </trkpt>
      <trkpt lat="45.94432" lon="4.73034">
        <ele>169</ele>
        <time>2017-08-26T09:22:42Z</time>
      </trkpt>
      <trkpt lat="45.94428" lon="4.73038">
        <ele>169</ele>
        <time>2017-08-26T09:22:43Z</time>
      </trkpt>
      <trkpt lat="45.94425" lon="4.73043">
        <ele>169</ele>
        <time>2017-08-26T09:22:44Z</time>
      </trkpt>
      <trkpt lat="45.94421" lon="4.73047">
        <ele>169</ele>
        <time>2017-08-26T09:22:45Z</time>
      </trkpt>
      <trkpt lat="45.94417" lon="4.73051">
        <ele>167</ele>
        <time>2017-08-26T09:22:46Z</time>
      </trkpt>
      <trkpt lat="45.94413" lon="4.73055">
        <ele>167</ele>
        <time>2017-08-26T09:22:47Z</time>
      </trkpt>
      <trkpt lat="45.94406" lon="4.73062">
        <ele>168</ele>
        <time>2017-08-26T09:22:49Z</time>
      </trkpt>
      <trkpt lat="45.94403" lon="4.73064">
        <ele>168</ele>
        <time>2017-08-26T09:22:50Z</time>
      </trkpt>
      <trkpt lat="45.94397" lon="4.7307">
        <ele>168</ele>
        <time>2017-08-26T09:22:52Z</time>
      </trkpt>
      <trkpt lat="45.94393" lon="4.73073">
        <ele>167</ele>
        <time>2017-08-26T09:22:53Z</time>
      </trkpt>
      <trkpt lat="45.94389" lon="4.73077">
        <ele>167</ele>
        <time>2017-08-26T09:22:54Z</time>
      </trkpt>
      <trkpt lat="45.94384" lon="4.7308">
        <ele>167</ele>
        <time>2017-08-26T09:22:55Z</time>
      </trkpt>
      <trkpt lat="45.9438" lon="4.73084">
        <ele>169</ele>
        <time>2017-08-26T09:22:56Z</time>
      </trkpt>
      <trkpt lat="45.94376" lon="4.73087">
        <ele>169</ele>
        <time>2017-08-26T09:22:57Z</time>
      </trkpt>
      <trkpt lat="45.94372" lon="4.73091">
        <ele>169</ele>
        <time>2017-08-26T09:22:58Z</time>
      </trkpt>
      <trkpt lat="45.94368" lon="4.73095">
        <ele>169</ele>
        <time>2017-08-26T09:22:59Z</time>
      </trkpt>
      <trkpt lat="45.94364" lon="4.73099">
        <ele>169</ele>
        <time>2017-08-26T09:23:00Z</time>
      </trkpt>
      <trkpt lat="45.9436" lon="4.73103">
        <ele>169</ele>
        <time>2017-08-26T09:23:01Z</time>
      </trkpt>
      <trkpt lat="45.94356" lon="4.73106">
        <ele>169</ele>
        <time>2017-08-26T09:23:02Z</time>
      </trkpt>
      <trkpt lat="45.94352" lon="4.73109">
        <ele>169</ele>
        <time>2017-08-26T09:23:03Z</time>
      </trkpt>
      <trkpt lat="45.94345" lon="4.73114">
        <ele>169</ele>
        <time>2017-08-26T09:23:05Z</time>
      </trkpt>
      <trkpt lat="45.94342" lon="4.73117">
        <ele>169</ele>
        <time>2017-08-26T09:23:06Z</time>
      </trkpt>
      <trkpt lat="45.94335" lon="4.73122">
        <ele>169</ele>
        <time>2017-08-26T09:23:08Z</time>
      </trkpt>
      <trkpt lat="45.94332" lon="4.73125">
        <ele>168</ele>
        <time>2017-08-26T09:23:09Z</time>
      </trkpt>
      <trkpt lat="45.94328" lon="4.73128">
        <ele>168</ele>
        <time>2017-08-26T09:23:10Z</time>
      </trkpt>
      <trkpt lat="45.94324" lon="4.73131">
        <ele>168</ele>
        <time>2017-08-26T09:23:11Z</time>
      </trkpt>
      <trkpt lat="45.94319" lon="4.73134">
        <ele>168</ele>
        <time>2017-08-26T09:23:12Z</time>
      </trkpt>
      <trkpt lat="45.94315" lon="4.73137">
        <ele>168</ele>
        <time>2017-08-26T09:23:13Z</time>
      </trkpt>
      <trkpt lat="45.94308" lon="4.73143">
        <ele>168</ele>
        <time>2017-08-26T09:23:15Z</time>
      </trkpt>
      <trkpt lat="45.94305" lon="4.73146">
        <ele>168</ele>
        <time>2017-08-26T09:23:16Z</time>
      </trkpt>
      <trkpt lat="45.94298" lon="4.73151">
        <ele>168</ele>
        <time>2017-08-26T09:23:18Z</time>
      </trkpt>
      <trkpt lat="45.94294" lon="4.73154">
        <ele>167</ele>
        <time>2017-08-26T09:23:19Z</time>
      </trkpt>
      <trkpt lat="45.94289" lon="4.73162">
        <ele>167</ele>
        <time>2017-08-26T09:23:21Z</time>
      </trkpt>
      <trkpt lat="45.94287" lon="4.73165">
        <ele>167</ele>
        <time>2017-08-26T09:23:22Z</time>
      </trkpt>
      <trkpt lat="45.94282" lon="4.73171">
        <ele>169</ele>
        <time>2017-08-26T09:23:24Z</time>
      </trkpt>
      <trkpt lat="45.94279" lon="4.73174">
        <ele>169</ele>
        <time>2017-08-26T09:23:25Z</time>
      </trkpt>
      <trkpt lat="45.94277" lon="4.73176">
        <ele>169</ele>
        <time>2017-08-26T09:23:26Z</time>
      </trkpt>
      <trkpt lat="45.94276" lon="4.73176">
        <ele>169</ele>
        <time>2017-08-26T09:23:27Z</time>
      </trkpt>
      <trkpt lat="45.94273" lon="4.73178">
        <ele>169</ele>
        <time>2017-08-26T09:24:14Z</time>
      </trkpt>
      <trkpt lat="45.94273" lon="4.73181">
        <ele>169</ele>
        <time>2017-08-26T09:24:15Z</time>
      </trkpt>
      <trkpt lat="45.94265" lon="4.73183">
        <ele>169</ele>
        <time>2017-08-26T09:24:20Z</time>
      </trkpt>
      <trkpt lat="45.94262" lon="4.73185">
        <ele>169</ele>
        <time>2017-08-26T09:24:21Z</time>
      </trkpt>
      <trkpt lat="45.94255" lon="4.73189">
        <ele>169</ele>
        <time>2017-08-26T09:24:23Z</time>
      </trkpt>
      <trkpt lat="45.94252" lon="4.73192">
        <ele>169</ele>
        <time>2017-08-26T09:24:24Z</time>
      </trkpt>
      <trkpt lat="45.94244" lon="4.73197">
        <ele>168</ele>
        <time>2017-08-26T09:24:26Z</time>
      </trkpt>
      <trkpt lat="45.9424" lon="4.73199">
        <ele>168</ele>
        <time>2017-08-26T09:24:27Z</time>
      </trkpt>
      <trkpt lat="45.94236" lon="4.73203">
        <ele>168</ele>
        <time>2017-08-26T09:24:28Z</time>
      </trkpt>
      <trkpt lat="45.94232" lon="4.73206">
        <ele>169</ele>
        <time>2017-08-26T09:24:29Z</time>
      </trkpt>
      <trkpt lat="45.94227" lon="4.73211">
        <ele>169</ele>
        <time>2017-08-26T09:24:30Z</time>
      </trkpt>
      <trkpt lat="45.94223" lon="4.73214">
        <ele>169</ele>
        <time>2017-08-26T09:24:31Z</time>
      </trkpt>
      <trkpt lat="45.94216" lon="4.73221">
        <ele>169</ele>
        <time>2017-08-26T09:24:33Z</time>
      </trkpt>
      <trkpt lat="45.94213" lon="4.73224">
        <ele>169</ele>
        <time>2017-08-26T09:24:34Z</time>
      </trkpt>
      <trkpt lat="45.94206" lon="4.7323">
        <ele>169</ele>
        <time>2017-08-26T09:24:36Z</time>
      </trkpt>
      <trkpt lat="45.94203" lon="4.73232">
        <ele>169</ele>
        <time>2017-08-26T09:24:37Z</time>
      </trkpt>
      <trkpt lat="45.94199" lon="4.73235">
        <ele>169</ele>
        <time>2017-08-26T09:24:38Z</time>
      </trkpt>
      <trkpt lat="45.94195" lon="4.73238">
        <ele>169</ele>
        <time>2017-08-26T09:24:39Z</time>
      </trkpt>
      <trkpt lat="45.94191" lon="4.73241">
        <ele>169</ele>
        <time>2017-08-26T09:24:40Z</time>
      </trkpt>
      <trkpt lat="45.94187" lon="4.73245">
        <ele>169</ele>
        <time>2017-08-26T09:24:41Z</time>
      </trkpt>
      <trkpt lat="45.94183" lon="4.73249">
        <ele>169</ele>
        <time>2017-08-26T09:24:42Z</time>
      </trkpt>
      <trkpt lat="45.94179" lon="4.73252">
        <ele>171</ele>
        <time>2017-08-26T09:24:43Z</time>
      </trkpt>
      <trkpt lat="45.94173" lon="4.73259">
        <ele>171</ele>
        <time>2017-08-26T09:24:45Z</time>
      </trkpt>
      <trkpt lat="45.9417" lon="4.73262">
        <ele>171</ele>
        <time>2017-08-26T09:24:46Z</time>
      </trkpt>
      <trkpt lat="45.94163" lon="4.73268">
        <ele>170</ele>
        <time>2017-08-26T09:24:48Z</time>
      </trkpt>
      <trkpt lat="45.94158" lon="4.73271">
        <ele>170</ele>
        <time>2017-08-26T09:24:49Z</time>
      </trkpt>
      <trkpt lat="45.94154" lon="4.73275">
        <ele>170</ele>
        <time>2017-08-26T09:24:50Z</time>
      </trkpt>
      <trkpt lat="45.9415" lon="4.7328">
        <ele>170</ele>
        <time>2017-08-26T09:24:51Z</time>
      </trkpt>
      <trkpt lat="45.94146" lon="4.73284">
        <ele>170</ele>
        <time>2017-08-26T09:24:52Z</time>
      </trkpt>
      <trkpt lat="45.94142" lon="4.73289">
        <ele>170</ele>
        <time>2017-08-26T09:24:53Z</time>
      </trkpt>
      <trkpt lat="45.94139" lon="4.73293">
        <ele>170</ele>
        <time>2017-08-26T09:24:54Z</time>
      </trkpt>
      <trkpt lat="45.94136" lon="4.73298">
        <ele>170</ele>
        <time>2017-08-26T09:24:55Z</time>
      </trkpt>
      <trkpt lat="45.9413" lon="4.73308">
        <ele>170</ele>
        <time>2017-08-26T09:24:57Z</time>
      </trkpt>
      <trkpt lat="45.94127" lon="4.73311">
        <ele>170</ele>
        <time>2017-08-26T09:24:58Z</time>
      </trkpt>
      <trkpt lat="45.94122" lon="4.7332">
        <ele>171</ele>
        <time>2017-08-26T09:25:00Z</time>
      </trkpt>
      <trkpt lat="45.94119" lon="4.73324">
        <ele>171</ele>
        <time>2017-08-26T09:25:01Z</time>
      </trkpt>
      <trkpt lat="45.94113" lon="4.73334">
        <ele>173</ele>
        <time>2017-08-26T09:25:03Z</time>
      </trkpt>
      <trkpt lat="45.94109" lon="4.73338">
        <ele>173</ele>
        <time>2017-08-26T09:25:04Z</time>
      </trkpt>
      <trkpt lat="45.94106" lon="4.73343">
        <ele>173</ele>
        <time>2017-08-26T09:25:05Z</time>
      </trkpt>
      <trkpt lat="45.94103" lon="4.73349">
        <ele>173</ele>
        <time>2017-08-26T09:25:06Z</time>
      </trkpt>
      <trkpt lat="45.941" lon="4.73354">
        <ele>173</ele>
        <time>2017-08-26T09:25:07Z</time>
      </trkpt>
      <trkpt lat="45.94096" lon="4.73359">
        <ele>173</ele>
        <time>2017-08-26T09:25:08Z</time>
      </trkpt>
      <trkpt lat="45.94093" lon="4.73364">
        <ele>173</ele>
        <time>2017-08-26T09:25:09Z</time>
      </trkpt>
      <trkpt lat="45.94089" lon="4.73369">
        <ele>173</ele>
        <time>2017-08-26T09:25:10Z</time>
      </trkpt>
      <trkpt lat="45.94086" lon="4.73374">
        <ele>173</ele>
        <time>2017-08-26T09:25:11Z</time>
      </trkpt>
      <trkpt lat="45.94083" lon="4.73378">
        <ele>171</ele>
        <time>2017-08-26T09:25:12Z</time>
      </trkpt>
      <trkpt lat="45.94078" lon="4.73387">
        <ele>171</ele>
        <time>2017-08-26T09:25:14Z</time>
      </trkpt>
      <trkpt lat="45.94075" lon="4.73391">
        <ele>171</ele>
        <time>2017-08-26T09:25:15Z</time>
      </trkpt>
      <trkpt lat="45.94072" lon="4.73396">
        <ele>171</ele>
        <time>2017-08-26T09:25:16Z</time>
      </trkpt>
      <trkpt lat="45.94069" lon="4.73401">
        <ele>171</ele>
        <time>2017-08-26T09:25:17Z</time>
      </trkpt>
      <trkpt lat="45.94066" lon="4.73406">
        <ele>171</ele>
        <time>2017-08-26T09:25:18Z</time>
      </trkpt>
      <trkpt lat="45.94063" lon="4.73412">
        <ele>171</ele>
        <time>2017-08-26T09:25:19Z</time>
      </trkpt>
      <trkpt lat="45.9406" lon="4.73418">
        <ele>172</ele>
        <time>2017-08-26T09:25:20Z</time>
      </trkpt>
      <trkpt lat="45.94056" lon="4.73424">
        <ele>172</ele>
        <time>2017-08-26T09:25:21Z</time>
      </trkpt>
      <trkpt lat="45.94053" lon="4.7343">
        <ele>172</ele>
        <time>2017-08-26T09:25:22Z</time>
      </trkpt>
      <trkpt lat="45.9405" lon="4.73435">
        <ele>171</ele>
        <time>2017-08-26T09:25:23Z</time>
      </trkpt>
      <trkpt lat="45.94047" lon="4.7344">
        <ele>171</ele>
        <time>2017-08-26T09:25:24Z</time>
      </trkpt>
      <trkpt lat="45.94044" lon="4.73445">
        <ele>171</ele>
        <time>2017-08-26T09:25:25Z</time>
      </trkpt>
      <trkpt lat="45.94039" lon="4.73455">
        <ele>171</ele>
        <time>2017-08-26T09:25:27Z</time>
      </trkpt>
      <trkpt lat="45.94036" lon="4.7346">
        <ele>171</ele>
        <time>2017-08-26T09:25:28Z</time>
      </trkpt>
      <trkpt lat="45.94031" lon="4.73468">
        <ele>171</ele>
        <time>2017-08-26T09:25:30Z</time>
      </trkpt>
      <trkpt lat="45.94029" lon="4.73473">
        <ele>171</ele>
        <time>2017-08-26T09:25:31Z</time>
      </trkpt>
      <trkpt lat="45.94023" lon="4.73482">
        <ele>170</ele>
        <time>2017-08-26T09:25:33Z</time>
      </trkpt>
      <trkpt lat="45.9402" lon="4.73487">
        <ele>170</ele>
        <time>2017-08-26T09:25:34Z</time>
      </trkpt>
      <trkpt lat="45.94017" lon="4.73492">
        <ele>170</ele>
        <time>2017-08-26T09:25:35Z</time>
      </trkpt>
      <trkpt lat="45.94014" lon="4.73497">
        <ele>170</ele>
        <time>2017-08-26T09:25:36Z</time>
      </trkpt>
      <trkpt lat="45.94011" lon="4.73503">
        <ele>170</ele>
        <time>2017-08-26T09:25:37Z</time>
      </trkpt>
      <trkpt lat="45.94009" lon="4.73509">
        <ele>170</ele>
        <time>2017-08-26T09:25:38Z</time>
      </trkpt>
      <trkpt lat="45.94005" lon="4.73518">
        <ele>170</ele>
        <time>2017-08-26T09:25:40Z</time>
      </trkpt>
      <trkpt lat="45.94003" lon="4.73523">
        <ele>171</ele>
        <time>2017-08-26T09:25:41Z</time>
      </trkpt>
      <trkpt lat="45.93999" lon="4.73534">
        <ele>168</ele>
        <time>2017-08-26T09:25:43Z</time>
      </trkpt>
      <trkpt lat="45.93996" lon="4.73539">
        <ele>168</ele>
        <time>2017-08-26T09:25:44Z</time>
      </trkpt>
      <trkpt lat="45.93994" lon="4.73545">
        <ele>168</ele>
        <time>2017-08-26T09:25:45Z</time>
      </trkpt>
      <trkpt lat="45.93992" lon="4.73551">
        <ele>168</ele>
        <time>2017-08-26T09:25:46Z</time>
      </trkpt>
      <trkpt lat="45.93989" lon="4.73557">
        <ele>168</ele>
        <time>2017-08-26T09:25:47Z</time>
      </trkpt>
      <trkpt lat="45.93987" lon="4.73564">
        <ele>168</ele>
        <time>2017-08-26T09:25:48Z</time>
      </trkpt>
      <trkpt lat="45.93985" lon="4.7357">
        <ele>168</ele>
        <time>2017-08-26T09:25:49Z</time>
      </trkpt>
      <trkpt lat="45.93983" lon="4.73577">
        <ele>168</ele>
        <time>2017-08-26T09:25:50Z</time>
      </trkpt>
      <trkpt lat="45.93981" lon="4.73583">
        <ele>168</ele>
        <time>2017-08-26T09:25:51Z</time>
      </trkpt>
      <trkpt lat="45.9398" lon="4.73589">
        <ele>169</ele>
        <time>2017-08-26T09:25:52Z</time>
      </trkpt>
      <trkpt lat="45.93977" lon="4.73599">
        <ele>169</ele>
        <time>2017-08-26T09:25:54Z</time>
      </trkpt>
      <trkpt lat="45.93975" lon="4.73604">
        <ele>169</ele>
        <time>2017-08-26T09:25:55Z</time>
      </trkpt>
      <trkpt lat="45.93972" lon="4.73616">
        <ele>170</ele>
        <time>2017-08-26T09:25:57Z</time>
      </trkpt>
      <trkpt lat="45.93971" lon="4.73622">
        <ele>170</ele>
        <time>2017-08-26T09:25:58Z</time>
      </trkpt>
      <trkpt lat="45.9397" lon="4.73628">
        <ele>170</ele>
        <time>2017-08-26T09:25:59Z</time>
      </trkpt>
      <trkpt lat="45.93968" lon="4.73635">
        <ele>170</ele>
        <time>2017-08-26T09:26:00Z</time>
      </trkpt>
      <trkpt lat="45.93966" lon="4.73641">
        <ele>170</ele>
        <time>2017-08-26T09:26:01Z</time>
      </trkpt>
      <trkpt lat="45.93965" lon="4.73647">
        <ele>170</ele>
        <time>2017-08-26T09:26:02Z</time>
      </trkpt>
      <trkpt lat="45.93963" lon="4.73654">
        <ele>170</ele>
        <time>2017-08-26T09:26:03Z</time>
      </trkpt>
      <trkpt lat="45.93962" lon="4.7366">
        <ele>171</ele>
        <time>2017-08-26T09:26:04Z</time>
      </trkpt>
      <trkpt lat="45.93961" lon="4.73667">
        <ele>171</ele>
        <time>2017-08-26T09:26:05Z</time>
      </trkpt>
      <trkpt lat="45.93959" lon="4.73673">
        <ele>172</ele>
        <time>2017-08-26T09:26:06Z</time>
      </trkpt>
      <trkpt lat="45.93957" lon="4.73686">
        <ele>172</ele>
        <time>2017-08-26T09:26:08Z</time>
      </trkpt>
      <trkpt lat="45.93956" lon="4.73691">
        <ele>172</ele>
        <time>2017-08-26T09:26:09Z</time>
      </trkpt>
      <trkpt lat="45.93954" lon="4.73702">
        <ele>172</ele>
        <time>2017-08-26T09:26:11Z</time>
      </trkpt>
      <trkpt lat="45.93954" lon="4.73707">
        <ele>172</ele>
        <time>2017-08-26T09:26:12Z</time>
      </trkpt>
      <trkpt lat="45.93952" lon="4.73719">
        <ele>172</ele>
        <time>2017-08-26T09:26:14Z</time>
      </trkpt>
      <trkpt lat="45.93952" lon="4.73725">
        <ele>172</ele>
        <time>2017-08-26T09:26:15Z</time>
      </trkpt>
      <trkpt lat="45.93951" lon="4.73731">
        <ele>172</ele>
        <time>2017-08-26T09:26:16Z</time>
      </trkpt>
      <trkpt lat="45.9395" lon="4.73738">
        <ele>172</ele>
        <time>2017-08-26T09:26:17Z</time>
      </trkpt>
      <trkpt lat="45.93949" lon="4.73745">
        <ele>172</ele>
        <time>2017-08-26T09:26:18Z</time>
      </trkpt>
      <trkpt lat="45.93949" lon="4.73751">
        <ele>172</ele>
        <time>2017-08-26T09:26:19Z</time>
      </trkpt>
      <trkpt lat="45.93948" lon="4.73763">
        <ele>172</ele>
        <time>2017-08-26T09:26:21Z</time>
      </trkpt>
      <trkpt lat="45.93947" lon="4.73769">
        <ele>172</ele>
        <time>2017-08-26T09:26:22Z</time>
      </trkpt>
      <trkpt lat="45.93946" lon="4.73779">
        <ele>172</ele>
        <time>2017-08-26T09:26:24Z</time>
      </trkpt>
      <trkpt lat="45.93946" lon="4.73784">
        <ele>172</ele>
        <time>2017-08-26T09:26:25Z</time>
      </trkpt>
      <trkpt lat="45.93945" lon="4.73794">
        <ele>172</ele>
        <time>2017-08-26T09:26:27Z</time>
      </trkpt>
      <trkpt lat="45.93944" lon="4.73799">
        <ele>172</ele>
        <time>2017-08-26T09:26:28Z</time>
      </trkpt>
      <trkpt lat="45.93942" lon="4.73811">
        <ele>172</ele>
        <time>2017-08-26T09:26:30Z</time>
      </trkpt>
      <trkpt lat="45.93942" lon="4.73817">
        <ele>172</ele>
        <time>2017-08-26T09:26:31Z</time>
      </trkpt>
      <trkpt lat="45.93941" lon="4.73823">
        <ele>171</ele>
        <time>2017-08-26T09:26:32Z</time>
      </trkpt>
      <trkpt lat="45.9394" lon="4.7383">
        <ele>171</ele>
        <time>2017-08-26T09:26:33Z</time>
      </trkpt>
      <trkpt lat="45.93939" lon="4.73837">
        <ele>171</ele>
        <time>2017-08-26T09:26:34Z</time>
      </trkpt>
      <trkpt lat="45.93938" lon="4.73844">
        <ele>171</ele>
        <time>2017-08-26T09:26:35Z</time>
      </trkpt>
      <trkpt lat="45.93938" lon="4.73856">
        <ele>171</ele>
        <time>2017-08-26T09:26:37Z</time>
      </trkpt>
      <trkpt lat="45.93937" lon="4.73862">
        <ele>172</ele>
        <time>2017-08-26T09:26:38Z</time>
      </trkpt>
      <trkpt lat="45.93936" lon="4.73873">
        <ele>172</ele>
        <time>2017-08-26T09:26:40Z</time>
      </trkpt>
      <trkpt lat="45.93936" lon="4.73878">
        <ele>172</ele>
        <time>2017-08-26T09:26:41Z</time>
      </trkpt>
      <trkpt lat="45.93936" lon="4.73887">
        <ele>172</ele>
        <time>2017-08-26T09:26:43Z</time>
      </trkpt>
      <trkpt lat="45.93935" lon="4.73893">
        <ele>172</ele>
        <time>2017-08-26T09:26:44Z</time>
      </trkpt>
      <trkpt lat="45.93933" lon="4.73905">
        <ele>172</ele>
        <time>2017-08-26T09:26:46Z</time>
      </trkpt>
      <trkpt lat="45.93932" lon="4.73911">
        <ele>171</ele>
        <time>2017-08-26T09:26:47Z</time>
      </trkpt>
      <trkpt lat="45.93931" lon="4.73918">
        <ele>171</ele>
        <time>2017-08-26T09:26:48Z</time>
      </trkpt>
      <trkpt lat="45.9393" lon="4.73924">
        <ele>171</ele>
        <time>2017-08-26T09:26:49Z</time>
      </trkpt>
      <trkpt lat="45.93929" lon="4.73931">
        <ele>171</ele>
        <time>2017-08-26T09:26:50Z</time>
      </trkpt>
      <trkpt lat="45.93929" lon="4.73937">
        <ele>172</ele>
        <time>2017-08-26T09:26:51Z</time>
      </trkpt>
      <trkpt lat="45.93928" lon="4.73948">
        <ele>172</ele>
        <time>2017-08-26T09:26:53Z</time>
      </trkpt>
      <trkpt lat="45.93928" lon="4.73952">
        <ele>172</ele>
        <time>2017-08-26T09:26:54Z</time>
      </trkpt>
      <trkpt lat="45.93926" lon="4.73961">
        <ele>172</ele>
        <time>2017-08-26T09:26:56Z</time>
      </trkpt>
      <trkpt lat="45.93925" lon="4.73965">
        <ele>172</ele>
        <time>2017-08-26T09:26:57Z</time>
      </trkpt>
      <trkpt lat="45.93924" lon="4.73976">
        <ele>172</ele>
        <time>2017-08-26T09:26:59Z</time>
      </trkpt>
      <trkpt lat="45.93923" lon="4.73983">
        <ele>172</ele>
        <time>2017-08-26T09:27:00Z</time>
      </trkpt>
      <trkpt lat="45.93922" lon="4.73989">
        <ele>172</ele>
        <time>2017-08-26T09:27:01Z</time>
      </trkpt>
      <trkpt lat="45.93921" lon="4.73996">
        <ele>172</ele>
        <time>2017-08-26T09:27:02Z</time>
      </trkpt>
      <trkpt lat="45.93921" lon="4.74003">
        <ele>172</ele>
        <time>2017-08-26T09:27:03Z</time>
      </trkpt>
      <trkpt lat="45.9392" lon="4.74009">
        <ele>172</ele>
        <time>2017-08-26T09:27:04Z</time>
      </trkpt>
      <trkpt lat="45.9392" lon="4.74016">
        <ele>171</ele>
        <time>2017-08-26T09:27:05Z</time>
      </trkpt>
      <trkpt lat="45.93919" lon="4.74022">
        <ele>171</ele>
        <time>2017-08-26T09:27:06Z</time>
      </trkpt>
      <trkpt lat="45.93918" lon="4.74034">
        <ele>171</ele>
        <time>2017-08-26T09:27:08Z</time>
      </trkpt>
      <trkpt lat="45.93918" lon="4.7404">
        <ele>171</ele>
        <time>2017-08-26T09:27:09Z</time>
      </trkpt>
      <trkpt lat="45.93918" lon="4.7405">
        <ele>171</ele>
        <time>2017-08-26T09:27:11Z</time>
      </trkpt>
      <trkpt lat="45.93917" lon="4.74056">
        <ele>171</ele>
        <time>2017-08-26T09:27:12Z</time>
      </trkpt>
      <trkpt lat="45.93916" lon="4.74067">
        <ele>170</ele>
        <time>2017-08-26T09:27:14Z</time>
      </trkpt>
      <trkpt lat="45.93916" lon="4.74074">
        <ele>170</ele>
        <time>2017-08-26T09:27:15Z</time>
      </trkpt>
      <trkpt lat="45.93915" lon="4.7408">
        <ele>170</ele>
        <time>2017-08-26T09:27:16Z</time>
      </trkpt>
      <trkpt lat="45.93915" lon="4.74087">
        <ele>170</ele>
        <time>2017-08-26T09:27:17Z</time>
      </trkpt>
      <trkpt lat="45.93914" lon="4.74094">
        <ele>170</ele>
        <time>2017-08-26T09:27:18Z</time>
      </trkpt>
      <trkpt lat="45.93914" lon="4.741">
        <ele>170</ele>
        <time>2017-08-26T09:27:19Z</time>
      </trkpt>
      <trkpt lat="45.93913" lon="4.74113">
        <ele>170</ele>
        <time>2017-08-26T09:27:21Z</time>
      </trkpt>
      <trkpt lat="45.93913" lon="4.74118">
        <ele>170</ele>
        <time>2017-08-26T09:27:22Z</time>
      </trkpt>
      <trkpt lat="45.93912" lon="4.74129">
        <ele>170</ele>
        <time>2017-08-26T09:27:24Z</time>
      </trkpt>
      <trkpt lat="45.93912" lon="4.74134">
        <ele>169</ele>
        <time>2017-08-26T09:27:25Z</time>
      </trkpt>
      <trkpt lat="45.93911" lon="4.74146">
        <ele>169</ele>
        <time>2017-08-26T09:27:27Z</time>
      </trkpt>
      <trkpt lat="45.93911" lon="4.74152">
        <ele>169</ele>
        <time>2017-08-26T09:27:28Z</time>
      </trkpt>
      <trkpt lat="45.9391" lon="4.74165">
        <ele>169</ele>
        <time>2017-08-26T09:27:30Z</time>
      </trkpt>
      <trkpt lat="45.93909" lon="4.7417">
        <ele>168</ele>
        <time>2017-08-26T09:27:31Z</time>
      </trkpt>
      <trkpt lat="45.93909" lon="4.74181">
        <ele>169</ele>
        <time>2017-08-26T09:27:33Z</time>
      </trkpt>
      <trkpt lat="45.93909" lon="4.74186">
        <ele>169</ele>
        <time>2017-08-26T09:27:34Z</time>
      </trkpt>
      <trkpt lat="45.93908" lon="4.74196">
        <ele>169</ele>
        <time>2017-08-26T09:27:36Z</time>
      </trkpt>
      <trkpt lat="45.93908" lon="4.74201">
        <ele>169</ele>
        <time>2017-08-26T09:27:37Z</time>
      </trkpt>
      <trkpt lat="45.93907" lon="4.74213">
        <ele>169</ele>
        <time>2017-08-26T09:27:39Z</time>
      </trkpt>
      <trkpt lat="45.93907" lon="4.74219">
        <ele>169</ele>
        <time>2017-08-26T09:27:40Z</time>
      </trkpt>
      <trkpt lat="45.93906" lon="4.74226">
        <ele>170</ele>
        <time>2017-08-26T09:27:41Z</time>
      </trkpt>
      <trkpt lat="45.93906" lon="4.74232">
        <ele>170</ele>
        <time>2017-08-26T09:27:42Z</time>
      </trkpt>
      <trkpt lat="45.93906" lon="4.74245">
        <ele>170</ele>
        <time>2017-08-26T09:27:44Z</time>
      </trkpt>
      <trkpt lat="45.93905" lon="4.74251">
        <ele>170</ele>
        <time>2017-08-26T09:27:45Z</time>
      </trkpt>
      <trkpt lat="45.93905" lon="4.74261">
        <ele>170</ele>
        <time>2017-08-26T09:27:47Z</time>
      </trkpt>
      <trkpt lat="45.93904" lon="4.74267">
        <ele>170</ele>
        <time>2017-08-26T09:27:48Z</time>
      </trkpt>
      <trkpt lat="45.93904" lon="4.74279">
        <ele>170</ele>
        <time>2017-08-26T09:27:50Z</time>
      </trkpt>
      <trkpt lat="45.93904" lon="4.74286">
        <ele>170</ele>
        <time>2017-08-26T09:27:51Z</time>
      </trkpt>
      <trkpt lat="45.93903" lon="4.74293">
        <ele>170</ele>
        <time>2017-08-26T09:27:52Z</time>
      </trkpt>
      <trkpt lat="45.93903" lon="4.74299">
        <ele>170</ele>
        <time>2017-08-26T09:27:53Z</time>
      </trkpt>
      <trkpt lat="45.93903" lon="4.74312">
        <ele>170</ele>
        <time>2017-08-26T09:27:55Z</time>
      </trkpt>
      <trkpt lat="45.93903" lon="4.74317">
        <ele>170</ele>
        <time>2017-08-26T09:27:56Z</time>
      </trkpt>
      <trkpt lat="45.93903" lon="4.74328">
        <ele>170</ele>
        <time>2017-08-26T09:27:58Z</time>
      </trkpt>
      <trkpt lat="45.93903" lon="4.74334">
        <ele>170</ele>
        <time>2017-08-26T09:27:59Z</time>
      </trkpt>
      <trkpt lat="45.93902" lon="4.74347">
        <ele>171</ele>
        <time>2017-08-26T09:28:01Z</time>
      </trkpt>
      <trkpt lat="45.93902" lon="4.74354">
        <ele>171</ele>
        <time>2017-08-26T09:28:02Z</time>
      </trkpt>
      <trkpt lat="45.93902" lon="4.74361">
        <ele>171</ele>
        <time>2017-08-26T09:28:03Z</time>
      </trkpt>
      <trkpt lat="45.93902" lon="4.74368">
        <ele>171</ele>
        <time>2017-08-26T09:28:04Z</time>
      </trkpt>
      <trkpt lat="45.93902" lon="4.74375">
        <ele>171</ele>
        <time>2017-08-26T09:28:05Z</time>
      </trkpt>
      <trkpt lat="45.93903" lon="4.74382">
        <ele>171</ele>
        <time>2017-08-26T09:28:06Z</time>
      </trkpt>
      <trkpt lat="45.93904" lon="4.74394">
        <ele>171</ele>
        <time>2017-08-26T09:28:08Z</time>
      </trkpt>
      <trkpt lat="45.93904" lon="4.744">
        <ele>171</ele>
        <time>2017-08-26T09:28:09Z</time>
      </trkpt>
      <trkpt lat="45.93905" lon="4.7441">
        <ele>171</ele>
        <time>2017-08-26T09:28:11Z</time>
      </trkpt>
      <trkpt lat="45.93906" lon="4.74414">
        <ele>171</ele>
        <time>2017-08-26T09:28:12Z</time>
      </trkpt>
      <trkpt lat="45.93907" lon="4.74424">
        <ele>171</ele>
        <time>2017-08-26T09:28:14Z</time>
      </trkpt>
      <trkpt lat="45.93907" lon="4.7443">
        <ele>171</ele>
        <time>2017-08-26T09:28:15Z</time>
      </trkpt>
      <trkpt lat="45.93908" lon="4.74436">
        <ele>171</ele>
        <time>2017-08-26T09:28:16Z</time>
      </trkpt>
      <trkpt lat="45.93909" lon="4.74442">
        <ele>171</ele>
        <time>2017-08-26T09:28:17Z</time>
      </trkpt>
      <trkpt lat="45.93909" lon="4.74455">
        <ele>171</ele>
        <time>2017-08-26T09:28:19Z</time>
      </trkpt>
      <trkpt lat="45.93909" lon="4.74461">
        <ele>171</ele>
        <time>2017-08-26T09:28:20Z</time>
      </trkpt>
      <trkpt lat="45.93909" lon="4.74472">
        <ele>171</ele>
        <time>2017-08-26T09:28:22Z</time>
      </trkpt>
      <trkpt lat="45.93909" lon="4.74477">
        <ele>171</ele>
        <time>2017-08-26T09:28:23Z</time>
      </trkpt>
      <trkpt lat="45.93908" lon="4.74486">
        <ele>171</ele>
        <time>2017-08-26T09:28:25Z</time>
      </trkpt>
      <trkpt lat="45.93908" lon="4.74493">
        <ele>170</ele>
        <time>2017-08-26T09:28:26Z</time>
      </trkpt>
      <trkpt lat="45.93907" lon="4.74499">
        <ele>170</ele>
        <time>2017-08-26T09:28:27Z</time>
      </trkpt>
      <trkpt lat="45.93907" lon="4.74506">
        <ele>170</ele>
        <time>2017-08-26T09:28:28Z</time>
      </trkpt>
      <trkpt lat="45.93907" lon="4.74513">
        <ele>170</ele>
        <time>2017-08-26T09:28:29Z</time>
      </trkpt>
      <trkpt lat="45.93906" lon="4.7452">
        <ele>170</ele>
        <time>2017-08-26T09:28:30Z</time>
      </trkpt>
      <trkpt lat="45.93905" lon="4.74532">
        <ele>170</ele>
        <time>2017-08-26T09:28:32Z</time>
      </trkpt>
      <trkpt lat="45.93905" lon="4.74538">
        <ele>170</ele>
        <time>2017-08-26T09:28:33Z</time>
      </trkpt>
      <trkpt lat="45.93904" lon="4.74548">
        <ele>170</ele>
        <time>2017-08-26T09:28:35Z</time>
      </trkpt>
      <trkpt lat="45.93903" lon="4.74553">
        <ele>170</ele>
        <time>2017-08-26T09:28:36Z</time>
      </trkpt>
      <trkpt lat="45.93901" lon="4.74563">
        <ele>170</ele>
        <time>2017-08-26T09:28:38Z</time>
      </trkpt>
      <trkpt lat="45.93899" lon="4.74569">
        <ele>170</ele>
        <time>2017-08-26T09:28:39Z</time>
      </trkpt>
      <trkpt lat="45.93898" lon="4.74575">
        <ele>170</ele>
        <time>2017-08-26T09:28:40Z</time>
      </trkpt>
      <trkpt lat="45.93897" lon="4.74582">
        <ele>170</ele>
        <time>2017-08-26T09:28:41Z</time>
      </trkpt>
      <trkpt lat="45.93895" lon="4.74594">
        <ele>170</ele>
        <time>2017-08-26T09:28:43Z</time>
      </trkpt>
      <trkpt lat="45.93894" lon="4.746">
        <ele>170</ele>
        <time>2017-08-26T09:28:44Z</time>
      </trkpt>
      <trkpt lat="45.93891" lon="4.7461">
        <ele>170</ele>
        <time>2017-08-26T09:28:46Z</time>
      </trkpt>
      <trkpt lat="45.93889" lon="4.74615">
        <ele>170</ele>
        <time>2017-08-26T09:28:47Z</time>
      </trkpt>
      <trkpt lat="45.93886" lon="4.74625">
        <ele>170</ele>
        <time>2017-08-26T09:28:49Z</time>
      </trkpt>
      <trkpt lat="45.93885" lon="4.74631">
        <ele>170</ele>
        <time>2017-08-26T09:28:50Z</time>
      </trkpt>
      <trkpt lat="45.93883" lon="4.74637">
        <ele>170</ele>
        <time>2017-08-26T09:28:51Z</time>
      </trkpt>
      <trkpt lat="45.9388" lon="4.74644">
        <ele>170</ele>
        <time>2017-08-26T09:28:52Z</time>
      </trkpt>
      <trkpt lat="45.93878" lon="4.7465">
        <ele>170</ele>
        <time>2017-08-26T09:28:53Z</time>
      </trkpt>
      <trkpt lat="45.93877" lon="4.74657">
        <ele>170</ele>
        <time>2017-08-26T09:28:54Z</time>
      </trkpt>
      <trkpt lat="45.93873" lon="4.74668">
        <ele>170</ele>
        <time>2017-08-26T09:28:56Z</time>
      </trkpt>
      <trkpt lat="45.93871" lon="4.74674">
        <ele>170</ele>
        <time>2017-08-26T09:28:57Z</time>
      </trkpt>
      <trkpt lat="45.93868" lon="4.74683">
        <ele>170</ele>
        <time>2017-08-26T09:28:59Z</time>
      </trkpt>
      <trkpt lat="45.93866" lon="4.74688">
        <ele>170</ele>
        <time>2017-08-26T09:29:00Z</time>
      </trkpt>
      <trkpt lat="45.93863" lon="4.74698">
        <ele>169</ele>
        <time>2017-08-26T09:29:02Z</time>
      </trkpt>
      <trkpt lat="45.9386" lon="4.74703">
        <ele>169</ele>
        <time>2017-08-26T09:29:03Z</time>
      </trkpt>
      <trkpt lat="45.93858" lon="4.74709">
        <ele>169</ele>
        <time>2017-08-26T09:29:04Z</time>
      </trkpt>
      <trkpt lat="45.93856" lon="4.74715">
        <ele>169</ele>
        <time>2017-08-26T09:29:05Z</time>
      </trkpt>
      <trkpt lat="45.93851" lon="4.74726">
        <ele>169</ele>
        <time>2017-08-26T09:29:07Z</time>
      </trkpt>
      <trkpt lat="45.93848" lon="4.74731">
        <ele>169</ele>
        <time>2017-08-26T09:29:08Z</time>
      </trkpt>
      <trkpt lat="45.93844" lon="4.74741">
        <ele>169</ele>
        <time>2017-08-26T09:29:10Z</time>
      </trkpt>
      <trkpt lat="45.93842" lon="4.74746">
        <ele>168</ele>
        <time>2017-08-26T09:29:11Z</time>
      </trkpt>
      <trkpt lat="45.93838" lon="4.74753">
        <ele>168</ele>
        <time>2017-08-26T09:29:13Z</time>
      </trkpt>
      <trkpt lat="45.93836" lon="4.74757">
        <ele>168</ele>
        <time>2017-08-26T09:29:14Z</time>
      </trkpt>
      <trkpt lat="45.93832" lon="4.74765">
        <ele>168</ele>
        <time>2017-08-26T09:29:16Z</time>
      </trkpt>
      <trkpt lat="45.93829" lon="4.7477">
        <ele>167</ele>
        <time>2017-08-26T09:29:17Z</time>
      </trkpt>
      <trkpt lat="45.93826" lon="4.74775">
        <ele>167</ele>
        <time>2017-08-26T09:29:18Z</time>
      </trkpt>
      <trkpt lat="45.93823" lon="4.74781">
        <ele>167</ele>
        <time>2017-08-26T09:29:19Z</time>
      </trkpt>
      <trkpt lat="45.9382" lon="4.74786">
        <ele>167</ele>
        <time>2017-08-26T09:29:20Z</time>
      </trkpt>
      <trkpt lat="45.93817" lon="4.74792">
        <ele>167</ele>
        <time>2017-08-26T09:29:21Z</time>
      </trkpt>
      <trkpt lat="45.93812" lon="4.74802">
        <ele>167</ele>
        <time>2017-08-26T09:29:23Z</time>
      </trkpt>
      <trkpt lat="45.9381" lon="4.74806">
        <ele>167</ele>
        <time>2017-08-26T09:29:24Z</time>
      </trkpt>
      <trkpt lat="45.93806" lon="4.74814">
        <ele>167</ele>
        <time>2017-08-26T09:29:26Z</time>
      </trkpt>
      <trkpt lat="45.93804" lon="4.74818">
        <ele>167</ele>
        <time>2017-08-26T09:29:27Z</time>
      </trkpt>
      <trkpt lat="45.93799" lon="4.74827">
        <ele>167</ele>
        <time>2017-08-26T09:29:29Z</time>
      </trkpt>
      <trkpt lat="45.93796" lon="4.74832">
        <ele>167</ele>
        <time>2017-08-26T09:29:30Z</time>
      </trkpt>
      <trkpt lat="45.93793" lon="4.74837">
        <ele>168</ele>
        <time>2017-08-26T09:29:31Z</time>
      </trkpt>
      <trkpt lat="45.93789" lon="4.74843">
        <ele>168</ele>
        <time>2017-08-26T09:29:32Z</time>
      </trkpt>
      <trkpt lat="45.93787" lon="4.74848">
        <ele>168</ele>
        <time>2017-08-26T09:29:33Z</time>
      </trkpt>
      <trkpt lat="45.93784" lon="4.74853">
        <ele>168</ele>
        <time>2017-08-26T09:29:34Z</time>
      </trkpt>
      <trkpt lat="45.93778" lon="4.74861">
        <ele>168</ele>
        <time>2017-08-26T09:29:36Z</time>
      </trkpt>
      <trkpt lat="45.93775" lon="4.74865">
        <ele>168</ele>
        <time>2017-08-26T09:29:37Z</time>
      </trkpt>
      <trkpt lat="45.93771" lon="4.74872">
        <ele>168</ele>
        <time>2017-08-26T09:29:39Z</time>
      </trkpt>
      <trkpt lat="45.93768" lon="4.74877">
        <ele>169</ele>
        <time>2017-08-26T09:29:40Z</time>
      </trkpt>
      <trkpt lat="45.93762" lon="4.74886">
        <ele>169</ele>
        <time>2017-08-26T09:29:42Z</time>
      </trkpt>
      <trkpt lat="45.93759" lon="4.74891">
        <ele>169</ele>
        <time>2017-08-26T09:29:43Z</time>
      </trkpt>
      <trkpt lat="45.93756" lon="4.74897">
        <ele>169</ele>
        <time>2017-08-26T09:29:44Z</time>
      </trkpt>
      <trkpt lat="45.93753" lon="4.74903">
        <ele>170</ele>
        <time>2017-08-26T09:29:45Z</time>
      </trkpt>
      <trkpt lat="45.9375" lon="4.74909">
        <ele>170</ele>
        <time>2017-08-26T09:29:46Z</time>
      </trkpt>
      <trkpt lat="45.93747" lon="4.74915">
        <ele>170</ele>
        <time>2017-08-26T09:29:47Z</time>
      </trkpt>
      <trkpt lat="45.93745" lon="4.74921">
        <ele>170</ele>
        <time>2017-08-26T09:29:48Z</time>
      </trkpt>
      <trkpt lat="45.93742" lon="4.74926">
        <ele>170</ele>
        <time>2017-08-26T09:29:49Z</time>
      </trkpt>
      <trkpt lat="45.93737" lon="4.74935">
        <ele>169</ele>
        <time>2017-08-26T09:29:51Z</time>
      </trkpt>
      <trkpt lat="45.93735" lon="4.7494">
        <ele>169</ele>
        <time>2017-08-26T09:29:52Z</time>
      </trkpt>
      <trkpt lat="45.93732" lon="4.7495">
        <ele>169</ele>
        <time>2017-08-26T09:29:54Z</time>
      </trkpt>
      <trkpt lat="45.9373" lon="4.74955">
        <ele>169</ele>
        <time>2017-08-26T09:29:55Z</time>
      </trkpt>
      <trkpt lat="45.93727" lon="4.74961">
        <ele>168</ele>
        <time>2017-08-26T09:29:56Z</time>
      </trkpt>
      <trkpt lat="45.93725" lon="4.74967">
        <ele>168</ele>
        <time>2017-08-26T09:29:57Z</time>
      </trkpt>
      <trkpt lat="45.93723" lon="4.74974">
        <ele>168</ele>
        <time>2017-08-26T09:29:58Z</time>
      </trkpt>
      <trkpt lat="45.9372" lon="4.7498">
        <ele>168</ele>
        <time>2017-08-26T09:29:59Z</time>
      </trkpt>
      <trkpt lat="45.93715" lon="4.7499">
        <ele>168</ele>
        <time>2017-08-26T09:30:01Z</time>
      </trkpt>
      <trkpt lat="45.93713" lon="4.74995">
        <ele>168</ele>
        <time>2017-08-26T09:30:02Z</time>
      </trkpt>
      <trkpt lat="45.93709" lon="4.75005">
        <ele>167</ele>
        <time>2017-08-26T09:30:04Z</time>
      </trkpt>
      <trkpt lat="45.93707" lon="4.7501">
        <ele>167</ele>
        <time>2017-08-26T09:30:05Z</time>
      </trkpt>
      <trkpt lat="45.93704" lon="4.75015">
        <ele>167</ele>
        <time>2017-08-26T09:30:06Z</time>
      </trkpt>
      <trkpt lat="45.93702" lon="4.75021">
        <ele>167</ele>
        <time>2017-08-26T09:30:07Z</time>
      </trkpt>
      <trkpt lat="45.93699" lon="4.75027">
        <ele>167</ele>
        <time>2017-08-26T09:30:08Z</time>
      </trkpt>
      <trkpt lat="45.93696" lon="4.75033">
        <ele>167</ele>
        <time>2017-08-26T09:30:09Z</time>
      </trkpt>
      <trkpt lat="45.93694" lon="4.75039">
        <ele>167</ele>
        <time>2017-08-26T09:30:10Z</time>
      </trkpt>
      <trkpt lat="45.93691" lon="4.75045">
        <ele>167</ele>
        <time>2017-08-26T09:30:11Z</time>
      </trkpt>
      <trkpt lat="45.93688" lon="4.75051">
        <ele>167</ele>
        <time>2017-08-26T09:30:12Z</time>
      </trkpt>
      <trkpt lat="45.93686" lon="4.75056">
        <ele>167</ele>
        <time>2017-08-26T09:30:13Z</time>
      </trkpt>
      <trkpt lat="45.93681" lon="4.75067">
        <ele>167</ele>
        <time>2017-08-26T09:30:15Z</time>
      </trkpt>
      <trkpt lat="45.93679" lon="4.75072">
        <ele>167</ele>
        <time>2017-08-26T09:30:16Z</time>
      </trkpt>
      <trkpt lat="45.93674" lon="4.75083">
        <ele>167</ele>
        <time>2017-08-26T09:30:18Z</time>
      </trkpt>
      <trkpt lat="45.93672" lon="4.75089">
        <ele>167</ele>
        <time>2017-08-26T09:30:19Z</time>
      </trkpt>
      <trkpt lat="45.93669" lon="4.75095">
        <ele>168</ele>
        <time>2017-08-26T09:30:20Z</time>
      </trkpt>
      <trkpt lat="45.93667" lon="4.75101">
        <ele>168</ele>
        <time>2017-08-26T09:30:21Z</time>
      </trkpt>
      <trkpt lat="45.93663" lon="4.75111">
        <ele>167</ele>
        <time>2017-08-26T09:30:23Z</time>
      </trkpt>
      <trkpt lat="45.93661" lon="4.75116">
        <ele>167</ele>
        <time>2017-08-26T09:30:24Z</time>
      </trkpt>
      <trkpt lat="45.93657" lon="4.75126">
        <ele>168</ele>
        <time>2017-08-26T09:30:26Z</time>
      </trkpt>
      <trkpt lat="45.93654" lon="4.75132">
        <ele>168</ele>
        <time>2017-08-26T09:30:27Z</time>
      </trkpt>
      <trkpt lat="45.93652" lon="4.75138">
        <ele>168</ele>
        <time>2017-08-26T09:30:28Z</time>
      </trkpt>
      <trkpt lat="45.93648" lon="4.75143">
        <ele>168</ele>
        <time>2017-08-26T09:30:29Z</time>
      </trkpt>
      <trkpt lat="45.93646" lon="4.7515">
        <ele>168</ele>
        <time>2017-08-26T09:30:30Z</time>
      </trkpt>
      <trkpt lat="45.93644" lon="4.75156">
        <ele>168</ele>
        <time>2017-08-26T09:30:31Z</time>
      </trkpt>
      <trkpt lat="45.93642" lon="4.75162">
        <ele>168</ele>
        <time>2017-08-26T09:30:32Z</time>
      </trkpt>
      <trkpt lat="45.9364" lon="4.75168">
        <ele>168</ele>
        <time>2017-08-26T09:30:33Z</time>
      </trkpt>
      <trkpt lat="45.93636" lon="4.75178">
        <ele>168</ele>
        <time>2017-08-26T09:30:35Z</time>
      </trkpt>
      <trkpt lat="45.93634" lon="4.75183">
        <ele>168</ele>
        <time>2017-08-26T09:30:36Z</time>
      </trkpt>
      <trkpt lat="45.9363" lon="4.7519">
        <ele>168</ele>
        <time>2017-08-26T09:30:38Z</time>
      </trkpt>
      <trkpt lat="45.93628" lon="4.75194">
        <ele>168</ele>
        <time>2017-08-26T09:30:39Z</time>
      </trkpt>
      <trkpt lat="45.93626" lon="4.75204">
        <ele>168</ele>
        <time>2017-08-26T09:30:41Z</time>
      </trkpt>
      <trkpt lat="45.93624" lon="4.75209">
        <ele>167</ele>
        <time>2017-08-26T09:30:42Z</time>
      </trkpt>
      <trkpt lat="45.93622" lon="4.75216">
        <ele>167</ele>
        <time>2017-08-26T09:30:43Z</time>
      </trkpt>
      <trkpt lat="45.9362" lon="4.75222">
        <ele>167</ele>
        <time>2017-08-26T09:30:44Z</time>
      </trkpt>
      <trkpt lat="45.93618" lon="4.75229">
        <ele>167</ele>
        <time>2017-08-26T09:30:45Z</time>
      </trkpt>
      <trkpt lat="45.93616" lon="4.75235">
        <ele>167</ele>
        <time>2017-08-26T09:30:46Z</time>
      </trkpt>
      <trkpt lat="45.93612" lon="4.75247">
        <ele>167</ele>
        <time>2017-08-26T09:30:48Z</time>
      </trkpt>
      <trkpt lat="45.93611" lon="4.75252">
        <ele>167</ele>
        <time>2017-08-26T09:30:49Z</time>
      </trkpt>
      <trkpt lat="45.9361" lon="4.75263">
        <ele>168</ele>
        <time>2017-08-26T09:30:51Z</time>
      </trkpt>
      <trkpt lat="45.93609" lon="4.75268">
        <ele>168</ele>
        <time>2017-08-26T09:30:52Z</time>
      </trkpt>
      <trkpt lat="45.93607" lon="4.75278">
        <ele>168</ele>
        <time>2017-08-26T09:30:54Z</time>
      </trkpt>
      <trkpt lat="45.93607" lon="4.75283">
        <ele>168</ele>
        <time>2017-08-26T09:30:55Z</time>
      </trkpt>
      <trkpt lat="45.93605" lon="4.75289">
        <ele>168</ele>
        <time>2017-08-26T09:30:56Z</time>
      </trkpt>
      <trkpt lat="45.93604" lon="4.75296">
        <ele>168</ele>
        <time>2017-08-26T09:30:57Z</time>
      </trkpt>
      <trkpt lat="45.93603" lon="4.75302">
        <ele>168</ele>
        <time>2017-08-26T09:30:58Z</time>
      </trkpt>
      <trkpt lat="45.93602" lon="4.75309">
        <ele>169</ele>
        <time>2017-08-26T09:30:59Z</time>
      </trkpt>
      <trkpt lat="45.936" lon="4.75316">
        <ele>169</ele>
        <time>2017-08-26T09:31:00Z</time>
      </trkpt>
      <trkpt lat="45.93599" lon="4.75323">
        <ele>169</ele>
        <time>2017-08-26T09:31:01Z</time>
      </trkpt>
      <trkpt lat="45.93597" lon="4.75329">
        <ele>169</ele>
        <time>2017-08-26T09:31:02Z</time>
      </trkpt>
      <trkpt lat="45.93596" lon="4.75336">
        <ele>170</ele>
        <time>2017-08-26T09:31:03Z</time>
      </trkpt>
      <trkpt lat="45.93595" lon="4.75347">
        <ele>169</ele>
        <time>2017-08-26T09:31:05Z</time>
      </trkpt>
      <trkpt lat="45.93594" lon="4.75352">
        <ele>169</ele>
        <time>2017-08-26T09:31:06Z</time>
      </trkpt>
      <trkpt lat="45.93591" lon="4.75363">
        <ele>169</ele>
        <time>2017-08-26T09:31:08Z</time>
      </trkpt>
      <trkpt lat="45.93589" lon="4.75369">
        <ele>169</ele>
        <time>2017-08-26T09:31:09Z</time>
      </trkpt>
      <trkpt lat="45.93587" lon="4.7538">
        <ele>169</ele>
        <time>2017-08-26T09:31:11Z</time>
      </trkpt>
      <trkpt lat="45.93586" lon="4.75385">
        <ele>169</ele>
        <time>2017-08-26T09:31:12Z</time>
      </trkpt>
      <trkpt lat="45.93585" lon="4.75395">
        <ele>169</ele>
        <time>2017-08-26T09:31:14Z</time>
      </trkpt>
      <trkpt lat="45.93584" lon="4.754">
        <ele>169</ele>
        <time>2017-08-26T09:31:15Z</time>
      </trkpt>
      <trkpt lat="45.93582" lon="4.75413">
        <ele>168</ele>
        <time>2017-08-26T09:31:17Z</time>
      </trkpt>
      <trkpt lat="45.93581" lon="4.75419">
        <ele>168</ele>
        <time>2017-08-26T09:31:18Z</time>
      </trkpt>
      <trkpt lat="45.93579" lon="4.75431">
        <ele>168</ele>
        <time>2017-08-26T09:31:20Z</time>
      </trkpt>
      <trkpt lat="45.93579" lon="4.75438">
        <ele>168</ele>
        <time>2017-08-26T09:31:21Z</time>
      </trkpt>
      <trkpt lat="45.93578" lon="4.75451">
        <ele>168</ele>
        <time>2017-08-26T09:31:23Z</time>
      </trkpt>
      <trkpt lat="45.93577" lon="4.75456">
        <ele>168</ele>
        <time>2017-08-26T09:31:24Z</time>
      </trkpt>
      <trkpt lat="45.93576" lon="4.75467">
        <ele>168</ele>
        <time>2017-08-26T09:31:26Z</time>
      </trkpt>
      <trkpt lat="45.93575" lon="4.75473">
        <ele>168</ele>
        <time>2017-08-26T09:31:27Z</time>
      </trkpt>
      <trkpt lat="45.93574" lon="4.75484">
        <ele>169</ele>
        <time>2017-08-26T09:31:29Z</time>
      </trkpt>
      <trkpt lat="45.93572" lon="4.7549">
        <ele>169</ele>
        <time>2017-08-26T09:31:30Z</time>
      </trkpt>
      <trkpt lat="45.93571" lon="4.75497">
        <ele>169</ele>
        <time>2017-08-26T09:31:31Z</time>
      </trkpt>
      <trkpt lat="45.9357" lon="4.75504">
        <ele>169</ele>
        <time>2017-08-26T09:31:32Z</time>
      </trkpt>
      <trkpt lat="45.93569" lon="4.75512">
        <ele>169</ele>
        <time>2017-08-26T09:31:33Z</time>
      </trkpt>
      <trkpt lat="45.93568" lon="4.75519">
        <ele>169</ele>
        <time>2017-08-26T09:31:34Z</time>
      </trkpt>
      <trkpt lat="45.93567" lon="4.75527">
        <ele>169</ele>
        <time>2017-08-26T09:31:35Z</time>
      </trkpt>
      <trkpt lat="45.93566" lon="4.75533">
        <ele>169</ele>
        <time>2017-08-26T09:31:36Z</time>
      </trkpt>
      <trkpt lat="45.93565" lon="4.75539">
        <ele>169</ele>
        <time>2017-08-26T09:31:37Z</time>
      </trkpt>
      <trkpt lat="45.93564" lon="4.75545">
        <ele>169</ele>
        <time>2017-08-26T09:31:38Z</time>
      </trkpt>
      <trkpt lat="45.93561" lon="4.75556">
        <ele>169</ele>
        <time>2017-08-26T09:31:40Z</time>
      </trkpt>
      <trkpt lat="45.9356" lon="4.75561">
        <ele>169</ele>
        <time>2017-08-26T09:31:41Z</time>
      </trkpt>
      <trkpt lat="45.93558" lon="4.75571">
        <ele>169</ele>
        <time>2017-08-26T09:31:43Z</time>
      </trkpt>
      <trkpt lat="45.93557" lon="4.75576">
        <ele>170</ele>
        <time>2017-08-26T09:31:44Z</time>
      </trkpt>
      <trkpt lat="45.93556" lon="4.75582">
        <ele>169</ele>
        <time>2017-08-26T09:31:45Z</time>
      </trkpt>
      <trkpt lat="45.93555" lon="4.75589">
        <ele>170</ele>
        <time>2017-08-26T09:31:46Z</time>
      </trkpt>
      <trkpt lat="45.93552" lon="4.75601">
        <ele>170</ele>
        <time>2017-08-26T09:31:48Z</time>
      </trkpt>
      <trkpt lat="45.93551" lon="4.75607">
        <ele>170</ele>
        <time>2017-08-26T09:31:49Z</time>
      </trkpt>
      <trkpt lat="45.93548" lon="4.75617">
        <ele>170</ele>
        <time>2017-08-26T09:31:51Z</time>
      </trkpt>
      <trkpt lat="45.93547" lon="4.75622">
        <ele>170</ele>
        <time>2017-08-26T09:31:52Z</time>
      </trkpt>
      <trkpt lat="45.93546" lon="4.75634">
        <ele>170</ele>
        <time>2017-08-26T09:31:54Z</time>
      </trkpt>
      <trkpt lat="45.93544" lon="4.7564">
        <ele>170</ele>
        <time>2017-08-26T09:31:55Z</time>
      </trkpt>
      <trkpt lat="45.93543" lon="4.75647">
        <ele>170</ele>
        <time>2017-08-26T09:31:56Z</time>
      </trkpt>
      <trkpt lat="45.93541" lon="4.75654">
        <ele>170</ele>
        <time>2017-08-26T09:31:57Z</time>
      </trkpt>
      <trkpt lat="45.9354" lon="4.75661">
        <ele>170</ele>
        <time>2017-08-26T09:31:58Z</time>
      </trkpt>
      <trkpt lat="45.93539" lon="4.75669">
        <ele>170</ele>
        <time>2017-08-26T09:31:59Z</time>
      </trkpt>
      <trkpt lat="45.93538" lon="4.75676">
        <ele>170</ele>
        <time>2017-08-26T09:32:00Z</time>
      </trkpt>
      <trkpt lat="45.93537" lon="4.75683">
        <ele>170</ele>
        <time>2017-08-26T09:32:01Z</time>
      </trkpt>
      <trkpt lat="45.93535" lon="4.75689">
        <ele>170</ele>
        <time>2017-08-26T09:32:02Z</time>
      </trkpt>
      <trkpt lat="45.93535" lon="4.75696">
        <ele>170</ele>
        <time>2017-08-26T09:32:03Z</time>
      </trkpt>
      <trkpt lat="45.93533" lon="4.75708">
        <ele>170</ele>
        <time>2017-08-26T09:32:05Z</time>
      </trkpt>
      <trkpt lat="45.93532" lon="4.75714">
        <ele>170</ele>
        <time>2017-08-26T09:32:06Z</time>
      </trkpt>
      <trkpt lat="45.9353" lon="4.75725">
        <ele>169</ele>
        <time>2017-08-26T09:32:08Z</time>
      </trkpt>
      <trkpt lat="45.93529" lon="4.7573">
        <ele>169</ele>
        <time>2017-08-26T09:32:09Z</time>
      </trkpt>
      <trkpt lat="45.93527" lon="4.75741">
        <ele>169</ele>
        <time>2017-08-26T09:32:11Z</time>
      </trkpt>
      <trkpt lat="45.93526" lon="4.75748">
        <ele>169</ele>
        <time>2017-08-26T09:32:12Z</time>
      </trkpt>
      <trkpt lat="45.93525" lon="4.75755">
        <ele>169</ele>
        <time>2017-08-26T09:32:13Z</time>
      </trkpt>
      <trkpt lat="45.93524" lon="4.75762">
        <ele>169</ele>
        <time>2017-08-26T09:32:14Z</time>
      </trkpt>
      <trkpt lat="45.93523" lon="4.75768">
        <ele>169</ele>
        <time>2017-08-26T09:32:15Z</time>
      </trkpt>
      <trkpt lat="45.93522" lon="4.75775">
        <ele>169</ele>
        <time>2017-08-26T09:32:16Z</time>
      </trkpt>
      <trkpt lat="45.9352" lon="4.75787">
        <ele>169</ele>
        <time>2017-08-26T09:32:18Z</time>
      </trkpt>
      <trkpt lat="45.9352" lon="4.75793">
        <ele>169</ele>
        <time>2017-08-26T09:32:19Z</time>
      </trkpt>
      <trkpt lat="45.9352" lon="4.75805">
        <ele>169</ele>
        <time>2017-08-26T09:32:21Z</time>
      </trkpt>
      <trkpt lat="45.9352" lon="4.75812">
        <ele>169</ele>
        <time>2017-08-26T09:32:22Z</time>
      </trkpt>
      <trkpt lat="45.93522" lon="4.75823">
        <ele>168</ele>
        <time>2017-08-26T09:32:24Z</time>
      </trkpt>
      <trkpt lat="45.93523" lon="4.75828">
        <ele>168</ele>
        <time>2017-08-26T09:32:25Z</time>
      </trkpt>
      <trkpt lat="45.93525" lon="4.7584">
        <ele>168</ele>
        <time>2017-08-26T09:32:27Z</time>
      </trkpt>
      <trkpt lat="45.93526" lon="4.75846">
        <ele>168</ele>
        <time>2017-08-26T09:32:28Z</time>
      </trkpt>
      <trkpt lat="45.93528" lon="4.75853">
        <ele>168</ele>
        <time>2017-08-26T09:32:29Z</time>
      </trkpt>
      <trkpt lat="45.9353" lon="4.75859">
        <ele>168</ele>
        <time>2017-08-26T09:32:30Z</time>
      </trkpt>
      <trkpt lat="45.93531" lon="4.75866">
        <ele>168</ele>
        <time>2017-08-26T09:32:31Z</time>
      </trkpt>
      <trkpt lat="45.93533" lon="4.75873">
        <ele>168</ele>
        <time>2017-08-26T09:32:32Z</time>
      </trkpt>
      <trkpt lat="45.93534" lon="4.75879">
        <ele>168</ele>
        <time>2017-08-26T09:32:33Z</time>
      </trkpt>
      <trkpt lat="45.93536" lon="4.75887">
        <ele>168</ele>
        <time>2017-08-26T09:32:34Z</time>
      </trkpt>
      <trkpt lat="45.93538" lon="4.75894">
        <ele>168</ele>
        <time>2017-08-26T09:32:35Z</time>
      </trkpt>
      <trkpt lat="45.9354" lon="4.75901">
        <ele>168</ele>
        <time>2017-08-26T09:32:36Z</time>
      </trkpt>
      <trkpt lat="45.93544" lon="4.75913">
        <ele>169</ele>
        <time>2017-08-26T09:32:38Z</time>
      </trkpt>
      <trkpt lat="45.93545" lon="4.75918">
        <ele>168</ele>
        <time>2017-08-26T09:32:39Z</time>
      </trkpt>
      <trkpt lat="45.93548" lon="4.75927">
        <ele>169</ele>
        <time>2017-08-26T09:32:41Z</time>
      </trkpt>
      <trkpt lat="45.9355" lon="4.75933">
        <ele>169</ele>
        <time>2017-08-26T09:32:42Z</time>
      </trkpt>
      <trkpt lat="45.93552" lon="4.75938">
        <ele>169</ele>
        <time>2017-08-26T09:32:43Z</time>
      </trkpt>
      <trkpt lat="45.93554" lon="4.75944">
        <ele>169</ele>
        <time>2017-08-26T09:32:44Z</time>
      </trkpt>
      <trkpt lat="45.93557" lon="4.7595">
        <ele>169</ele>
        <time>2017-08-26T09:32:45Z</time>
      </trkpt>
      <trkpt lat="45.93559" lon="4.75956">
        <ele>169</ele>
        <time>2017-08-26T09:32:46Z</time>
      </trkpt>
      <trkpt lat="45.93561" lon="4.75963">
        <ele>169</ele>
        <time>2017-08-26T09:32:47Z</time>
      </trkpt>
      <trkpt lat="45.93563" lon="4.75968">
        <ele>169</ele>
        <time>2017-08-26T09:32:48Z</time>
      </trkpt>
      <trkpt lat="45.93567" lon="4.75978">
        <ele>170</ele>
        <time>2017-08-26T09:32:50Z</time>
      </trkpt>
      <trkpt lat="45.93569" lon="4.75983">
        <ele>170</ele>
        <time>2017-08-26T09:32:51Z</time>
      </trkpt>
      <trkpt lat="45.93572" lon="4.75992">
        <ele>170</ele>
        <time>2017-08-26T09:32:53Z</time>
      </trkpt>
      <trkpt lat="45.93574" lon="4.75997">
        <ele>171</ele>
        <time>2017-08-26T09:32:54Z</time>
      </trkpt>
      <trkpt lat="45.93577" lon="4.76007">
        <ele>171</ele>
        <time>2017-08-26T09:32:56Z</time>
      </trkpt>
      <trkpt lat="45.93579" lon="4.76013">
        <ele>170</ele>
        <time>2017-08-26T09:32:57Z</time>
      </trkpt>
      <trkpt lat="45.93583" lon="4.76023">
        <ele>170</ele>
        <time>2017-08-26T09:32:59Z</time>
      </trkpt>
      <trkpt lat="45.93586" lon="4.76028">
        <ele>170</ele>
        <time>2017-08-26T09:33:00Z</time>
      </trkpt>
      <trkpt lat="45.93589" lon="4.76037">
        <ele>170</ele>
        <time>2017-08-26T09:33:02Z</time>
      </trkpt>
      <trkpt lat="45.93592" lon="4.76041">
        <ele>170</ele>
        <time>2017-08-26T09:33:03Z</time>
      </trkpt>
      <trkpt lat="45.93594" lon="4.76052">
        <ele>170</ele>
        <time>2017-08-26T09:33:05Z</time>
      </trkpt>
      <trkpt lat="45.93596" lon="4.76058">
        <ele>170</ele>
        <time>2017-08-26T09:33:06Z</time>
      </trkpt>
      <trkpt lat="45.93601" lon="4.76069">
        <ele>170</ele>
        <time>2017-08-26T09:33:08Z</time>
      </trkpt>
      <trkpt lat="45.93603" lon="4.76072">
        <ele>170</ele>
        <time>2017-08-26T09:33:09Z</time>
      </trkpt>
      <trkpt lat="45.93606" lon="4.76081">
        <ele>170</ele>
        <time>2017-08-26T09:33:11Z</time>
      </trkpt>
      <trkpt lat="45.93608" lon="4.76087">
        <ele>170</ele>
        <time>2017-08-26T09:33:12Z</time>
      </trkpt>
      <trkpt lat="45.93611" lon="4.76097">
        <ele>170</ele>
        <time>2017-08-26T09:33:14Z</time>
      </trkpt>
      <trkpt lat="45.93613" lon="4.76103">
        <ele>170</ele>
        <time>2017-08-26T09:33:15Z</time>
      </trkpt>
      <trkpt lat="45.93616" lon="4.76114">
        <ele>169</ele>
        <time>2017-08-26T09:33:17Z</time>
      </trkpt>
      <trkpt lat="45.93618" lon="4.7612">
        <ele>169</ele>
        <time>2017-08-26T09:33:18Z</time>
      </trkpt>
      <trkpt lat="45.93622" lon="4.7613">
        <ele>169</ele>
        <time>2017-08-26T09:33:20Z</time>
      </trkpt>
      <trkpt lat="45.93624" lon="4.76136">
        <ele>169</ele>
        <time>2017-08-26T09:33:21Z</time>
      </trkpt>
      <trkpt lat="45.93627" lon="4.76147">
        <ele>169</ele>
        <time>2017-08-26T09:33:23Z</time>
      </trkpt>
      <trkpt lat="45.93629" lon="4.76153">
        <ele>170</ele>
        <time>2017-08-26T09:33:24Z</time>
      </trkpt>
      <trkpt lat="45.93631" lon="4.76159">
        <ele>170</ele>
        <time>2017-08-26T09:33:25Z</time>
      </trkpt>
      <trkpt lat="45.93633" lon="4.76165">
        <ele>170</ele>
        <time>2017-08-26T09:33:26Z</time>
      </trkpt>
      <trkpt lat="45.93637" lon="4.76176">
        <ele>169</ele>
        <time>2017-08-26T09:33:28Z</time>
      </trkpt>
      <trkpt lat="45.9364" lon="4.76181">
        <ele>169</ele>
        <time>2017-08-26T09:33:29Z</time>
      </trkpt>
      <trkpt lat="45.93643" lon="4.76192">
        <ele>169</ele>
        <time>2017-08-26T09:33:31Z</time>
      </trkpt>
      <trkpt lat="45.93644" lon="4.76199">
        <ele>169</ele>
        <time>2017-08-26T09:33:32Z</time>
      </trkpt>
      <trkpt lat="45.93646" lon="4.76205">
        <ele>169</ele>
        <time>2017-08-26T09:33:33Z</time>
      </trkpt>
      <trkpt lat="45.93648" lon="4.76211">
        <ele>169</ele>
        <time>2017-08-26T09:33:34Z</time>
      </trkpt>
      <trkpt lat="45.9365" lon="4.76217">
        <ele>169</ele>
        <time>2017-08-26T09:33:35Z</time>
      </trkpt>
      <trkpt lat="45.93653" lon="4.76224">
        <ele>169</ele>
        <time>2017-08-26T09:33:36Z</time>
      </trkpt>
      <trkpt lat="45.93655" lon="4.7623">
        <ele>169</ele>
        <time>2017-08-26T09:33:37Z</time>
      </trkpt>
      <trkpt lat="45.93658" lon="4.76236">
        <ele>169</ele>
        <time>2017-08-26T09:33:38Z</time>
      </trkpt>
      <trkpt lat="45.9366" lon="4.76247">
        <ele>170</ele>
        <time>2017-08-26T09:33:40Z</time>
      </trkpt>
      <trkpt lat="45.93661" lon="4.76253">
        <ele>170</ele>
        <time>2017-08-26T09:33:41Z</time>
      </trkpt>
      <trkpt lat="45.93663" lon="4.76264">
        <ele>169</ele>
        <time>2017-08-26T09:33:43Z</time>
      </trkpt>
      <trkpt lat="45.93664" lon="4.76268">
        <ele>169</ele>
        <time>2017-08-26T09:33:44Z</time>
      </trkpt>
      <trkpt lat="45.93667" lon="4.76278">
        <ele>170</ele>
        <time>2017-08-26T09:33:46Z</time>
      </trkpt>
      <trkpt lat="45.93669" lon="4.76282">
        <ele>170</ele>
        <time>2017-08-26T09:33:47Z</time>
      </trkpt>
      <trkpt lat="45.93673" lon="4.76294">
        <ele>170</ele>
        <time>2017-08-26T09:33:50Z</time>
      </trkpt>
      <trkpt lat="45.93673" lon="4.76298">
        <ele>170</ele>
        <time>2017-08-26T09:33:51Z</time>
      </trkpt>
      <trkpt lat="45.93674" lon="4.76306">
        <ele>170</ele>
        <time>2017-08-26T09:33:53Z</time>
      </trkpt>
      <trkpt lat="45.93675" lon="4.76311">
        <ele>170</ele>
        <time>2017-08-26T09:33:54Z</time>
      </trkpt>
      <trkpt lat="45.93679" lon="4.76318">
        <ele>170</ele>
        <time>2017-08-26T09:33:56Z</time>
      </trkpt>
      <trkpt lat="45.93681" lon="4.76321">
        <ele>170</ele>
        <time>2017-08-26T09:33:57Z</time>
      </trkpt>
      <trkpt lat="45.93685" lon="4.76329">
        <ele>170</ele>
        <time>2017-08-26T09:33:59Z</time>
      </trkpt>
      <trkpt lat="45.93687" lon="4.76334">
        <ele>169</ele>
        <time>2017-08-26T09:34:00Z</time>
      </trkpt>
      <trkpt lat="45.93689" lon="4.76339">
        <ele>169</ele>
        <time>2017-08-26T09:34:01Z</time>
      </trkpt>
      <trkpt lat="45.93691" lon="4.76345">
        <ele>169</ele>
        <time>2017-08-26T09:34:02Z</time>
      </trkpt>
      <trkpt lat="45.93693" lon="4.76352">
        <ele>169</ele>
        <time>2017-08-26T09:34:03Z</time>
      </trkpt>
      <trkpt lat="45.93695" lon="4.76358">
        <ele>169</ele>
        <time>2017-08-26T09:34:04Z</time>
      </trkpt>
      <trkpt lat="45.93698" lon="4.76369">
        <ele>169</ele>
        <time>2017-08-26T09:34:06Z</time>
      </trkpt>
      <trkpt lat="45.93699" lon="4.76376">
        <ele>169</ele>
        <time>2017-08-26T09:34:07Z</time>
      </trkpt>
      <trkpt lat="45.93702" lon="4.76386">
        <ele>169</ele>
        <time>2017-08-26T09:34:09Z</time>
      </trkpt>
      <trkpt lat="45.93703" lon="4.7639">
        <ele>169</ele>
        <time>2017-08-26T09:34:10Z</time>
      </trkpt>
      <trkpt lat="45.93707" lon="4.764">
        <ele>169</ele>
        <time>2017-08-26T09:34:12Z</time>
      </trkpt>
      <trkpt lat="45.9371" lon="4.76405">
        <ele>169</ele>
        <time>2017-08-26T09:34:13Z</time>
      </trkpt>
      <trkpt lat="45.93712" lon="4.76411">
        <ele>169</ele>
        <time>2017-08-26T09:34:14Z</time>
      </trkpt>
      <trkpt lat="45.93714" lon="4.76418">
        <ele>169</ele>
        <time>2017-08-26T09:34:15Z</time>
      </trkpt>
      <trkpt lat="45.93716" lon="4.76425">
        <ele>169</ele>
        <time>2017-08-26T09:34:16Z</time>
      </trkpt>
      <trkpt lat="45.93718" lon="4.76431">
        <ele>169</ele>
        <time>2017-08-26T09:34:17Z</time>
      </trkpt>
      <trkpt lat="45.9372" lon="4.76437">
        <ele>169</ele>
        <time>2017-08-26T09:34:18Z</time>
      </trkpt>
      <trkpt lat="45.93722" lon="4.76443">
        <ele>169</ele>
        <time>2017-08-26T09:34:19Z</time>
      </trkpt>
      <trkpt lat="45.93726" lon="4.76454">
        <ele>169</ele>
        <time>2017-08-26T09:34:21Z</time>
      </trkpt>
      <trkpt lat="45.93728" lon="4.76459">
        <ele>169</ele>
        <time>2017-08-26T09:34:22Z</time>
      </trkpt>
      <trkpt lat="45.93731" lon="4.76468">
        <ele>169</ele>
        <time>2017-08-26T09:34:24Z</time>
      </trkpt>
      <trkpt lat="45.93733" lon="4.76473">
        <ele>169</ele>
        <time>2017-08-26T09:34:25Z</time>
      </trkpt>
      <trkpt lat="45.93734" lon="4.76478">
        <ele>169</ele>
        <time>2017-08-26T09:34:26Z</time>
      </trkpt>
      <trkpt lat="45.93737" lon="4.76484">
        <ele>169</ele>
        <time>2017-08-26T09:34:27Z</time>
      </trkpt>
      <trkpt lat="45.93739" lon="4.76491">
        <ele>169</ele>
        <time>2017-08-26T09:34:28Z</time>
      </trkpt>
      <trkpt lat="45.93741" lon="4.76497">
        <ele>169</ele>
        <time>2017-08-26T09:34:29Z</time>
      </trkpt>
      <trkpt lat="45.93743" lon="4.76503">
        <ele>169</ele>
        <time>2017-08-26T09:34:30Z</time>
      </trkpt>
      <trkpt lat="45.93746" lon="4.76509">
        <ele>169</ele>
        <time>2017-08-26T09:34:31Z</time>
      </trkpt>
      <trkpt lat="45.93748" lon="4.76516">
        <ele>169</ele>
        <time>2017-08-26T09:34:32Z</time>
      </trkpt>
      <trkpt lat="45.93751" lon="4.76522">
        <ele>170</ele>
        <time>2017-08-26T09:34:33Z</time>
      </trkpt>
      <trkpt lat="45.93753" lon="4.76529">
        <ele>170</ele>
        <time>2017-08-26T09:34:34Z</time>
      </trkpt>
      <trkpt lat="45.93755" lon="4.76535">
        <ele>170</ele>
        <time>2017-08-26T09:34:35Z</time>
      </trkpt>
      <trkpt lat="45.93757" lon="4.76542">
        <ele>170</ele>
        <time>2017-08-26T09:34:36Z</time>
      </trkpt>
      <trkpt lat="45.93759" lon="4.76548">
        <ele>170</ele>
        <time>2017-08-26T09:34:37Z</time>
      </trkpt>
      <trkpt lat="45.93762" lon="4.76559">
        <ele>170</ele>
        <time>2017-08-26T09:34:39Z</time>
      </trkpt>
      <trkpt lat="45.93764" lon="4.76565">
        <ele>170</ele>
        <time>2017-08-26T09:34:40Z</time>
      </trkpt>
      <trkpt lat="45.93766" lon="4.76574">
        <ele>170</ele>
        <time>2017-08-26T09:34:42Z</time>
      </trkpt>
      <trkpt lat="45.93767" lon="4.7658">
        <ele>170</ele>
        <time>2017-08-26T09:34:43Z</time>
      </trkpt>
      <trkpt lat="45.93769" lon="4.76585">
        <ele>169</ele>
        <time>2017-08-26T09:34:44Z</time>
      </trkpt>
      <trkpt lat="45.93772" lon="4.76591">
        <ele>169</ele>
        <time>2017-08-26T09:34:45Z</time>
      </trkpt>
      <trkpt lat="45.93774" lon="4.76597">
        <ele>169</ele>
        <time>2017-08-26T09:34:46Z</time>
      </trkpt>
      <trkpt lat="45.93777" lon="4.76603">
        <ele>169</ele>
        <time>2017-08-26T09:34:47Z</time>
      </trkpt>
      <trkpt lat="45.93779" lon="4.76609">
        <ele>169</ele>
        <time>2017-08-26T09:34:48Z</time>
      </trkpt>
      <trkpt lat="45.93781" lon="4.76615">
        <ele>169</ele>
        <time>2017-08-26T09:34:49Z</time>
      </trkpt>
      <trkpt lat="45.93785" lon="4.76625">
        <ele>169</ele>
        <time>2017-08-26T09:34:51Z</time>
      </trkpt>
      <trkpt lat="45.93787" lon="4.7663">
        <ele>169</ele>
        <time>2017-08-26T09:34:52Z</time>
      </trkpt>
      <trkpt lat="45.93791" lon="4.76638">
        <ele>169</ele>
        <time>2017-08-26T09:34:54Z</time>
      </trkpt>
      <trkpt lat="45.93793" lon="4.76643">
        <ele>169</ele>
        <time>2017-08-26T09:34:55Z</time>
      </trkpt>
      <trkpt lat="45.93798" lon="4.76653">
        <ele>169</ele>
        <time>2017-08-26T09:34:57Z</time>
      </trkpt>
      <trkpt lat="45.938" lon="4.76658">
        <ele>169</ele>
        <time>2017-08-26T09:34:58Z</time>
      </trkpt>
      <trkpt lat="45.93803" lon="4.76664">
        <ele>169</ele>
        <time>2017-08-26T09:34:59Z</time>
      </trkpt>
      <trkpt lat="45.93805" lon="4.7667">
        <ele>169</ele>
        <time>2017-08-26T09:35:00Z</time>
      </trkpt>
      <trkpt lat="45.93808" lon="4.76675">
        <ele>170</ele>
        <time>2017-08-26T09:35:01Z</time>
      </trkpt>
      <trkpt lat="45.9381" lon="4.7668">
        <ele>170</ele>
        <time>2017-08-26T09:35:02Z</time>
      </trkpt>
      <trkpt lat="45.93815" lon="4.7669">
        <ele>170</ele>
        <time>2017-08-26T09:35:04Z</time>
      </trkpt>
      <trkpt lat="45.93818" lon="4.76694">
        <ele>170</ele>
        <time>2017-08-26T09:35:05Z</time>
      </trkpt>
      <trkpt lat="45.93822" lon="4.76701">
        <ele>170</ele>
        <time>2017-08-26T09:35:07Z</time>
      </trkpt>
      <trkpt lat="45.93824" lon="4.76705">
        <ele>170</ele>
        <time>2017-08-26T09:35:08Z</time>
      </trkpt>
      <trkpt lat="45.93829" lon="4.76713">
        <ele>170</ele>
        <time>2017-08-26T09:35:10Z</time>
      </trkpt>
      <trkpt lat="45.93832" lon="4.76718">
        <ele>170</ele>
        <time>2017-08-26T09:35:11Z</time>
      </trkpt>
      <trkpt lat="45.93835" lon="4.76723">
        <ele>172</ele>
        <time>2017-08-26T09:35:12Z</time>
      </trkpt>
      <trkpt lat="45.93838" lon="4.76729">
        <ele>172</ele>
        <time>2017-08-26T09:35:13Z</time>
      </trkpt>
      <trkpt lat="45.93841" lon="4.76734">
        <ele>173</ele>
        <time>2017-08-26T09:35:14Z</time>
      </trkpt>
      <trkpt lat="45.93843" lon="4.7674">
        <ele>173</ele>
        <time>2017-08-26T09:35:15Z</time>
      </trkpt>
      <trkpt lat="45.93848" lon="4.76749">
        <ele>173</ele>
        <time>2017-08-26T09:35:17Z</time>
      </trkpt>
      <trkpt lat="45.93851" lon="4.76754">
        <ele>172</ele>
        <time>2017-08-26T09:35:18Z</time>
      </trkpt>
      <trkpt lat="45.93856" lon="4.76761">
        <ele>172</ele>
        <time>2017-08-26T09:35:20Z</time>
      </trkpt>
      <trkpt lat="45.93858" lon="4.76765">
        <ele>172</ele>
        <time>2017-08-26T09:35:21Z</time>
      </trkpt>
      <trkpt lat="45.93864" lon="4.76773">
        <ele>171</ele>
        <time>2017-08-26T09:35:23Z</time>
      </trkpt>
      <trkpt lat="45.93867" lon="4.76778">
        <ele>171</ele>
        <time>2017-08-26T09:35:24Z</time>
      </trkpt>
      <trkpt lat="45.9387" lon="4.76783">
        <ele>171</ele>
        <time>2017-08-26T09:35:25Z</time>
      </trkpt>
      <trkpt lat="45.93873" lon="4.76788">
        <ele>171</ele>
        <time>2017-08-26T09:35:26Z</time>
      </trkpt>
      <trkpt lat="45.93878" lon="4.76797">
        <ele>171</ele>
        <time>2017-08-26T09:35:28Z</time>
      </trkpt>
      <trkpt lat="45.93881" lon="4.768">
        <ele>171</ele>
        <time>2017-08-26T09:35:29Z</time>
      </trkpt>
      <trkpt lat="45.93886" lon="4.76807">
        <ele>171</ele>
        <time>2017-08-26T09:35:31Z</time>
      </trkpt>
      <trkpt lat="45.93889" lon="4.76811">
        <ele>171</ele>
        <time>2017-08-26T09:35:32Z</time>
      </trkpt>
      <trkpt lat="45.93892" lon="4.76816">
        <ele>171</ele>
        <time>2017-08-26T09:35:33Z</time>
      </trkpt>
      <trkpt lat="45.93896" lon="4.76821">
        <ele>171</ele>
        <time>2017-08-26T09:35:34Z</time>
      </trkpt>
      <trkpt lat="45.93901" lon="4.7683">
        <ele>172</ele>
        <time>2017-08-26T09:35:36Z</time>
      </trkpt>
      <trkpt lat="45.93903" lon="4.76835">
        <ele>171</ele>
        <time>2017-08-26T09:35:37Z</time>
      </trkpt>
      <trkpt lat="45.93907" lon="4.76843">
        <ele>171</ele>
        <time>2017-08-26T09:35:39Z</time>
      </trkpt>
      <trkpt lat="45.93909" lon="4.76847">
        <ele>171</ele>
        <time>2017-08-26T09:35:40Z</time>
      </trkpt>
      <trkpt lat="45.93913" lon="4.76855">
        <ele>171</ele>
        <time>2017-08-26T09:35:42Z</time>
      </trkpt>
      <trkpt lat="45.93915" lon="4.76859">
        <ele>171</ele>
        <time>2017-08-26T09:35:43Z</time>
      </trkpt>
      <trkpt lat="45.93919" lon="4.76864">
        <ele>172</ele>
        <time>2017-08-26T09:35:44Z</time>
      </trkpt>
      <trkpt lat="45.93922" lon="4.76868">
        <ele>172</ele>
        <time>2017-08-26T09:35:45Z</time>
      </trkpt>
      <trkpt lat="45.93926" lon="4.76873">
        <ele>172</ele>
        <time>2017-08-26T09:35:46Z</time>
      </trkpt>
      <trkpt lat="45.93928" lon="4.76878">
        <ele>172</ele>
        <time>2017-08-26T09:35:47Z</time>
      </trkpt>
      <trkpt lat="45.93934" lon="4.76887">
        <ele>172</ele>
        <time>2017-08-26T09:35:49Z</time>
      </trkpt>
      <trkpt lat="45.93936" lon="4.76891">
        <ele>172</ele>
        <time>2017-08-26T09:35:50Z</time>
      </trkpt>
      <trkpt lat="45.93939" lon="4.76899">
        <ele>172</ele>
        <time>2017-08-26T09:35:52Z</time>
      </trkpt>
      <trkpt lat="45.9394" lon="4.76904">
        <ele>172</ele>
        <time>2017-08-26T09:35:53Z</time>
      </trkpt>
      <trkpt lat="45.93942" lon="4.76913">
        <ele>172</ele>
        <time>2017-08-26T09:35:55Z</time>
      </trkpt>
      <trkpt lat="45.93943" lon="4.76916">
        <ele>172</ele>
        <time>2017-08-26T09:35:56Z</time>
      </trkpt>
      <trkpt lat="45.93947" lon="4.76924">
        <ele>171</ele>
        <time>2017-08-26T09:35:58Z</time>
      </trkpt>
      <trkpt lat="45.93948" lon="4.76929">
        <ele>171</ele>
        <time>2017-08-26T09:35:59Z</time>
      </trkpt>
      <trkpt lat="45.93952" lon="4.76941">
        <ele>171</ele>
        <time>2017-08-26T09:36:01Z</time>
      </trkpt>
      <trkpt lat="45.93954" lon="4.76947">
        <ele>170</ele>
        <time>2017-08-26T09:36:02Z</time>
      </trkpt>
      <trkpt lat="45.93957" lon="4.76958">
        <ele>170</ele>
        <time>2017-08-26T09:36:04Z</time>
      </trkpt>
      <trkpt lat="45.93958" lon="4.76963">
        <ele>170</ele>
        <time>2017-08-26T09:36:05Z</time>
      </trkpt>
      <trkpt lat="45.9396" lon="4.76972">
        <ele>170</ele>
        <time>2017-08-26T09:36:07Z</time>
      </trkpt>
      <trkpt lat="45.93962" lon="4.76975">
        <ele>170</ele>
        <time>2017-08-26T09:36:08Z</time>
      </trkpt>
      <trkpt lat="45.93967" lon="4.76984">
        <ele>170</ele>
        <time>2017-08-26T09:36:12Z</time>
      </trkpt>
      <trkpt lat="45.93968" lon="4.76984">
        <ele>170</ele>
        <time>2017-08-26T09:36:13Z</time>
      </trkpt>
      <trkpt lat="45.93968" lon="4.76983">
        <ele>170</ele>
        <time>2017-08-26T09:36:18Z</time>
      </trkpt>
      <trkpt lat="45.93968" lon="4.76984">
        <ele>170</ele>
        <time>2017-08-26T09:36:19Z</time>
      </trkpt>
      <trkpt lat="45.93969" lon="4.76985">
        <ele>170</ele>
        <time>2017-08-26T09:39:25Z</time>
      </trkpt>
      <trkpt lat="45.93969" lon="4.76983">
        <ele>170</ele>
        <time>2017-08-26T09:39:26Z</time>
      </trkpt>
      <trkpt lat="45.93973" lon="4.76994">
        <ele>170</ele>
        <time>2017-08-26T09:40:19Z</time>
      </trkpt>
      <trkpt lat="45.93973" lon="4.76998">
        <ele>170</ele>
        <time>2017-08-26T09:40:20Z</time>
      </trkpt>
      <trkpt lat="45.93974" lon="4.77009">
        <ele>169</ele>
        <time>2017-08-26T09:40:23Z</time>
      </trkpt>
      <trkpt lat="45.93975" lon="4.77013">
        <ele>169</ele>
        <time>2017-08-26T09:40:24Z</time>
      </trkpt>
      <trkpt lat="45.93979" lon="4.7702">
        <ele>169</ele>
        <time>2017-08-26T09:40:26Z</time>
      </trkpt>
      <trkpt lat="45.93981" lon="4.77024">
        <ele>169</ele>
        <time>2017-08-26T09:40:27Z</time>
      </trkpt>
      <trkpt lat="45.93986" lon="4.77033">
        <ele>170</ele>
        <time>2017-08-26T09:40:30Z</time>
      </trkpt>
      <trkpt lat="45.93987" lon="4.77038">
        <ele>170</ele>
        <time>2017-08-26T09:40:31Z</time>
      </trkpt>
      <trkpt lat="45.93988" lon="4.7705">
        <ele>170</ele>
        <time>2017-08-26T09:40:34Z</time>
      </trkpt>
      <trkpt lat="45.93988" lon="4.77055">
        <ele>170</ele>
        <time>2017-08-26T09:40:35Z</time>
      </trkpt>
      <trkpt lat="45.93987" lon="4.77065">
        <ele>170</ele>
        <time>2017-08-26T09:40:37Z</time>
      </trkpt>
      <trkpt lat="45.93987" lon="4.77069">
        <ele>170</ele>
        <time>2017-08-26T09:40:38Z</time>
      </trkpt>
      <trkpt lat="45.93989" lon="4.77081">
        <ele>171</ele>
        <time>2017-08-26T09:40:41Z</time>
      </trkpt>
      <trkpt lat="45.93989" lon="4.77085">
        <ele>171</ele>
        <time>2017-08-26T09:40:42Z</time>
      </trkpt>
      <trkpt lat="45.93991" lon="4.77093">
        <ele>171</ele>
        <time>2017-08-26T09:40:44Z</time>
      </trkpt>
      <trkpt lat="45.93991" lon="4.77098">
        <ele>171</ele>
        <time>2017-08-26T09:40:45Z</time>
      </trkpt>
      <trkpt lat="45.93994" lon="4.77109">
        <ele>170</ele>
        <time>2017-08-26T09:40:47Z</time>
      </trkpt>
      <trkpt lat="45.93995" lon="4.77114">
        <ele>170</ele>
        <time>2017-08-26T09:40:48Z</time>
      </trkpt>
      <trkpt lat="45.93998" lon="4.77126">
        <ele>170</ele>
        <time>2017-08-26T09:40:50Z</time>
      </trkpt>
      <trkpt lat="45.93999" lon="4.77132">
        <ele>170</ele>
        <time>2017-08-26T09:40:51Z</time>
      </trkpt>
      <trkpt lat="45.94" lon="4.77143">
        <ele>170</ele>
        <time>2017-08-26T09:40:53Z</time>
      </trkpt>
      <trkpt lat="45.94001" lon="4.77148">
        <ele>173</ele>
        <time>2017-08-26T09:40:54Z</time>
      </trkpt>
      <trkpt lat="45.94001" lon="4.77157">
        <ele>173</ele>
        <time>2017-08-26T09:40:56Z</time>
      </trkpt>
      <trkpt lat="45.94002" lon="4.77162">
        <ele>173</ele>
        <time>2017-08-26T09:40:57Z</time>
      </trkpt>
      <trkpt lat="45.94002" lon="4.77172">
        <ele>173</ele>
        <time>2017-08-26T09:40:59Z</time>
      </trkpt>
      <trkpt lat="45.94001" lon="4.77177">
        <ele>173</ele>
        <time>2017-08-26T09:41:00Z</time>
      </trkpt>
      <trkpt lat="45.94001" lon="4.77188">
        <ele>173</ele>
        <time>2017-08-26T09:41:02Z</time>
      </trkpt>
      <trkpt lat="45.94001" lon="4.77194">
        <ele>174</ele>
        <time>2017-08-26T09:41:03Z</time>
      </trkpt>
      <trkpt lat="45.94001" lon="4.77203">
        <ele>174</ele>
        <time>2017-08-26T09:41:05Z</time>
      </trkpt>
      <trkpt lat="45.94001" lon="4.77208">
        <ele>174</ele>
        <time>2017-08-26T09:41:06Z</time>
      </trkpt>
      <trkpt lat="45.94001" lon="4.77217">
        <ele>173</ele>
        <time>2017-08-26T09:41:08Z</time>
      </trkpt>
      <trkpt lat="45.94001" lon="4.77221">
        <ele>173</ele>
        <time>2017-08-26T09:41:09Z</time>
      </trkpt>
      <trkpt lat="45.94006" lon="4.77231">
        <ele>173</ele>
        <time>2017-08-26T09:41:12Z</time>
      </trkpt>
      <trkpt lat="45.94008" lon="4.77232">
        <ele>173</ele>
        <time>2017-08-26T09:41:13Z</time>
      </trkpt>
      <trkpt lat="45.94011" lon="4.77221">
        <ele>174</ele>
        <time>2017-08-26T09:41:17Z</time>
      </trkpt>
      <trkpt lat="45.94011" lon="4.77218">
        <ele>174</ele>
        <time>2017-08-26T09:41:18Z</time>
      </trkpt>
      <trkpt lat="45.94016" lon="4.7721">
        <ele>174</ele>
        <time>2017-08-26T09:41:23Z</time>
      </trkpt>
      <trkpt lat="45.94017" lon="4.77209">
        <ele>174</ele>
        <time>2017-08-26T09:41:24Z</time>
      </trkpt>
      <trkpt lat="45.9402" lon="4.77218">
        <ele>174</ele>
        <time>2017-08-26T09:41:28Z</time>
      </trkpt>
      <trkpt lat="45.9402" lon="4.77222">
        <ele>174</ele>
        <time>2017-08-26T09:41:29Z</time>
      </trkpt>
      <trkpt lat="45.94019" lon="4.77233">
        <ele>174</ele>
        <time>2017-08-26T09:41:32Z</time>
      </trkpt>
      <trkpt lat="45.94019" lon="4.77237">
        <ele>173</ele>
        <time>2017-08-26T09:41:33Z</time>
      </trkpt>
      <trkpt lat="45.94016" lon="4.77248">
        <ele>173</ele>
        <time>2017-08-26T09:41:36Z</time>
      </trkpt>
      <trkpt lat="45.94016" lon="4.77251">
        <ele>173</ele>
        <time>2017-08-26T09:41:37Z</time>
      </trkpt>
      <trkpt lat="45.9401" lon="4.77255">
        <ele>173</ele>
        <time>2017-08-26T09:41:40Z</time>
      </trkpt>
      <trkpt lat="45.94006" lon="4.77256">
        <ele>172</ele>
        <time>2017-08-26T09:41:41Z</time>
      </trkpt>
      <trkpt lat="45.94001" lon="4.77255">
        <ele>171</ele>
        <time>2017-08-26T09:41:43Z</time>
      </trkpt>
      <trkpt lat="45.93997" lon="4.77254">
        <ele>170</ele>
        <time>2017-08-26T09:41:44Z</time>
      </trkpt>
      <trkpt lat="45.93991" lon="4.77252">
        <ele>170</ele>
        <time>2017-08-26T09:41:46Z</time>
      </trkpt>
      <trkpt lat="45.93987" lon="4.77251">
        <ele>169</ele>
        <time>2017-08-26T09:41:47Z</time>
      </trkpt>
      <trkpt lat="45.93981" lon="4.77249">
        <ele>169</ele>
        <time>2017-08-26T09:41:49Z</time>
      </trkpt>
      <trkpt lat="45.93978" lon="4.77248">
        <ele>169</ele>
        <time>2017-08-26T09:41:50Z</time>
      </trkpt>
      <trkpt lat="45.93972" lon="4.77245">
        <ele>169</ele>
        <time>2017-08-26T09:41:52Z</time>
      </trkpt>
      <trkpt lat="45.93969" lon="4.77244">
        <ele>169</ele>
        <time>2017-08-26T09:41:53Z</time>
      </trkpt>
      <trkpt lat="45.93962" lon="4.77242">
        <ele>168</ele>
        <time>2017-08-26T09:41:55Z</time>
      </trkpt>
      <trkpt lat="45.93958" lon="4.77241">
        <ele>168</ele>
        <time>2017-08-26T09:41:56Z</time>
      </trkpt>
      <trkpt lat="45.9395" lon="4.77239">
        <ele>168</ele>
        <time>2017-08-26T09:41:59Z</time>
      </trkpt>
      <trkpt lat="45.93947" lon="4.77238">
        <ele>168</ele>
        <time>2017-08-26T09:42:00Z</time>
      </trkpt>
      <trkpt lat="45.93941" lon="4.77237">
        <ele>168</ele>
        <time>2017-08-26T09:42:02Z</time>
      </trkpt>
      <trkpt lat="45.93938" lon="4.77237">
        <ele>168</ele>
        <time>2017-08-26T09:42:03Z</time>
      </trkpt>
      <trkpt lat="45.93931" lon="4.77235">
        <ele>167</ele>
        <time>2017-08-26T09:42:05Z</time>
      </trkpt>
      <trkpt lat="45.93928" lon="4.77234">
        <ele>167</ele>
        <time>2017-08-26T09:42:06Z</time>
      </trkpt>
      <trkpt lat="45.9392" lon="4.77232">
        <ele>167</ele>
        <time>2017-08-26T09:42:09Z</time>
      </trkpt>
      <trkpt lat="45.93917" lon="4.77232">
        <ele>167</ele>
        <time>2017-08-26T09:42:10Z</time>
      </trkpt>
      <trkpt lat="45.93911" lon="4.7723">
        <ele>167</ele>
        <time>2017-08-26T09:42:12Z</time>
      </trkpt>
      <trkpt lat="45.93908" lon="4.7723">
        <ele>167</ele>
        <time>2017-08-26T09:42:13Z</time>
      </trkpt>
      <trkpt lat="45.93902" lon="4.77229">
        <ele>167</ele>
        <time>2017-08-26T09:42:15Z</time>
      </trkpt>
      <trkpt lat="45.93899" lon="4.77228">
        <ele>167</ele>
        <time>2017-08-26T09:42:16Z</time>
      </trkpt>
      <trkpt lat="45.93892" lon="4.77227">
        <ele>167</ele>
        <time>2017-08-26T09:42:18Z</time>
      </trkpt>
      <trkpt lat="45.93888" lon="4.77226">
        <ele>167</ele>
        <time>2017-08-26T09:42:19Z</time>
      </trkpt>
      <trkpt lat="45.9388" lon="4.77223">
        <ele>168</ele>
        <time>2017-08-26T09:42:21Z</time>
      </trkpt>
      <trkpt lat="45.93875" lon="4.77221">
        <ele>168</ele>
        <time>2017-08-26T09:42:22Z</time>
      </trkpt>
      <trkpt lat="45.93871" lon="4.7722">
        <ele>168</ele>
        <time>2017-08-26T09:42:23Z</time>
      </trkpt>
      <trkpt lat="45.93866" lon="4.77219">
        <ele>168</ele>
        <time>2017-08-26T09:42:24Z</time>
      </trkpt>
      <trkpt lat="45.93861" lon="4.77218">
        <ele>168</ele>
        <time>2017-08-26T09:42:25Z</time>
      </trkpt>
      <trkpt lat="45.93856" lon="4.77218">
        <ele>168</ele>
        <time>2017-08-26T09:42:26Z</time>
      </trkpt>
      <trkpt lat="45.93847" lon="4.77217">
        <ele>168</ele>
        <time>2017-08-26T09:42:28Z</time>
      </trkpt>
      <trkpt lat="45.93844" lon="4.77216">
        <ele>168</ele>
        <time>2017-08-26T09:42:29Z</time>
      </trkpt>
      <trkpt lat="45.93837" lon="4.77214">
        <ele>168</ele>
        <time>2017-08-26T09:42:32Z</time>
      </trkpt>
      <trkpt lat="45.93834" lon="4.77214">
        <ele>168</ele>
        <time>2017-08-26T09:42:33Z</time>
      </trkpt>
      <trkpt lat="45.93828" lon="4.77212">
        <ele>170</ele>
        <time>2017-08-26T09:42:35Z</time>
      </trkpt>
      <trkpt lat="45.93825" lon="4.77211">
        <ele>170</ele>
        <time>2017-08-26T09:42:36Z</time>
      </trkpt>
      <trkpt lat="45.93817" lon="4.77207">
        <ele>170</ele>
        <time>2017-08-26T09:42:39Z</time>
      </trkpt>
      <trkpt lat="45.93816" lon="4.77202">
        <ele>170</ele>
        <time>2017-08-26T09:42:40Z</time>
      </trkpt>
      <trkpt lat="45.93814" lon="4.77193">
        <ele>169</ele>
        <time>2017-08-26T09:42:42Z</time>
      </trkpt>
      <trkpt lat="45.93814" lon="4.77189">
        <ele>169</ele>
        <time>2017-08-26T09:42:43Z</time>
      </trkpt>
      <trkpt lat="45.93814" lon="4.77177">
        <ele>169</ele>
        <time>2017-08-26T09:42:46Z</time>
      </trkpt>
      <trkpt lat="45.93814" lon="4.77173">
        <ele>168</ele>
        <time>2017-08-26T09:42:47Z</time>
      </trkpt>
      <trkpt lat="45.93813" lon="4.77162">
        <ele>168</ele>
        <time>2017-08-26T09:42:51Z</time>
      </trkpt>
      <trkpt lat="45.93813" lon="4.77158">
        <ele>168</ele>
        <time>2017-08-26T09:42:52Z</time>
      </trkpt>
      <trkpt lat="45.93812" lon="4.77147">
        <ele>168</ele>
        <time>2017-08-26T09:42:54Z</time>
      </trkpt>
      <trkpt lat="45.93811" lon="4.77143">
        <ele>168</ele>
        <time>2017-08-26T09:42:55Z</time>
      </trkpt>
      <trkpt lat="45.93811" lon="4.77132">
        <ele>168</ele>
        <time>2017-08-26T09:42:57Z</time>
      </trkpt>
      <trkpt lat="45.9381" lon="4.77127">
        <ele>168</ele>
        <time>2017-08-26T09:42:58Z</time>
      </trkpt>
      <trkpt lat="45.93808" lon="4.77121">
        <ele>168</ele>
        <time>2017-08-26T09:42:59Z</time>
      </trkpt>
      <trkpt lat="45.93805" lon="4.77115">
        <ele>169</ele>
        <time>2017-08-26T09:43:00Z</time>
      </trkpt>
      <trkpt lat="45.93804" lon="4.77104">
        <ele>168</ele>
        <time>2017-08-26T09:43:02Z</time>
      </trkpt>
      <trkpt lat="45.93798" lon="4.77098">
        <ele>169</ele>
        <time>2017-08-26T09:43:03Z</time>
      </trkpt>
      <trkpt lat="45.93796" lon="4.77092">
        <ele>169</ele>
        <time>2017-08-26T09:43:04Z</time>
      </trkpt>
      <trkpt lat="45.93793" lon="4.77085">
        <ele>169</ele>
        <time>2017-08-26T09:43:05Z</time>
      </trkpt>
      <trkpt lat="45.9379" lon="4.77077">
        <ele>169</ele>
        <time>2017-08-26T09:43:06Z</time>
      </trkpt>
      <trkpt lat="45.93788" lon="4.77071">
        <ele>169</ele>
        <time>2017-08-26T09:43:07Z</time>
      </trkpt>
      <trkpt lat="45.93784" lon="4.77061">
        <ele>169</ele>
        <time>2017-08-26T09:43:09Z</time>
      </trkpt>
      <trkpt lat="45.93782" lon="4.77054">
        <ele>169</ele>
        <time>2017-08-26T09:43:10Z</time>
      </trkpt>
      <trkpt lat="45.93777" lon="4.77044">
        <ele>169</ele>
        <time>2017-08-26T09:43:12Z</time>
      </trkpt>
      <trkpt lat="45.93774" lon="4.77038">
        <ele>169</ele>
        <time>2017-08-26T09:43:13Z</time>
      </trkpt>
      <trkpt lat="45.9377" lon="4.77028">
        <ele>169</ele>
        <time>2017-08-26T09:43:15Z</time>
      </trkpt>
      <trkpt lat="45.93769" lon="4.77021">
        <ele>169</ele>
        <time>2017-08-26T09:43:16Z</time>
      </trkpt>
      <trkpt lat="45.93766" lon="4.77016">
        <ele>169</ele>
        <time>2017-08-26T09:43:17Z</time>
      </trkpt>
      <trkpt lat="45.93763" lon="4.77008">
        <ele>169</ele>
        <time>2017-08-26T09:43:18Z</time>
      </trkpt>
      <trkpt lat="45.9376" lon="4.77">
        <ele>169</ele>
        <time>2017-08-26T09:43:20Z</time>
      </trkpt>
      <trkpt lat="45.93758" lon="4.76995">
        <ele>169</ele>
        <time>2017-08-26T09:43:21Z</time>
      </trkpt>
      <trkpt lat="45.93754" lon="4.76985">
        <ele>168</ele>
        <time>2017-08-26T09:43:23Z</time>
      </trkpt>
      <trkpt lat="45.93752" lon="4.76978">
        <ele>168</ele>
        <time>2017-08-26T09:43:24Z</time>
      </trkpt>
      <trkpt lat="45.93747" lon="4.76969">
        <ele>169</ele>
        <time>2017-08-26T09:43:26Z</time>
      </trkpt>
      <trkpt lat="45.93746" lon="4.76966">
        <ele>169</ele>
        <time>2017-08-26T09:43:27Z</time>
      </trkpt>
      <trkpt lat="45.93741" lon="4.76955">
        <ele>169</ele>
        <time>2017-08-26T09:43:30Z</time>
      </trkpt>
      <trkpt lat="45.93739" lon="4.7695">
        <ele>169</ele>
        <time>2017-08-26T09:43:31Z</time>
      </trkpt>
      <trkpt lat="45.93735" lon="4.76941">
        <ele>169</ele>
        <time>2017-08-26T09:43:33Z</time>
      </trkpt>
      <trkpt lat="45.93732" lon="4.76936">
        <ele>169</ele>
        <time>2017-08-26T09:43:34Z</time>
      </trkpt>
      <trkpt lat="45.93728" lon="4.76927">
        <ele>169</ele>
        <time>2017-08-26T09:43:36Z</time>
      </trkpt>
      <trkpt lat="45.93726" lon="4.76923">
        <ele>169</ele>
        <time>2017-08-26T09:43:37Z</time>
      </trkpt>
      <trkpt lat="45.93722" lon="4.76915">
        <ele>168</ele>
        <time>2017-08-26T09:43:40Z</time>
      </trkpt>
      <trkpt lat="45.93719" lon="4.76911">
        <ele>168</ele>
        <time>2017-08-26T09:43:41Z</time>
      </trkpt>
      <trkpt lat="45.93715" lon="4.76903">
        <ele>168</ele>
        <time>2017-08-26T09:43:43Z</time>
      </trkpt>
      <trkpt lat="45.93713" lon="4.76899">
        <ele>168</ele>
        <time>2017-08-26T09:43:44Z</time>
      </trkpt>
      <trkpt lat="45.93707" lon="4.7689">
        <ele>167</ele>
        <time>2017-08-26T09:43:46Z</time>
      </trkpt>
      <trkpt lat="45.93704" lon="4.76886">
        <ele>167</ele>
        <time>2017-08-26T09:43:47Z</time>
      </trkpt>
      <trkpt lat="45.93699" lon="4.76877">
        <ele>167</ele>
        <time>2017-08-26T09:43:49Z</time>
      </trkpt>
      <trkpt lat="45.93697" lon="4.76872">
        <ele>167</ele>
        <time>2017-08-26T09:43:50Z</time>
      </trkpt>
      <trkpt lat="45.93692" lon="4.76864">
        <ele>167</ele>
        <time>2017-08-26T09:43:52Z</time>
      </trkpt>
      <trkpt lat="45.9369" lon="4.7686">
        <ele>167</ele>
        <time>2017-08-26T09:43:53Z</time>
      </trkpt>
      <trkpt lat="45.93687" lon="4.76855">
        <ele>167</ele>
        <time>2017-08-26T09:43:54Z</time>
      </trkpt>
      <trkpt lat="45.93683" lon="4.7685">
        <ele>167</ele>
        <time>2017-08-26T09:43:55Z</time>
      </trkpt>
      <trkpt lat="45.93678" lon="4.76842">
        <ele>167</ele>
        <time>2017-08-26T09:43:57Z</time>
      </trkpt>
      <trkpt lat="45.93675" lon="4.76838">
        <ele>166</ele>
        <time>2017-08-26T09:43:58Z</time>
      </trkpt>
      <trkpt lat="45.9367" lon="4.76829">
        <ele>166</ele>
        <time>2017-08-26T09:44:00Z</time>
      </trkpt>
      <trkpt lat="45.93668" lon="4.76826">
        <ele>166</ele>
        <time>2017-08-26T09:44:01Z</time>
      </trkpt>
      <trkpt lat="45.93664" lon="4.76816">
        <ele>167</ele>
        <time>2017-08-26T09:44:03Z</time>
      </trkpt>
      <trkpt lat="45.93661" lon="4.76811">
        <ele>167</ele>
        <time>2017-08-26T09:44:04Z</time>
      </trkpt>
      <trkpt lat="45.93656" lon="4.76802">
        <ele>167</ele>
        <time>2017-08-26T09:44:06Z</time>
      </trkpt>
      <trkpt lat="45.93653" lon="4.76796">
        <ele>167</ele>
        <time>2017-08-26T09:44:07Z</time>
      </trkpt>
      <trkpt lat="45.93649" lon="4.76791">
        <ele>167</ele>
        <time>2017-08-26T09:44:08Z</time>
      </trkpt>
      <trkpt lat="45.93646" lon="4.76784">
        <ele>168</ele>
        <time>2017-08-26T09:44:09Z</time>
      </trkpt>
      <trkpt lat="45.93643" lon="4.76778">
        <ele>168</ele>
        <time>2017-08-26T09:44:10Z</time>
      </trkpt>
      <trkpt lat="45.9364" lon="4.76772">
        <ele>168</ele>
        <time>2017-08-26T09:44:11Z</time>
      </trkpt>
      <trkpt lat="45.93635" lon="4.76764">
        <ele>168</ele>
        <time>2017-08-26T09:44:13Z</time>
      </trkpt>
      <trkpt lat="45.93633" lon="4.76759">
        <ele>168</ele>
        <time>2017-08-26T09:44:14Z</time>
      </trkpt>
      <trkpt lat="45.93628" lon="4.76752">
        <ele>168</ele>
        <time>2017-08-26T09:44:16Z</time>
      </trkpt>
      <trkpt lat="45.93626" lon="4.76749">
        <ele>168</ele>
        <time>2017-08-26T09:44:17Z</time>
      </trkpt>
      <trkpt lat="45.93621" lon="4.7674">
        <ele>169</ele>
        <time>2017-08-26T09:44:19Z</time>
      </trkpt>
      <trkpt lat="45.93618" lon="4.76736">
        <ele>169</ele>
        <time>2017-08-26T09:44:20Z</time>
      </trkpt>
      <trkpt lat="45.93613" lon="4.76727">
        <ele>169</ele>
        <time>2017-08-26T09:44:22Z</time>
      </trkpt>
      <trkpt lat="45.93611" lon="4.76723">
        <ele>169</ele>
        <time>2017-08-26T09:44:23Z</time>
      </trkpt>
      <trkpt lat="45.93605" lon="4.76716">
        <ele>169</ele>
        <time>2017-08-26T09:44:26Z</time>
      </trkpt>
      <trkpt lat="45.93603" lon="4.76713">
        <ele>169</ele>
        <time>2017-08-26T09:44:27Z</time>
      </trkpt>
      <trkpt lat="45.93598" lon="4.76706">
        <ele>169</ele>
        <time>2017-08-26T09:44:29Z</time>
      </trkpt>
      <trkpt lat="45.93596" lon="4.76703">
        <ele>169</ele>
        <time>2017-08-26T09:44:30Z</time>
      </trkpt>
      <trkpt lat="45.93591" lon="4.76696">
        <ele>169</ele>
        <time>2017-08-26T09:44:33Z</time>
      </trkpt>
      <trkpt lat="45.93589" lon="4.76691">
        <ele>170</ele>
        <time>2017-08-26T09:44:34Z</time>
      </trkpt>
      <trkpt lat="45.93584" lon="4.7668">
        <ele>170</ele>
        <time>2017-08-26T09:44:36Z</time>
      </trkpt>
      <trkpt lat="45.93582" lon="4.76676">
        <ele>171</ele>
        <time>2017-08-26T09:44:37Z</time>
      </trkpt>
      <trkpt lat="45.93578" lon="4.76669">
        <ele>171</ele>
        <time>2017-08-26T09:44:39Z</time>
      </trkpt>
      <trkpt lat="45.93576" lon="4.76664">
        <ele>171</ele>
        <time>2017-08-26T09:44:40Z</time>
      </trkpt>
      <trkpt lat="45.93569" lon="4.76656">
        <ele>170</ele>
        <time>2017-08-26T09:44:42Z</time>
      </trkpt>
      <trkpt lat="45.93567" lon="4.76651">
        <ele>170</ele>
        <time>2017-08-26T09:44:43Z</time>
      </trkpt>
      <trkpt lat="45.93561" lon="4.76643">
        <ele>170</ele>
        <time>2017-08-26T09:44:45Z</time>
      </trkpt>
      <trkpt lat="45.93559" lon="4.7664">
        <ele>170</ele>
        <time>2017-08-26T09:44:46Z</time>
      </trkpt>
      <trkpt lat="45.93553" lon="4.76632">
        <ele>170</ele>
        <time>2017-08-26T09:44:48Z</time>
      </trkpt>
      <trkpt lat="45.9355" lon="4.76628">
        <ele>169</ele>
        <time>2017-08-26T09:44:49Z</time>
      </trkpt>
      <trkpt lat="45.93543" lon="4.7662">
        <ele>169</ele>
        <time>2017-08-26T09:44:51Z</time>
      </trkpt>
      <trkpt lat="45.9354" lon="4.76616">
        <ele>169</ele>
        <time>2017-08-26T09:44:52Z</time>
      </trkpt>
      <trkpt lat="45.93536" lon="4.76609">
        <ele>169</ele>
        <time>2017-08-26T09:44:54Z</time>
      </trkpt>
      <trkpt lat="45.93534" lon="4.76605">
        <ele>169</ele>
        <time>2017-08-26T09:44:55Z</time>
      </trkpt>
      <trkpt lat="45.93529" lon="4.76598">
        <ele>169</ele>
        <time>2017-08-26T09:44:57Z</time>
      </trkpt>
      <trkpt lat="45.93525" lon="4.76592">
        <ele>169</ele>
        <time>2017-08-26T09:44:58Z</time>
      </trkpt>
      <trkpt lat="45.9352" lon="4.76588">
        <ele>170</ele>
        <time>2017-08-26T09:44:59Z</time>
      </trkpt>
      <trkpt lat="45.93516" lon="4.76583">
        <ele>169</ele>
        <time>2017-08-26T09:45:00Z</time>
      </trkpt>
      <trkpt lat="45.93512" lon="4.76579">
        <ele>169</ele>
        <time>2017-08-26T09:45:01Z</time>
      </trkpt>
      <trkpt lat="45.93509" lon="4.76572">
        <ele>169</ele>
        <time>2017-08-26T09:45:02Z</time>
      </trkpt>
      <trkpt lat="45.93502" lon="4.76564">
        <ele>168</ele>
        <time>2017-08-26T09:45:04Z</time>
      </trkpt>
      <trkpt lat="45.93499" lon="4.76561">
        <ele>169</ele>
        <time>2017-08-26T09:45:05Z</time>
      </trkpt>
      <trkpt lat="45.93495" lon="4.76554">
        <ele>169</ele>
        <time>2017-08-26T09:45:07Z</time>
      </trkpt>
      <trkpt lat="45.93493" lon="4.76551">
        <ele>169</ele>
        <time>2017-08-26T09:45:08Z</time>
      </trkpt>
      <trkpt lat="45.93487" lon="4.76545">
        <ele>168</ele>
        <time>2017-08-26T09:45:10Z</time>
      </trkpt>
      <trkpt lat="45.93484" lon="4.76542">
        <ele>168</ele>
        <time>2017-08-26T09:45:11Z</time>
      </trkpt>
      <trkpt lat="45.93477" lon="4.76535">
        <ele>168</ele>
        <time>2017-08-26T09:45:13Z</time>
      </trkpt>
      <trkpt lat="45.93473" lon="4.76531">
        <ele>168</ele>
        <time>2017-08-26T09:45:14Z</time>
      </trkpt>
      <trkpt lat="45.93466" lon="4.76522">
        <ele>168</ele>
        <time>2017-08-26T09:45:16Z</time>
      </trkpt>
      <trkpt lat="45.93464" lon="4.76517">
        <ele>168</ele>
        <time>2017-08-26T09:45:17Z</time>
      </trkpt>
      <trkpt lat="45.93457" lon="4.76508">
        <ele>168</ele>
        <time>2017-08-26T09:45:19Z</time>
      </trkpt>
      <trkpt lat="45.93455" lon="4.76505">
        <ele>168</ele>
        <time>2017-08-26T09:45:20Z</time>
      </trkpt>
      <trkpt lat="45.9345" lon="4.76499">
        <ele>167</ele>
        <time>2017-08-26T09:45:22Z</time>
      </trkpt>
      <trkpt lat="45.93448" lon="4.76495">
        <ele>167</ele>
        <time>2017-08-26T09:45:23Z</time>
      </trkpt>
      <trkpt lat="45.93443" lon="4.76489">
        <ele>167</ele>
        <time>2017-08-26T09:45:25Z</time>
      </trkpt>
      <trkpt lat="45.9344" lon="4.76485">
        <ele>167</ele>
        <time>2017-08-26T09:45:26Z</time>
      </trkpt>
      <trkpt lat="45.93437" lon="4.76481">
        <ele>167</ele>
        <time>2017-08-26T09:45:27Z</time>
      </trkpt>
      <trkpt lat="45.93433" lon="4.76476">
        <ele>167</ele>
        <time>2017-08-26T09:45:28Z</time>
      </trkpt>
      <trkpt lat="45.93426" lon="4.76468">
        <ele>167</ele>
        <time>2017-08-26T09:45:30Z</time>
      </trkpt>
      <trkpt lat="45.93424" lon="4.76464">
        <ele>167</ele>
        <time>2017-08-26T09:45:31Z</time>
      </trkpt>
      <trkpt lat="45.93419" lon="4.76456">
        <ele>167</ele>
        <time>2017-08-26T09:45:33Z</time>
      </trkpt>
      <trkpt lat="45.93416" lon="4.76452">
        <ele>168</ele>
        <time>2017-08-26T09:45:34Z</time>
      </trkpt>
      <trkpt lat="45.9341" lon="4.76444">
        <ele>168</ele>
        <time>2017-08-26T09:45:37Z</time>
      </trkpt>
      <trkpt lat="45.93407" lon="4.76441">
        <ele>168</ele>
        <time>2017-08-26T09:45:38Z</time>
      </trkpt>
      <trkpt lat="45.93402" lon="4.76433">
        <ele>167</ele>
        <time>2017-08-26T09:45:40Z</time>
      </trkpt>
      <trkpt lat="45.93398" lon="4.76427">
        <ele>167</ele>
        <time>2017-08-26T09:45:41Z</time>
      </trkpt>
      <trkpt lat="45.93393" lon="4.76419">
        <ele>168</ele>
        <time>2017-08-26T09:45:43Z</time>
      </trkpt>
      <trkpt lat="45.93391" lon="4.76415">
        <ele>167</ele>
        <time>2017-08-26T09:45:44Z</time>
      </trkpt>
      <trkpt lat="45.93387" lon="4.76407">
        <ele>167</ele>
        <time>2017-08-26T09:45:46Z</time>
      </trkpt>
      <trkpt lat="45.93384" lon="4.76403">
        <ele>168</ele>
        <time>2017-08-26T09:45:47Z</time>
      </trkpt>
      <trkpt lat="45.93379" lon="4.76395">
        <ele>168</ele>
        <time>2017-08-26T09:45:49Z</time>
      </trkpt>
      <trkpt lat="45.93376" lon="4.7639">
        <ele>168</ele>
        <time>2017-08-26T09:45:50Z</time>
      </trkpt>
      <trkpt lat="45.93371" lon="4.76382">
        <ele>168</ele>
        <time>2017-08-26T09:45:52Z</time>
      </trkpt>
      <trkpt lat="45.93367" lon="4.76377">
        <ele>168</ele>
        <time>2017-08-26T09:45:53Z</time>
      </trkpt>
      <trkpt lat="45.9336" lon="4.7637">
        <ele>168</ele>
        <time>2017-08-26T09:45:55Z</time>
      </trkpt>
      <trkpt lat="45.93357" lon="4.76366">
        <ele>168</ele>
        <time>2017-08-26T09:45:56Z</time>
      </trkpt>
      <trkpt lat="45.9335" lon="4.76358">
        <ele>168</ele>
        <time>2017-08-26T09:45:58Z</time>
      </trkpt>
      <trkpt lat="45.93348" lon="4.76354">
        <ele>168</ele>
        <time>2017-08-26T09:45:59Z</time>
      </trkpt>
      <trkpt lat="45.93342" lon="4.76348">
        <ele>168</ele>
        <time>2017-08-26T09:46:01Z</time>
      </trkpt>
      <trkpt lat="45.93339" lon="4.76347">
        <ele>168</ele>
        <time>2017-08-26T09:46:02Z</time>
      </trkpt>
      <trkpt lat="45.93333" lon="4.76343">
        <ele>169</ele>
        <time>2017-08-26T09:46:04Z</time>
      </trkpt>
      <trkpt lat="45.93329" lon="4.76342">
        <ele>169</ele>
        <time>2017-08-26T09:46:05Z</time>
      </trkpt>
      <trkpt lat="45.93322" lon="4.76341">
        <ele>169</ele>
        <time>2017-08-26T09:46:08Z</time>
      </trkpt>
      <trkpt lat="45.93319" lon="4.7634">
        <ele>169</ele>
        <time>2017-08-26T09:46:09Z</time>
      </trkpt>
      <trkpt lat="45.93313" lon="4.76338">
        <ele>169</ele>
        <time>2017-08-26T09:46:11Z</time>
      </trkpt>
      <trkpt lat="45.9331" lon="4.76337">
        <ele>169</ele>
        <time>2017-08-26T09:46:12Z</time>
      </trkpt>
      <trkpt lat="45.93302" lon="4.76335">
        <ele>169</ele>
        <time>2017-08-26T09:46:14Z</time>
      </trkpt>
      <trkpt lat="45.933" lon="4.76332">
        <ele>168</ele>
        <time>2017-08-26T09:46:15Z</time>
      </trkpt>
      <trkpt lat="45.93295" lon="4.76325">
        <ele>168</ele>
        <time>2017-08-26T09:46:17Z</time>
      </trkpt>
      <trkpt lat="45.93288" lon="4.76318">
        <ele>168</ele>
        <time>2017-08-26T09:46:18Z</time>
      </trkpt>
      <trkpt lat="45.93281" lon="4.76312">
        <ele>168</ele>
        <time>2017-08-26T09:46:19Z</time>
      </trkpt>
      <trkpt lat="45.93272" lon="4.76305">
        <ele>168</ele>
        <time>2017-08-26T09:46:20Z</time>
      </trkpt>
      <trkpt lat="45.93264" lon="4.76308">
        <ele>168</ele>
        <time>2017-08-26T09:46:22Z</time>
      </trkpt>
      <trkpt lat="45.93261" lon="4.76311">
        <ele>168</ele>
        <time>2017-08-26T09:46:23Z</time>
      </trkpt>
      <trkpt lat="45.93257" lon="4.7632">
        <ele>168</ele>
        <time>2017-08-26T09:46:25Z</time>
      </trkpt>
      <trkpt lat="45.93255" lon="4.76324">
        <ele>168</ele>
        <time>2017-08-26T09:46:26Z</time>
      </trkpt>
      <trkpt lat="45.93255" lon="4.76334">
        <ele>168</ele>
        <time>2017-08-26T09:46:28Z</time>
      </trkpt>
      <trkpt lat="45.93255" lon="4.76338">
        <ele>168</ele>
        <time>2017-08-26T09:46:29Z</time>
      </trkpt>
      <trkpt lat="45.93248" lon="4.76341">
        <ele>168</ele>
        <time>2017-08-26T09:46:30Z</time>
      </trkpt>
      <trkpt lat="45.93242" lon="4.76344">
        <ele>168</ele>
        <time>2017-08-26T09:46:31Z</time>
      </trkpt>
      <trkpt lat="45.93239" lon="4.76349">
        <ele>168</ele>
        <time>2017-08-26T09:46:32Z</time>
      </trkpt>
      <trkpt lat="45.93237" lon="4.76355">
        <ele>168</ele>
        <time>2017-08-26T09:46:33Z</time>
      </trkpt>
      <trkpt lat="45.93236" lon="4.76363">
        <ele>168</ele>
        <time>2017-08-26T09:46:34Z</time>
      </trkpt>
      <trkpt lat="45.93236" lon="4.76372">
        <ele>168</ele>
        <time>2017-08-26T09:46:35Z</time>
      </trkpt>
      <trkpt lat="45.93234" lon="4.76379">
        <ele>168</ele>
        <time>2017-08-26T09:46:36Z</time>
      </trkpt>
      <trkpt lat="45.93233" lon="4.76387">
        <ele>168</ele>
        <time>2017-08-26T09:46:37Z</time>
      </trkpt>
      <trkpt lat="45.93233" lon="4.76394">
        <ele>168</ele>
        <time>2017-08-26T09:46:38Z</time>
      </trkpt>
      <trkpt lat="45.93232" lon="4.76401">
        <ele>168</ele>
        <time>2017-08-26T09:46:39Z</time>
      </trkpt>
      <trkpt lat="45.93231" lon="4.76413">
        <ele>168</ele>
        <time>2017-08-26T09:46:41Z</time>
      </trkpt>
      <trkpt lat="45.9323" lon="4.76419">
        <ele>168</ele>
        <time>2017-08-26T09:46:42Z</time>
      </trkpt>
      <trkpt lat="45.93229" lon="4.76431">
        <ele>168</ele>
        <time>2017-08-26T09:46:44Z</time>
      </trkpt>
      <trkpt lat="45.93228" lon="4.76437">
        <ele>168</ele>
        <time>2017-08-26T09:46:45Z</time>
      </trkpt>
      <trkpt lat="45.93227" lon="4.76444">
        <ele>168</ele>
        <time>2017-08-26T09:46:46Z</time>
      </trkpt>
      <trkpt lat="45.93226" lon="4.76451">
        <ele>168</ele>
        <time>2017-08-26T09:46:47Z</time>
      </trkpt>
      <trkpt lat="45.93224" lon="4.76459">
        <ele>169</ele>
        <time>2017-08-26T09:46:48Z</time>
      </trkpt>
      <trkpt lat="45.93223" lon="4.76466">
        <ele>169</ele>
        <time>2017-08-26T09:46:49Z</time>
      </trkpt>
      <trkpt lat="45.93223" lon="4.76473">
        <ele>169</ele>
        <time>2017-08-26T09:46:50Z</time>
      </trkpt>
      <trkpt lat="45.93222" lon="4.7648">
        <ele>169</ele>
        <time>2017-08-26T09:46:51Z</time>
      </trkpt>
      <trkpt lat="45.9322" lon="4.76491">
        <ele>169</ele>
        <time>2017-08-26T09:46:53Z</time>
      </trkpt>
      <trkpt lat="45.93219" lon="4.76497">
        <ele>169</ele>
        <time>2017-08-26T09:46:54Z</time>
      </trkpt>
      <trkpt lat="45.93218" lon="4.76508">
        <ele>169</ele>
        <time>2017-08-26T09:46:56Z</time>
      </trkpt>
      <trkpt lat="45.93217" lon="4.76513">
        <ele>169</ele>
        <time>2017-08-26T09:46:57Z</time>
      </trkpt>
      <trkpt lat="45.93215" lon="4.76525">
        <ele>169</ele>
        <time>2017-08-26T09:46:59Z</time>
      </trkpt>
      <trkpt lat="45.93214" lon="4.76532">
        <ele>169</ele>
        <time>2017-08-26T09:47:00Z</time>
      </trkpt>
      <trkpt lat="45.93212" lon="4.76539">
        <ele>169</ele>
        <time>2017-08-26T09:47:01Z</time>
      </trkpt>
      <trkpt lat="45.93211" lon="4.76545">
        <ele>169</ele>
        <time>2017-08-26T09:47:02Z</time>
      </trkpt>
      <trkpt lat="45.93208" lon="4.76557">
        <ele>169</ele>
        <time>2017-08-26T09:47:04Z</time>
      </trkpt>
      <trkpt lat="45.93207" lon="4.76563">
        <ele>169</ele>
        <time>2017-08-26T09:47:05Z</time>
      </trkpt>
      <trkpt lat="45.93205" lon="4.76573">
        <ele>169</ele>
        <time>2017-08-26T09:47:07Z</time>
      </trkpt>
      <trkpt lat="45.93203" lon="4.76577">
        <ele>169</ele>
        <time>2017-08-26T09:47:08Z</time>
      </trkpt>
      <trkpt lat="45.93199" lon="4.76585">
        <ele>170</ele>
        <time>2017-08-26T09:47:10Z</time>
      </trkpt>
      <trkpt lat="45.93196" lon="4.76587">
        <ele>170</ele>
        <time>2017-08-26T09:47:11Z</time>
      </trkpt>
      <trkpt lat="45.9319" lon="4.76588">
        <ele>170</ele>
        <time>2017-08-26T09:47:13Z</time>
      </trkpt>
      <trkpt lat="45.93186" lon="4.76587">
        <ele>171</ele>
        <time>2017-08-26T09:47:14Z</time>
      </trkpt>
      <trkpt lat="45.9318" lon="4.76583">
        <ele>170</ele>
        <time>2017-08-26T09:47:16Z</time>
      </trkpt>
      <trkpt lat="45.93176" lon="4.7658">
        <ele>170</ele>
        <time>2017-08-26T09:47:17Z</time>
      </trkpt>
      <trkpt lat="45.9317" lon="4.76576">
        <ele>170</ele>
        <time>2017-08-26T09:47:19Z</time>
      </trkpt>
      <trkpt lat="45.93167" lon="4.76573">
        <ele>171</ele>
        <time>2017-08-26T09:47:20Z</time>
      </trkpt>
      <trkpt lat="45.93161" lon="4.76568">
        <ele>170</ele>
        <time>2017-08-26T09:47:22Z</time>
      </trkpt>
      <trkpt lat="45.93157" lon="4.76564">
        <ele>170</ele>
        <time>2017-08-26T09:47:23Z</time>
      </trkpt>
      <trkpt lat="45.93151" lon="4.76558">
        <ele>170</ele>
        <time>2017-08-26T09:47:25Z</time>
      </trkpt>
      <trkpt lat="45.93147" lon="4.76555">
        <ele>170</ele>
        <time>2017-08-26T09:47:26Z</time>
      </trkpt>
      <trkpt lat="45.93142" lon="4.76552">
        <ele>170</ele>
        <time>2017-08-26T09:47:27Z</time>
      </trkpt>
      <trkpt lat="45.93136" lon="4.76548">
        <ele>170</ele>
        <time>2017-08-26T09:47:28Z</time>
      </trkpt>
      <trkpt lat="45.93132" lon="4.76544">
        <ele>170</ele>
        <time>2017-08-26T09:47:29Z</time>
      </trkpt>
      <trkpt lat="45.93127" lon="4.76539">
        <ele>170</ele>
        <time>2017-08-26T09:47:30Z</time>
      </trkpt>
      <trkpt lat="45.93123" lon="4.76534">
        <ele>170</ele>
        <time>2017-08-26T09:47:31Z</time>
      </trkpt>
      <trkpt lat="45.93118" lon="4.76529">
        <ele>170</ele>
        <time>2017-08-26T09:47:32Z</time>
      </trkpt>
      <trkpt lat="45.93114" lon="4.76525">
        <ele>170</ele>
        <time>2017-08-26T09:47:33Z</time>
      </trkpt>
      <trkpt lat="45.9311" lon="4.76522">
        <ele>170</ele>
        <time>2017-08-26T09:47:34Z</time>
      </trkpt>
      <trkpt lat="45.93106" lon="4.76517">
        <ele>170</ele>
        <time>2017-08-26T09:47:35Z</time>
      </trkpt>
      <trkpt lat="45.93103" lon="4.76513">
        <ele>170</ele>
        <time>2017-08-26T09:47:36Z</time>
      </trkpt>
      <trkpt lat="45.93096" lon="4.76506">
        <ele>170</ele>
        <time>2017-08-26T09:47:38Z</time>
      </trkpt>
      <trkpt lat="45.93093" lon="4.76502">
        <ele>170</ele>
        <time>2017-08-26T09:47:39Z</time>
      </trkpt>
      <trkpt lat="45.93087" lon="4.76493">
        <ele>170</ele>
        <time>2017-08-26T09:47:41Z</time>
      </trkpt>
      <trkpt lat="45.93082" lon="4.76489">
        <ele>170</ele>
        <time>2017-08-26T09:47:42Z</time>
      </trkpt>
      <trkpt lat="45.93078" lon="4.76485">
        <ele>169</ele>
        <time>2017-08-26T09:47:43Z</time>
      </trkpt>
      <trkpt lat="45.93074" lon="4.7648">
        <ele>169</ele>
        <time>2017-08-26T09:47:44Z</time>
      </trkpt>
      <trkpt lat="45.9307" lon="4.76477">
        <ele>169</ele>
        <time>2017-08-26T09:47:45Z</time>
      </trkpt>
      <trkpt lat="45.93066" lon="4.76472">
        <ele>169</ele>
        <time>2017-08-26T09:47:46Z</time>
      </trkpt>
      <trkpt lat="45.93058" lon="4.76466">
        <ele>169</ele>
        <time>2017-08-26T09:47:48Z</time>
      </trkpt>
      <trkpt lat="45.93054" lon="4.76463">
        <ele>169</ele>
        <time>2017-08-26T09:47:49Z</time>
      </trkpt>
      <trkpt lat="45.93047" lon="4.76456">
        <ele>169</ele>
        <time>2017-08-26T09:47:51Z</time>
      </trkpt>
      <trkpt lat="45.93043" lon="4.76452">
        <ele>169</ele>
        <time>2017-08-26T09:47:52Z</time>
      </trkpt>
      <trkpt lat="45.93039" lon="4.76448">
        <ele>169</ele>
        <time>2017-08-26T09:47:53Z</time>
      </trkpt>
      <trkpt lat="45.93035" lon="4.76445">
        <ele>169</ele>
        <time>2017-08-26T09:47:54Z</time>
      </trkpt>
      <trkpt lat="45.9303" lon="4.76441">
        <ele>169</ele>
        <time>2017-08-26T09:47:55Z</time>
      </trkpt>
      <trkpt lat="45.93026" lon="4.76437">
        <ele>169</ele>
        <time>2017-08-26T09:47:56Z</time>
      </trkpt>
      <trkpt lat="45.93022" lon="4.76433">
        <ele>169</ele>
        <time>2017-08-26T09:47:57Z</time>
      </trkpt>
      <trkpt lat="45.93019" lon="4.76428">
        <ele>169</ele>
        <time>2017-08-26T09:47:58Z</time>
      </trkpt>
      <trkpt lat="45.93015" lon="4.76423">
        <ele>169</ele>
        <time>2017-08-26T09:47:59Z</time>
      </trkpt>
      <trkpt lat="45.93012" lon="4.76419">
        <ele>169</ele>
        <time>2017-08-26T09:48:00Z</time>
      </trkpt>
      <trkpt lat="45.93005" lon="4.76414">
        <ele>169</ele>
        <time>2017-08-26T09:48:02Z</time>
      </trkpt>
      <trkpt lat="45.93002" lon="4.76412">
        <ele>169</ele>
        <time>2017-08-26T09:48:03Z</time>
      </trkpt>
      <trkpt lat="45.92996" lon="4.76408">
        <ele>169</ele>
        <time>2017-08-26T09:48:05Z</time>
      </trkpt>
      <trkpt lat="45.92992" lon="4.76405">
        <ele>169</ele>
        <time>2017-08-26T09:48:06Z</time>
      </trkpt>
      <trkpt lat="45.92988" lon="4.76401">
        <ele>169</ele>
        <time>2017-08-26T09:48:07Z</time>
      </trkpt>
      <trkpt lat="45.92984" lon="4.76398">
        <ele>169</ele>
        <time>2017-08-26T09:48:08Z</time>
      </trkpt>
      <trkpt lat="45.92979" lon="4.76394">
        <ele>169</ele>
        <time>2017-08-26T09:48:09Z</time>
      </trkpt>
      <trkpt lat="45.92975" lon="4.76389">
        <ele>169</ele>
        <time>2017-08-26T09:48:10Z</time>
      </trkpt>
      <trkpt lat="45.92971" lon="4.76385">
        <ele>169</ele>
        <time>2017-08-26T09:48:11Z</time>
      </trkpt>
      <trkpt lat="45.92966" lon="4.7638">
        <ele>169</ele>
        <time>2017-08-26T09:48:12Z</time>
      </trkpt>
      <trkpt lat="45.92962" lon="4.76375">
        <ele>169</ele>
        <time>2017-08-26T09:48:13Z</time>
      </trkpt>
      <trkpt lat="45.92957" lon="4.76371">
        <ele>169</ele>
        <time>2017-08-26T09:48:14Z</time>
      </trkpt>
      <trkpt lat="45.92952" lon="4.76366">
        <ele>169</ele>
        <time>2017-08-26T09:48:15Z</time>
      </trkpt>
      <trkpt lat="45.92948" lon="4.76361">
        <ele>169</ele>
        <time>2017-08-26T09:48:16Z</time>
      </trkpt>
      <trkpt lat="45.92943" lon="4.76355">
        <ele>169</ele>
        <time>2017-08-26T09:48:17Z</time>
      </trkpt>
      <trkpt lat="45.92939" lon="4.76351">
        <ele>169</ele>
        <time>2017-08-26T09:48:18Z</time>
      </trkpt>
      <trkpt lat="45.92936" lon="4.76347">
        <ele>169</ele>
        <time>2017-08-26T09:48:19Z</time>
      </trkpt>
      <trkpt lat="45.92932" lon="4.76343">
        <ele>169</ele>
        <time>2017-08-26T09:48:20Z</time>
      </trkpt>
      <trkpt lat="45.92928" lon="4.76339">
        <ele>169</ele>
        <time>2017-08-26T09:48:21Z</time>
      </trkpt>
      <trkpt lat="45.92924" lon="4.76335">
        <ele>169</ele>
        <time>2017-08-26T09:48:22Z</time>
      </trkpt>
      <trkpt lat="45.92919" lon="4.76331">
        <ele>169</ele>
        <time>2017-08-26T09:48:23Z</time>
      </trkpt>
      <trkpt lat="45.92915" lon="4.76328">
        <ele>169</ele>
        <time>2017-08-26T09:48:24Z</time>
      </trkpt>
      <trkpt lat="45.9291" lon="4.76325">
        <ele>169</ele>
        <time>2017-08-26T09:48:25Z</time>
      </trkpt>
      <trkpt lat="45.92905" lon="4.76321">
        <ele>169</ele>
        <time>2017-08-26T09:48:26Z</time>
      </trkpt>
      <trkpt lat="45.92901" lon="4.76317">
        <ele>169</ele>
        <time>2017-08-26T09:48:27Z</time>
      </trkpt>
      <trkpt lat="45.92896" lon="4.76313">
        <ele>169</ele>
        <time>2017-08-26T09:48:28Z</time>
      </trkpt>
      <trkpt lat="45.92892" lon="4.76308">
        <ele>169</ele>
        <time>2017-08-26T09:48:29Z</time>
      </trkpt>
      <trkpt lat="45.92888" lon="4.76305">
        <ele>169</ele>
        <time>2017-08-26T09:48:30Z</time>
      </trkpt>
      <trkpt lat="45.92883" lon="4.76302">
        <ele>169</ele>
        <time>2017-08-26T09:48:31Z</time>
      </trkpt>
      <trkpt lat="45.92879" lon="4.763">
        <ele>169</ele>
        <time>2017-08-26T09:48:32Z</time>
      </trkpt>
      <trkpt lat="45.92871" lon="4.76304">
        <ele>169</ele>
        <time>2017-08-26T09:48:34Z</time>
      </trkpt>
      <trkpt lat="45.92867" lon="4.7631">
        <ele>169</ele>
        <time>2017-08-26T09:48:35Z</time>
      </trkpt>
      <trkpt lat="45.92863" lon="4.76315">
        <ele>169</ele>
        <time>2017-08-26T09:48:36Z</time>
      </trkpt>
      <trkpt lat="45.92858" lon="4.76319">
        <ele>169</ele>
        <time>2017-08-26T09:48:37Z</time>
      </trkpt>
      <trkpt lat="45.92854" lon="4.76324">
        <ele>169</ele>
        <time>2017-08-26T09:48:38Z</time>
      </trkpt>
      <trkpt lat="45.92851" lon="4.76329">
        <ele>169</ele>
        <time>2017-08-26T09:48:39Z</time>
      </trkpt>
      <trkpt lat="45.92847" lon="4.76335">
        <ele>170</ele>
        <time>2017-08-26T09:48:40Z</time>
      </trkpt>
      <trkpt lat="45.92843" lon="4.7634">
        <ele>170</ele>
        <time>2017-08-26T09:48:41Z</time>
      </trkpt>
      <trkpt lat="45.92839" lon="4.76344">
        <ele>170</ele>
        <time>2017-08-26T09:48:42Z</time>
      </trkpt>
      <trkpt lat="45.92836" lon="4.76349">
        <ele>170</ele>
        <time>2017-08-26T09:48:43Z</time>
      </trkpt>
      <trkpt lat="45.92829" lon="4.76357">
        <ele>170</ele>
        <time>2017-08-26T09:48:45Z</time>
      </trkpt>
      <trkpt lat="45.92826" lon="4.76362">
        <ele>169</ele>
        <time>2017-08-26T09:48:46Z</time>
      </trkpt>
      <trkpt lat="45.9282" lon="4.7637">
        <ele>169</ele>
        <time>2017-08-26T09:48:48Z</time>
      </trkpt>
      <trkpt lat="45.92818" lon="4.76374">
        <ele>169</ele>
        <time>2017-08-26T09:48:49Z</time>
      </trkpt>
      <trkpt lat="45.92812" lon="4.76381">
        <ele>169</ele>
        <time>2017-08-26T09:48:51Z</time>
      </trkpt>
      <trkpt lat="45.92809" lon="4.76383">
        <ele>169</ele>
        <time>2017-08-26T09:48:52Z</time>
      </trkpt>
      <trkpt lat="45.92802" lon="4.76385">
        <ele>169</ele>
        <time>2017-08-26T09:48:54Z</time>
      </trkpt>
      <trkpt lat="45.92798" lon="4.76385">
        <ele>169</ele>
        <time>2017-08-26T09:48:55Z</time>
      </trkpt>
      <trkpt lat="45.92791" lon="4.76384">
        <ele>169</ele>
        <time>2017-08-26T09:48:57Z</time>
      </trkpt>
      <trkpt lat="45.92786" lon="4.76383">
        <ele>169</ele>
        <time>2017-08-26T09:48:58Z</time>
      </trkpt>
      <trkpt lat="45.92781" lon="4.76381">
        <ele>169</ele>
        <time>2017-08-26T09:48:59Z</time>
      </trkpt>
      <trkpt lat="45.92775" lon="4.76379">
        <ele>169</ele>
        <time>2017-08-26T09:49:00Z</time>
      </trkpt>
      <trkpt lat="45.9277" lon="4.76377">
        <ele>169</ele>
        <time>2017-08-26T09:49:01Z</time>
      </trkpt>
      <trkpt lat="45.92765" lon="4.76376">
        <ele>169</ele>
        <time>2017-08-26T09:49:02Z</time>
      </trkpt>
      <trkpt lat="45.92757" lon="4.76374">
        <ele>169</ele>
        <time>2017-08-26T09:49:04Z</time>
      </trkpt>
      <trkpt lat="45.92753" lon="4.76372">
        <ele>169</ele>
        <time>2017-08-26T09:49:05Z</time>
      </trkpt>
      <trkpt lat="45.92749" lon="4.7637">
        <ele>169</ele>
        <time>2017-08-26T09:49:06Z</time>
      </trkpt>
      <trkpt lat="45.92744" lon="4.76369">
        <ele>169</ele>
        <time>2017-08-26T09:49:07Z</time>
      </trkpt>
      <trkpt lat="45.92739" lon="4.76367">
        <ele>169</ele>
        <time>2017-08-26T09:49:08Z</time>
      </trkpt>
      <trkpt lat="45.92735" lon="4.76366">
        <ele>169</ele>
        <time>2017-08-26T09:49:09Z</time>
      </trkpt>
      <trkpt lat="45.9273" lon="4.76364">
        <ele>169</ele>
        <time>2017-08-26T09:49:10Z</time>
      </trkpt>
      <trkpt lat="45.92724" lon="4.76362">
        <ele>169</ele>
        <time>2017-08-26T09:49:11Z</time>
      </trkpt>
      <trkpt lat="45.9272" lon="4.7636">
        <ele>169</ele>
        <time>2017-08-26T09:49:12Z</time>
      </trkpt>
      <trkpt lat="45.92714" lon="4.76358">
        <ele>169</ele>
        <time>2017-08-26T09:49:13Z</time>
      </trkpt>
      <trkpt lat="45.92706" lon="4.76354">
        <ele>168</ele>
        <time>2017-08-26T09:49:15Z</time>
      </trkpt>
      <trkpt lat="45.92702" lon="4.76353">
        <ele>168</ele>
        <time>2017-08-26T09:49:16Z</time>
      </trkpt>
      <trkpt lat="45.92697" lon="4.76351">
        <ele>168</ele>
        <time>2017-08-26T09:49:17Z</time>
      </trkpt>
      <trkpt lat="45.92693" lon="4.76349">
        <ele>168</ele>
        <time>2017-08-26T09:49:18Z</time>
      </trkpt>
      <trkpt lat="45.92685" lon="4.76346">
        <ele>168</ele>
        <time>2017-08-26T09:49:20Z</time>
      </trkpt>
      <trkpt lat="45.92681" lon="4.76344">
        <ele>168</ele>
        <time>2017-08-26T09:49:21Z</time>
      </trkpt>
      <trkpt lat="45.92674" lon="4.76343">
        <ele>168</ele>
        <time>2017-08-26T09:49:23Z</time>
      </trkpt>
      <trkpt lat="45.92669" lon="4.76341">
        <ele>168</ele>
        <time>2017-08-26T09:49:24Z</time>
      </trkpt>
      <trkpt lat="45.92664" lon="4.76339">
        <ele>168</ele>
        <time>2017-08-26T09:49:25Z</time>
      </trkpt>
      <trkpt lat="45.92659" lon="4.76337">
        <ele>168</ele>
        <time>2017-08-26T09:49:26Z</time>
      </trkpt>
      <trkpt lat="45.92655" lon="4.76335">
        <ele>168</ele>
        <time>2017-08-26T09:49:27Z</time>
      </trkpt>
      <trkpt lat="45.9265" lon="4.76333">
        <ele>168</ele>
        <time>2017-08-26T09:49:28Z</time>
      </trkpt>
      <trkpt lat="45.92642" lon="4.76328">
        <ele>168</ele>
        <time>2017-08-26T09:49:30Z</time>
      </trkpt>
      <trkpt lat="45.92638" lon="4.76325">
        <ele>168</ele>
        <time>2017-08-26T09:49:31Z</time>
      </trkpt>
      <trkpt lat="45.92631" lon="4.7632">
        <ele>168</ele>
        <time>2017-08-26T09:49:33Z</time>
      </trkpt>
      <trkpt lat="45.92627" lon="4.76317">
        <ele>168</ele>
        <time>2017-08-26T09:49:34Z</time>
      </trkpt>
      <trkpt lat="45.92619" lon="4.76312">
        <ele>167</ele>
        <time>2017-08-26T09:49:36Z</time>
      </trkpt>
      <trkpt lat="45.92615" lon="4.7631">
        <ele>167</ele>
        <time>2017-08-26T09:49:37Z</time>
      </trkpt>
      <trkpt lat="45.9261" lon="4.76308">
        <ele>167</ele>
        <time>2017-08-26T09:49:38Z</time>
      </trkpt>
      <trkpt lat="45.92605" lon="4.76305">
        <ele>167</ele>
        <time>2017-08-26T09:49:39Z</time>
      </trkpt>
      <trkpt lat="45.92601" lon="4.76302">
        <ele>167</ele>
        <time>2017-08-26T09:49:40Z</time>
      </trkpt>
      <trkpt lat="45.92597" lon="4.76299">
        <ele>167</ele>
        <time>2017-08-26T09:49:41Z</time>
      </trkpt>
      <trkpt lat="45.92589" lon="4.76295">
        <ele>167</ele>
        <time>2017-08-26T09:49:43Z</time>
      </trkpt>
      <trkpt lat="45.92586" lon="4.76293">
        <ele>167</ele>
        <time>2017-08-26T09:49:44Z</time>
      </trkpt>
      <trkpt lat="45.92579" lon="4.7629">
        <ele>168</ele>
        <time>2017-08-26T09:49:46Z</time>
      </trkpt>
      <trkpt lat="45.92576" lon="4.76288">
        <ele>168</ele>
        <time>2017-08-26T09:49:47Z</time>
      </trkpt>
      <trkpt lat="45.92568" lon="4.76284">
        <ele>168</ele>
        <time>2017-08-26T09:49:49Z</time>
      </trkpt>
      <trkpt lat="45.92564" lon="4.76281">
        <ele>168</ele>
        <time>2017-08-26T09:49:50Z</time>
      </trkpt>
      <trkpt lat="45.92559" lon="4.76278">
        <ele>168</ele>
        <time>2017-08-26T09:49:51Z</time>
      </trkpt>
      <trkpt lat="45.92555" lon="4.76276">
        <ele>168</ele>
        <time>2017-08-26T09:49:52Z</time>
      </trkpt>
      <trkpt lat="45.92547" lon="4.76272">
        <ele>168</ele>
        <time>2017-08-26T09:49:54Z</time>
      </trkpt>
      <trkpt lat="45.92543" lon="4.76269">
        <ele>168</ele>
        <time>2017-08-26T09:49:55Z</time>
      </trkpt>
      <trkpt lat="45.92536" lon="4.76266">
        <ele>168</ele>
        <time>2017-08-26T09:49:57Z</time>
      </trkpt>
      <trkpt lat="45.92533" lon="4.76264">
        <ele>168</ele>
        <time>2017-08-26T09:49:58Z</time>
      </trkpt>
      <trkpt lat="45.92524" lon="4.76261">
        <ele>168</ele>
        <time>2017-08-26T09:50:01Z</time>
      </trkpt>
      <trkpt lat="45.92521" lon="4.7626">
        <ele>168</ele>
        <time>2017-08-26T09:50:02Z</time>
      </trkpt>
      <trkpt lat="45.92514" lon="4.76257">
        <ele>168</ele>
        <time>2017-08-26T09:50:04Z</time>
      </trkpt>
      <trkpt lat="45.9251" lon="4.76255">
        <ele>168</ele>
        <time>2017-08-26T09:50:05Z</time>
      </trkpt>
      <trkpt lat="45.92505" lon="4.76254">
        <ele>168</ele>
        <time>2017-08-26T09:50:06Z</time>
      </trkpt>
      <trkpt lat="45.925" lon="4.76256">
        <ele>168</ele>
        <time>2017-08-26T09:50:07Z</time>
      </trkpt>
      <trkpt lat="45.92495" lon="4.76258">
        <ele>168</ele>
        <time>2017-08-26T09:50:08Z</time>
      </trkpt>
      <trkpt lat="45.92491" lon="4.7626">
        <ele>169</ele>
        <time>2017-08-26T09:50:09Z</time>
      </trkpt>
      <trkpt lat="45.92486" lon="4.76262">
        <ele>169</ele>
        <time>2017-08-26T09:50:10Z</time>
      </trkpt>
      <trkpt lat="45.92482" lon="4.76263">
        <ele>169</ele>
        <time>2017-08-26T09:50:11Z</time>
      </trkpt>
      <trkpt lat="45.92475" lon="4.76267">
        <ele>169</ele>
        <time>2017-08-26T09:50:13Z</time>
      </trkpt>
      <trkpt lat="45.92471" lon="4.76268">
        <ele>169</ele>
        <time>2017-08-26T09:50:14Z</time>
      </trkpt>
      <trkpt lat="45.92464" lon="4.76272">
        <ele>169</ele>
        <time>2017-08-26T09:50:16Z</time>
      </trkpt>
      <trkpt lat="45.92461" lon="4.76275">
        <ele>169</ele>
        <time>2017-08-26T09:50:17Z</time>
      </trkpt>
      <trkpt lat="45.92456" lon="4.76284">
        <ele>169</ele>
        <time>2017-08-26T09:50:19Z</time>
      </trkpt>
      <trkpt lat="45.92454" lon="4.76289">
        <ele>169</ele>
        <time>2017-08-26T09:50:20Z</time>
      </trkpt>
      <trkpt lat="45.92451" lon="4.76295">
        <ele>169</ele>
        <time>2017-08-26T09:50:21Z</time>
      </trkpt>
      <trkpt lat="45.92449" lon="4.76301">
        <ele>169</ele>
        <time>2017-08-26T09:50:22Z</time>
      </trkpt>
      <trkpt lat="45.92444" lon="4.76312">
        <ele>169</ele>
        <time>2017-08-26T09:50:24Z</time>
      </trkpt>
      <trkpt lat="45.92442" lon="4.76317">
        <ele>170</ele>
        <time>2017-08-26T09:50:25Z</time>
      </trkpt>
      <trkpt lat="45.92438" lon="4.76326">
        <ele>170</ele>
        <time>2017-08-26T09:50:27Z</time>
      </trkpt>
      <trkpt lat="45.92436" lon="4.76331">
        <ele>170</ele>
        <time>2017-08-26T09:50:28Z</time>
      </trkpt>
      <trkpt lat="45.92432" lon="4.76341">
        <ele>170</ele>
        <time>2017-08-26T09:50:30Z</time>
      </trkpt>
      <trkpt lat="45.9243" lon="4.76346">
        <ele>170</ele>
        <time>2017-08-26T09:50:31Z</time>
      </trkpt>
      <trkpt lat="45.92428" lon="4.76351">
        <ele>170</ele>
        <time>2017-08-26T09:50:32Z</time>
      </trkpt>
      <trkpt lat="45.92425" lon="4.76357">
        <ele>170</ele>
        <time>2017-08-26T09:50:33Z</time>
      </trkpt>
      <trkpt lat="45.92421" lon="4.76367">
        <ele>170</ele>
        <time>2017-08-26T09:50:35Z</time>
      </trkpt>
      <trkpt lat="45.92419" lon="4.76372">
        <ele>170</ele>
        <time>2017-08-26T09:50:36Z</time>
      </trkpt>
      <trkpt lat="45.92412" lon="4.76379">
        <ele>169</ele>
        <time>2017-08-26T09:50:39Z</time>
      </trkpt>
      <trkpt lat="45.92409" lon="4.76379">
        <ele>169</ele>
        <time>2017-08-26T09:50:40Z</time>
      </trkpt>
      <trkpt lat="45.92403" lon="4.76379">
        <ele>169</ele>
        <time>2017-08-26T09:50:42Z</time>
      </trkpt>
      <trkpt lat="45.924" lon="4.76378">
        <ele>169</ele>
        <time>2017-08-26T09:50:43Z</time>
      </trkpt>
      <trkpt lat="45.92392" lon="4.76376">
        <ele>168</ele>
        <time>2017-08-26T09:50:45Z</time>
      </trkpt>
      <trkpt lat="45.9239" lon="4.76375">
        <ele>168</ele>
        <time>2017-08-26T09:50:46Z</time>
      </trkpt>
      <trkpt lat="45.92382" lon="4.76373">
        <ele>168</ele>
        <time>2017-08-26T09:50:48Z</time>
      </trkpt>
      <trkpt lat="45.92377" lon="4.76371">
        <ele>168</ele>
        <time>2017-08-26T09:50:49Z</time>
      </trkpt>
      <trkpt lat="45.92374" lon="4.76365">
        <ele>168</ele>
        <time>2017-08-26T09:50:50Z</time>
      </trkpt>
      <trkpt lat="45.9237" lon="4.76362">
        <ele>168</ele>
        <time>2017-08-26T09:50:51Z</time>
      </trkpt>
      <trkpt lat="45.92361" lon="4.76358">
        <ele>168</ele>
        <time>2017-08-26T09:50:54Z</time>
      </trkpt>
      <trkpt lat="45.92359" lon="4.76356">
        <ele>168</ele>
        <time>2017-08-26T09:50:55Z</time>
      </trkpt>
      <trkpt lat="45.92352" lon="4.76352">
        <ele>168</ele>
        <time>2017-08-26T09:50:57Z</time>
      </trkpt>
      <trkpt lat="45.92347" lon="4.76352">
        <ele>168</ele>
        <time>2017-08-26T09:50:58Z</time>
      </trkpt>
      <trkpt lat="45.92339" lon="4.76356">
        <ele>168</ele>
        <time>2017-08-26T09:51:00Z</time>
      </trkpt>
      <trkpt lat="45.92335" lon="4.76358">
        <ele>168</ele>
        <time>2017-08-26T09:51:01Z</time>
      </trkpt>
      <trkpt lat="45.92328" lon="4.7636">
        <ele>167</ele>
        <time>2017-08-26T09:51:03Z</time>
      </trkpt>
      <trkpt lat="45.92325" lon="4.76359">
        <ele>167</ele>
        <time>2017-08-26T09:51:04Z</time>
      </trkpt>
      <trkpt lat="45.92317" lon="4.76361">
        <ele>167</ele>
        <time>2017-08-26T09:51:07Z</time>
      </trkpt>
      <trkpt lat="45.92313" lon="4.76362">
        <ele>167</ele>
        <time>2017-08-26T09:51:08Z</time>
      </trkpt>
      <trkpt lat="45.92305" lon="4.76366">
        <ele>167</ele>
        <time>2017-08-26T09:51:10Z</time>
      </trkpt>
      <trkpt lat="45.92301" lon="4.76367">
        <ele>167</ele>
        <time>2017-08-26T09:51:11Z</time>
      </trkpt>
      <trkpt lat="45.92292" lon="4.76371">
        <ele>167</ele>
        <time>2017-08-26T09:51:13Z</time>
      </trkpt>
      <trkpt lat="45.92288" lon="4.76372">
        <ele>167</ele>
        <time>2017-08-26T09:51:14Z</time>
      </trkpt>
      <trkpt lat="45.92279" lon="4.76374">
        <ele>167</ele>
        <time>2017-08-26T09:51:16Z</time>
      </trkpt>
      <trkpt lat="45.92275" lon="4.76375">
        <ele>167</ele>
        <time>2017-08-26T09:51:17Z</time>
      </trkpt>
      <trkpt lat="45.92268" lon="4.76377">
        <ele>167</ele>
        <time>2017-08-26T09:51:19Z</time>
      </trkpt>
      <trkpt lat="45.92264" lon="4.76377">
        <ele>167</ele>
        <time>2017-08-26T09:51:20Z</time>
      </trkpt>
      <trkpt lat="45.92258" lon="4.7638">
        <ele>167</ele>
        <time>2017-08-26T09:51:22Z</time>
      </trkpt>
      <trkpt lat="45.92255" lon="4.76382">
        <ele>167</ele>
        <time>2017-08-26T09:51:23Z</time>
      </trkpt>
      <trkpt lat="45.92248" lon="4.76384">
        <ele>168</ele>
        <time>2017-08-26T09:51:25Z</time>
      </trkpt>
      <trkpt lat="45.92243" lon="4.76384">
        <ele>168</ele>
        <time>2017-08-26T09:51:26Z</time>
      </trkpt>
      <trkpt lat="45.92234" lon="4.76382">
        <ele>168</ele>
        <time>2017-08-26T09:51:28Z</time>
      </trkpt>
      <trkpt lat="45.9223" lon="4.76381">
        <ele>168</ele>
        <time>2017-08-26T09:51:29Z</time>
      </trkpt>
      <trkpt lat="45.92222" lon="4.76378">
        <ele>168</ele>
        <time>2017-08-26T09:51:31Z</time>
      </trkpt>
      <trkpt lat="45.92217" lon="4.76376">
        <ele>168</ele>
        <time>2017-08-26T09:51:32Z</time>
      </trkpt>
      <trkpt lat="45.92209" lon="4.76371">
        <ele>168</ele>
        <time>2017-08-26T09:51:34Z</time>
      </trkpt>
      <trkpt lat="45.92206" lon="4.7637">
        <ele>168</ele>
        <time>2017-08-26T09:51:35Z</time>
      </trkpt>
      <trkpt lat="45.92199" lon="4.76365">
        <ele>168</ele>
        <time>2017-08-26T09:51:37Z</time>
      </trkpt>
      <trkpt lat="45.92196" lon="4.76363">
        <ele>168</ele>
        <time>2017-08-26T09:51:38Z</time>
      </trkpt>
      <trkpt lat="45.92189" lon="4.76358">
        <ele>168</ele>
        <time>2017-08-26T09:51:40Z</time>
      </trkpt>
      <trkpt lat="45.92184" lon="4.76355">
        <ele>168</ele>
        <time>2017-08-26T09:51:41Z</time>
      </trkpt>
      <trkpt lat="45.92176" lon="4.76349">
        <ele>168</ele>
        <time>2017-08-26T09:51:43Z</time>
      </trkpt>
      <trkpt lat="45.92172" lon="4.76346">
        <ele>169</ele>
        <time>2017-08-26T09:51:44Z</time>
      </trkpt>
      <trkpt lat="45.92164" lon="4.76342">
        <ele>169</ele>
        <time>2017-08-26T09:51:46Z</time>
      </trkpt>
      <trkpt lat="45.92161" lon="4.7634">
        <ele>169</ele>
        <time>2017-08-26T09:51:47Z</time>
      </trkpt>
      <trkpt lat="45.92155" lon="4.76336">
        <ele>169</ele>
        <time>2017-08-26T09:51:49Z</time>
      </trkpt>
      <trkpt lat="45.92151" lon="4.76333">
        <ele>169</ele>
        <time>2017-08-26T09:51:50Z</time>
      </trkpt>
      <trkpt lat="45.92145" lon="4.76329">
        <ele>169</ele>
        <time>2017-08-26T09:51:52Z</time>
      </trkpt>
      <trkpt lat="45.92141" lon="4.76327">
        <ele>169</ele>
        <time>2017-08-26T09:51:53Z</time>
      </trkpt>
      <trkpt lat="45.92133" lon="4.76322">
        <ele>169</ele>
        <time>2017-08-26T09:51:55Z</time>
      </trkpt>
      <trkpt lat="45.92128" lon="4.76319">
        <ele>169</ele>
        <time>2017-08-26T09:51:56Z</time>
      </trkpt>
      <trkpt lat="45.9212" lon="4.76314">
        <ele>169</ele>
        <time>2017-08-26T09:51:58Z</time>
      </trkpt>
      <trkpt lat="45.92117" lon="4.76311">
        <ele>169</ele>
        <time>2017-08-26T09:51:59Z</time>
      </trkpt>
      <trkpt lat="45.9211" lon="4.76308">
        <ele>169</ele>
        <time>2017-08-26T09:52:01Z</time>
      </trkpt>
      <trkpt lat="45.92106" lon="4.76305">
        <ele>169</ele>
        <time>2017-08-26T09:52:02Z</time>
      </trkpt>
      <trkpt lat="45.92099" lon="4.76301">
        <ele>169</ele>
        <time>2017-08-26T09:52:04Z</time>
      </trkpt>
      <trkpt lat="45.92095" lon="4.76298">
        <ele>169</ele>
        <time>2017-08-26T09:52:05Z</time>
      </trkpt>
      <trkpt lat="45.92088" lon="4.76292">
        <ele>169</ele>
        <time>2017-08-26T09:52:07Z</time>
      </trkpt>
      <trkpt lat="45.92084" lon="4.7629">
        <ele>169</ele>
        <time>2017-08-26T09:52:08Z</time>
      </trkpt>
      <trkpt lat="45.92077" lon="4.76286">
        <ele>169</ele>
        <time>2017-08-26T09:52:10Z</time>
      </trkpt>
      <trkpt lat="45.92074" lon="4.76284">
        <ele>169</ele>
        <time>2017-08-26T09:52:11Z</time>
      </trkpt>
      <trkpt lat="45.92068" lon="4.76281">
        <ele>169</ele>
        <time>2017-08-26T09:52:13Z</time>
      </trkpt>
      <trkpt lat="45.92066" lon="4.7628">
        <ele>169</ele>
        <time>2017-08-26T09:52:14Z</time>
      </trkpt>
      <trkpt lat="45.9206" lon="4.76278">
        <ele>169</ele>
        <time>2017-08-26T09:52:16Z</time>
      </trkpt>
      <trkpt lat="45.92057" lon="4.76276">
        <ele>169</ele>
        <time>2017-08-26T09:52:17Z</time>
      </trkpt>
      <trkpt lat="45.92051" lon="4.76273">
        <ele>169</ele>
        <time>2017-08-26T09:52:19Z</time>
      </trkpt>
      <trkpt lat="45.92047" lon="4.76271">
        <ele>169</ele>
        <time>2017-08-26T09:52:20Z</time>
      </trkpt>
      <trkpt lat="45.92039" lon="4.76266">
        <ele>169</ele>
        <time>2017-08-26T09:52:22Z</time>
      </trkpt>
      <trkpt lat="45.92036" lon="4.76265">
        <ele>169</ele>
        <time>2017-08-26T09:52:23Z</time>
      </trkpt>
      <trkpt lat="45.92029" lon="4.76261">
        <ele>169</ele>
        <time>2017-08-26T09:52:26Z</time>
      </trkpt>
      <trkpt lat="45.92026" lon="4.76259">
        <ele>169</ele>
        <time>2017-08-26T09:52:27Z</time>
      </trkpt>
      <trkpt lat="45.92018" lon="4.76256">
        <ele>169</ele>
        <time>2017-08-26T09:52:29Z</time>
      </trkpt>
      <trkpt lat="45.92015" lon="4.76254">
        <ele>169</ele>
        <time>2017-08-26T09:52:30Z</time>
      </trkpt>
      <trkpt lat="45.92006" lon="4.7625">
        <ele>170</ele>
        <time>2017-08-26T09:52:32Z</time>
      </trkpt>
      <trkpt lat="45.92002" lon="4.76247">
        <ele>170</ele>
        <time>2017-08-26T09:52:33Z</time>
      </trkpt>
      <trkpt lat="45.91994" lon="4.76242">
        <ele>170</ele>
        <time>2017-08-26T09:52:35Z</time>
      </trkpt>
      <trkpt lat="45.9199" lon="4.76239">
        <ele>170</ele>
        <time>2017-08-26T09:52:36Z</time>
      </trkpt>
      <trkpt lat="45.91984" lon="4.76237">
        <ele>170</ele>
        <time>2017-08-26T09:52:38Z</time>
      </trkpt>
      <trkpt lat="45.91981" lon="4.76235">
        <ele>170</ele>
        <time>2017-08-26T09:52:39Z</time>
      </trkpt>
      <trkpt lat="45.91974" lon="4.7623">
        <ele>171</ele>
        <time>2017-08-26T09:52:41Z</time>
      </trkpt>
      <trkpt lat="45.9197" lon="4.76228">
        <ele>171</ele>
        <time>2017-08-26T09:52:42Z</time>
      </trkpt>
      <trkpt lat="45.91962" lon="4.76224">
        <ele>171</ele>
        <time>2017-08-26T09:52:44Z</time>
      </trkpt>
      <trkpt lat="45.91958" lon="4.76221">
        <ele>171</ele>
        <time>2017-08-26T09:52:45Z</time>
      </trkpt>
      <trkpt lat="45.9195" lon="4.76217">
        <ele>171</ele>
        <time>2017-08-26T09:52:47Z</time>
      </trkpt>
      <trkpt lat="45.91947" lon="4.76215">
        <ele>171</ele>
        <time>2017-08-26T09:52:48Z</time>
      </trkpt>
      <trkpt lat="45.91939" lon="4.76212">
        <ele>171</ele>
        <time>2017-08-26T09:52:50Z</time>
      </trkpt>
      <trkpt lat="45.91936" lon="4.7621">
        <ele>171</ele>
        <time>2017-08-26T09:52:51Z</time>
      </trkpt>
      <trkpt lat="45.91928" lon="4.76206">
        <ele>171</ele>
        <time>2017-08-26T09:52:54Z</time>
      </trkpt>
      <trkpt lat="45.91926" lon="4.76205">
        <ele>171</ele>
        <time>2017-08-26T09:52:55Z</time>
      </trkpt>
      <trkpt lat="45.9192" lon="4.76202">
        <ele>171</ele>
        <time>2017-08-26T09:52:57Z</time>
      </trkpt>
      <trkpt lat="45.91917" lon="4.762">
        <ele>171</ele>
        <time>2017-08-26T09:52:58Z</time>
      </trkpt>
      <trkpt lat="45.9191" lon="4.76196">
        <ele>172</ele>
        <time>2017-08-26T09:53:00Z</time>
      </trkpt>
      <trkpt lat="45.91906" lon="4.76194">
        <ele>172</ele>
        <time>2017-08-26T09:53:01Z</time>
      </trkpt>
      <trkpt lat="45.91898" lon="4.7619">
        <ele>172</ele>
        <time>2017-08-26T09:53:04Z</time>
      </trkpt>
      <trkpt lat="45.91896" lon="4.76189">
        <ele>172</ele>
        <time>2017-08-26T09:53:05Z</time>
      </trkpt>
      <trkpt lat="45.91887" lon="4.76186">
        <ele>172</ele>
        <time>2017-08-26T09:53:08Z</time>
      </trkpt>
      <trkpt lat="45.91884" lon="4.76184">
        <ele>172</ele>
        <time>2017-08-26T09:53:09Z</time>
      </trkpt>
      <trkpt lat="45.91878" lon="4.76181">
        <ele>172</ele>
        <time>2017-08-26T09:53:11Z</time>
      </trkpt>
      <trkpt lat="45.91875" lon="4.76178">
        <ele>172</ele>
        <time>2017-08-26T09:53:12Z</time>
      </trkpt>
      <trkpt lat="45.91869" lon="4.76176">
        <ele>172</ele>
        <time>2017-08-26T09:53:14Z</time>
      </trkpt>
      <trkpt lat="45.91866" lon="4.76174">
        <ele>172</ele>
        <time>2017-08-26T09:53:15Z</time>
      </trkpt>
      <trkpt lat="45.91858" lon="4.76174">
        <ele>172</ele>
        <time>2017-08-26T09:53:18Z</time>
      </trkpt>
      <trkpt lat="45.91855" lon="4.76176">
        <ele>172</ele>
        <time>2017-08-26T09:53:19Z</time>
      </trkpt>
      <trkpt lat="45.9185" lon="4.76181">
        <ele>172</ele>
        <time>2017-08-26T09:53:21Z</time>
      </trkpt>
      <trkpt lat="45.91848" lon="4.76185">
        <ele>172</ele>
        <time>2017-08-26T09:53:22Z</time>
      </trkpt>
      <trkpt lat="45.91846" lon="4.76196">
        <ele>172</ele>
        <time>2017-08-26T09:53:24Z</time>
      </trkpt>
      <trkpt lat="45.91845" lon="4.76201">
        <ele>172</ele>
        <time>2017-08-26T09:53:25Z</time>
      </trkpt>
      <trkpt lat="45.91844" lon="4.76209">
        <ele>172</ele>
        <time>2017-08-26T09:53:27Z</time>
      </trkpt>
      <trkpt lat="45.91842" lon="4.76214">
        <ele>172</ele>
        <time>2017-08-26T09:53:28Z</time>
      </trkpt>
      <trkpt lat="45.91839" lon="4.76225">
        <ele>172</ele>
        <time>2017-08-26T09:53:30Z</time>
      </trkpt>
      <trkpt lat="45.91838" lon="4.7623">
        <ele>172</ele>
        <time>2017-08-26T09:53:31Z</time>
      </trkpt>
      <trkpt lat="45.91835" lon="4.76241">
        <ele>173</ele>
        <time>2017-08-26T09:53:33Z</time>
      </trkpt>
      <trkpt lat="45.91834" lon="4.76246">
        <ele>173</ele>
        <time>2017-08-26T09:53:34Z</time>
      </trkpt>
      <trkpt lat="45.91832" lon="4.76256">
        <ele>173</ele>
        <time>2017-08-26T09:53:36Z</time>
      </trkpt>
      <trkpt lat="45.91831" lon="4.76261">
        <ele>174</ele>
        <time>2017-08-26T09:53:37Z</time>
      </trkpt>
      <trkpt lat="45.9183" lon="4.76266">
        <ele>174</ele>
        <time>2017-08-26T09:53:38Z</time>
      </trkpt>
      <trkpt lat="45.91828" lon="4.76273">
        <ele>174</ele>
        <time>2017-08-26T09:53:39Z</time>
      </trkpt>
      <trkpt lat="45.91825" lon="4.76285">
        <ele>174</ele>
        <time>2017-08-26T09:53:41Z</time>
      </trkpt>
      <trkpt lat="45.91823" lon="4.76291">
        <ele>174</ele>
        <time>2017-08-26T09:53:42Z</time>
      </trkpt>
      <trkpt lat="45.91822" lon="4.763">
        <ele>174</ele>
        <time>2017-08-26T09:53:44Z</time>
      </trkpt>
      <trkpt lat="45.91821" lon="4.76304">
        <ele>174</ele>
        <time>2017-08-26T09:53:45Z</time>
      </trkpt>
      <trkpt lat="45.91818" lon="4.76315">
        <ele>174</ele>
        <time>2017-08-26T09:53:48Z</time>
      </trkpt>
      <trkpt lat="45.91816" lon="4.76319">
        <ele>174</ele>
        <time>2017-08-26T09:53:49Z</time>
      </trkpt>
      <trkpt lat="45.91812" lon="4.76329">
        <ele>174</ele>
        <time>2017-08-26T09:53:52Z</time>
      </trkpt>
      <trkpt lat="45.9181" lon="4.7633">
        <ele>174</ele>
        <time>2017-08-26T09:53:53Z</time>
      </trkpt>
      <trkpt lat="45.91803" lon="4.76325">
        <ele>174</ele>
        <time>2017-08-26T09:53:57Z</time>
      </trkpt>
      <trkpt lat="45.91801" lon="4.76325">
        <ele>174</ele>
        <time>2017-08-26T09:53:58Z</time>
      </trkpt>
      <trkpt lat="45.91794" lon="4.76323">
        <ele>175</ele>
        <time>2017-08-26T09:54:03Z</time>
      </trkpt>
      <trkpt lat="45.91792" lon="4.76323">
        <ele>175</ele>
        <time>2017-08-26T09:54:04Z</time>
      </trkpt>
      <trkpt lat="45.91783" lon="4.76324">
        <ele>175</ele>
        <time>2017-08-26T09:54:09Z</time>
      </trkpt>
      <trkpt lat="45.91782" lon="4.76324">
        <ele>175</ele>
        <time>2017-08-26T09:54:10Z</time>
      </trkpt>
      <trkpt lat="45.91774" lon="4.76323">
        <ele>175</ele>
        <time>2017-08-26T09:54:14Z</time>
      </trkpt>
      <trkpt lat="45.91772" lon="4.76322">
        <ele>175</ele>
        <time>2017-08-26T09:54:15Z</time>
      </trkpt>
      <trkpt lat="45.91765" lon="4.76321">
        <ele>175</ele>
        <time>2017-08-26T09:54:18Z</time>
      </trkpt>
      <trkpt lat="45.91762" lon="4.76321">
        <ele>175</ele>
        <time>2017-08-26T09:54:19Z</time>
      </trkpt>
      <trkpt lat="45.91755" lon="4.76322">
        <ele>176</ele>
        <time>2017-08-26T09:54:22Z</time>
      </trkpt>
      <trkpt lat="45.91753" lon="4.76323">
        <ele>176</ele>
        <time>2017-08-26T09:54:23Z</time>
      </trkpt>
      <trkpt lat="45.91744" lon="4.76326">
        <ele>176</ele>
        <time>2017-08-26T09:54:28Z</time>
      </trkpt>
      <trkpt lat="45.91743" lon="4.76326">
        <ele>176</ele>
        <time>2017-08-26T09:54:29Z</time>
      </trkpt>
      <trkpt lat="45.91734" lon="4.76329">
        <ele>177</ele>
        <time>2017-08-26T09:55:02Z</time>
      </trkpt>
      <trkpt lat="45.91733" lon="4.7633">
        <ele>177</ele>
        <time>2017-08-26T09:55:03Z</time>
      </trkpt>
      <trkpt lat="45.91724" lon="4.76334">
        <ele>176</ele>
        <time>2017-08-26T09:55:08Z</time>
      </trkpt>
      <trkpt lat="45.91723" lon="4.76334">
        <ele>176</ele>
        <time>2017-08-26T09:55:09Z</time>
      </trkpt>
      <trkpt lat="45.91716" lon="4.76337">
        <ele>176</ele>
        <time>2017-08-26T09:55:14Z</time>
      </trkpt>
      <trkpt lat="45.91714" lon="4.76337">
        <ele>176</ele>
        <time>2017-08-26T09:55:15Z</time>
      </trkpt>
      <trkpt lat="45.91707" lon="4.76341">
        <ele>177</ele>
        <time>2017-08-26T09:55:19Z</time>
      </trkpt>
      <trkpt lat="45.91705" lon="4.76341">
        <ele>177</ele>
        <time>2017-08-26T09:55:20Z</time>
      </trkpt>
      <trkpt lat="45.91697" lon="4.76344">
        <ele>177</ele>
        <time>2017-08-26T09:55:25Z</time>
      </trkpt>
      <trkpt lat="45.91696" lon="4.76344">
        <ele>177</ele>
        <time>2017-08-26T09:55:26Z</time>
      </trkpt>
      <trkpt lat="45.91687" lon="4.76348">
        <ele>177</ele>
        <time>2017-08-26T09:55:33Z</time>
      </trkpt>
      <trkpt lat="45.91686" lon="4.76348">
        <ele>177</ele>
        <time>2017-08-26T09:55:34Z</time>
      </trkpt>
      <trkpt lat="45.91678" lon="4.76347">
        <ele>177</ele>
        <time>2017-08-26T09:55:39Z</time>
      </trkpt>
      <trkpt lat="45.91676" lon="4.76347">
        <ele>177</ele>
        <time>2017-08-26T09:55:40Z</time>
      </trkpt>
      <trkpt lat="45.91669" lon="4.76347">
        <ele>177</ele>
        <time>2017-08-26T09:55:45Z</time>
      </trkpt>
      <trkpt lat="45.91667" lon="4.76346">
        <ele>177</ele>
        <time>2017-08-26T09:55:46Z</time>
      </trkpt>
      <trkpt lat="45.91659" lon="4.76345">
        <ele>177</ele>
        <time>2017-08-26T09:55:51Z</time>
      </trkpt>
      <trkpt lat="45.91658" lon="4.76344">
        <ele>177</ele>
        <time>2017-08-26T09:55:52Z</time>
      </trkpt>
      <trkpt lat="45.9165" lon="4.76339">
        <ele>177</ele>
        <time>2017-08-26T09:56:05Z</time>
      </trkpt>
      <trkpt lat="45.91649" lon="4.76339">
        <ele>177</ele>
        <time>2017-08-26T09:56:06Z</time>
      </trkpt>
      <trkpt lat="45.91642" lon="4.76336">
        <ele>177</ele>
        <time>2017-08-26T09:56:24Z</time>
      </trkpt>
      <trkpt lat="45.9164" lon="4.76336">
        <ele>177</ele>
        <time>2017-08-26T09:56:25Z</time>
      </trkpt>
      <trkpt lat="45.91633" lon="4.76336">
        <ele>176</ele>
        <time>2017-08-26T09:56:29Z</time>
      </trkpt>
      <trkpt lat="45.91631" lon="4.76335">
        <ele>176</ele>
        <time>2017-08-26T09:56:30Z</time>
      </trkpt>
      <trkpt lat="45.91624" lon="4.76332">
        <ele>177</ele>
        <time>2017-08-26T09:56:34Z</time>
      </trkpt>
      <trkpt lat="45.91622" lon="4.76332">
        <ele>177</ele>
        <time>2017-08-26T09:56:35Z</time>
      </trkpt>
      <trkpt lat="45.91613" lon="4.7633">
        <ele>176</ele>
        <time>2017-08-26T09:56:40Z</time>
      </trkpt>
      <trkpt lat="45.91611" lon="4.76329">
        <ele>176</ele>
        <time>2017-08-26T09:56:41Z</time>
      </trkpt>
      <trkpt lat="45.91603" lon="4.76327">
        <ele>176</ele>
        <time>2017-08-26T09:56:45Z</time>
      </trkpt>
      <trkpt lat="45.91602" lon="4.76327">
        <ele>176</ele>
        <time>2017-08-26T09:56:46Z</time>
      </trkpt>
      <trkpt lat="45.91593" lon="4.76323">
        <ele>176</ele>
        <time>2017-08-26T09:56:52Z</time>
      </trkpt>
      <trkpt lat="45.91592" lon="4.76322">
        <ele>176</ele>
        <time>2017-08-26T09:56:53Z</time>
      </trkpt>
      <trkpt lat="45.91584" lon="4.76319">
        <ele>176</ele>
        <time>2017-08-26T09:56:57Z</time>
      </trkpt>
      <trkpt lat="45.91582" lon="4.76319">
        <ele>176</ele>
        <time>2017-08-26T09:56:58Z</time>
      </trkpt>
      <trkpt lat="45.91575" lon="4.76318">
        <ele>176</ele>
        <time>2017-08-26T09:57:03Z</time>
      </trkpt>
      <trkpt lat="45.91572" lon="4.76317">
        <ele>176</ele>
        <time>2017-08-26T09:57:04Z</time>
      </trkpt>
      <trkpt lat="45.91564" lon="4.76316">
        <ele>176</ele>
        <time>2017-08-26T09:57:09Z</time>
      </trkpt>
      <trkpt lat="45.91562" lon="4.76315">
        <ele>176</ele>
        <time>2017-08-26T09:57:10Z</time>
      </trkpt>
      <trkpt lat="45.91555" lon="4.76313">
        <ele>177</ele>
        <time>2017-08-26T09:57:14Z</time>
      </trkpt>
      <trkpt lat="45.91553" lon="4.76313">
        <ele>177</ele>
        <time>2017-08-26T09:57:15Z</time>
      </trkpt>
      <trkpt lat="45.91546" lon="4.76314">
        <ele>177</ele>
        <time>2017-08-26T09:57:18Z</time>
      </trkpt>
      <trkpt lat="45.91544" lon="4.76315">
        <ele>177</ele>
        <time>2017-08-26T09:57:19Z</time>
      </trkpt>
      <trkpt lat="45.91537" lon="4.76322">
        <ele>177</ele>
        <time>2017-08-26T09:57:23Z</time>
      </trkpt>
      <trkpt lat="45.91535" lon="4.76325">
        <ele>177</ele>
        <time>2017-08-26T09:57:24Z</time>
      </trkpt>
      <trkpt lat="45.91529" lon="4.76333">
        <ele>177</ele>
        <time>2017-08-26T09:57:27Z</time>
      </trkpt>
      <trkpt lat="45.91526" lon="4.76336">
        <ele>176</ele>
        <time>2017-08-26T09:57:28Z</time>
      </trkpt>
      <trkpt lat="45.91521" lon="4.76346">
        <ele>176</ele>
        <time>2017-08-26T09:57:31Z</time>
      </trkpt>
      <trkpt lat="45.9152" lon="4.76349">
        <ele>176</ele>
        <time>2017-08-26T09:57:32Z</time>
      </trkpt>
      <trkpt lat="45.91515" lon="4.76357">
        <ele>176</ele>
        <time>2017-08-26T09:57:35Z</time>
      </trkpt>
      <trkpt lat="45.91513" lon="4.7636">
        <ele>176</ele>
        <time>2017-08-26T09:57:36Z</time>
      </trkpt>
      <trkpt lat="45.91509" lon="4.76368">
        <ele>176</ele>
        <time>2017-08-26T09:57:39Z</time>
      </trkpt>
      <trkpt lat="45.91507" lon="4.76371">
        <ele>176</ele>
        <time>2017-08-26T09:57:40Z</time>
      </trkpt>
      <trkpt lat="45.91502" lon="4.76381">
        <ele>176</ele>
        <time>2017-08-26T09:57:43Z</time>
      </trkpt>
      <trkpt lat="45.915" lon="4.76385">
        <ele>176</ele>
        <time>2017-08-26T09:57:44Z</time>
      </trkpt>
      <trkpt lat="45.91494" lon="4.76393">
        <ele>176</ele>
        <time>2017-08-26T09:57:47Z</time>
      </trkpt>
      <trkpt lat="45.91492" lon="4.76397">
        <ele>176</ele>
        <time>2017-08-26T09:57:48Z</time>
      </trkpt>
      <trkpt lat="45.91488" lon="4.76406">
        <ele>176</ele>
        <time>2017-08-26T09:57:50Z</time>
      </trkpt>
      <trkpt lat="45.91485" lon="4.7641">
        <ele>176</ele>
        <time>2017-08-26T09:57:51Z</time>
      </trkpt>
      <trkpt lat="45.9148" lon="4.76418">
        <ele>176</ele>
        <time>2017-08-26T09:57:53Z</time>
      </trkpt>
      <trkpt lat="45.91478" lon="4.76421">
        <ele>176</ele>
        <time>2017-08-26T09:57:54Z</time>
      </trkpt>
      <trkpt lat="45.91474" lon="4.7643">
        <ele>176</ele>
        <time>2017-08-26T09:57:56Z</time>
      </trkpt>
      <trkpt lat="45.91471" lon="4.76434">
        <ele>176</ele>
        <time>2017-08-26T09:57:57Z</time>
      </trkpt>
      <trkpt lat="45.91466" lon="4.76443">
        <ele>177</ele>
        <time>2017-08-26T09:57:59Z</time>
      </trkpt>
      <trkpt lat="45.91463" lon="4.76448">
        <ele>177</ele>
        <time>2017-08-26T09:58:00Z</time>
      </trkpt>
      <trkpt lat="45.91459" lon="4.76456">
        <ele>177</ele>
        <time>2017-08-26T09:58:02Z</time>
      </trkpt>
      <trkpt lat="45.91457" lon="4.7646">
        <ele>177</ele>
        <time>2017-08-26T09:58:03Z</time>
      </trkpt>
      <trkpt lat="45.91452" lon="4.76469">
        <ele>177</ele>
        <time>2017-08-26T09:58:05Z</time>
      </trkpt>
      <trkpt lat="45.91449" lon="4.76474">
        <ele>177</ele>
        <time>2017-08-26T09:58:06Z</time>
      </trkpt>
      <trkpt lat="45.91445" lon="4.76484">
        <ele>177</ele>
        <time>2017-08-26T09:58:08Z</time>
      </trkpt>
      <trkpt lat="45.91443" lon="4.76488">
        <ele>177</ele>
        <time>2017-08-26T09:58:09Z</time>
      </trkpt>
      <trkpt lat="45.91438" lon="4.76497">
        <ele>177</ele>
        <time>2017-08-26T09:58:11Z</time>
      </trkpt>
      <trkpt lat="45.91435" lon="4.76502">
        <ele>177</ele>
        <time>2017-08-26T09:58:12Z</time>
      </trkpt>
      <trkpt lat="45.91432" lon="4.76508">
        <ele>177</ele>
        <time>2017-08-26T09:58:13Z</time>
      </trkpt>
      <trkpt lat="45.91429" lon="4.76514">
        <ele>177</ele>
        <time>2017-08-26T09:58:14Z</time>
      </trkpt>
      <trkpt lat="45.91426" lon="4.76519">
        <ele>177</ele>
        <time>2017-08-26T09:58:15Z</time>
      </trkpt>
      <trkpt lat="45.91423" lon="4.76524">
        <ele>177</ele>
        <time>2017-08-26T09:58:16Z</time>
      </trkpt>
      <trkpt lat="45.91418" lon="4.76534">
        <ele>177</ele>
        <time>2017-08-26T09:58:18Z</time>
      </trkpt>
      <trkpt lat="45.91415" lon="4.76539">
        <ele>177</ele>
        <time>2017-08-26T09:58:19Z</time>
      </trkpt>
      <trkpt lat="45.91412" lon="4.76544">
        <ele>177</ele>
        <time>2017-08-26T09:58:20Z</time>
      </trkpt>
      <trkpt lat="45.91409" lon="4.7655">
        <ele>177</ele>
        <time>2017-08-26T09:58:21Z</time>
      </trkpt>
      <trkpt lat="45.91406" lon="4.76555">
        <ele>177</ele>
        <time>2017-08-26T09:58:22Z</time>
      </trkpt>
      <trkpt lat="45.91402" lon="4.76561">
        <ele>177</ele>
        <time>2017-08-26T09:58:23Z</time>
      </trkpt>
      <trkpt lat="45.91399" lon="4.76567">
        <ele>177</ele>
        <time>2017-08-26T09:58:24Z</time>
      </trkpt>
      <trkpt lat="45.91395" lon="4.76573">
        <ele>177</ele>
        <time>2017-08-26T09:58:25Z</time>
      </trkpt>
      <trkpt lat="45.91392" lon="4.7658">
        <ele>177</ele>
        <time>2017-08-26T09:58:26Z</time>
      </trkpt>
      <trkpt lat="45.91389" lon="4.76585">
        <ele>176</ele>
        <time>2017-08-26T09:58:27Z</time>
      </trkpt>
      <trkpt lat="45.91386" lon="4.76591">
        <ele>176</ele>
        <time>2017-08-26T09:58:28Z</time>
      </trkpt>
      <trkpt lat="45.91383" lon="4.76596">
        <ele>176</ele>
        <time>2017-08-26T09:58:29Z</time>
      </trkpt>
      <trkpt lat="45.9138" lon="4.76601">
        <ele>176</ele>
        <time>2017-08-26T09:58:30Z</time>
      </trkpt>
      <trkpt lat="45.91377" lon="4.76607">
        <ele>176</ele>
        <time>2017-08-26T09:58:31Z</time>
      </trkpt>
      <trkpt lat="45.91374" lon="4.76612">
        <ele>176</ele>
        <time>2017-08-26T09:58:32Z</time>
      </trkpt>
      <trkpt lat="45.91371" lon="4.76617">
        <ele>176</ele>
        <time>2017-08-26T09:58:33Z</time>
      </trkpt>
      <trkpt lat="45.91367" lon="4.76623">
        <ele>176</ele>
        <time>2017-08-26T09:58:34Z</time>
      </trkpt>
      <trkpt lat="45.91364" lon="4.7663">
        <ele>176</ele>
        <time>2017-08-26T09:58:35Z</time>
      </trkpt>
      <trkpt lat="45.9136" lon="4.76637">
        <ele>176</ele>
        <time>2017-08-26T09:58:36Z</time>
      </trkpt>
      <trkpt lat="45.91357" lon="4.76644">
        <ele>176</ele>
        <time>2017-08-26T09:58:37Z</time>
      </trkpt>
      <trkpt lat="45.91354" lon="4.7665">
        <ele>176</ele>
        <time>2017-08-26T09:58:38Z</time>
      </trkpt>
      <trkpt lat="45.91351" lon="4.76655">
        <ele>176</ele>
        <time>2017-08-26T09:58:39Z</time>
      </trkpt>
      <trkpt lat="45.91348" lon="4.76661">
        <ele>176</ele>
        <time>2017-08-26T09:58:40Z</time>
      </trkpt>
      <trkpt lat="45.91346" lon="4.76666">
        <ele>176</ele>
        <time>2017-08-26T09:58:41Z</time>
      </trkpt>
      <trkpt lat="45.91343" lon="4.76671">
        <ele>176</ele>
        <time>2017-08-26T09:58:42Z</time>
      </trkpt>
      <trkpt lat="45.9134" lon="4.76677">
        <ele>176</ele>
        <time>2017-08-26T09:58:43Z</time>
      </trkpt>
      <trkpt lat="45.91337" lon="4.76683">
        <ele>176</ele>
        <time>2017-08-26T09:58:44Z</time>
      </trkpt>
      <trkpt lat="45.91334" lon="4.76688">
        <ele>176</ele>
        <time>2017-08-26T09:58:45Z</time>
      </trkpt>
      <trkpt lat="45.9133" lon="4.76699">
        <ele>176</ele>
        <time>2017-08-26T09:58:47Z</time>
      </trkpt>
      <trkpt lat="45.91328" lon="4.76705">
        <ele>176</ele>
        <time>2017-08-26T09:58:48Z</time>
      </trkpt>
      <trkpt lat="45.91327" lon="4.76712">
        <ele>176</ele>
        <time>2017-08-26T09:58:49Z</time>
      </trkpt>
      <trkpt lat="45.91327" lon="4.76719">
        <ele>176</ele>
        <time>2017-08-26T09:58:50Z</time>
      </trkpt>
      <trkpt lat="45.91326" lon="4.76726">
        <ele>176</ele>
        <time>2017-08-26T09:58:51Z</time>
      </trkpt>
      <trkpt lat="45.91326" lon="4.76732">
        <ele>176</ele>
        <time>2017-08-26T09:58:52Z</time>
      </trkpt>
      <trkpt lat="45.91326" lon="4.76739">
        <ele>176</ele>
        <time>2017-08-26T09:58:53Z</time>
      </trkpt>
      <trkpt lat="45.91326" lon="4.76746">
        <ele>176</ele>
        <time>2017-08-26T09:58:54Z</time>
      </trkpt>
      <trkpt lat="45.91326" lon="4.76753">
        <ele>176</ele>
        <time>2017-08-26T09:58:55Z</time>
      </trkpt>
      <trkpt lat="45.91326" lon="4.7676">
        <ele>176</ele>
        <time>2017-08-26T09:58:56Z</time>
      </trkpt>
      <trkpt lat="45.91326" lon="4.76767">
        <ele>176</ele>
        <time>2017-08-26T09:58:57Z</time>
      </trkpt>
      <trkpt lat="45.91325" lon="4.76774">
        <ele>176</ele>
        <time>2017-08-26T09:58:58Z</time>
      </trkpt>
      <trkpt lat="45.91325" lon="4.76781">
        <ele>175</ele>
        <time>2017-08-26T09:58:59Z</time>
      </trkpt>
      <trkpt lat="45.91325" lon="4.76787">
        <ele>175</ele>
        <time>2017-08-26T09:59:00Z</time>
      </trkpt>
      <trkpt lat="45.91324" lon="4.76794">
        <ele>175</ele>
        <time>2017-08-26T09:59:01Z</time>
      </trkpt>
      <trkpt lat="45.91324" lon="4.76801">
        <ele>175</ele>
        <time>2017-08-26T09:59:02Z</time>
      </trkpt>
      <trkpt lat="45.91324" lon="4.76807">
        <ele>175</ele>
        <time>2017-08-26T09:59:03Z</time>
      </trkpt>
      <trkpt lat="45.91323" lon="4.76814">
        <ele>175</ele>
        <time>2017-08-26T09:59:04Z</time>
      </trkpt>
      <trkpt lat="45.91323" lon="4.7682">
        <ele>175</ele>
        <time>2017-08-26T09:59:05Z</time>
      </trkpt>
      <trkpt lat="45.91323" lon="4.76827">
        <ele>175</ele>
        <time>2017-08-26T09:59:06Z</time>
      </trkpt>
      <trkpt lat="45.91322" lon="4.76839">
        <ele>174</ele>
        <time>2017-08-26T09:59:08Z</time>
      </trkpt>
      <trkpt lat="45.91322" lon="4.76846">
        <ele>175</ele>
        <time>2017-08-26T09:59:09Z</time>
      </trkpt>
      <trkpt lat="45.91322" lon="4.76853">
        <ele>175</ele>
        <time>2017-08-26T09:59:10Z</time>
      </trkpt>
      <trkpt lat="45.91322" lon="4.76861">
        <ele>175</ele>
        <time>2017-08-26T09:59:11Z</time>
      </trkpt>
      <trkpt lat="45.91322" lon="4.7687">
        <ele>175</ele>
        <time>2017-08-26T09:59:12Z</time>
      </trkpt>
      <trkpt lat="45.91321" lon="4.76878">
        <ele>175</ele>
        <time>2017-08-26T09:59:13Z</time>
      </trkpt>
      <trkpt lat="45.9132" lon="4.76886">
        <ele>175</ele>
        <time>2017-08-26T09:59:14Z</time>
      </trkpt>
      <trkpt lat="45.9132" lon="4.76894">
        <ele>175</ele>
        <time>2017-08-26T09:59:15Z</time>
      </trkpt>
      <trkpt lat="45.9132" lon="4.76902">
        <ele>175</ele>
        <time>2017-08-26T09:59:16Z</time>
      </trkpt>
      <trkpt lat="45.9132" lon="4.7691">
        <ele>175</ele>
        <time>2017-08-26T09:59:17Z</time>
      </trkpt>
      <trkpt lat="45.9132" lon="4.76918">
        <ele>175</ele>
        <time>2017-08-26T09:59:18Z</time>
      </trkpt>
      <trkpt lat="45.91319" lon="4.76926">
        <ele>175</ele>
        <time>2017-08-26T09:59:19Z</time>
      </trkpt>
      <trkpt lat="45.91319" lon="4.76933">
        <ele>175</ele>
        <time>2017-08-26T09:59:20Z</time>
      </trkpt>
      <trkpt lat="45.91319" lon="4.76941">
        <ele>175</ele>
        <time>2017-08-26T09:59:21Z</time>
      </trkpt>
      <trkpt lat="45.91319" lon="4.76948">
        <ele>175</ele>
        <time>2017-08-26T09:59:22Z</time>
      </trkpt>
      <trkpt lat="45.91319" lon="4.76955">
        <ele>175</ele>
        <time>2017-08-26T09:59:23Z</time>
      </trkpt>
      <trkpt lat="45.91319" lon="4.76962">
        <ele>175</ele>
        <time>2017-08-26T09:59:24Z</time>
      </trkpt>
      <trkpt lat="45.91319" lon="4.76969">
        <ele>175</ele>
        <time>2017-08-26T09:59:25Z</time>
      </trkpt>
      <trkpt lat="45.9132" lon="4.76981">
        <ele>175</ele>
        <time>2017-08-26T09:59:27Z</time>
      </trkpt>
      <trkpt lat="45.91321" lon="4.76987">
        <ele>175</ele>
        <time>2017-08-26T09:59:28Z</time>
      </trkpt>
      <trkpt lat="45.91323" lon="4.76993">
        <ele>176</ele>
        <time>2017-08-26T09:59:29Z</time>
      </trkpt>
      <trkpt lat="45.91324" lon="4.77">
        <ele>176</ele>
        <time>2017-08-26T09:59:30Z</time>
      </trkpt>
      <trkpt lat="45.91326" lon="4.77006">
        <ele>176</ele>
        <time>2017-08-26T09:59:31Z</time>
      </trkpt>
      <trkpt lat="45.91328" lon="4.77013">
        <ele>176</ele>
        <time>2017-08-26T09:59:32Z</time>
      </trkpt>
      <trkpt lat="45.9133" lon="4.7702">
        <ele>176</ele>
        <time>2017-08-26T09:59:33Z</time>
      </trkpt>
      <trkpt lat="45.91332" lon="4.77026">
        <ele>176</ele>
        <time>2017-08-26T09:59:34Z</time>
      </trkpt>
      <trkpt lat="45.91334" lon="4.77033">
        <ele>176</ele>
        <time>2017-08-26T09:59:35Z</time>
      </trkpt>
      <trkpt lat="45.91336" lon="4.77039">
        <ele>176</ele>
        <time>2017-08-26T09:59:36Z</time>
      </trkpt>
      <trkpt lat="45.91339" lon="4.77049">
        <ele>176</ele>
        <time>2017-08-26T09:59:38Z</time>
      </trkpt>
      <trkpt lat="45.91341" lon="4.77055">
        <ele>176</ele>
        <time>2017-08-26T09:59:39Z</time>
      </trkpt>
      <trkpt lat="45.91343" lon="4.77061">
        <ele>176</ele>
        <time>2017-08-26T09:59:40Z</time>
      </trkpt>
      <trkpt lat="45.91344" lon="4.77068">
        <ele>176</ele>
        <time>2017-08-26T09:59:41Z</time>
      </trkpt>
      <trkpt lat="45.91346" lon="4.77075">
        <ele>177</ele>
        <time>2017-08-26T09:59:42Z</time>
      </trkpt>
      <trkpt lat="45.91348" lon="4.77082">
        <ele>177</ele>
        <time>2017-08-26T09:59:43Z</time>
      </trkpt>
      <trkpt lat="45.9135" lon="4.77095">
        <ele>177</ele>
        <time>2017-08-26T09:59:45Z</time>
      </trkpt>
      <trkpt lat="45.91352" lon="4.771">
        <ele>177</ele>
        <time>2017-08-26T09:59:46Z</time>
      </trkpt>
      <trkpt lat="45.91354" lon="4.77111">
        <ele>177</ele>
        <time>2017-08-26T09:59:48Z</time>
      </trkpt>
      <trkpt lat="45.91354" lon="4.77117">
        <ele>177</ele>
        <time>2017-08-26T09:59:49Z</time>
      </trkpt>
      <trkpt lat="45.91355" lon="4.77124">
        <ele>177</ele>
        <time>2017-08-26T09:59:50Z</time>
      </trkpt>
      <trkpt lat="45.91356" lon="4.7713">
        <ele>177</ele>
        <time>2017-08-26T09:59:51Z</time>
      </trkpt>
      <trkpt lat="45.91356" lon="4.77137">
        <ele>177</ele>
        <time>2017-08-26T09:59:52Z</time>
      </trkpt>
      <trkpt lat="45.91357" lon="4.77144">
        <ele>177</ele>
        <time>2017-08-26T09:59:53Z</time>
      </trkpt>
      <trkpt lat="45.91358" lon="4.77151">
        <ele>177</ele>
        <time>2017-08-26T09:59:54Z</time>
      </trkpt>
      <trkpt lat="45.9136" lon="4.77158">
        <ele>177</ele>
        <time>2017-08-26T09:59:55Z</time>
      </trkpt>
      <trkpt lat="45.91361" lon="4.77164">
        <ele>177</ele>
        <time>2017-08-26T09:59:56Z</time>
      </trkpt>
      <trkpt lat="45.91362" lon="4.77171">
        <ele>176</ele>
        <time>2017-08-26T09:59:57Z</time>
      </trkpt>
      <trkpt lat="45.91364" lon="4.77178">
        <ele>176</ele>
        <time>2017-08-26T09:59:58Z</time>
      </trkpt>
      <trkpt lat="45.91365" lon="4.77185">
        <ele>176</ele>
        <time>2017-08-26T09:59:59Z</time>
      </trkpt>
      <trkpt lat="45.91366" lon="4.77192">
        <ele>176</ele>
        <time>2017-08-26T10:00:00Z</time>
      </trkpt>
      <trkpt lat="45.91368" lon="4.772">
        <ele>176</ele>
        <time>2017-08-26T10:00:01Z</time>
      </trkpt>
      <trkpt lat="45.91369" lon="4.77207">
        <ele>176</ele>
        <time>2017-08-26T10:00:02Z</time>
      </trkpt>
      <trkpt lat="45.91371" lon="4.77215">
        <ele>176</ele>
        <time>2017-08-26T10:00:03Z</time>
      </trkpt>
      <trkpt lat="45.91372" lon="4.77224">
        <ele>176</ele>
        <time>2017-08-26T10:00:04Z</time>
      </trkpt>
      <trkpt lat="45.91374" lon="4.77232">
        <ele>176</ele>
        <time>2017-08-26T10:00:05Z</time>
      </trkpt>
      <trkpt lat="45.91375" lon="4.77239">
        <ele>176</ele>
        <time>2017-08-26T10:00:06Z</time>
      </trkpt>
      <trkpt lat="45.91376" lon="4.77246">
        <ele>176</ele>
        <time>2017-08-26T10:00:07Z</time>
      </trkpt>
      <trkpt lat="45.91377" lon="4.77254">
        <ele>175</ele>
        <time>2017-08-26T10:00:08Z</time>
      </trkpt>
      <trkpt lat="45.91378" lon="4.77261">
        <ele>175</ele>
        <time>2017-08-26T10:00:09Z</time>
      </trkpt>
      <trkpt lat="45.91379" lon="4.77268">
        <ele>175</ele>
        <time>2017-08-26T10:00:10Z</time>
      </trkpt>
      <trkpt lat="45.9138" lon="4.77276">
        <ele>175</ele>
        <time>2017-08-26T10:00:11Z</time>
      </trkpt>
      <trkpt lat="45.91381" lon="4.77283">
        <ele>175</ele>
        <time>2017-08-26T10:00:12Z</time>
      </trkpt>
      <trkpt lat="45.91381" lon="4.77291">
        <ele>175</ele>
        <time>2017-08-26T10:00:13Z</time>
      </trkpt>
      <trkpt lat="45.91381" lon="4.77299">
        <ele>175</ele>
        <time>2017-08-26T10:00:14Z</time>
      </trkpt>
      <trkpt lat="45.91381" lon="4.77306">
        <ele>175</ele>
        <time>2017-08-26T10:00:15Z</time>
      </trkpt>
      <trkpt lat="45.91382" lon="4.77314">
        <ele>175</ele>
        <time>2017-08-26T10:00:16Z</time>
      </trkpt>
      <trkpt lat="45.91382" lon="4.77321">
        <ele>175</ele>
        <time>2017-08-26T10:00:17Z</time>
      </trkpt>
      <trkpt lat="45.91382" lon="4.77327">
        <ele>175</ele>
        <time>2017-08-26T10:00:18Z</time>
      </trkpt>
      <trkpt lat="45.91382" lon="4.77334">
        <ele>175</ele>
        <time>2017-08-26T10:00:19Z</time>
      </trkpt>
      <trkpt lat="45.91382" lon="4.77341">
        <ele>175</ele>
        <time>2017-08-26T10:00:20Z</time>
      </trkpt>
      <trkpt lat="45.91382" lon="4.77347">
        <ele>175</ele>
        <time>2017-08-26T10:00:21Z</time>
      </trkpt>
      <trkpt lat="45.91381" lon="4.77359">
        <ele>175</ele>
        <time>2017-08-26T10:00:23Z</time>
      </trkpt>
      <trkpt lat="45.91381" lon="4.77365">
        <ele>174</ele>
        <time>2017-08-26T10:00:24Z</time>
      </trkpt>
      <trkpt lat="45.91382" lon="4.77377">
        <ele>174</ele>
        <time>2017-08-26T10:00:26Z</time>
      </trkpt>
      <trkpt lat="45.91382" lon="4.77384">
        <ele>174</ele>
        <time>2017-08-26T10:00:27Z</time>
      </trkpt>
      <trkpt lat="45.91383" lon="4.77391">
        <ele>174</ele>
        <time>2017-08-26T10:00:28Z</time>
      </trkpt>
      <trkpt lat="45.91383" lon="4.77397">
        <ele>174</ele>
        <time>2017-08-26T10:00:29Z</time>
      </trkpt>
      <trkpt lat="45.91382" lon="4.7741">
        <ele>174</ele>
        <time>2017-08-26T10:00:31Z</time>
      </trkpt>
      <trkpt lat="45.91382" lon="4.77417">
        <ele>174</ele>
        <time>2017-08-26T10:00:32Z</time>
      </trkpt>
      <trkpt lat="45.91383" lon="4.77424">
        <ele>174</ele>
        <time>2017-08-26T10:00:33Z</time>
      </trkpt>
      <trkpt lat="45.91384" lon="4.77432">
        <ele>174</ele>
        <time>2017-08-26T10:00:34Z</time>
      </trkpt>
      <trkpt lat="45.91385" lon="4.7744">
        <ele>174</ele>
        <time>2017-08-26T10:00:35Z</time>
      </trkpt>
      <trkpt lat="45.91387" lon="4.77448">
        <ele>174</ele>
        <time>2017-08-26T10:00:36Z</time>
      </trkpt>
      <trkpt lat="45.91387" lon="4.77455">
        <ele>174</ele>
        <time>2017-08-26T10:00:37Z</time>
      </trkpt>
      <trkpt lat="45.91388" lon="4.77462">
        <ele>174</ele>
        <time>2017-08-26T10:00:38Z</time>
      </trkpt>
      <trkpt lat="45.91388" lon="4.77469">
        <ele>174</ele>
        <time>2017-08-26T10:00:39Z</time>
      </trkpt>
      <trkpt lat="45.91389" lon="4.77476">
        <ele>174</ele>
        <time>2017-08-26T10:00:40Z</time>
      </trkpt>
      <trkpt lat="45.91389" lon="4.77483">
        <ele>174</ele>
        <time>2017-08-26T10:00:41Z</time>
      </trkpt>
      <trkpt lat="45.9139" lon="4.77489">
        <ele>174</ele>
        <time>2017-08-26T10:00:42Z</time>
      </trkpt>
      <trkpt lat="45.9139" lon="4.77501">
        <ele>174</ele>
        <time>2017-08-26T10:00:44Z</time>
      </trkpt>
      <trkpt lat="45.9139" lon="4.77506">
        <ele>174</ele>
        <time>2017-08-26T10:00:45Z</time>
      </trkpt>
      <trkpt lat="45.91391" lon="4.77518">
        <ele>174</ele>
        <time>2017-08-26T10:00:47Z</time>
      </trkpt>
      <trkpt lat="45.91391" lon="4.77525">
        <ele>174</ele>
        <time>2017-08-26T10:00:48Z</time>
      </trkpt>
      <trkpt lat="45.91392" lon="4.77531">
        <ele>174</ele>
        <time>2017-08-26T10:00:49Z</time>
      </trkpt>
      <trkpt lat="45.91392" lon="4.77538">
        <ele>174</ele>
        <time>2017-08-26T10:00:50Z</time>
      </trkpt>
      <trkpt lat="45.91392" lon="4.77546">
        <ele>174</ele>
        <time>2017-08-26T10:00:51Z</time>
      </trkpt>
      <trkpt lat="45.91392" lon="4.77554">
        <ele>174</ele>
        <time>2017-08-26T10:00:52Z</time>
      </trkpt>
      <trkpt lat="45.91393" lon="4.77561">
        <ele>174</ele>
        <time>2017-08-26T10:00:53Z</time>
      </trkpt>
      <trkpt lat="45.91393" lon="4.77568">
        <ele>174</ele>
        <time>2017-08-26T10:00:54Z</time>
      </trkpt>
      <trkpt lat="45.91395" lon="4.7758">
        <ele>174</ele>
        <time>2017-08-26T10:00:56Z</time>
      </trkpt>
      <trkpt lat="45.91396" lon="4.77585">
        <ele>174</ele>
        <time>2017-08-26T10:00:57Z</time>
      </trkpt>
      <trkpt lat="45.91397" lon="4.77592">
        <ele>174</ele>
        <time>2017-08-26T10:00:58Z</time>
      </trkpt>
      <trkpt lat="45.91398" lon="4.77598">
        <ele>174</ele>
        <time>2017-08-26T10:00:59Z</time>
      </trkpt>
      <trkpt lat="45.91398" lon="4.77605">
        <ele>174</ele>
        <time>2017-08-26T10:01:00Z</time>
      </trkpt>
      <trkpt lat="45.914" lon="4.77612">
        <ele>174</ele>
        <time>2017-08-26T10:01:01Z</time>
      </trkpt>
      <trkpt lat="45.91401" lon="4.77619">
        <ele>175</ele>
        <time>2017-08-26T10:01:02Z</time>
      </trkpt>
      <trkpt lat="45.91402" lon="4.77625">
        <ele>175</ele>
        <time>2017-08-26T10:01:03Z</time>
      </trkpt>
      <trkpt lat="45.91404" lon="4.77637">
        <ele>175</ele>
        <time>2017-08-26T10:01:05Z</time>
      </trkpt>
      <trkpt lat="45.91405" lon="4.77642">
        <ele>175</ele>
        <time>2017-08-26T10:01:06Z</time>
      </trkpt>
      <trkpt lat="45.91407" lon="4.77651">
        <ele>175</ele>
        <time>2017-08-26T10:01:08Z</time>
      </trkpt>
      <trkpt lat="45.91408" lon="4.77656">
        <ele>175</ele>
        <time>2017-08-26T10:01:09Z</time>
      </trkpt>
      <trkpt lat="45.91409" lon="4.77666">
        <ele>176</ele>
        <time>2017-08-26T10:01:11Z</time>
      </trkpt>
      <trkpt lat="45.9141" lon="4.7767">
        <ele>176</ele>
        <time>2017-08-26T10:01:12Z</time>
      </trkpt>
      <trkpt lat="45.91414" lon="4.77682">
        <ele>176</ele>
        <time>2017-08-26T10:01:15Z</time>
      </trkpt>
      <trkpt lat="45.91415" lon="4.77686">
        <ele>176</ele>
        <time>2017-08-26T10:01:16Z</time>
      </trkpt>
      <trkpt lat="45.91416" lon="4.77695">
        <ele>176</ele>
        <time>2017-08-26T10:01:18Z</time>
      </trkpt>
      <trkpt lat="45.91416" lon="4.777">
        <ele>176</ele>
        <time>2017-08-26T10:01:19Z</time>
      </trkpt>
      <trkpt lat="45.91412" lon="4.77711">
        <ele>177</ele>
        <time>2017-08-26T10:01:22Z</time>
      </trkpt>
      <trkpt lat="45.9141" lon="4.77714">
        <ele>177</ele>
        <time>2017-08-26T10:01:23Z</time>
      </trkpt>
      <trkpt lat="45.91405" lon="4.77718">
        <ele>177</ele>
        <time>2017-08-26T10:01:25Z</time>
      </trkpt>
      <trkpt lat="45.91401" lon="4.77719">
        <ele>177</ele>
        <time>2017-08-26T10:01:26Z</time>
      </trkpt>
      <trkpt lat="45.91393" lon="4.77721">
        <ele>177</ele>
        <time>2017-08-26T10:01:28Z</time>
      </trkpt>
      <trkpt lat="45.9139" lon="4.77722">
        <ele>177</ele>
        <time>2017-08-26T10:01:29Z</time>
      </trkpt>
      <trkpt lat="45.91385" lon="4.77725">
        <ele>177</ele>
        <time>2017-08-26T10:01:31Z</time>
      </trkpt>
      <trkpt lat="45.91381" lon="4.77726">
        <ele>177</ele>
        <time>2017-08-26T10:01:32Z</time>
      </trkpt>
      <trkpt lat="45.91372" lon="4.77725">
        <ele>176</ele>
        <time>2017-08-26T10:01:34Z</time>
      </trkpt>
      <trkpt lat="45.91368" lon="4.77724">
        <ele>176</ele>
        <time>2017-08-26T10:01:35Z</time>
      </trkpt>
      <trkpt lat="45.91362" lon="4.77725">
        <ele>176</ele>
        <time>2017-08-26T10:01:36Z</time>
      </trkpt>
      <trkpt lat="45.91358" lon="4.77726">
        <ele>176</ele>
        <time>2017-08-26T10:01:37Z</time>
      </trkpt>
      <trkpt lat="45.91353" lon="4.77724">
        <ele>176</ele>
        <time>2017-08-26T10:01:38Z</time>
      </trkpt>
      <trkpt lat="45.91348" lon="4.77722">
        <ele>176</ele>
        <time>2017-08-26T10:01:39Z</time>
      </trkpt>
      <trkpt lat="45.91343" lon="4.77721">
        <ele>176</ele>
        <time>2017-08-26T10:01:40Z</time>
      </trkpt>
      <trkpt lat="45.91338" lon="4.7772">
        <ele>176</ele>
        <time>2017-08-26T10:01:41Z</time>
      </trkpt>
      <trkpt lat="45.9133" lon="4.77717">
        <ele>176</ele>
        <time>2017-08-26T10:01:43Z</time>
      </trkpt>
      <trkpt lat="45.91327" lon="4.77715">
        <ele>176</ele>
        <time>2017-08-26T10:01:44Z</time>
      </trkpt>
      <trkpt lat="45.91321" lon="4.77713">
        <ele>176</ele>
        <time>2017-08-26T10:01:46Z</time>
      </trkpt>
      <trkpt lat="45.91317" lon="4.77712">
        <ele>176</ele>
        <time>2017-08-26T10:01:47Z</time>
      </trkpt>
      <trkpt lat="45.91313" lon="4.7771">
        <ele>176</ele>
        <time>2017-08-26T10:01:48Z</time>
      </trkpt>
      <trkpt lat="45.91308" lon="4.77709">
        <ele>176</ele>
        <time>2017-08-26T10:01:49Z</time>
      </trkpt>
      <trkpt lat="45.91304" lon="4.77707">
        <ele>176</ele>
        <time>2017-08-26T10:01:50Z</time>
      </trkpt>
      <trkpt lat="45.91299" lon="4.77704">
        <ele>176</ele>
        <time>2017-08-26T10:01:51Z</time>
      </trkpt>
      <trkpt lat="45.91295" lon="4.77702">
        <ele>176</ele>
        <time>2017-08-26T10:01:52Z</time>
      </trkpt>
      <trkpt lat="45.9129" lon="4.77699">
        <ele>176</ele>
        <time>2017-08-26T10:01:53Z</time>
      </trkpt>
      <trkpt lat="45.91286" lon="4.77697">
        <ele>176</ele>
        <time>2017-08-26T10:01:54Z</time>
      </trkpt>
      <trkpt lat="45.91281" lon="4.77694">
        <ele>176</ele>
        <time>2017-08-26T10:01:55Z</time>
      </trkpt>
      <trkpt lat="45.91277" lon="4.77692">
        <ele>176</ele>
        <time>2017-08-26T10:01:56Z</time>
      </trkpt>
      <trkpt lat="45.91273" lon="4.77689">
        <ele>176</ele>
        <time>2017-08-26T10:01:57Z</time>
      </trkpt>
      <trkpt lat="45.91268" lon="4.77686">
        <ele>176</ele>
        <time>2017-08-26T10:01:58Z</time>
      </trkpt>
      <trkpt lat="45.91263" lon="4.77683">
        <ele>176</ele>
        <time>2017-08-26T10:01:59Z</time>
      </trkpt>
      <trkpt lat="45.91259" lon="4.77681">
        <ele>175</ele>
        <time>2017-08-26T10:02:00Z</time>
      </trkpt>
      <trkpt lat="45.91254" lon="4.77679">
        <ele>175</ele>
        <time>2017-08-26T10:02:01Z</time>
      </trkpt>
      <trkpt lat="45.91247" lon="4.77679">
        <ele>176</ele>
        <time>2017-08-26T10:02:03Z</time>
      </trkpt>
      <trkpt lat="45.91243" lon="4.77679">
        <ele>176</ele>
        <time>2017-08-26T10:02:04Z</time>
      </trkpt>
      <trkpt lat="45.91236" lon="4.77682">
        <ele>176</ele>
        <time>2017-08-26T10:02:06Z</time>
      </trkpt>
      <trkpt lat="45.91232" lon="4.77685">
        <ele>176</ele>
        <time>2017-08-26T10:02:07Z</time>
      </trkpt>
      <trkpt lat="45.91224" lon="4.77688">
        <ele>176</ele>
        <time>2017-08-26T10:02:09Z</time>
      </trkpt>
      <trkpt lat="45.9122" lon="4.77689">
        <ele>176</ele>
        <time>2017-08-26T10:02:10Z</time>
      </trkpt>
      <trkpt lat="45.91212" lon="4.77691">
        <ele>176</ele>
        <time>2017-08-26T10:02:12Z</time>
      </trkpt>
      <trkpt lat="45.91208" lon="4.77692">
        <ele>176</ele>
        <time>2017-08-26T10:02:13Z</time>
      </trkpt>
      <trkpt lat="45.91203" lon="4.77693">
        <ele>176</ele>
        <time>2017-08-26T10:02:14Z</time>
      </trkpt>
      <trkpt lat="45.91198" lon="4.77695">
        <ele>176</ele>
        <time>2017-08-26T10:02:15Z</time>
      </trkpt>
      <trkpt lat="45.91193" lon="4.77696">
        <ele>176</ele>
        <time>2017-08-26T10:02:16Z</time>
      </trkpt>
      <trkpt lat="45.91187" lon="4.77698">
        <ele>176</ele>
        <time>2017-08-26T10:02:17Z</time>
      </trkpt>
      <trkpt lat="45.91183" lon="4.77699">
        <ele>176</ele>
        <time>2017-08-26T10:02:18Z</time>
      </trkpt>
      <trkpt lat="45.91178" lon="4.777">
        <ele>176</ele>
        <time>2017-08-26T10:02:19Z</time>
      </trkpt>
      <trkpt lat="45.91171" lon="4.77703">
        <ele>176</ele>
        <time>2017-08-26T10:02:21Z</time>
      </trkpt>
      <trkpt lat="45.91168" lon="4.77705">
        <ele>176</ele>
        <time>2017-08-26T10:02:22Z</time>
      </trkpt>
      <trkpt lat="45.91161" lon="4.77708">
        <ele>177</ele>
        <time>2017-08-26T10:02:24Z</time>
      </trkpt>
      <trkpt lat="45.91158" lon="4.7771">
        <ele>177</ele>
        <time>2017-08-26T10:02:25Z</time>
      </trkpt>
      <trkpt lat="45.9115" lon="4.77713">
        <ele>177</ele>
        <time>2017-08-26T10:02:27Z</time>
      </trkpt>
      <trkpt lat="45.91146" lon="4.77715">
        <ele>177</ele>
        <time>2017-08-26T10:02:28Z</time>
      </trkpt>
      <trkpt lat="45.91137" lon="4.77717">
        <ele>177</ele>
        <time>2017-08-26T10:02:30Z</time>
      </trkpt>
      <trkpt lat="45.91133" lon="4.77719">
        <ele>177</ele>
        <time>2017-08-26T10:02:31Z</time>
      </trkpt>
      <trkpt lat="45.91127" lon="4.7772">
        <ele>177</ele>
        <time>2017-08-26T10:02:32Z</time>
      </trkpt>
      <trkpt lat="45.91123" lon="4.77721">
        <ele>177</ele>
        <time>2017-08-26T10:02:33Z</time>
      </trkpt>
      <trkpt lat="45.91116" lon="4.77725">
        <ele>178</ele>
        <time>2017-08-26T10:02:35Z</time>
      </trkpt>
      <trkpt lat="45.91113" lon="4.77727">
        <ele>178</ele>
        <time>2017-08-26T10:02:36Z</time>
      </trkpt>
      <trkpt lat="45.91106" lon="4.77732">
        <ele>178</ele>
        <time>2017-08-26T10:02:38Z</time>
      </trkpt>
      <trkpt lat="45.91101" lon="4.77734">
        <ele>178</ele>
        <time>2017-08-26T10:02:39Z</time>
      </trkpt>
      <trkpt lat="45.91097" lon="4.77737">
        <ele>178</ele>
        <time>2017-08-26T10:02:40Z</time>
      </trkpt>
      <trkpt lat="45.91093" lon="4.7774">
        <ele>178</ele>
        <time>2017-08-26T10:02:41Z</time>
      </trkpt>
      <trkpt lat="45.91085" lon="4.77745">
        <ele>179</ele>
        <time>2017-08-26T10:02:43Z</time>
      </trkpt>
      <trkpt lat="45.91082" lon="4.77747">
        <ele>179</ele>
        <time>2017-08-26T10:02:44Z</time>
      </trkpt>
      <trkpt lat="45.91075" lon="4.7775">
        <ele>179</ele>
        <time>2017-08-26T10:02:46Z</time>
      </trkpt>
      <trkpt lat="45.91071" lon="4.77753">
        <ele>179</ele>
        <time>2017-08-26T10:02:47Z</time>
      </trkpt>
      <trkpt lat="45.91067" lon="4.77756">
        <ele>178</ele>
        <time>2017-08-26T10:02:48Z</time>
      </trkpt>
      <trkpt lat="45.91062" lon="4.77758">
        <ele>178</ele>
        <time>2017-08-26T10:02:49Z</time>
      </trkpt>
      <trkpt lat="45.91054" lon="4.77763">
        <ele>178</ele>
        <time>2017-08-26T10:02:51Z</time>
      </trkpt>
      <trkpt lat="45.91051" lon="4.77765">
        <ele>178</ele>
        <time>2017-08-26T10:02:52Z</time>
      </trkpt>
      <trkpt lat="45.91043" lon="4.77768">
        <ele>178</ele>
        <time>2017-08-26T10:02:54Z</time>
      </trkpt>
      <trkpt lat="45.91038" lon="4.7777">
        <ele>178</ele>
        <time>2017-08-26T10:02:55Z</time>
      </trkpt>
      <trkpt lat="45.91034" lon="4.77772">
        <ele>178</ele>
        <time>2017-08-26T10:02:56Z</time>
      </trkpt>
      <trkpt lat="45.91029" lon="4.77774">
        <ele>178</ele>
        <time>2017-08-26T10:02:57Z</time>
      </trkpt>
      <trkpt lat="45.91024" lon="4.77775">
        <ele>178</ele>
        <time>2017-08-26T10:02:58Z</time>
      </trkpt>
      <trkpt lat="45.91019" lon="4.77776">
        <ele>178</ele>
        <time>2017-08-26T10:02:59Z</time>
      </trkpt>
      <trkpt lat="45.91014" lon="4.77777">
        <ele>178</ele>
        <time>2017-08-26T10:03:00Z</time>
      </trkpt>
      <trkpt lat="45.91009" lon="4.77779">
        <ele>178</ele>
        <time>2017-08-26T10:03:01Z</time>
      </trkpt>
      <trkpt lat="45.91001" lon="4.77781">
        <ele>178</ele>
        <time>2017-08-26T10:03:03Z</time>
      </trkpt>
      <trkpt lat="45.90997" lon="4.77782">
        <ele>177</ele>
        <time>2017-08-26T10:03:04Z</time>
      </trkpt>
      <trkpt lat="45.9099" lon="4.77783">
        <ele>177</ele>
        <time>2017-08-26T10:03:06Z</time>
      </trkpt>
      <trkpt lat="45.90986" lon="4.77783">
        <ele>177</ele>
        <time>2017-08-26T10:03:07Z</time>
      </trkpt>
      <trkpt lat="45.90977" lon="4.77782">
        <ele>177</ele>
        <time>2017-08-26T10:03:09Z</time>
      </trkpt>
      <trkpt lat="45.90972" lon="4.77783">
        <ele>177</ele>
        <time>2017-08-26T10:03:10Z</time>
      </trkpt>
      <trkpt lat="45.90963" lon="4.77782">
        <ele>177</ele>
        <time>2017-08-26T10:03:12Z</time>
      </trkpt>
      <trkpt lat="45.90959" lon="4.7778">
        <ele>177</ele>
        <time>2017-08-26T10:03:13Z</time>
      </trkpt>
      <trkpt lat="45.90952" lon="4.77775">
        <ele>177</ele>
        <time>2017-08-26T10:03:15Z</time>
      </trkpt>
      <trkpt lat="45.90947" lon="4.77773">
        <ele>177</ele>
        <time>2017-08-26T10:03:16Z</time>
      </trkpt>
      <trkpt lat="45.90943" lon="4.77772">
        <ele>177</ele>
        <time>2017-08-26T10:03:17Z</time>
      </trkpt>
      <trkpt lat="45.90938" lon="4.77771">
        <ele>177</ele>
        <time>2017-08-26T10:03:18Z</time>
      </trkpt>
      <trkpt lat="45.90933" lon="4.7777">
        <ele>177</ele>
        <time>2017-08-26T10:03:19Z</time>
      </trkpt>
      <trkpt lat="45.90929" lon="4.77768">
        <ele>177</ele>
        <time>2017-08-26T10:03:20Z</time>
      </trkpt>
      <trkpt lat="45.90925" lon="4.77765">
        <ele>177</ele>
        <time>2017-08-26T10:03:21Z</time>
      </trkpt>
      <trkpt lat="45.90922" lon="4.7776">
        <ele>176</ele>
        <time>2017-08-26T10:03:22Z</time>
      </trkpt>
      <trkpt lat="45.90918" lon="4.77756">
        <ele>176</ele>
        <time>2017-08-26T10:03:23Z</time>
      </trkpt>
      <trkpt lat="45.90914" lon="4.77752">
        <ele>176</ele>
        <time>2017-08-26T10:03:24Z</time>
      </trkpt>
      <trkpt lat="45.90907" lon="4.77744">
        <ele>177</ele>
        <time>2017-08-26T10:03:26Z</time>
      </trkpt>
      <trkpt lat="45.90904" lon="4.7774">
        <ele>177</ele>
        <time>2017-08-26T10:03:27Z</time>
      </trkpt>
      <trkpt lat="45.90898" lon="4.77731">
        <ele>177</ele>
        <time>2017-08-26T10:03:29Z</time>
      </trkpt>
      <trkpt lat="45.90895" lon="4.77727">
        <ele>177</ele>
        <time>2017-08-26T10:03:30Z</time>
      </trkpt>
      <trkpt lat="45.90888" lon="4.77719">
        <ele>177</ele>
        <time>2017-08-26T10:03:32Z</time>
      </trkpt>
      <trkpt lat="45.90885" lon="4.77715">
        <ele>177</ele>
        <time>2017-08-26T10:03:33Z</time>
      </trkpt>
      <trkpt lat="45.90881" lon="4.77711">
        <ele>177</ele>
        <time>2017-08-26T10:03:34Z</time>
      </trkpt>
      <trkpt lat="45.90877" lon="4.77708">
        <ele>177</ele>
        <time>2017-08-26T10:03:35Z</time>
      </trkpt>
      <trkpt lat="45.90869" lon="4.77702">
        <ele>178</ele>
        <time>2017-08-26T10:03:37Z</time>
      </trkpt>
      <trkpt lat="45.90865" lon="4.77699">
        <ele>178</ele>
        <time>2017-08-26T10:03:38Z</time>
      </trkpt>
      <trkpt lat="45.90858" lon="4.77694">
        <ele>178</ele>
        <time>2017-08-26T10:03:40Z</time>
      </trkpt>
      <trkpt lat="45.90854" lon="4.77692">
        <ele>178</ele>
        <time>2017-08-26T10:03:41Z</time>
      </trkpt>
      <trkpt lat="45.90848" lon="4.77687">
        <ele>178</ele>
        <time>2017-08-26T10:03:43Z</time>
      </trkpt>
      <trkpt lat="45.90844" lon="4.77685">
        <ele>178</ele>
        <time>2017-08-26T10:03:44Z</time>
      </trkpt>
      <trkpt lat="45.90837" lon="4.77681">
        <ele>178</ele>
        <time>2017-08-26T10:03:46Z</time>
      </trkpt>
      <trkpt lat="45.90833" lon="4.77679">
        <ele>179</ele>
        <time>2017-08-26T10:03:47Z</time>
      </trkpt>
      <trkpt lat="45.90825" lon="4.77675">
        <ele>179</ele>
        <time>2017-08-26T10:03:49Z</time>
      </trkpt>
      <trkpt lat="45.90822" lon="4.77674">
        <ele>179</ele>
        <time>2017-08-26T10:03:50Z</time>
      </trkpt>
      <trkpt lat="45.90815" lon="4.77672">
        <ele>179</ele>
        <time>2017-08-26T10:03:52Z</time>
      </trkpt>
      <trkpt lat="45.90811" lon="4.77671">
        <ele>179</ele>
        <time>2017-08-26T10:03:53Z</time>
      </trkpt>
      <trkpt lat="45.90803" lon="4.77669">
        <ele>179</ele>
        <time>2017-08-26T10:03:55Z</time>
      </trkpt>
      <trkpt lat="45.90799" lon="4.77668">
        <ele>179</ele>
        <time>2017-08-26T10:03:56Z</time>
      </trkpt>
      <trkpt lat="45.90792" lon="4.77666">
        <ele>179</ele>
        <time>2017-08-26T10:03:58Z</time>
      </trkpt>
      <trkpt lat="45.90788" lon="4.77665">
        <ele>179</ele>
        <time>2017-08-26T10:03:59Z</time>
      </trkpt>
      <trkpt lat="45.90782" lon="4.77663">
        <ele>180</ele>
        <time>2017-08-26T10:04:01Z</time>
      </trkpt>
      <trkpt lat="45.90779" lon="4.77662">
        <ele>180</ele>
        <time>2017-08-26T10:04:02Z</time>
      </trkpt>
      <trkpt lat="45.90772" lon="4.7766">
        <ele>180</ele>
        <time>2017-08-26T10:04:04Z</time>
      </trkpt>
      <trkpt lat="45.90769" lon="4.77659">
        <ele>180</ele>
        <time>2017-08-26T10:04:05Z</time>
      </trkpt>
      <trkpt lat="45.90762" lon="4.77652">
        <ele>180</ele>
        <time>2017-08-26T10:04:08Z</time>
      </trkpt>
      <trkpt lat="45.9076" lon="4.77648">
        <ele>180</ele>
        <time>2017-08-26T10:04:09Z</time>
      </trkpt>
      <trkpt lat="45.90759" lon="4.77638">
        <ele>179</ele>
        <time>2017-08-26T10:04:11Z</time>
      </trkpt>
      <trkpt lat="45.90761" lon="4.77633">
        <ele>179</ele>
        <time>2017-08-26T10:04:12Z</time>
      </trkpt>
      <trkpt lat="45.90767" lon="4.77624">
        <ele>179</ele>
        <time>2017-08-26T10:04:14Z</time>
      </trkpt>
      <trkpt lat="45.9077" lon="4.7762">
        <ele>179</ele>
        <time>2017-08-26T10:04:15Z</time>
      </trkpt>
      <trkpt lat="45.90776" lon="4.77611">
        <ele>179</ele>
        <time>2017-08-26T10:04:17Z</time>
      </trkpt>
      <trkpt lat="45.90779" lon="4.77607">
        <ele>179</ele>
        <time>2017-08-26T10:04:18Z</time>
      </trkpt>
      <trkpt lat="45.90785" lon="4.77598">
        <ele>179</ele>
        <time>2017-08-26T10:04:20Z</time>
      </trkpt>
      <trkpt lat="45.90788" lon="4.77593">
        <ele>179</ele>
        <time>2017-08-26T10:04:21Z</time>
      </trkpt>
      <trkpt lat="45.90792" lon="4.77588">
        <ele>179</ele>
        <time>2017-08-26T10:04:22Z</time>
      </trkpt>
      <trkpt lat="45.90795" lon="4.77582">
        <ele>178</ele>
        <time>2017-08-26T10:04:23Z</time>
      </trkpt>
      <trkpt lat="45.90799" lon="4.77577">
        <ele>178</ele>
        <time>2017-08-26T10:04:24Z</time>
      </trkpt>
      <trkpt lat="45.90803" lon="4.77572">
        <ele>178</ele>
        <time>2017-08-26T10:04:25Z</time>
      </trkpt>
      <trkpt lat="45.90806" lon="4.77567">
        <ele>178</ele>
        <time>2017-08-26T10:04:26Z</time>
      </trkpt>
      <trkpt lat="45.9081" lon="4.77561">
        <ele>178</ele>
        <time>2017-08-26T10:04:27Z</time>
      </trkpt>
      <trkpt lat="45.90814" lon="4.77556">
        <ele>178</ele>
        <time>2017-08-26T10:04:28Z</time>
      </trkpt>
      <trkpt lat="45.90818" lon="4.77551">
        <ele>178</ele>
        <time>2017-08-26T10:04:29Z</time>
      </trkpt>
      <trkpt lat="45.90822" lon="4.77545">
        <ele>178</ele>
        <time>2017-08-26T10:04:30Z</time>
      </trkpt>
      <trkpt lat="45.90825" lon="4.7754">
        <ele>178</ele>
        <time>2017-08-26T10:04:31Z</time>
      </trkpt>
      <trkpt lat="45.90829" lon="4.77534">
        <ele>178</ele>
        <time>2017-08-26T10:04:32Z</time>
      </trkpt>
      <trkpt lat="45.90833" lon="4.77529">
        <ele>178</ele>
        <time>2017-08-26T10:04:33Z</time>
      </trkpt>
      <trkpt lat="45.90837" lon="4.77524">
        <ele>178</ele>
        <time>2017-08-26T10:04:34Z</time>
      </trkpt>
      <trkpt lat="45.90841" lon="4.77519">
        <ele>178</ele>
        <time>2017-08-26T10:04:35Z</time>
      </trkpt>
      <trkpt lat="45.90844" lon="4.77514">
        <ele>178</ele>
        <time>2017-08-26T10:04:36Z</time>
      </trkpt>
      <trkpt lat="45.90848" lon="4.77508">
        <ele>179</ele>
        <time>2017-08-26T10:04:37Z</time>
      </trkpt>
      <trkpt lat="45.90852" lon="4.77503">
        <ele>178</ele>
        <time>2017-08-26T10:04:38Z</time>
      </trkpt>
      <trkpt lat="45.90855" lon="4.77497">
        <ele>178</ele>
        <time>2017-08-26T10:04:39Z</time>
      </trkpt>
      <trkpt lat="45.90858" lon="4.77491">
        <ele>178</ele>
        <time>2017-08-26T10:04:40Z</time>
      </trkpt>
      <trkpt lat="45.90862" lon="4.77484">
        <ele>178</ele>
        <time>2017-08-26T10:04:41Z</time>
      </trkpt>
      <trkpt lat="45.90865" lon="4.77477">
        <ele>178</ele>
        <time>2017-08-26T10:04:42Z</time>
      </trkpt>
      <trkpt lat="45.90868" lon="4.77471">
        <ele>178</ele>
        <time>2017-08-26T10:04:43Z</time>
      </trkpt>
      <trkpt lat="45.90872" lon="4.77465">
        <ele>178</ele>
        <time>2017-08-26T10:04:44Z</time>
      </trkpt>
      <trkpt lat="45.90876" lon="4.77458">
        <ele>178</ele>
        <time>2017-08-26T10:04:45Z</time>
      </trkpt>
      <trkpt lat="45.9088" lon="4.77452">
        <ele>178</ele>
        <time>2017-08-26T10:04:46Z</time>
      </trkpt>
      <trkpt lat="45.90883" lon="4.77444">
        <ele>178</ele>
        <time>2017-08-26T10:04:47Z</time>
      </trkpt>
      <trkpt lat="45.90887" lon="4.77437">
        <ele>177</ele>
        <time>2017-08-26T10:04:48Z</time>
      </trkpt>
      <trkpt lat="45.90891" lon="4.7743">
        <ele>177</ele>
        <time>2017-08-26T10:04:49Z</time>
      </trkpt>
      <trkpt lat="45.90895" lon="4.77424">
        <ele>177</ele>
        <time>2017-08-26T10:04:50Z</time>
      </trkpt>
      <trkpt lat="45.90899" lon="4.77418">
        <ele>177</ele>
        <time>2017-08-26T10:04:51Z</time>
      </trkpt>
      <trkpt lat="45.90903" lon="4.77412">
        <ele>177</ele>
        <time>2017-08-26T10:04:52Z</time>
      </trkpt>
      <trkpt lat="45.90907" lon="4.77406">
        <ele>177</ele>
        <time>2017-08-26T10:04:53Z</time>
      </trkpt>
      <trkpt lat="45.9091" lon="4.774">
        <ele>177</ele>
        <time>2017-08-26T10:04:54Z</time>
      </trkpt>
      <trkpt lat="45.90913" lon="4.77395">
        <ele>177</ele>
        <time>2017-08-26T10:04:55Z</time>
      </trkpt>
      <trkpt lat="45.90915" lon="4.7739">
        <ele>177</ele>
        <time>2017-08-26T10:04:56Z</time>
      </trkpt>
      <trkpt lat="45.90918" lon="4.77385">
        <ele>176</ele>
        <time>2017-08-26T10:04:57Z</time>
      </trkpt>
      <trkpt lat="45.90922" lon="4.7738">
        <ele>176</ele>
        <time>2017-08-26T10:04:58Z</time>
      </trkpt>
      <trkpt lat="45.90924" lon="4.77375">
        <ele>177</ele>
        <time>2017-08-26T10:04:59Z</time>
      </trkpt>
      <trkpt lat="45.90929" lon="4.77365">
        <ele>177</ele>
        <time>2017-08-26T10:05:01Z</time>
      </trkpt>
      <trkpt lat="45.90931" lon="4.7736">
        <ele>177</ele>
        <time>2017-08-26T10:05:02Z</time>
      </trkpt>
      <trkpt lat="45.90934" lon="4.77354">
        <ele>177</ele>
        <time>2017-08-26T10:05:03Z</time>
      </trkpt>
      <trkpt lat="45.90937" lon="4.77349">
        <ele>177</ele>
        <time>2017-08-26T10:05:04Z</time>
      </trkpt>
      <trkpt lat="45.9094" lon="4.77343">
        <ele>177</ele>
        <time>2017-08-26T10:05:05Z</time>
      </trkpt>
      <trkpt lat="45.90943" lon="4.77336">
        <ele>177</ele>
        <time>2017-08-26T10:05:06Z</time>
      </trkpt>
      <trkpt lat="45.90946" lon="4.7733">
        <ele>178</ele>
        <time>2017-08-26T10:05:07Z</time>
      </trkpt>
      <trkpt lat="45.9095" lon="4.77325">
        <ele>178</ele>
        <time>2017-08-26T10:05:08Z</time>
      </trkpt>
      <trkpt lat="45.90953" lon="4.77319">
        <ele>178</ele>
        <time>2017-08-26T10:05:09Z</time>
      </trkpt>
      <trkpt lat="45.90957" lon="4.77314">
        <ele>178</ele>
        <time>2017-08-26T10:05:10Z</time>
      </trkpt>
      <trkpt lat="45.9096" lon="4.77308">
        <ele>178</ele>
        <time>2017-08-26T10:05:11Z</time>
      </trkpt>
      <trkpt lat="45.90962" lon="4.77302">
        <ele>178</ele>
        <time>2017-08-26T10:05:12Z</time>
      </trkpt>
      <trkpt lat="45.90966" lon="4.77297">
        <ele>178</ele>
        <time>2017-08-26T10:05:13Z</time>
      </trkpt>
      <trkpt lat="45.90969" lon="4.77292">
        <ele>178</ele>
        <time>2017-08-26T10:05:14Z</time>
      </trkpt>
      <trkpt lat="45.90972" lon="4.77287">
        <ele>178</ele>
        <time>2017-08-26T10:05:15Z</time>
      </trkpt>
      <trkpt lat="45.90975" lon="4.77282">
        <ele>178</ele>
        <time>2017-08-26T10:05:16Z</time>
      </trkpt>
      <trkpt lat="45.90979" lon="4.77272">
        <ele>178</ele>
        <time>2017-08-26T10:05:18Z</time>
      </trkpt>
      <trkpt lat="45.90981" lon="4.77266">
        <ele>178</ele>
        <time>2017-08-26T10:05:19Z</time>
      </trkpt>
      <trkpt lat="45.90981" lon="4.77254">
        <ele>178</ele>
        <time>2017-08-26T10:05:21Z</time>
      </trkpt>
      <trkpt lat="45.9098" lon="4.77247">
        <ele>178</ele>
        <time>2017-08-26T10:05:22Z</time>
      </trkpt>
      <trkpt lat="45.90978" lon="4.77241">
        <ele>178</ele>
        <time>2017-08-26T10:05:23Z</time>
      </trkpt>
      <trkpt lat="45.90976" lon="4.77234">
        <ele>177</ele>
        <time>2017-08-26T10:05:24Z</time>
      </trkpt>
      <trkpt lat="45.90972" lon="4.77228">
        <ele>177</ele>
        <time>2017-08-26T10:05:25Z</time>
      </trkpt>
      <trkpt lat="45.90969" lon="4.77221">
        <ele>177</ele>
        <time>2017-08-26T10:05:26Z</time>
      </trkpt>
      <trkpt lat="45.90966" lon="4.77215">
        <ele>177</ele>
        <time>2017-08-26T10:05:27Z</time>
      </trkpt>
      <trkpt lat="45.90962" lon="4.77209">
        <ele>177</ele>
        <time>2017-08-26T10:05:28Z</time>
      </trkpt>
      <trkpt lat="45.90958" lon="4.77204">
        <ele>177</ele>
        <time>2017-08-26T10:05:29Z</time>
      </trkpt>
      <trkpt lat="45.90954" lon="4.77199">
        <ele>177</ele>
        <time>2017-08-26T10:05:30Z</time>
      </trkpt>
      <trkpt lat="45.9095" lon="4.77194">
        <ele>176</ele>
        <time>2017-08-26T10:05:31Z</time>
      </trkpt>
      <trkpt lat="45.90947" lon="4.77189">
        <ele>176</ele>
        <time>2017-08-26T10:05:32Z</time>
      </trkpt>
      <trkpt lat="45.90941" lon="4.7718">
        <ele>176</ele>
        <time>2017-08-26T10:05:34Z</time>
      </trkpt>
      <trkpt lat="45.90938" lon="4.77175">
        <ele>176</ele>
        <time>2017-08-26T10:05:35Z</time>
      </trkpt>
      <trkpt lat="45.90934" lon="4.7717">
        <ele>176</ele>
        <time>2017-08-26T10:05:36Z</time>
      </trkpt>
      <trkpt lat="45.9093" lon="4.77165">
        <ele>176</ele>
        <time>2017-08-26T10:05:37Z</time>
      </trkpt>
      <trkpt lat="45.90927" lon="4.7716">
        <ele>175</ele>
        <time>2017-08-26T10:05:38Z</time>
      </trkpt>
      <trkpt lat="45.90923" lon="4.77155">
        <ele>176</ele>
        <time>2017-08-26T10:05:39Z</time>
      </trkpt>
      <trkpt lat="45.90919" lon="4.7715">
        <ele>176</ele>
        <time>2017-08-26T10:05:40Z</time>
      </trkpt>
      <trkpt lat="45.90915" lon="4.77144">
        <ele>176</ele>
        <time>2017-08-26T10:05:41Z</time>
      </trkpt>
      <trkpt lat="45.90912" lon="4.77139">
        <ele>176</ele>
        <time>2017-08-26T10:05:42Z</time>
      </trkpt>
      <trkpt lat="45.90909" lon="4.77135">
        <ele>176</ele>
        <time>2017-08-26T10:05:43Z</time>
      </trkpt>
      <trkpt lat="45.90902" lon="4.77127">
        <ele>176</ele>
        <time>2017-08-26T10:05:45Z</time>
      </trkpt>
      <trkpt lat="45.90899" lon="4.77123">
        <ele>176</ele>
        <time>2017-08-26T10:05:46Z</time>
      </trkpt>
      <trkpt lat="45.90892" lon="4.77115">
        <ele>176</ele>
        <time>2017-08-26T10:05:48Z</time>
      </trkpt>
      <trkpt lat="45.90889" lon="4.7711">
        <ele>176</ele>
        <time>2017-08-26T10:05:49Z</time>
      </trkpt>
      <trkpt lat="45.90885" lon="4.77106">
        <ele>176</ele>
        <time>2017-08-26T10:05:50Z</time>
      </trkpt>
      <trkpt lat="45.9088" lon="4.77101">
        <ele>176</ele>
        <time>2017-08-26T10:05:51Z</time>
      </trkpt>
      <trkpt lat="45.90876" lon="4.77096">
        <ele>176</ele>
        <time>2017-08-26T10:05:52Z</time>
      </trkpt>
      <trkpt lat="45.90872" lon="4.77092">
        <ele>176</ele>
        <time>2017-08-26T10:05:53Z</time>
      </trkpt>
      <trkpt lat="45.90868" lon="4.77088">
        <ele>176</ele>
        <time>2017-08-26T10:05:54Z</time>
      </trkpt>
      <trkpt lat="45.90864" lon="4.77085">
        <ele>176</ele>
        <time>2017-08-26T10:05:55Z</time>
      </trkpt>
      <trkpt lat="45.90857" lon="4.77079">
        <ele>177</ele>
        <time>2017-08-26T10:05:57Z</time>
      </trkpt>
      <trkpt lat="45.90855" lon="4.77076">
        <ele>177</ele>
        <time>2017-08-26T10:05:58Z</time>
      </trkpt>
      <trkpt lat="45.90848" lon="4.7707">
        <ele>177</ele>
        <time>2017-08-26T10:06:00Z</time>
      </trkpt>
      <trkpt lat="45.90844" lon="4.77066">
        <ele>177</ele>
        <time>2017-08-26T10:06:01Z</time>
      </trkpt>
      <trkpt lat="45.9084" lon="4.77062">
        <ele>177</ele>
        <time>2017-08-26T10:06:02Z</time>
      </trkpt>
      <trkpt lat="45.90835" lon="4.77058">
        <ele>177</ele>
        <time>2017-08-26T10:06:03Z</time>
      </trkpt>
      <trkpt lat="45.90831" lon="4.77054">
        <ele>177</ele>
        <time>2017-08-26T10:06:04Z</time>
      </trkpt>
      <trkpt lat="45.90828" lon="4.7705">
        <ele>177</ele>
        <time>2017-08-26T10:06:05Z</time>
      </trkpt>
      <trkpt lat="45.90821" lon="4.77043">
        <ele>177</ele>
        <time>2017-08-26T10:06:07Z</time>
      </trkpt>
      <trkpt lat="45.90817" lon="4.7704">
        <ele>177</ele>
        <time>2017-08-26T10:06:08Z</time>
      </trkpt>
      <trkpt lat="45.90811" lon="4.77034">
        <ele>177</ele>
        <time>2017-08-26T10:06:10Z</time>
      </trkpt>
      <trkpt lat="45.90808" lon="4.77031">
        <ele>177</ele>
        <time>2017-08-26T10:06:11Z</time>
      </trkpt>
      <trkpt lat="45.908" lon="4.77025">
        <ele>177</ele>
        <time>2017-08-26T10:06:13Z</time>
      </trkpt>
      <trkpt lat="45.90797" lon="4.77021">
        <ele>177</ele>
        <time>2017-08-26T10:06:14Z</time>
      </trkpt>
      <trkpt lat="45.90793" lon="4.77016">
        <ele>177</ele>
        <time>2017-08-26T10:06:15Z</time>
      </trkpt>
      <trkpt lat="45.90789" lon="4.77011">
        <ele>178</ele>
        <time>2017-08-26T10:06:16Z</time>
      </trkpt>
      <trkpt lat="45.90785" lon="4.77006">
        <ele>178</ele>
        <time>2017-08-26T10:06:17Z</time>
      </trkpt>
      <trkpt lat="45.90781" lon="4.77003">
        <ele>178</ele>
        <time>2017-08-26T10:06:18Z</time>
      </trkpt>
      <trkpt lat="45.90775" lon="4.76997">
        <ele>178</ele>
        <time>2017-08-26T10:06:20Z</time>
      </trkpt>
      <trkpt lat="45.90772" lon="4.76993">
        <ele>178</ele>
        <time>2017-08-26T10:06:21Z</time>
      </trkpt>
      <trkpt lat="45.90766" lon="4.76988">
        <ele>178</ele>
        <time>2017-08-26T10:06:23Z</time>
      </trkpt>
      <trkpt lat="45.90762" lon="4.76985">
        <ele>178</ele>
        <time>2017-08-26T10:06:24Z</time>
      </trkpt>
      <trkpt lat="45.90755" lon="4.76981">
        <ele>178</ele>
        <time>2017-08-26T10:06:26Z</time>
      </trkpt>
      <trkpt lat="45.90751" lon="4.76978">
        <ele>178</ele>
        <time>2017-08-26T10:06:27Z</time>
      </trkpt>
      <trkpt lat="45.90743" lon="4.76974">
        <ele>179</ele>
        <time>2017-08-26T10:06:29Z</time>
      </trkpt>
      <trkpt lat="45.9074" lon="4.76973">
        <ele>179</ele>
        <time>2017-08-26T10:06:30Z</time>
      </trkpt>
      <trkpt lat="45.90733" lon="4.7697">
        <ele>179</ele>
        <time>2017-08-26T10:06:32Z</time>
      </trkpt>
      <trkpt lat="45.90731" lon="4.76968">
        <ele>179</ele>
        <time>2017-08-26T10:06:33Z</time>
      </trkpt>
      <trkpt lat="45.90724" lon="4.76965">
        <ele>179</ele>
        <time>2017-08-26T10:06:35Z</time>
      </trkpt>
      <trkpt lat="45.9072" lon="4.76963">
        <ele>179</ele>
        <time>2017-08-26T10:06:36Z</time>
      </trkpt>
      <trkpt lat="45.90713" lon="4.76959">
        <ele>179</ele>
        <time>2017-08-26T10:06:38Z</time>
      </trkpt>
      <trkpt lat="45.9071" lon="4.76956">
        <ele>179</ele>
        <time>2017-08-26T10:06:39Z</time>
      </trkpt>
      <trkpt lat="45.90703" lon="4.76953">
        <ele>179</ele>
        <time>2017-08-26T10:06:41Z</time>
      </trkpt>
      <trkpt lat="45.907" lon="4.76952">
        <ele>179</ele>
        <time>2017-08-26T10:06:42Z</time>
      </trkpt>
      <trkpt lat="45.90693" lon="4.76948">
        <ele>179</ele>
        <time>2017-08-26T10:06:44Z</time>
      </trkpt>
      <trkpt lat="45.90689" lon="4.76946">
        <ele>179</ele>
        <time>2017-08-26T10:06:45Z</time>
      </trkpt>
      <trkpt lat="45.90682" lon="4.76942">
        <ele>179</ele>
        <time>2017-08-26T10:06:47Z</time>
      </trkpt>
      <trkpt lat="45.90679" lon="4.76941">
        <ele>179</ele>
        <time>2017-08-26T10:06:48Z</time>
      </trkpt>
      <trkpt lat="45.90672" lon="4.76938">
        <ele>179</ele>
        <time>2017-08-26T10:06:50Z</time>
      </trkpt>
      <trkpt lat="45.90668" lon="4.76936">
        <ele>179</ele>
        <time>2017-08-26T10:06:51Z</time>
      </trkpt>
      <trkpt lat="45.90661" lon="4.76932">
        <ele>179</ele>
        <time>2017-08-26T10:06:53Z</time>
      </trkpt>
      <trkpt lat="45.90657" lon="4.7693">
        <ele>179</ele>
        <time>2017-08-26T10:06:54Z</time>
      </trkpt>
      <trkpt lat="45.9065" lon="4.76928">
        <ele>179</ele>
        <time>2017-08-26T10:06:56Z</time>
      </trkpt>
      <trkpt lat="45.90647" lon="4.76927">
        <ele>179</ele>
        <time>2017-08-26T10:06:57Z</time>
      </trkpt>
      <trkpt lat="45.90641" lon="4.76926">
        <ele>180</ele>
        <time>2017-08-26T10:06:59Z</time>
      </trkpt>
      <trkpt lat="45.90637" lon="4.76925">
        <ele>180</ele>
        <time>2017-08-26T10:07:00Z</time>
      </trkpt>
      <trkpt lat="45.90629" lon="4.76923">
        <ele>180</ele>
        <time>2017-08-26T10:07:02Z</time>
      </trkpt>
      <trkpt lat="45.90625" lon="4.76922">
        <ele>180</ele>
        <time>2017-08-26T10:07:03Z</time>
      </trkpt>
      <trkpt lat="45.90617" lon="4.76919">
        <ele>180</ele>
        <time>2017-08-26T10:07:05Z</time>
      </trkpt>
      <trkpt lat="45.90613" lon="4.76918">
        <ele>180</ele>
        <time>2017-08-26T10:07:06Z</time>
      </trkpt>
      <trkpt lat="45.90606" lon="4.76915">
        <ele>179</ele>
        <time>2017-08-26T10:07:08Z</time>
      </trkpt>
      <trkpt lat="45.90603" lon="4.76914">
        <ele>179</ele>
        <time>2017-08-26T10:07:09Z</time>
      </trkpt>
      <trkpt lat="45.90594" lon="4.76912">
        <ele>180</ele>
        <time>2017-08-26T10:07:12Z</time>
      </trkpt>
      <trkpt lat="45.9059" lon="4.76911">
        <ele>180</ele>
        <time>2017-08-26T10:07:13Z</time>
      </trkpt>
      <trkpt lat="45.90583" lon="4.76909">
        <ele>180</ele>
        <time>2017-08-26T10:07:15Z</time>
      </trkpt>
      <trkpt lat="45.90578" lon="4.76908">
        <ele>180</ele>
        <time>2017-08-26T10:07:16Z</time>
      </trkpt>
      <trkpt lat="45.90574" lon="4.76906">
        <ele>180</ele>
        <time>2017-08-26T10:07:17Z</time>
      </trkpt>
      <trkpt lat="45.90569" lon="4.76905">
        <ele>180</ele>
        <time>2017-08-26T10:07:18Z</time>
      </trkpt>
      <trkpt lat="45.90563" lon="4.76903">
        <ele>180</ele>
        <time>2017-08-26T10:07:20Z</time>
      </trkpt>
      <trkpt lat="45.9056" lon="4.76902">
        <ele>180</ele>
        <time>2017-08-26T10:07:21Z</time>
      </trkpt>
      <trkpt lat="45.90554" lon="4.76901">
        <ele>180</ele>
        <time>2017-08-26T10:07:23Z</time>
      </trkpt>
      <trkpt lat="45.90551" lon="4.769">
        <ele>180</ele>
        <time>2017-08-26T10:07:24Z</time>
      </trkpt>
      <trkpt lat="45.90542" lon="4.76898">
        <ele>180</ele>
        <time>2017-08-26T10:07:26Z</time>
      </trkpt>
      <trkpt lat="45.90538" lon="4.76896">
        <ele>180</ele>
        <time>2017-08-26T10:07:27Z</time>
      </trkpt>
      <trkpt lat="45.90531" lon="4.76894">
        <ele>180</ele>
        <time>2017-08-26T10:07:29Z</time>
      </trkpt>
      <trkpt lat="45.90528" lon="4.76893">
        <ele>180</ele>
        <time>2017-08-26T10:07:30Z</time>
      </trkpt>
      <trkpt lat="45.90519" lon="4.76892">
        <ele>180</ele>
        <time>2017-08-26T10:07:33Z</time>
      </trkpt>
      <trkpt lat="45.90516" lon="4.76891">
        <ele>180</ele>
        <time>2017-08-26T10:07:34Z</time>
      </trkpt>
      <trkpt lat="45.90508" lon="4.76889">
        <ele>180</ele>
        <time>2017-08-26T10:07:36Z</time>
      </trkpt>
      <trkpt lat="45.90504" lon="4.76887">
        <ele>180</ele>
        <time>2017-08-26T10:07:37Z</time>
      </trkpt>
      <trkpt lat="45.90496" lon="4.76885">
        <ele>181</ele>
        <time>2017-08-26T10:07:39Z</time>
      </trkpt>
      <trkpt lat="45.90493" lon="4.76884">
        <ele>181</ele>
        <time>2017-08-26T10:07:40Z</time>
      </trkpt>
      <trkpt lat="45.90486" lon="4.76883">
        <ele>181</ele>
        <time>2017-08-26T10:07:42Z</time>
      </trkpt>
      <trkpt lat="45.90483" lon="4.76882">
        <ele>181</ele>
        <time>2017-08-26T10:07:43Z</time>
      </trkpt>
      <trkpt lat="45.90477" lon="4.76879">
        <ele>181</ele>
        <time>2017-08-26T10:07:45Z</time>
      </trkpt>
      <trkpt lat="45.90474" lon="4.76878">
        <ele>181</ele>
        <time>2017-08-26T10:07:46Z</time>
      </trkpt>
      <trkpt lat="45.90466" lon="4.76876">
        <ele>181</ele>
        <time>2017-08-26T10:07:48Z</time>
      </trkpt>
      <trkpt lat="45.90461" lon="4.76874">
        <ele>181</ele>
        <time>2017-08-26T10:07:49Z</time>
      </trkpt>
      <trkpt lat="45.90453" lon="4.76873">
        <ele>181</ele>
        <time>2017-08-26T10:07:51Z</time>
      </trkpt>
      <trkpt lat="45.90449" lon="4.76872">
        <ele>181</ele>
        <time>2017-08-26T10:07:52Z</time>
      </trkpt>
      <trkpt lat="45.90443" lon="4.7687">
        <ele>181</ele>
        <time>2017-08-26T10:07:54Z</time>
      </trkpt>
      <trkpt lat="45.9044" lon="4.7687">
        <ele>181</ele>
        <time>2017-08-26T10:07:55Z</time>
      </trkpt>
      <trkpt lat="45.90431" lon="4.7687">
        <ele>181</ele>
        <time>2017-08-26T10:07:57Z</time>
      </trkpt>
      <trkpt lat="45.90427" lon="4.7687">
        <ele>181</ele>
        <time>2017-08-26T10:07:58Z</time>
      </trkpt>
      <trkpt lat="45.90419" lon="4.76868">
        <ele>181</ele>
        <time>2017-08-26T10:08:00Z</time>
      </trkpt>
      <trkpt lat="45.90415" lon="4.76867">
        <ele>182</ele>
        <time>2017-08-26T10:08:01Z</time>
      </trkpt>
      <trkpt lat="45.90408" lon="4.76866">
        <ele>182</ele>
        <time>2017-08-26T10:08:03Z</time>
      </trkpt>
      <trkpt lat="45.90405" lon="4.76866">
        <ele>182</ele>
        <time>2017-08-26T10:08:04Z</time>
      </trkpt>
      <trkpt lat="45.904" lon="4.76866">
        <ele>182</ele>
        <time>2017-08-26T10:08:06Z</time>
      </trkpt>
      <trkpt lat="45.90396" lon="4.76865">
        <ele>182</ele>
        <time>2017-08-26T10:08:07Z</time>
      </trkpt>
      <trkpt lat="45.90388" lon="4.76864">
        <ele>182</ele>
        <time>2017-08-26T10:08:09Z</time>
      </trkpt>
      <trkpt lat="45.90384" lon="4.76864">
        <ele>182</ele>
        <time>2017-08-26T10:08:10Z</time>
      </trkpt>
      <trkpt lat="45.90377" lon="4.76864">
        <ele>182</ele>
        <time>2017-08-26T10:08:12Z</time>
      </trkpt>
      <trkpt lat="45.90375" lon="4.76864">
        <ele>182</ele>
        <time>2017-08-26T10:08:13Z</time>
      </trkpt>
      <trkpt lat="45.90367" lon="4.76864">
        <ele>182</ele>
        <time>2017-08-26T10:08:16Z</time>
      </trkpt>
      <trkpt lat="45.90364" lon="4.76864">
        <ele>182</ele>
        <time>2017-08-26T10:08:17Z</time>
      </trkpt>
      <trkpt lat="45.90358" lon="4.76864">
        <ele>182</ele>
        <time>2017-08-26T10:08:19Z</time>
      </trkpt>
      <trkpt lat="45.90355" lon="4.76864">
        <ele>182</ele>
        <time>2017-08-26T10:08:20Z</time>
      </trkpt>
      <trkpt lat="45.90348" lon="4.76864">
        <ele>182</ele>
        <time>2017-08-26T10:08:22Z</time>
      </trkpt>
      <trkpt lat="45.90345" lon="4.76863">
        <ele>182</ele>
        <time>2017-08-26T10:08:23Z</time>
      </trkpt>
      <trkpt lat="45.90338" lon="4.76859">
        <ele>182</ele>
        <time>2017-08-26T10:08:25Z</time>
      </trkpt>
      <trkpt lat="45.90336" lon="4.76855">
        <ele>182</ele>
        <time>2017-08-26T10:08:26Z</time>
      </trkpt>
      <trkpt lat="45.90333" lon="4.76846">
        <ele>182</ele>
        <time>2017-08-26T10:08:28Z</time>
      </trkpt>
      <trkpt lat="45.90333" lon="4.76842">
        <ele>182</ele>
        <time>2017-08-26T10:08:29Z</time>
      </trkpt>
      <trkpt lat="45.90334" lon="4.7683">
        <ele>182</ele>
        <time>2017-08-26T10:08:32Z</time>
      </trkpt>
      <trkpt lat="45.90335" lon="4.76827">
        <ele>182</ele>
        <time>2017-08-26T10:08:33Z</time>
      </trkpt>
      <trkpt lat="45.90335" lon="4.76815">
        <ele>182</ele>
        <time>2017-08-26T10:08:36Z</time>
      </trkpt>
      <trkpt lat="45.90335" lon="4.76809">
        <ele>182</ele>
        <time>2017-08-26T10:08:37Z</time>
      </trkpt>
      <trkpt lat="45.90336" lon="4.76798">
        <ele>182</ele>
        <time>2017-08-26T10:08:39Z</time>
      </trkpt>
      <trkpt lat="45.90336" lon="4.76792">
        <ele>182</ele>
        <time>2017-08-26T10:08:40Z</time>
      </trkpt>
      <trkpt lat="45.90337" lon="4.7678">
        <ele>182</ele>
        <time>2017-08-26T10:08:42Z</time>
      </trkpt>
      <trkpt lat="45.90337" lon="4.76774">
        <ele>182</ele>
        <time>2017-08-26T10:08:43Z</time>
      </trkpt>
      <trkpt lat="45.90337" lon="4.76764">
        <ele>182</ele>
        <time>2017-08-26T10:08:45Z</time>
      </trkpt>
      <trkpt lat="45.90338" lon="4.76759">
        <ele>183</ele>
        <time>2017-08-26T10:08:46Z</time>
      </trkpt>
      <trkpt lat="45.90338" lon="4.76748">
        <ele>183</ele>
        <time>2017-08-26T10:08:48Z</time>
      </trkpt>
      <trkpt lat="45.90338" lon="4.76742">
        <ele>183</ele>
        <time>2017-08-26T10:08:49Z</time>
      </trkpt>
      <trkpt lat="45.90339" lon="4.76735">
        <ele>183</ele>
        <time>2017-08-26T10:08:50Z</time>
      </trkpt>
      <trkpt lat="45.90338" lon="4.76729">
        <ele>183</ele>
        <time>2017-08-26T10:08:51Z</time>
      </trkpt>
      <trkpt lat="45.90338" lon="4.76716">
        <ele>183</ele>
        <time>2017-08-26T10:08:53Z</time>
      </trkpt>
      <trkpt lat="45.90339" lon="4.7671">
        <ele>183</ele>
        <time>2017-08-26T10:08:54Z</time>
      </trkpt>
      <trkpt lat="45.90339" lon="4.76697">
        <ele>183</ele>
        <time>2017-08-26T10:08:56Z</time>
      </trkpt>
      <trkpt lat="45.90339" lon="4.76691">
        <ele>183</ele>
        <time>2017-08-26T10:08:57Z</time>
      </trkpt>
      <trkpt lat="45.90338" lon="4.76679">
        <ele>183</ele>
        <time>2017-08-26T10:08:59Z</time>
      </trkpt>
      <trkpt lat="45.90338" lon="4.76674">
        <ele>184</ele>
        <time>2017-08-26T10:09:00Z</time>
      </trkpt>
      <trkpt lat="45.90338" lon="4.76666">
        <ele>184</ele>
        <time>2017-08-26T10:09:02Z</time>
      </trkpt>
      <trkpt lat="45.90339" lon="4.76661">
        <ele>184</ele>
        <time>2017-08-26T10:09:03Z</time>
      </trkpt>
      <trkpt lat="45.90339" lon="4.76652">
        <ele>184</ele>
        <time>2017-08-26T10:09:05Z</time>
      </trkpt>
      <trkpt lat="45.9034" lon="4.76646">
        <ele>184</ele>
        <time>2017-08-26T10:09:06Z</time>
      </trkpt>
      <trkpt lat="45.90339" lon="4.76636">
        <ele>184</ele>
        <time>2017-08-26T10:09:08Z</time>
      </trkpt>
      <trkpt lat="45.90339" lon="4.76632">
        <ele>184</ele>
        <time>2017-08-26T10:09:09Z</time>
      </trkpt>
      <trkpt lat="45.90339" lon="4.76619">
        <ele>184</ele>
        <time>2017-08-26T10:09:12Z</time>
      </trkpt>
      <trkpt lat="45.90339" lon="4.76615">
        <ele>184</ele>
        <time>2017-08-26T10:09:13Z</time>
      </trkpt>
      <trkpt lat="45.9034" lon="4.76602">
        <ele>184</ele>
        <time>2017-08-26T10:09:16Z</time>
      </trkpt>
      <trkpt lat="45.9034" lon="4.76598">
        <ele>184</ele>
        <time>2017-08-26T10:09:17Z</time>
      </trkpt>
      <trkpt lat="45.90341" lon="4.76586">
        <ele>185</ele>
        <time>2017-08-26T10:09:20Z</time>
      </trkpt>
      <trkpt lat="45.90341" lon="4.76583">
        <ele>185</ele>
        <time>2017-08-26T10:09:21Z</time>
      </trkpt>
      <trkpt lat="45.90341" lon="4.76571">
        <ele>185</ele>
        <time>2017-08-26T10:09:24Z</time>
      </trkpt>
      <trkpt lat="45.90341" lon="4.76567">
        <ele>185</ele>
        <time>2017-08-26T10:09:25Z</time>
      </trkpt>
      <trkpt lat="45.90341" lon="4.76556">
        <ele>185</ele>
        <time>2017-08-26T10:09:28Z</time>
      </trkpt>
      <trkpt lat="45.90342" lon="4.76552">
        <ele>185</ele>
        <time>2017-08-26T10:09:29Z</time>
      </trkpt>
      <trkpt lat="45.90342" lon="4.76544">
        <ele>186</ele>
        <time>2017-08-26T10:09:31Z</time>
      </trkpt>
      <trkpt lat="45.90342" lon="4.76539">
        <ele>186</ele>
        <time>2017-08-26T10:09:32Z</time>
      </trkpt>
      <trkpt lat="45.90344" lon="4.76527">
        <ele>186</ele>
        <time>2017-08-26T10:09:35Z</time>
      </trkpt>
      <trkpt lat="45.90345" lon="4.76524">
        <ele>186</ele>
        <time>2017-08-26T10:09:36Z</time>
      </trkpt>
      <trkpt lat="45.90348" lon="4.76515">
        <ele>186</ele>
        <time>2017-08-26T10:09:39Z</time>
      </trkpt>
      <trkpt lat="45.9035" lon="4.76512">
        <ele>186</ele>
        <time>2017-08-26T10:09:40Z</time>
      </trkpt>
      <trkpt lat="45.90355" lon="4.76505">
        <ele>186</ele>
        <time>2017-08-26T10:09:43Z</time>
      </trkpt>
      <trkpt lat="45.90357" lon="4.76501">
        <ele>186</ele>
        <time>2017-08-26T10:09:44Z</time>
      </trkpt>
      <trkpt lat="45.90363" lon="4.76493">
        <ele>188</ele>
        <time>2017-08-26T10:09:47Z</time>
      </trkpt>
      <trkpt lat="45.90365" lon="4.7649">
        <ele>188</ele>
        <time>2017-08-26T10:09:48Z</time>
      </trkpt>
      <trkpt lat="45.90371" lon="4.76484">
        <ele>188</ele>
        <time>2017-08-26T10:09:51Z</time>
      </trkpt>
      <trkpt lat="45.90373" lon="4.76483">
        <ele>188</ele>
        <time>2017-08-26T10:09:52Z</time>
      </trkpt>
      <trkpt lat="45.90381" lon="4.76479">
        <ele>188</ele>
        <time>2017-08-26T10:09:55Z</time>
      </trkpt>
      <trkpt lat="45.90384" lon="4.76479">
        <ele>188</ele>
        <time>2017-08-26T10:09:56Z</time>
      </trkpt>
      <trkpt lat="45.9039" lon="4.76479">
        <ele>188</ele>
        <time>2017-08-26T10:09:59Z</time>
      </trkpt>
      <trkpt lat="45.90393" lon="4.7648">
        <ele>188</ele>
        <time>2017-08-26T10:10:00Z</time>
      </trkpt>
      <trkpt lat="45.904" lon="4.76479">
        <ele>188</ele>
        <time>2017-08-26T10:10:02Z</time>
      </trkpt>
      <trkpt lat="45.90403" lon="4.76479">
        <ele>187</ele>
        <time>2017-08-26T10:10:03Z</time>
      </trkpt>
      <trkpt lat="45.90411" lon="4.76476">
        <ele>187</ele>
        <time>2017-08-26T10:10:05Z</time>
      </trkpt>
      <trkpt lat="45.90414" lon="4.76472">
        <ele>188</ele>
        <time>2017-08-26T10:10:06Z</time>
      </trkpt>
      <trkpt lat="45.90418" lon="4.76465">
        <ele>186</ele>
        <time>2017-08-26T10:10:08Z</time>
      </trkpt>
      <trkpt lat="45.9042" lon="4.76462">
        <ele>186</ele>
        <time>2017-08-26T10:10:09Z</time>
      </trkpt>
      <trkpt lat="45.90424" lon="4.76454">
        <ele>186</ele>
        <time>2017-08-26T10:10:11Z</time>
      </trkpt>
      <trkpt lat="45.90425" lon="4.76449">
        <ele>186</ele>
        <time>2017-08-26T10:10:12Z</time>
      </trkpt>
      <trkpt lat="45.90429" lon="4.76439">
        <ele>187</ele>
        <time>2017-08-26T10:10:14Z</time>
      </trkpt>
      <trkpt lat="45.90431" lon="4.76434">
        <ele>187</ele>
        <time>2017-08-26T10:10:15Z</time>
      </trkpt>
      <trkpt lat="45.90435" lon="4.76425">
        <ele>187</ele>
        <time>2017-08-26T10:10:17Z</time>
      </trkpt>
      <trkpt lat="45.90437" lon="4.76421">
        <ele>187</ele>
        <time>2017-08-26T10:10:18Z</time>
      </trkpt>
      <trkpt lat="45.9044" lon="4.76412">
        <ele>187</ele>
        <time>2017-08-26T10:10:20Z</time>
      </trkpt>
      <trkpt lat="45.90442" lon="4.76408">
        <ele>187</ele>
        <time>2017-08-26T10:10:21Z</time>
      </trkpt>
      <trkpt lat="45.90445" lon="4.76401">
        <ele>187</ele>
        <time>2017-08-26T10:10:23Z</time>
      </trkpt>
      <trkpt lat="45.90447" lon="4.76397">
        <ele>187</ele>
        <time>2017-08-26T10:10:24Z</time>
      </trkpt>
      <trkpt lat="45.90451" lon="4.76387">
        <ele>186</ele>
        <time>2017-08-26T10:10:26Z</time>
      </trkpt>
      <trkpt lat="45.90452" lon="4.76382">
        <ele>186</ele>
        <time>2017-08-26T10:10:27Z</time>
      </trkpt>
      <trkpt lat="45.90455" lon="4.76373">
        <ele>186</ele>
        <time>2017-08-26T10:10:29Z</time>
      </trkpt>
      <trkpt lat="45.90456" lon="4.76368">
        <ele>186</ele>
        <time>2017-08-26T10:10:30Z</time>
      </trkpt>
      <trkpt lat="45.9046" lon="4.76359">
        <ele>186</ele>
        <time>2017-08-26T10:10:32Z</time>
      </trkpt>
      <trkpt lat="45.90461" lon="4.76354">
        <ele>186</ele>
        <time>2017-08-26T10:10:33Z</time>
      </trkpt>
      <trkpt lat="45.90465" lon="4.76343">
        <ele>186</ele>
        <time>2017-08-26T10:10:35Z</time>
      </trkpt>
      <trkpt lat="45.90467" lon="4.76338">
        <ele>186</ele>
        <time>2017-08-26T10:10:36Z</time>
      </trkpt>
      <trkpt lat="45.9047" lon="4.76328">
        <ele>186</ele>
        <time>2017-08-26T10:10:38Z</time>
      </trkpt>
      <trkpt lat="45.90471" lon="4.76323">
        <ele>186</ele>
        <time>2017-08-26T10:10:39Z</time>
      </trkpt>
      <trkpt lat="45.90474" lon="4.76313">
        <ele>186</ele>
        <time>2017-08-26T10:10:41Z</time>
      </trkpt>
      <trkpt lat="45.90475" lon="4.76307">
        <ele>186</ele>
        <time>2017-08-26T10:10:42Z</time>
      </trkpt>
      <trkpt lat="45.90478" lon="4.76297">
        <ele>186</ele>
        <time>2017-08-26T10:10:44Z</time>
      </trkpt>
      <trkpt lat="45.9048" lon="4.76293">
        <ele>186</ele>
        <time>2017-08-26T10:10:45Z</time>
      </trkpt>
      <trkpt lat="45.90483" lon="4.76282">
        <ele>186</ele>
        <time>2017-08-26T10:10:47Z</time>
      </trkpt>
      <trkpt lat="45.90485" lon="4.76277">
        <ele>186</ele>
        <time>2017-08-26T10:10:48Z</time>
      </trkpt>
      <trkpt lat="45.90487" lon="4.76267">
        <ele>186</ele>
        <time>2017-08-26T10:10:50Z</time>
      </trkpt>
      <trkpt lat="45.90488" lon="4.76262">
        <ele>185</ele>
        <time>2017-08-26T10:10:51Z</time>
      </trkpt>
      <trkpt lat="45.90489" lon="4.76251">
        <ele>185</ele>
        <time>2017-08-26T10:10:53Z</time>
      </trkpt>
      <trkpt lat="45.90489" lon="4.76247">
        <ele>185</ele>
        <time>2017-08-26T10:10:54Z</time>
      </trkpt>
      <trkpt lat="45.90484" lon="4.76238">
        <ele>185</ele>
        <time>2017-08-26T10:10:56Z</time>
      </trkpt>
      <trkpt lat="45.90481" lon="4.76236">
        <ele>185</ele>
        <time>2017-08-26T10:10:57Z</time>
      </trkpt>
      <trkpt lat="45.90477" lon="4.76234">
        <ele>185</ele>
        <time>2017-08-26T10:10:58Z</time>
      </trkpt>
      <trkpt lat="45.90472" lon="4.76232">
        <ele>185</ele>
        <time>2017-08-26T10:10:59Z</time>
      </trkpt>
      <trkpt lat="45.90464" lon="4.76228">
        <ele>185</ele>
        <time>2017-08-26T10:11:01Z</time>
      </trkpt>
      <trkpt lat="45.90461" lon="4.76226">
        <ele>185</ele>
        <time>2017-08-26T10:11:02Z</time>
      </trkpt>
      <trkpt lat="45.90454" lon="4.76221">
        <ele>186</ele>
        <time>2017-08-26T10:11:04Z</time>
      </trkpt>
      <trkpt lat="45.9045" lon="4.76219">
        <ele>186</ele>
        <time>2017-08-26T10:11:05Z</time>
      </trkpt>
      <trkpt lat="45.90443" lon="4.76215">
        <ele>186</ele>
        <time>2017-08-26T10:11:07Z</time>
      </trkpt>
      <trkpt lat="45.90439" lon="4.76212">
        <ele>186</ele>
        <time>2017-08-26T10:11:08Z</time>
      </trkpt>
      <trkpt lat="45.90433" lon="4.76208">
        <ele>186</ele>
        <time>2017-08-26T10:11:10Z</time>
      </trkpt>
      <trkpt lat="45.9043" lon="4.76206">
        <ele>186</ele>
        <time>2017-08-26T10:11:11Z</time>
      </trkpt>
      <trkpt lat="45.90424" lon="4.76202">
        <ele>186</ele>
        <time>2017-08-26T10:11:13Z</time>
      </trkpt>
      <trkpt lat="45.90422" lon="4.762">
        <ele>186</ele>
        <time>2017-08-26T10:11:14Z</time>
      </trkpt>
      <trkpt lat="45.90417" lon="4.76193">
        <ele>186</ele>
        <time>2017-08-26T10:11:16Z</time>
      </trkpt>
      <trkpt lat="45.90417" lon="4.76188">
        <ele>186</ele>
        <time>2017-08-26T10:11:17Z</time>
      </trkpt>
      <trkpt lat="45.90421" lon="4.76179">
        <ele>186</ele>
        <time>2017-08-26T10:11:19Z</time>
      </trkpt>
      <trkpt lat="45.90424" lon="4.76176">
        <ele>186</ele>
        <time>2017-08-26T10:11:20Z</time>
      </trkpt>
      <trkpt lat="45.9043" lon="4.76169">
        <ele>186</ele>
        <time>2017-08-26T10:11:22Z</time>
      </trkpt>
      <trkpt lat="45.90434" lon="4.76165">
        <ele>186</ele>
        <time>2017-08-26T10:11:23Z</time>
      </trkpt>
      <trkpt lat="45.9044" lon="4.76159">
        <ele>186</ele>
        <time>2017-08-26T10:11:25Z</time>
      </trkpt>
      <trkpt lat="45.90444" lon="4.76155">
        <ele>186</ele>
        <time>2017-08-26T10:11:26Z</time>
      </trkpt>
      <trkpt lat="45.90449" lon="4.7615">
        <ele>186</ele>
        <time>2017-08-26T10:11:27Z</time>
      </trkpt>
      <trkpt lat="45.90453" lon="4.76145">
        <ele>186</ele>
        <time>2017-08-26T10:11:28Z</time>
      </trkpt>
      <trkpt lat="45.90457" lon="4.76141">
        <ele>186</ele>
        <time>2017-08-26T10:11:29Z</time>
      </trkpt>
      <trkpt lat="45.90461" lon="4.76136">
        <ele>185</ele>
        <time>2017-08-26T10:11:30Z</time>
      </trkpt>
      <trkpt lat="45.90465" lon="4.76131">
        <ele>185</ele>
        <time>2017-08-26T10:11:31Z</time>
      </trkpt>
      <trkpt lat="45.90469" lon="4.76127">
        <ele>185</ele>
        <time>2017-08-26T10:11:32Z</time>
      </trkpt>
      <trkpt lat="45.90472" lon="4.76122">
        <ele>185</ele>
        <time>2017-08-26T10:11:33Z</time>
      </trkpt>
      <trkpt lat="45.90475" lon="4.76117">
        <ele>185</ele>
        <time>2017-08-26T10:11:34Z</time>
      </trkpt>
      <trkpt lat="45.90481" lon="4.76108">
        <ele>185</ele>
        <time>2017-08-26T10:11:36Z</time>
      </trkpt>
      <trkpt lat="45.90484" lon="4.76104">
        <ele>185</ele>
        <time>2017-08-26T10:11:37Z</time>
      </trkpt>
      <trkpt lat="45.9049" lon="4.76095">
        <ele>185</ele>
        <time>2017-08-26T10:11:39Z</time>
      </trkpt>
      <trkpt lat="45.90493" lon="4.76091">
        <ele>185</ele>
        <time>2017-08-26T10:11:40Z</time>
      </trkpt>
      <trkpt lat="45.90497" lon="4.76081">
        <ele>185</ele>
        <time>2017-08-26T10:11:42Z</time>
      </trkpt>
      <trkpt lat="45.905" lon="4.76076">
        <ele>185</ele>
        <time>2017-08-26T10:11:43Z</time>
      </trkpt>
      <trkpt lat="45.90504" lon="4.76065">
        <ele>185</ele>
        <time>2017-08-26T10:11:45Z</time>
      </trkpt>
      <trkpt lat="45.90506" lon="4.76058">
        <ele>185</ele>
        <time>2017-08-26T10:11:46Z</time>
      </trkpt>
      <trkpt lat="45.90508" lon="4.76051">
        <ele>185</ele>
        <time>2017-08-26T10:11:47Z</time>
      </trkpt>
      <trkpt lat="45.9051" lon="4.76044">
        <ele>185</ele>
        <time>2017-08-26T10:11:48Z</time>
      </trkpt>
      <trkpt lat="45.90511" lon="4.76037">
        <ele>185</ele>
        <time>2017-08-26T10:11:49Z</time>
      </trkpt>
      <trkpt lat="45.90512" lon="4.76031">
        <ele>185</ele>
        <time>2017-08-26T10:11:50Z</time>
      </trkpt>
      <trkpt lat="45.90514" lon="4.76018">
        <ele>186</ele>
        <time>2017-08-26T10:11:52Z</time>
      </trkpt>
      <trkpt lat="45.90515" lon="4.76012">
        <ele>186</ele>
        <time>2017-08-26T10:11:53Z</time>
      </trkpt>
      <trkpt lat="45.90517" lon="4.76002">
        <ele>186</ele>
        <time>2017-08-26T10:11:55Z</time>
      </trkpt>
      <trkpt lat="45.90518" lon="4.75997">
        <ele>186</ele>
        <time>2017-08-26T10:11:56Z</time>
      </trkpt>
      <trkpt lat="45.90518" lon="4.75991">
        <ele>186</ele>
        <time>2017-08-26T10:11:57Z</time>
      </trkpt>
      <trkpt lat="45.9052" lon="4.75985">
        <ele>186</ele>
        <time>2017-08-26T10:11:58Z</time>
      </trkpt>
      <trkpt lat="45.90523" lon="4.75978">
        <ele>186</ele>
        <time>2017-08-26T10:11:59Z</time>
      </trkpt>
      <trkpt lat="45.90527" lon="4.75973">
        <ele>186</ele>
        <time>2017-08-26T10:12:00Z</time>
      </trkpt>
      <trkpt lat="45.90531" lon="4.75968">
        <ele>186</ele>
        <time>2017-08-26T10:12:01Z</time>
      </trkpt>
      <trkpt lat="45.90535" lon="4.75964">
        <ele>186</ele>
        <time>2017-08-26T10:12:02Z</time>
      </trkpt>
      <trkpt lat="45.9054" lon="4.75961">
        <ele>186</ele>
        <time>2017-08-26T10:12:03Z</time>
      </trkpt>
      <trkpt lat="45.90545" lon="4.7596">
        <ele>186</ele>
        <time>2017-08-26T10:12:04Z</time>
      </trkpt>
      <trkpt lat="45.90549" lon="4.7596">
        <ele>186</ele>
        <time>2017-08-26T10:12:05Z</time>
      </trkpt>
      <trkpt lat="45.90554" lon="4.7596">
        <ele>186</ele>
        <time>2017-08-26T10:12:06Z</time>
      </trkpt>
      <trkpt lat="45.90562" lon="4.75965">
        <ele>186</ele>
        <time>2017-08-26T10:12:08Z</time>
      </trkpt>
      <trkpt lat="45.90566" lon="4.75968">
        <ele>186</ele>
        <time>2017-08-26T10:12:09Z</time>
      </trkpt>
      <trkpt lat="45.90573" lon="4.75974">
        <ele>186</ele>
        <time>2017-08-26T10:12:11Z</time>
      </trkpt>
      <trkpt lat="45.90576" lon="4.75977">
        <ele>186</ele>
        <time>2017-08-26T10:12:12Z</time>
      </trkpt>
      <trkpt lat="45.90581" lon="4.75983">
        <ele>186</ele>
        <time>2017-08-26T10:12:14Z</time>
      </trkpt>
      <trkpt lat="45.90584" lon="4.75985">
        <ele>186</ele>
        <time>2017-08-26T10:12:15Z</time>
      </trkpt>
      <trkpt lat="45.90591" lon="4.75987">
        <ele>186</ele>
        <time>2017-08-26T10:12:17Z</time>
      </trkpt>
      <trkpt lat="45.90596" lon="4.75987">
        <ele>186</ele>
        <time>2017-08-26T10:12:18Z</time>
      </trkpt>
      <trkpt lat="45.906" lon="4.75985">
        <ele>186</ele>
        <time>2017-08-26T10:12:19Z</time>
      </trkpt>
      <trkpt lat="45.90605" lon="4.7598">
        <ele>186</ele>
        <time>2017-08-26T10:12:20Z</time>
      </trkpt>
      <trkpt lat="45.90609" lon="4.75975">
        <ele>186</ele>
        <time>2017-08-26T10:12:21Z</time>
      </trkpt>
      <trkpt lat="45.90613" lon="4.75968">
        <ele>186</ele>
        <time>2017-08-26T10:12:22Z</time>
      </trkpt>
      <trkpt lat="45.90617" lon="4.75963">
        <ele>186</ele>
        <time>2017-08-26T10:12:23Z</time>
      </trkpt>
      <trkpt lat="45.9062" lon="4.75958">
        <ele>186</ele>
        <time>2017-08-26T10:12:24Z</time>
      </trkpt>
      <trkpt lat="45.90626" lon="4.7595">
        <ele>186</ele>
        <time>2017-08-26T10:12:26Z</time>
      </trkpt>
      <trkpt lat="45.90629" lon="4.75946">
        <ele>186</ele>
        <time>2017-08-26T10:12:27Z</time>
      </trkpt>
      <trkpt lat="45.90635" lon="4.75939">
        <ele>186</ele>
        <time>2017-08-26T10:12:29Z</time>
      </trkpt>
      <trkpt lat="45.90638" lon="4.75934">
        <ele>186</ele>
        <time>2017-08-26T10:12:30Z</time>
      </trkpt>
      <trkpt lat="45.90641" lon="4.75929">
        <ele>186</ele>
        <time>2017-08-26T10:12:31Z</time>
      </trkpt>
      <trkpt lat="45.90645" lon="4.75923">
        <ele>187</ele>
        <time>2017-08-26T10:12:32Z</time>
      </trkpt>
      <trkpt lat="45.90648" lon="4.75918">
        <ele>187</ele>
        <time>2017-08-26T10:12:33Z</time>
      </trkpt>
      <trkpt lat="45.90651" lon="4.75913">
        <ele>187</ele>
        <time>2017-08-26T10:12:34Z</time>
      </trkpt>
      <trkpt lat="45.90656" lon="4.75903">
        <ele>187</ele>
        <time>2017-08-26T10:12:36Z</time>
      </trkpt>
      <trkpt lat="45.90659" lon="4.75897">
        <ele>187</ele>
        <time>2017-08-26T10:12:37Z</time>
      </trkpt>
      <trkpt lat="45.90662" lon="4.75892">
        <ele>187</ele>
        <time>2017-08-26T10:12:38Z</time>
      </trkpt>
      <trkpt lat="45.90665" lon="4.75887">
        <ele>187</ele>
        <time>2017-08-26T10:12:39Z</time>
      </trkpt>
      <trkpt lat="45.90669" lon="4.75882">
        <ele>187</ele>
        <time>2017-08-26T10:12:40Z</time>
      </trkpt>
      <trkpt lat="45.90673" lon="4.75878">
        <ele>187</ele>
        <time>2017-08-26T10:12:41Z</time>
      </trkpt>
      <trkpt lat="45.90677" lon="4.75874">
        <ele>187</ele>
        <time>2017-08-26T10:12:42Z</time>
      </trkpt>
      <trkpt lat="45.90681" lon="4.7587">
        <ele>187</ele>
        <time>2017-08-26T10:12:43Z</time>
      </trkpt>
      <trkpt lat="45.90685" lon="4.75866">
        <ele>187</ele>
        <time>2017-08-26T10:12:44Z</time>
      </trkpt>
      <trkpt lat="45.90689" lon="4.75864">
        <ele>187</ele>
        <time>2017-08-26T10:12:45Z</time>
      </trkpt>
      <trkpt lat="45.90694" lon="4.75863">
        <ele>187</ele>
        <time>2017-08-26T10:12:46Z</time>
      </trkpt>
      <trkpt lat="45.90698" lon="4.75861">
        <ele>187</ele>
        <time>2017-08-26T10:12:47Z</time>
      </trkpt>
      <trkpt lat="45.90703" lon="4.7586">
        <ele>187</ele>
        <time>2017-08-26T10:12:48Z</time>
      </trkpt>
      <trkpt lat="45.90708" lon="4.75859">
        <ele>187</ele>
        <time>2017-08-26T10:12:49Z</time>
      </trkpt>
      <trkpt lat="45.90713" lon="4.75859">
        <ele>187</ele>
        <time>2017-08-26T10:12:50Z</time>
      </trkpt>
      <trkpt lat="45.90719" lon="4.75858">
        <ele>186</ele>
        <time>2017-08-26T10:12:51Z</time>
      </trkpt>
      <trkpt lat="45.90725" lon="4.75859">
        <ele>186</ele>
        <time>2017-08-26T10:12:52Z</time>
      </trkpt>
      <trkpt lat="45.9073" lon="4.75858">
        <ele>186</ele>
        <time>2017-08-26T10:12:53Z</time>
      </trkpt>
      <trkpt lat="45.90735" lon="4.75857">
        <ele>186</ele>
        <time>2017-08-26T10:12:54Z</time>
      </trkpt>
      <trkpt lat="45.9074" lon="4.75857">
        <ele>186</ele>
        <time>2017-08-26T10:12:55Z</time>
      </trkpt>
      <trkpt lat="45.90747" lon="4.75858">
        <ele>186</ele>
        <time>2017-08-26T10:12:56Z</time>
      </trkpt>
      <trkpt lat="45.90752" lon="4.75858">
        <ele>186</ele>
        <time>2017-08-26T10:12:57Z</time>
      </trkpt>
      <trkpt lat="45.90757" lon="4.75859">
        <ele>186</ele>
        <time>2017-08-26T10:12:58Z</time>
      </trkpt>
      <trkpt lat="45.90763" lon="4.75859">
        <ele>185</ele>
        <time>2017-08-26T10:12:59Z</time>
      </trkpt>
      <trkpt lat="45.90768" lon="4.75859">
        <ele>185</ele>
        <time>2017-08-26T10:13:00Z</time>
      </trkpt>
      <trkpt lat="45.90773" lon="4.7586">
        <ele>185</ele>
        <time>2017-08-26T10:13:01Z</time>
      </trkpt>
      <trkpt lat="45.90779" lon="4.75861">
        <ele>185</ele>
        <time>2017-08-26T10:13:02Z</time>
      </trkpt>
      <trkpt lat="45.90784" lon="4.75861">
        <ele>185</ele>
        <time>2017-08-26T10:13:03Z</time>
      </trkpt>
      <trkpt lat="45.90788" lon="4.75862">
        <ele>185</ele>
        <time>2017-08-26T10:13:04Z</time>
      </trkpt>
      <trkpt lat="45.90793" lon="4.75863">
        <ele>185</ele>
        <time>2017-08-26T10:13:05Z</time>
      </trkpt>
      <trkpt lat="45.90798" lon="4.75864">
        <ele>185</ele>
        <time>2017-08-26T10:13:06Z</time>
      </trkpt>
      <trkpt lat="45.90803" lon="4.75864">
        <ele>185</ele>
        <time>2017-08-26T10:13:07Z</time>
      </trkpt>
      <trkpt lat="45.90809" lon="4.75865">
        <ele>185</ele>
        <time>2017-08-26T10:13:08Z</time>
      </trkpt>
      <trkpt lat="45.90814" lon="4.75867">
        <ele>185</ele>
        <time>2017-08-26T10:13:09Z</time>
      </trkpt>
      <trkpt lat="45.9082" lon="4.75868">
        <ele>185</ele>
        <time>2017-08-26T10:13:10Z</time>
      </trkpt>
      <trkpt lat="45.90825" lon="4.75868">
        <ele>185</ele>
        <time>2017-08-26T10:13:11Z</time>
      </trkpt>
      <trkpt lat="45.9083" lon="4.75869">
        <ele>185</ele>
        <time>2017-08-26T10:13:12Z</time>
      </trkpt>
      <trkpt lat="45.90835" lon="4.75869">
        <ele>184</ele>
        <time>2017-08-26T10:13:13Z</time>
      </trkpt>
      <trkpt lat="45.9084" lon="4.75868">
        <ele>184</ele>
        <time>2017-08-26T10:13:14Z</time>
      </trkpt>
      <trkpt lat="45.90846" lon="4.7587">
        <ele>184</ele>
        <time>2017-08-26T10:13:15Z</time>
      </trkpt>
      <trkpt lat="45.90851" lon="4.75872">
        <ele>184</ele>
        <time>2017-08-26T10:13:16Z</time>
      </trkpt>
      <trkpt lat="45.90857" lon="4.75873">
        <ele>184</ele>
        <time>2017-08-26T10:13:17Z</time>
      </trkpt>
      <trkpt lat="45.90862" lon="4.75873">
        <ele>184</ele>
        <time>2017-08-26T10:13:18Z</time>
      </trkpt>
      <trkpt lat="45.90867" lon="4.75873">
        <ele>184</ele>
        <time>2017-08-26T10:13:19Z</time>
      </trkpt>
      <trkpt lat="45.90872" lon="4.75873">
        <ele>184</ele>
        <time>2017-08-26T10:13:20Z</time>
      </trkpt>
      <trkpt lat="45.90877" lon="4.75874">
        <ele>184</ele>
        <time>2017-08-26T10:13:21Z</time>
      </trkpt>
      <trkpt lat="45.90886" lon="4.75872">
        <ele>184</ele>
        <time>2017-08-26T10:13:23Z</time>
      </trkpt>
      <trkpt lat="45.90889" lon="4.75867">
        <ele>184</ele>
        <time>2017-08-26T10:13:24Z</time>
      </trkpt>
      <trkpt lat="45.90893" lon="4.75856">
        <ele>184</ele>
        <time>2017-08-26T10:13:26Z</time>
      </trkpt>
      <trkpt lat="45.90892" lon="4.7585">
        <ele>184</ele>
        <time>2017-08-26T10:13:27Z</time>
      </trkpt>
      <trkpt lat="45.90891" lon="4.75839">
        <ele>184</ele>
        <time>2017-08-26T10:13:29Z</time>
      </trkpt>
      <trkpt lat="45.90891" lon="4.75832">
        <ele>184</ele>
        <time>2017-08-26T10:13:30Z</time>
      </trkpt>
      <trkpt lat="45.90892" lon="4.7582">
        <ele>184</ele>
        <time>2017-08-26T10:13:32Z</time>
      </trkpt>
      <trkpt lat="45.90892" lon="4.75813">
        <ele>184</ele>
        <time>2017-08-26T10:13:33Z</time>
      </trkpt>
      <trkpt lat="45.90892" lon="4.75806">
        <ele>184</ele>
        <time>2017-08-26T10:13:34Z</time>
      </trkpt>
      <trkpt lat="45.90892" lon="4.75799">
        <ele>184</ele>
        <time>2017-08-26T10:13:35Z</time>
      </trkpt>
      <trkpt lat="45.90892" lon="4.75792">
        <ele>185</ele>
        <time>2017-08-26T10:13:36Z</time>
      </trkpt>
      <trkpt lat="45.90892" lon="4.75785">
        <ele>185</ele>
        <time>2017-08-26T10:13:37Z</time>
      </trkpt>
      <trkpt lat="45.90893" lon="4.75778">
        <ele>185</ele>
        <time>2017-08-26T10:13:38Z</time>
      </trkpt>
      <trkpt lat="45.90893" lon="4.7577">
        <ele>185</ele>
        <time>2017-08-26T10:13:39Z</time>
      </trkpt>
      <trkpt lat="45.90893" lon="4.75763">
        <ele>185</ele>
        <time>2017-08-26T10:13:40Z</time>
      </trkpt>
      <trkpt lat="45.90894" lon="4.75755">
        <ele>185</ele>
        <time>2017-08-26T10:13:41Z</time>
      </trkpt>
      <trkpt lat="45.90894" lon="4.75747">
        <ele>185</ele>
        <time>2017-08-26T10:13:42Z</time>
      </trkpt>
      <trkpt lat="45.90895" lon="4.75739">
        <ele>184</ele>
        <time>2017-08-26T10:13:43Z</time>
      </trkpt>
      <trkpt lat="45.90895" lon="4.75731">
        <ele>185</ele>
        <time>2017-08-26T10:13:44Z</time>
      </trkpt>
      <trkpt lat="45.90895" lon="4.75723">
        <ele>185</ele>
        <time>2017-08-26T10:13:45Z</time>
      </trkpt>
      <trkpt lat="45.90895" lon="4.75716">
        <ele>184</ele>
        <time>2017-08-26T10:13:46Z</time>
      </trkpt>
      <trkpt lat="45.90896" lon="4.75709">
        <ele>184</ele>
        <time>2017-08-26T10:13:47Z</time>
      </trkpt>
      <trkpt lat="45.90896" lon="4.75702">
        <ele>184</ele>
        <time>2017-08-26T10:13:48Z</time>
      </trkpt>
      <trkpt lat="45.90897" lon="4.75696">
        <ele>184</ele>
        <time>2017-08-26T10:13:49Z</time>
      </trkpt>
      <trkpt lat="45.90898" lon="4.75685">
        <ele>184</ele>
        <time>2017-08-26T10:13:51Z</time>
      </trkpt>
      <trkpt lat="45.90898" lon="4.75679">
        <ele>184</ele>
        <time>2017-08-26T10:13:52Z</time>
      </trkpt>
      <trkpt lat="45.90899" lon="4.75668">
        <ele>184</ele>
        <time>2017-08-26T10:13:54Z</time>
      </trkpt>
      <trkpt lat="45.90899" lon="4.75664">
        <ele>184</ele>
        <time>2017-08-26T10:13:55Z</time>
      </trkpt>
      <trkpt lat="45.90898" lon="4.75651">
        <ele>184</ele>
        <time>2017-08-26T10:13:58Z</time>
      </trkpt>
      <trkpt lat="45.90898" lon="4.75646">
        <ele>185</ele>
        <time>2017-08-26T10:13:59Z</time>
      </trkpt>
      <trkpt lat="45.90897" lon="4.75635">
        <ele>185</ele>
        <time>2017-08-26T10:14:01Z</time>
      </trkpt>
      <trkpt lat="45.90898" lon="4.7563">
        <ele>185</ele>
        <time>2017-08-26T10:14:02Z</time>
      </trkpt>
      <trkpt lat="45.90899" lon="4.75623">
        <ele>185</ele>
        <time>2017-08-26T10:14:03Z</time>
      </trkpt>
      <trkpt lat="45.909" lon="4.75617">
        <ele>185</ele>
        <time>2017-08-26T10:14:04Z</time>
      </trkpt>
      <trkpt lat="45.909" lon="4.7561">
        <ele>185</ele>
        <time>2017-08-26T10:14:05Z</time>
      </trkpt>
      <trkpt lat="45.909" lon="4.75604">
        <ele>185</ele>
        <time>2017-08-26T10:14:06Z</time>
      </trkpt>
      <trkpt lat="45.909" lon="4.75597">
        <ele>185</ele>
        <time>2017-08-26T10:14:07Z</time>
      </trkpt>
      <trkpt lat="45.90901" lon="4.75591">
        <ele>185</ele>
        <time>2017-08-26T10:14:08Z</time>
      </trkpt>
      <trkpt lat="45.90901" lon="4.75584">
        <ele>185</ele>
        <time>2017-08-26T10:14:09Z</time>
      </trkpt>
      <trkpt lat="45.90902" lon="4.75577">
        <ele>186</ele>
        <time>2017-08-26T10:14:10Z</time>
      </trkpt>
      <trkpt lat="45.90902" lon="4.75569">
        <ele>186</ele>
        <time>2017-08-26T10:14:11Z</time>
      </trkpt>
      <trkpt lat="45.90902" lon="4.75562">
        <ele>186</ele>
        <time>2017-08-26T10:14:12Z</time>
      </trkpt>
      <trkpt lat="45.90903" lon="4.7555">
        <ele>186</ele>
        <time>2017-08-26T10:14:14Z</time>
      </trkpt>
      <trkpt lat="45.90903" lon="4.75545">
        <ele>186</ele>
        <time>2017-08-26T10:14:15Z</time>
      </trkpt>
      <trkpt lat="45.90904" lon="4.75535">
        <ele>186</ele>
        <time>2017-08-26T10:14:17Z</time>
      </trkpt>
      <trkpt lat="45.90905" lon="4.75531">
        <ele>186</ele>
        <time>2017-08-26T10:14:18Z</time>
      </trkpt>
      <trkpt lat="45.90906" lon="4.75521">
        <ele>186</ele>
        <time>2017-08-26T10:14:20Z</time>
      </trkpt>
      <trkpt lat="45.90906" lon="4.75515">
        <ele>186</ele>
        <time>2017-08-26T10:14:21Z</time>
      </trkpt>
      <trkpt lat="45.90907" lon="4.75502">
        <ele>186</ele>
        <time>2017-08-26T10:14:23Z</time>
      </trkpt>
      <trkpt lat="45.90908" lon="4.75496">
        <ele>186</ele>
        <time>2017-08-26T10:14:24Z</time>
      </trkpt>
      <trkpt lat="45.9091" lon="4.75484">
        <ele>186</ele>
        <time>2017-08-26T10:14:26Z</time>
      </trkpt>
      <trkpt lat="45.9091" lon="4.75478">
        <ele>186</ele>
        <time>2017-08-26T10:14:27Z</time>
      </trkpt>
      <trkpt lat="45.90912" lon="4.75468">
        <ele>186</ele>
        <time>2017-08-26T10:14:29Z</time>
      </trkpt>
      <trkpt lat="45.90912" lon="4.75464">
        <ele>186</ele>
        <time>2017-08-26T10:14:30Z</time>
      </trkpt>
      <trkpt lat="45.90913" lon="4.75455">
        <ele>186</ele>
        <time>2017-08-26T10:14:32Z</time>
      </trkpt>
      <trkpt lat="45.90913" lon="4.7545">
        <ele>186</ele>
        <time>2017-08-26T10:14:33Z</time>
      </trkpt>
      <trkpt lat="45.90914" lon="4.75441">
        <ele>185</ele>
        <time>2017-08-26T10:14:35Z</time>
      </trkpt>
      <trkpt lat="45.90915" lon="4.75435">
        <ele>185</ele>
        <time>2017-08-26T10:14:36Z</time>
      </trkpt>
      <trkpt lat="45.90916" lon="4.75423">
        <ele>185</ele>
        <time>2017-08-26T10:14:38Z</time>
      </trkpt>
      <trkpt lat="45.90917" lon="4.75417">
        <ele>185</ele>
        <time>2017-08-26T10:14:39Z</time>
      </trkpt>
      <trkpt lat="45.90918" lon="4.75405">
        <ele>185</ele>
        <time>2017-08-26T10:14:41Z</time>
      </trkpt>
      <trkpt lat="45.90919" lon="4.75399">
        <ele>185</ele>
        <time>2017-08-26T10:14:42Z</time>
      </trkpt>
      <trkpt lat="45.9092" lon="4.75388">
        <ele>185</ele>
        <time>2017-08-26T10:14:44Z</time>
      </trkpt>
      <trkpt lat="45.90921" lon="4.75383">
        <ele>185</ele>
        <time>2017-08-26T10:14:45Z</time>
      </trkpt>
      <trkpt lat="45.90922" lon="4.75374">
        <ele>185</ele>
        <time>2017-08-26T10:14:47Z</time>
      </trkpt>
      <trkpt lat="45.90923" lon="4.75369">
        <ele>185</ele>
        <time>2017-08-26T10:14:48Z</time>
      </trkpt>
      <trkpt lat="45.90924" lon="4.75357">
        <ele>185</ele>
        <time>2017-08-26T10:14:50Z</time>
      </trkpt>
      <trkpt lat="45.90925" lon="4.7535">
        <ele>185</ele>
        <time>2017-08-26T10:14:51Z</time>
      </trkpt>
      <trkpt lat="45.90925" lon="4.75343">
        <ele>186</ele>
        <time>2017-08-26T10:14:52Z</time>
      </trkpt>
      <trkpt lat="45.90926" lon="4.75336">
        <ele>186</ele>
        <time>2017-08-26T10:14:53Z</time>
      </trkpt>
      <trkpt lat="45.90927" lon="4.75324">
        <ele>185</ele>
        <time>2017-08-26T10:14:55Z</time>
      </trkpt>
      <trkpt lat="45.90928" lon="4.75318">
        <ele>185</ele>
        <time>2017-08-26T10:14:56Z</time>
      </trkpt>
      <trkpt lat="45.9093" lon="4.75306">
        <ele>185</ele>
        <time>2017-08-26T10:14:58Z</time>
      </trkpt>
      <trkpt lat="45.9093" lon="4.753">
        <ele>185</ele>
        <time>2017-08-26T10:14:59Z</time>
      </trkpt>
      <trkpt lat="45.90932" lon="4.75288">
        <ele>185</ele>
        <time>2017-08-26T10:15:01Z</time>
      </trkpt>
      <trkpt lat="45.90933" lon="4.75282">
        <ele>185</ele>
        <time>2017-08-26T10:15:02Z</time>
      </trkpt>
      <trkpt lat="45.90934" lon="4.7527">
        <ele>185</ele>
        <time>2017-08-26T10:15:04Z</time>
      </trkpt>
      <trkpt lat="45.90934" lon="4.75264">
        <ele>185</ele>
        <time>2017-08-26T10:15:05Z</time>
      </trkpt>
      <trkpt lat="45.90936" lon="4.75253">
        <ele>185</ele>
        <time>2017-08-26T10:15:07Z</time>
      </trkpt>
      <trkpt lat="45.90937" lon="4.75247">
        <ele>184</ele>
        <time>2017-08-26T10:15:08Z</time>
      </trkpt>
      <trkpt lat="45.90938" lon="4.75236">
        <ele>184</ele>
        <time>2017-08-26T10:15:10Z</time>
      </trkpt>
      <trkpt lat="45.90938" lon="4.7523">
        <ele>184</ele>
        <time>2017-08-26T10:15:11Z</time>
      </trkpt>
      <trkpt lat="45.90939" lon="4.75219">
        <ele>184</ele>
        <time>2017-08-26T10:15:13Z</time>
      </trkpt>
      <trkpt lat="45.9094" lon="4.75213">
        <ele>184</ele>
        <time>2017-08-26T10:15:14Z</time>
      </trkpt>
      <trkpt lat="45.90941" lon="4.75201">
        <ele>183</ele>
        <time>2017-08-26T10:15:16Z</time>
      </trkpt>
      <trkpt lat="45.90942" lon="4.75194">
        <ele>183</ele>
        <time>2017-08-26T10:15:17Z</time>
      </trkpt>
      <trkpt lat="45.90943" lon="4.75182">
        <ele>183</ele>
        <time>2017-08-26T10:15:19Z</time>
      </trkpt>
      <trkpt lat="45.90944" lon="4.75176">
        <ele>183</ele>
        <time>2017-08-26T10:15:20Z</time>
      </trkpt>
      <trkpt lat="45.90945" lon="4.75164">
        <ele>182</ele>
        <time>2017-08-26T10:15:22Z</time>
      </trkpt>
      <trkpt lat="45.90945" lon="4.75159">
        <ele>182</ele>
        <time>2017-08-26T10:15:23Z</time>
      </trkpt>
      <trkpt lat="45.90947" lon="4.75147">
        <ele>182</ele>
        <time>2017-08-26T10:15:25Z</time>
      </trkpt>
      <trkpt lat="45.90948" lon="4.75141">
        <ele>182</ele>
        <time>2017-08-26T10:15:26Z</time>
      </trkpt>
      <trkpt lat="45.90949" lon="4.75128">
        <ele>181</ele>
        <time>2017-08-26T10:15:28Z</time>
      </trkpt>
      <trkpt lat="45.9095" lon="4.75122">
        <ele>181</ele>
        <time>2017-08-26T10:15:29Z</time>
      </trkpt>
      <trkpt lat="45.90951" lon="4.7511">
        <ele>181</ele>
        <time>2017-08-26T10:15:31Z</time>
      </trkpt>
      <trkpt lat="45.90952" lon="4.75103">
        <ele>181</ele>
        <time>2017-08-26T10:15:32Z</time>
      </trkpt>
      <trkpt lat="45.90954" lon="4.75091">
        <ele>181</ele>
        <time>2017-08-26T10:15:34Z</time>
      </trkpt>
      <trkpt lat="45.90954" lon="4.75085">
        <ele>181</ele>
        <time>2017-08-26T10:15:35Z</time>
      </trkpt>
      <trkpt lat="45.90956" lon="4.75073">
        <ele>179</ele>
        <time>2017-08-26T10:15:37Z</time>
      </trkpt>
      <trkpt lat="45.90956" lon="4.75067">
        <ele>179</ele>
        <time>2017-08-26T10:15:38Z</time>
      </trkpt>
      <trkpt lat="45.90958" lon="4.75056">
        <ele>179</ele>
        <time>2017-08-26T10:15:40Z</time>
      </trkpt>
      <trkpt lat="45.90959" lon="4.7505">
        <ele>179</ele>
        <time>2017-08-26T10:15:41Z</time>
      </trkpt>
      <trkpt lat="45.90961" lon="4.75039">
        <ele>179</ele>
        <time>2017-08-26T10:15:43Z</time>
      </trkpt>
      <trkpt lat="45.90964" lon="4.75036">
        <ele>179</ele>
        <time>2017-08-26T10:15:44Z</time>
      </trkpt>
      <trkpt lat="45.90972" lon="4.75036">
        <ele>179</ele>
        <time>2017-08-26T10:15:46Z</time>
      </trkpt>
      <trkpt lat="45.90976" lon="4.75038">
        <ele>179</ele>
        <time>2017-08-26T10:15:47Z</time>
      </trkpt>
      <trkpt lat="45.9098" lon="4.7504">
        <ele>179</ele>
        <time>2017-08-26T10:15:48Z</time>
      </trkpt>
      <trkpt lat="45.90985" lon="4.75042">
        <ele>179</ele>
        <time>2017-08-26T10:15:49Z</time>
      </trkpt>
      <trkpt lat="45.90991" lon="4.75044">
        <ele>179</ele>
        <time>2017-08-26T10:15:50Z</time>
      </trkpt>
      <trkpt lat="45.90996" lon="4.75046">
        <ele>179</ele>
        <time>2017-08-26T10:15:51Z</time>
      </trkpt>
      <trkpt lat="45.91001" lon="4.75049">
        <ele>178</ele>
        <time>2017-08-26T10:15:52Z</time>
      </trkpt>
      <trkpt lat="45.91006" lon="4.75051">
        <ele>178</ele>
        <time>2017-08-26T10:15:53Z</time>
      </trkpt>
      <trkpt lat="45.9101" lon="4.75053">
        <ele>179</ele>
        <time>2017-08-26T10:15:54Z</time>
      </trkpt>
      <trkpt lat="45.91015" lon="4.75054">
        <ele>179</ele>
        <time>2017-08-26T10:15:55Z</time>
      </trkpt>
      <trkpt lat="45.9102" lon="4.75056">
        <ele>179</ele>
        <time>2017-08-26T10:15:56Z</time>
      </trkpt>
      <trkpt lat="45.91024" lon="4.75058">
        <ele>179</ele>
        <time>2017-08-26T10:15:57Z</time>
      </trkpt>
      <trkpt lat="45.91029" lon="4.7506">
        <ele>179</ele>
        <time>2017-08-26T10:15:58Z</time>
      </trkpt>
      <trkpt lat="45.91033" lon="4.75062">
        <ele>179</ele>
        <time>2017-08-26T10:15:59Z</time>
      </trkpt>
      <trkpt lat="45.91041" lon="4.75066">
        <ele>179</ele>
        <time>2017-08-26T10:16:01Z</time>
      </trkpt>
      <trkpt lat="45.91046" lon="4.75067">
        <ele>179</ele>
        <time>2017-08-26T10:16:02Z</time>
      </trkpt>
      <trkpt lat="45.91054" lon="4.75069">
        <ele>179</ele>
        <time>2017-08-26T10:16:04Z</time>
      </trkpt>
      <trkpt lat="45.91058" lon="4.75071">
        <ele>179</ele>
        <time>2017-08-26T10:16:05Z</time>
      </trkpt>
      <trkpt lat="45.91062" lon="4.75073">
        <ele>179</ele>
        <time>2017-08-26T10:16:06Z</time>
      </trkpt>
      <trkpt lat="45.91067" lon="4.75076">
        <ele>179</ele>
        <time>2017-08-26T10:16:07Z</time>
      </trkpt>
      <trkpt lat="45.91072" lon="4.75078">
        <ele>179</ele>
        <time>2017-08-26T10:16:08Z</time>
      </trkpt>
      <trkpt lat="45.91077" lon="4.7508">
        <ele>180</ele>
        <time>2017-08-26T10:16:09Z</time>
      </trkpt>
      <trkpt lat="45.91082" lon="4.75082">
        <ele>180</ele>
        <time>2017-08-26T10:16:10Z</time>
      </trkpt>
      <trkpt lat="45.91087" lon="4.75084">
        <ele>180</ele>
        <time>2017-08-26T10:16:11Z</time>
      </trkpt>
      <trkpt lat="45.91092" lon="4.75086">
        <ele>180</ele>
        <time>2017-08-26T10:16:12Z</time>
      </trkpt>
      <trkpt lat="45.91097" lon="4.75088">
        <ele>180</ele>
        <time>2017-08-26T10:16:13Z</time>
      </trkpt>
      <trkpt lat="45.91102" lon="4.7509">
        <ele>180</ele>
        <time>2017-08-26T10:16:14Z</time>
      </trkpt>
      <trkpt lat="45.91107" lon="4.75091">
        <ele>180</ele>
        <time>2017-08-26T10:16:15Z</time>
      </trkpt>
      <trkpt lat="45.91112" lon="4.75093">
        <ele>179</ele>
        <time>2017-08-26T10:16:16Z</time>
      </trkpt>
      <trkpt lat="45.91117" lon="4.75095">
        <ele>179</ele>
        <time>2017-08-26T10:16:17Z</time>
      </trkpt>
      <trkpt lat="45.91123" lon="4.75098">
        <ele>179</ele>
        <time>2017-08-26T10:16:18Z</time>
      </trkpt>
      <trkpt lat="45.91129" lon="4.75101">
        <ele>179</ele>
        <time>2017-08-26T10:16:19Z</time>
      </trkpt>
      <trkpt lat="45.91134" lon="4.75104">
        <ele>179</ele>
        <time>2017-08-26T10:16:20Z</time>
      </trkpt>
      <trkpt lat="45.9114" lon="4.75106">
        <ele>179</ele>
        <time>2017-08-26T10:16:21Z</time>
      </trkpt>
      <trkpt lat="45.91146" lon="4.75109">
        <ele>179</ele>
        <time>2017-08-26T10:16:22Z</time>
      </trkpt>
      <trkpt lat="45.91152" lon="4.75111">
        <ele>179</ele>
        <time>2017-08-26T10:16:23Z</time>
      </trkpt>
      <trkpt lat="45.91157" lon="4.75112">
        <ele>179</ele>
        <time>2017-08-26T10:16:24Z</time>
      </trkpt>
      <trkpt lat="45.91163" lon="4.75114">
        <ele>179</ele>
        <time>2017-08-26T10:16:25Z</time>
      </trkpt>
      <trkpt lat="45.91168" lon="4.75115">
        <ele>178</ele>
        <time>2017-08-26T10:16:26Z</time>
      </trkpt>
      <trkpt lat="45.91174" lon="4.75116">
        <ele>178</ele>
        <time>2017-08-26T10:16:27Z</time>
      </trkpt>
      <trkpt lat="45.91179" lon="4.75117">
        <ele>178</ele>
        <time>2017-08-26T10:16:28Z</time>
      </trkpt>
      <trkpt lat="45.91184" lon="4.75119">
        <ele>178</ele>
        <time>2017-08-26T10:16:29Z</time>
      </trkpt>
      <trkpt lat="45.91189" lon="4.7512">
        <ele>178</ele>
        <time>2017-08-26T10:16:30Z</time>
      </trkpt>
      <trkpt lat="45.91194" lon="4.75121">
        <ele>178</ele>
        <time>2017-08-26T10:16:31Z</time>
      </trkpt>
      <trkpt lat="45.912" lon="4.75122">
        <ele>178</ele>
        <time>2017-08-26T10:16:32Z</time>
      </trkpt>
      <trkpt lat="45.91205" lon="4.75123">
        <ele>178</ele>
        <time>2017-08-26T10:16:33Z</time>
      </trkpt>
      <trkpt lat="45.91209" lon="4.75124">
        <ele>177</ele>
        <time>2017-08-26T10:16:34Z</time>
      </trkpt>
      <trkpt lat="45.91214" lon="4.75125">
        <ele>177</ele>
        <time>2017-08-26T10:16:35Z</time>
      </trkpt>
      <trkpt lat="45.91219" lon="4.75126">
        <ele>177</ele>
        <time>2017-08-26T10:16:36Z</time>
      </trkpt>
      <trkpt lat="45.91224" lon="4.75128">
        <ele>177</ele>
        <time>2017-08-26T10:16:37Z</time>
      </trkpt>
      <trkpt lat="45.9123" lon="4.7513">
        <ele>177</ele>
        <time>2017-08-26T10:16:38Z</time>
      </trkpt>
      <trkpt lat="45.91236" lon="4.75132">
        <ele>177</ele>
        <time>2017-08-26T10:16:39Z</time>
      </trkpt>
      <trkpt lat="45.91241" lon="4.75134">
        <ele>177</ele>
        <time>2017-08-26T10:16:40Z</time>
      </trkpt>
      <trkpt lat="45.91247" lon="4.75136">
        <ele>177</ele>
        <time>2017-08-26T10:16:41Z</time>
      </trkpt>
      <trkpt lat="45.91252" lon="4.7514">
        <ele>177</ele>
        <time>2017-08-26T10:16:42Z</time>
      </trkpt>
      <trkpt lat="45.91257" lon="4.75143">
        <ele>177</ele>
        <time>2017-08-26T10:16:43Z</time>
      </trkpt>
      <trkpt lat="45.91262" lon="4.75145">
        <ele>177</ele>
        <time>2017-08-26T10:16:44Z</time>
      </trkpt>
      <trkpt lat="45.91267" lon="4.75148">
        <ele>177</ele>
        <time>2017-08-26T10:16:45Z</time>
      </trkpt>
      <trkpt lat="45.91272" lon="4.7515">
        <ele>177</ele>
        <time>2017-08-26T10:16:46Z</time>
      </trkpt>
      <trkpt lat="45.91277" lon="4.75152">
        <ele>177</ele>
        <time>2017-08-26T10:16:47Z</time>
      </trkpt>
      <trkpt lat="45.91281" lon="4.75154">
        <ele>177</ele>
        <time>2017-08-26T10:16:48Z</time>
      </trkpt>
      <trkpt lat="45.91286" lon="4.75157">
        <ele>177</ele>
        <time>2017-08-26T10:16:49Z</time>
      </trkpt>
      <trkpt lat="45.91291" lon="4.75158">
        <ele>177</ele>
        <time>2017-08-26T10:16:50Z</time>
      </trkpt>
      <trkpt lat="45.91295" lon="4.75159">
        <ele>177</ele>
        <time>2017-08-26T10:16:51Z</time>
      </trkpt>
      <trkpt lat="45.91302" lon="4.75162">
        <ele>177</ele>
        <time>2017-08-26T10:16:53Z</time>
      </trkpt>
      <trkpt lat="45.91305" lon="4.75162">
        <ele>177</ele>
        <time>2017-08-26T10:16:54Z</time>
      </trkpt>
      <trkpt lat="45.9131" lon="4.75153">
        <ele>177</ele>
        <time>2017-08-26T10:16:57Z</time>
      </trkpt>
      <trkpt lat="45.9131" lon="4.75147">
        <ele>177</ele>
        <time>2017-08-26T10:16:58Z</time>
      </trkpt>
      <trkpt lat="45.91309" lon="4.75141">
        <ele>177</ele>
        <time>2017-08-26T10:16:59Z</time>
      </trkpt>
      <trkpt lat="45.91308" lon="4.75134">
        <ele>177</ele>
        <time>2017-08-26T10:17:00Z</time>
      </trkpt>
      <trkpt lat="45.91306" lon="4.75127">
        <ele>177</ele>
        <time>2017-08-26T10:17:01Z</time>
      </trkpt>
      <trkpt lat="45.91305" lon="4.7512">
        <ele>177</ele>
        <time>2017-08-26T10:17:02Z</time>
      </trkpt>
      <trkpt lat="45.91304" lon="4.75108">
        <ele>177</ele>
        <time>2017-08-26T10:17:04Z</time>
      </trkpt>
      <trkpt lat="45.91304" lon="4.75102">
        <ele>177</ele>
        <time>2017-08-26T10:17:05Z</time>
      </trkpt>
      <trkpt lat="45.91304" lon="4.75095">
        <ele>177</ele>
        <time>2017-08-26T10:17:06Z</time>
      </trkpt>
      <trkpt lat="45.91303" lon="4.75088">
        <ele>177</ele>
        <time>2017-08-26T10:17:07Z</time>
      </trkpt>
      <trkpt lat="45.91303" lon="4.75081">
        <ele>177</ele>
        <time>2017-08-26T10:17:08Z</time>
      </trkpt>
      <trkpt lat="45.91302" lon="4.75073">
        <ele>177</ele>
        <time>2017-08-26T10:17:09Z</time>
      </trkpt>
      <trkpt lat="45.91302" lon="4.75066">
        <ele>177</ele>
        <time>2017-08-26T10:17:10Z</time>
      </trkpt>
      <trkpt lat="45.91301" lon="4.75059">
        <ele>177</ele>
        <time>2017-08-26T10:17:11Z</time>
      </trkpt>
      <trkpt lat="45.913" lon="4.75052">
        <ele>177</ele>
        <time>2017-08-26T10:17:12Z</time>
      </trkpt>
      <trkpt lat="45.913" lon="4.75045">
        <ele>177</ele>
        <time>2017-08-26T10:17:13Z</time>
      </trkpt>
      <trkpt lat="45.913" lon="4.75033">
        <ele>177</ele>
        <time>2017-08-26T10:17:15Z</time>
      </trkpt>
      <trkpt lat="45.913" lon="4.75027">
        <ele>177</ele>
        <time>2017-08-26T10:17:16Z</time>
      </trkpt>
      <trkpt lat="45.913" lon="4.75016">
        <ele>177</ele>
        <time>2017-08-26T10:17:18Z</time>
      </trkpt>
      <trkpt lat="45.913" lon="4.7501">
        <ele>177</ele>
        <time>2017-08-26T10:17:19Z</time>
      </trkpt>
      <trkpt lat="45.913" lon="4.74999">
        <ele>177</ele>
        <time>2017-08-26T10:17:21Z</time>
      </trkpt>
      <trkpt lat="45.913" lon="4.74993">
        <ele>177</ele>
        <time>2017-08-26T10:17:22Z</time>
      </trkpt>
      <trkpt lat="45.91302" lon="4.7498">
        <ele>177</ele>
        <time>2017-08-26T10:17:24Z</time>
      </trkpt>
      <trkpt lat="45.91302" lon="4.74973">
        <ele>177</ele>
        <time>2017-08-26T10:17:25Z</time>
      </trkpt>
      <trkpt lat="45.91302" lon="4.74966">
        <ele>177</ele>
        <time>2017-08-26T10:17:26Z</time>
      </trkpt>
      <trkpt lat="45.91303" lon="4.74959">
        <ele>177</ele>
        <time>2017-08-26T10:17:27Z</time>
      </trkpt>
      <trkpt lat="45.91304" lon="4.74952">
        <ele>177</ele>
        <time>2017-08-26T10:17:28Z</time>
      </trkpt>
      <trkpt lat="45.91305" lon="4.74945">
        <ele>177</ele>
        <time>2017-08-26T10:17:29Z</time>
      </trkpt>
      <trkpt lat="45.91307" lon="4.74932">
        <ele>177</ele>
        <time>2017-08-26T10:17:31Z</time>
      </trkpt>
      <trkpt lat="45.91308" lon="4.74927">
        <ele>177</ele>
        <time>2017-08-26T10:17:32Z</time>
      </trkpt>
      <trkpt lat="45.91309" lon="4.74914">
        <ele>176</ele>
        <time>2017-08-26T10:17:34Z</time>
      </trkpt>
      <trkpt lat="45.91309" lon="4.74908">
        <ele>176</ele>
        <time>2017-08-26T10:17:35Z</time>
      </trkpt>
      <trkpt lat="45.91309" lon="4.74896">
        <ele>176</ele>
        <time>2017-08-26T10:17:37Z</time>
      </trkpt>
      <trkpt lat="45.9131" lon="4.74891">
        <ele>176</ele>
        <time>2017-08-26T10:17:38Z</time>
      </trkpt>
      <trkpt lat="45.91315" lon="4.74884">
        <ele>176</ele>
        <time>2017-08-26T10:17:40Z</time>
      </trkpt>
      <trkpt lat="45.91319" lon="4.74882">
        <ele>176</ele>
        <time>2017-08-26T10:17:41Z</time>
      </trkpt>
      <trkpt lat="45.91323" lon="4.74882">
        <ele>176</ele>
        <time>2017-08-26T10:17:42Z</time>
      </trkpt>
      <trkpt lat="45.91328" lon="4.74883">
        <ele>176</ele>
        <time>2017-08-26T10:17:43Z</time>
      </trkpt>
      <trkpt lat="45.91333" lon="4.74885">
        <ele>176</ele>
        <time>2017-08-26T10:17:44Z</time>
      </trkpt>
      <trkpt lat="45.91338" lon="4.74886">
        <ele>176</ele>
        <time>2017-08-26T10:17:45Z</time>
      </trkpt>
      <trkpt lat="45.91343" lon="4.74887">
        <ele>176</ele>
        <time>2017-08-26T10:17:46Z</time>
      </trkpt>
      <trkpt lat="45.91348" lon="4.74889">
        <ele>176</ele>
        <time>2017-08-26T10:17:47Z</time>
      </trkpt>
      <trkpt lat="45.91353" lon="4.7489">
        <ele>176</ele>
        <time>2017-08-26T10:17:48Z</time>
      </trkpt>
      <trkpt lat="45.91358" lon="4.74892">
        <ele>176</ele>
        <time>2017-08-26T10:17:49Z</time>
      </trkpt>
      <trkpt lat="45.91363" lon="4.74893">
        <ele>176</ele>
        <time>2017-08-26T10:17:50Z</time>
      </trkpt>
      <trkpt lat="45.91367" lon="4.74895">
        <ele>176</ele>
        <time>2017-08-26T10:17:51Z</time>
      </trkpt>
      <trkpt lat="45.91376" lon="4.74898">
        <ele>177</ele>
        <time>2017-08-26T10:17:53Z</time>
      </trkpt>
      <trkpt lat="45.9138" lon="4.74899">
        <ele>177</ele>
        <time>2017-08-26T10:17:54Z</time>
      </trkpt>
      <trkpt lat="45.91385" lon="4.74901">
        <ele>177</ele>
        <time>2017-08-26T10:17:55Z</time>
      </trkpt>
      <trkpt lat="45.9139" lon="4.74903">
        <ele>177</ele>
        <time>2017-08-26T10:17:56Z</time>
      </trkpt>
      <trkpt lat="45.91396" lon="4.74904">
        <ele>177</ele>
        <time>2017-08-26T10:17:57Z</time>
      </trkpt>
      <trkpt lat="45.91401" lon="4.74906">
        <ele>177</ele>
        <time>2017-08-26T10:17:58Z</time>
      </trkpt>
      <trkpt lat="45.91406" lon="4.74907">
        <ele>177</ele>
        <time>2017-08-26T10:17:59Z</time>
      </trkpt>
      <trkpt lat="45.91411" lon="4.74908">
        <ele>177</ele>
        <time>2017-08-26T10:18:00Z</time>
      </trkpt>
      <trkpt lat="45.91416" lon="4.74909">
        <ele>178</ele>
        <time>2017-08-26T10:18:01Z</time>
      </trkpt>
      <trkpt lat="45.91421" lon="4.74909">
        <ele>177</ele>
        <time>2017-08-26T10:18:02Z</time>
      </trkpt>
      <trkpt lat="45.91426" lon="4.74911">
        <ele>177</ele>
        <time>2017-08-26T10:18:03Z</time>
      </trkpt>
      <trkpt lat="45.91431" lon="4.74912">
        <ele>177</ele>
        <time>2017-08-26T10:18:04Z</time>
      </trkpt>
      <trkpt lat="45.91436" lon="4.74914">
        <ele>177</ele>
        <time>2017-08-26T10:18:05Z</time>
      </trkpt>
      <trkpt lat="45.9144" lon="4.74915">
        <ele>177</ele>
        <time>2017-08-26T10:18:06Z</time>
      </trkpt>
      <trkpt lat="45.91449" lon="4.74918">
        <ele>178</ele>
        <time>2017-08-26T10:18:08Z</time>
      </trkpt>
      <trkpt lat="45.91452" lon="4.7492">
        <ele>178</ele>
        <time>2017-08-26T10:18:09Z</time>
      </trkpt>
      <trkpt lat="45.9146" lon="4.74922">
        <ele>178</ele>
        <time>2017-08-26T10:18:11Z</time>
      </trkpt>
      <trkpt lat="45.91464" lon="4.74923">
        <ele>178</ele>
        <time>2017-08-26T10:18:12Z</time>
      </trkpt>
      <trkpt lat="45.91472" lon="4.74925">
        <ele>178</ele>
        <time>2017-08-26T10:18:14Z</time>
      </trkpt>
      <trkpt lat="45.91476" lon="4.74927">
        <ele>178</ele>
        <time>2017-08-26T10:18:15Z</time>
      </trkpt>
      <trkpt lat="45.91481" lon="4.74928">
        <ele>178</ele>
        <time>2017-08-26T10:18:16Z</time>
      </trkpt>
      <trkpt lat="45.91486" lon="4.7493">
        <ele>178</ele>
        <time>2017-08-26T10:18:17Z</time>
      </trkpt>
      <trkpt lat="45.91491" lon="4.74932">
        <ele>178</ele>
        <time>2017-08-26T10:18:18Z</time>
      </trkpt>
      <trkpt lat="45.91496" lon="4.74935">
        <ele>178</ele>
        <time>2017-08-26T10:18:19Z</time>
      </trkpt>
      <trkpt lat="45.91503" lon="4.74935">
        <ele>177</ele>
        <time>2017-08-26T10:18:20Z</time>
      </trkpt>
      <trkpt lat="45.91509" lon="4.74936">
        <ele>177</ele>
        <time>2017-08-26T10:18:21Z</time>
      </trkpt>
      <trkpt lat="45.91514" lon="4.74936">
        <ele>177</ele>
        <time>2017-08-26T10:18:22Z</time>
      </trkpt>
      <trkpt lat="45.91519" lon="4.74937">
        <ele>177</ele>
        <time>2017-08-26T10:18:23Z</time>
      </trkpt>
      <trkpt lat="45.91526" lon="4.74938">
        <ele>178</ele>
        <time>2017-08-26T10:18:25Z</time>
      </trkpt>
      <trkpt lat="45.91529" lon="4.7494">
        <ele>178</ele>
        <time>2017-08-26T10:18:26Z</time>
      </trkpt>
      <trkpt lat="45.91534" lon="4.7494">
        <ele>178</ele>
        <time>2017-08-26T10:18:27Z</time>
      </trkpt>
      <trkpt lat="45.91539" lon="4.74939">
        <ele>178</ele>
        <time>2017-08-26T10:18:28Z</time>
      </trkpt>
      <trkpt lat="45.91544" lon="4.74938">
        <ele>178</ele>
        <time>2017-08-26T10:18:29Z</time>
      </trkpt>
      <trkpt lat="45.91549" lon="4.74936">
        <ele>178</ele>
        <time>2017-08-26T10:18:30Z</time>
      </trkpt>
      <trkpt lat="45.91554" lon="4.74935">
        <ele>178</ele>
        <time>2017-08-26T10:18:31Z</time>
      </trkpt>
      <trkpt lat="45.91559" lon="4.74935">
        <ele>178</ele>
        <time>2017-08-26T10:18:32Z</time>
      </trkpt>
      <trkpt lat="45.91565" lon="4.74936">
        <ele>178</ele>
        <time>2017-08-26T10:18:33Z</time>
      </trkpt>
      <trkpt lat="45.9157" lon="4.74937">
        <ele>178</ele>
        <time>2017-08-26T10:18:34Z</time>
      </trkpt>
      <trkpt lat="45.91578" lon="4.74939">
        <ele>178</ele>
        <time>2017-08-26T10:18:36Z</time>
      </trkpt>
      <trkpt lat="45.91582" lon="4.74941">
        <ele>178</ele>
        <time>2017-08-26T10:18:37Z</time>
      </trkpt>
      <trkpt lat="45.91589" lon="4.74946">
        <ele>177</ele>
        <time>2017-08-26T10:18:39Z</time>
      </trkpt>
      <trkpt lat="45.91593" lon="4.74947">
        <ele>177</ele>
        <time>2017-08-26T10:18:40Z</time>
      </trkpt>
      <trkpt lat="45.91601" lon="4.74951">
        <ele>177</ele>
        <time>2017-08-26T10:18:42Z</time>
      </trkpt>
      <trkpt lat="45.91605" lon="4.74953">
        <ele>177</ele>
        <time>2017-08-26T10:18:43Z</time>
      </trkpt>
      <trkpt lat="45.91613" lon="4.74958">
        <ele>177</ele>
        <time>2017-08-26T10:18:45Z</time>
      </trkpt>
      <trkpt lat="45.91617" lon="4.7496">
        <ele>177</ele>
        <time>2017-08-26T10:18:46Z</time>
      </trkpt>
      <trkpt lat="45.91625" lon="4.74963">
        <ele>177</ele>
        <time>2017-08-26T10:18:48Z</time>
      </trkpt>
      <trkpt lat="45.91629" lon="4.74965">
        <ele>177</ele>
        <time>2017-08-26T10:18:49Z</time>
      </trkpt>
      <trkpt lat="45.91633" lon="4.74968">
        <ele>176</ele>
        <time>2017-08-26T10:18:50Z</time>
      </trkpt>
      <trkpt lat="45.91638" lon="4.7497">
        <ele>176</ele>
        <time>2017-08-26T10:18:51Z</time>
      </trkpt>
      <trkpt lat="45.91642" lon="4.74972">
        <ele>176</ele>
        <time>2017-08-26T10:18:52Z</time>
      </trkpt>
      <trkpt lat="45.91647" lon="4.74975">
        <ele>176</ele>
        <time>2017-08-26T10:18:53Z</time>
      </trkpt>
      <trkpt lat="45.91652" lon="4.74977">
        <ele>176</ele>
        <time>2017-08-26T10:18:54Z</time>
      </trkpt>
      <trkpt lat="45.91657" lon="4.74979">
        <ele>176</ele>
        <time>2017-08-26T10:18:55Z</time>
      </trkpt>
      <trkpt lat="45.91661" lon="4.74981">
        <ele>176</ele>
        <time>2017-08-26T10:18:56Z</time>
      </trkpt>
      <trkpt lat="45.91665" lon="4.74983">
        <ele>176</ele>
        <time>2017-08-26T10:18:57Z</time>
      </trkpt>
      <trkpt lat="45.91674" lon="4.74987">
        <ele>175</ele>
        <time>2017-08-26T10:18:59Z</time>
      </trkpt>
      <trkpt lat="45.91677" lon="4.74988">
        <ele>175</ele>
        <time>2017-08-26T10:19:00Z</time>
      </trkpt>
      <trkpt lat="45.91685" lon="4.74991">
        <ele>175</ele>
        <time>2017-08-26T10:19:02Z</time>
      </trkpt>
      <trkpt lat="45.91689" lon="4.74991">
        <ele>175</ele>
        <time>2017-08-26T10:19:03Z</time>
      </trkpt>
      <trkpt lat="45.91694" lon="4.74991">
        <ele>175</ele>
        <time>2017-08-26T10:19:04Z</time>
      </trkpt>
      <trkpt lat="45.91699" lon="4.7499">
        <ele>175</ele>
        <time>2017-08-26T10:19:05Z</time>
      </trkpt>
      <trkpt lat="45.91704" lon="4.74988">
        <ele>175</ele>
        <time>2017-08-26T10:19:06Z</time>
      </trkpt>
      <trkpt lat="45.91709" lon="4.74985">
        <ele>175</ele>
        <time>2017-08-26T10:19:07Z</time>
      </trkpt>
      <trkpt lat="45.91713" lon="4.74982">
        <ele>175</ele>
        <time>2017-08-26T10:19:08Z</time>
      </trkpt>
      <trkpt lat="45.91717" lon="4.74979">
        <ele>175</ele>
        <time>2017-08-26T10:19:09Z</time>
      </trkpt>
      <trkpt lat="45.91722" lon="4.74975">
        <ele>175</ele>
        <time>2017-08-26T10:19:10Z</time>
      </trkpt>
      <trkpt lat="45.91726" lon="4.74971">
        <ele>175</ele>
        <time>2017-08-26T10:19:11Z</time>
      </trkpt>
      <trkpt lat="45.9173" lon="4.74967">
        <ele>175</ele>
        <time>2017-08-26T10:19:12Z</time>
      </trkpt>
      <trkpt lat="45.91735" lon="4.74963">
        <ele>175</ele>
        <time>2017-08-26T10:19:13Z</time>
      </trkpt>
      <trkpt lat="45.91739" lon="4.74958">
        <ele>175</ele>
        <time>2017-08-26T10:19:14Z</time>
      </trkpt>
      <trkpt lat="45.91743" lon="4.74954">
        <ele>175</ele>
        <time>2017-08-26T10:19:15Z</time>
      </trkpt>
      <trkpt lat="45.91748" lon="4.7495">
        <ele>174</ele>
        <time>2017-08-26T10:19:16Z</time>
      </trkpt>
      <trkpt lat="45.91752" lon="4.74944">
        <ele>174</ele>
        <time>2017-08-26T10:19:17Z</time>
      </trkpt>
      <trkpt lat="45.91757" lon="4.74939">
        <ele>174</ele>
        <time>2017-08-26T10:19:18Z</time>
      </trkpt>
      <trkpt lat="45.91761" lon="4.74933">
        <ele>174</ele>
        <time>2017-08-26T10:19:19Z</time>
      </trkpt>
      <trkpt lat="45.91766" lon="4.74927">
        <ele>174</ele>
        <time>2017-08-26T10:19:20Z</time>
      </trkpt>
      <trkpt lat="45.9177" lon="4.7492">
        <ele>174</ele>
        <time>2017-08-26T10:19:21Z</time>
      </trkpt>
      <trkpt lat="45.91774" lon="4.74913">
        <ele>173</ele>
        <time>2017-08-26T10:19:22Z</time>
      </trkpt>
      <trkpt lat="45.91778" lon="4.74905">
        <ele>173</ele>
        <time>2017-08-26T10:19:23Z</time>
      </trkpt>
      <trkpt lat="45.91783" lon="4.74897">
        <ele>173</ele>
        <time>2017-08-26T10:19:24Z</time>
      </trkpt>
      <trkpt lat="45.91787" lon="4.74889">
        <ele>173</ele>
        <time>2017-08-26T10:19:25Z</time>
      </trkpt>
      <trkpt lat="45.91791" lon="4.7488">
        <ele>173</ele>
        <time>2017-08-26T10:19:26Z</time>
      </trkpt>
      <trkpt lat="45.91795" lon="4.74872">
        <ele>173</ele>
        <time>2017-08-26T10:19:27Z</time>
      </trkpt>
      <trkpt lat="45.91798" lon="4.74863">
        <ele>173</ele>
        <time>2017-08-26T10:19:28Z</time>
      </trkpt>
      <trkpt lat="45.91802" lon="4.74854">
        <ele>173</ele>
        <time>2017-08-26T10:19:29Z</time>
      </trkpt>
      <trkpt lat="45.91806" lon="4.74846">
        <ele>172</ele>
        <time>2017-08-26T10:19:30Z</time>
      </trkpt>
      <trkpt lat="45.9181" lon="4.74838">
        <ele>172</ele>
        <time>2017-08-26T10:19:31Z</time>
      </trkpt>
      <trkpt lat="45.91815" lon="4.74831">
        <ele>172</ele>
        <time>2017-08-26T10:19:32Z</time>
      </trkpt>
      <trkpt lat="45.91819" lon="4.74823">
        <ele>172</ele>
        <time>2017-08-26T10:19:33Z</time>
      </trkpt>
      <trkpt lat="45.91824" lon="4.74816">
        <ele>172</ele>
        <time>2017-08-26T10:19:34Z</time>
      </trkpt>
      <trkpt lat="45.91828" lon="4.74809">
        <ele>172</ele>
        <time>2017-08-26T10:19:35Z</time>
      </trkpt>
      <trkpt lat="45.91833" lon="4.74803">
        <ele>172</ele>
        <time>2017-08-26T10:19:36Z</time>
      </trkpt>
      <trkpt lat="45.91837" lon="4.74797">
        <ele>172</ele>
        <time>2017-08-26T10:19:37Z</time>
      </trkpt>
      <trkpt lat="45.91841" lon="4.74792">
        <ele>171</ele>
        <time>2017-08-26T10:19:38Z</time>
      </trkpt>
      <trkpt lat="45.91845" lon="4.74786">
        <ele>171</ele>
        <time>2017-08-26T10:19:39Z</time>
      </trkpt>
      <trkpt lat="45.9185" lon="4.74781">
        <ele>171</ele>
        <time>2017-08-26T10:19:40Z</time>
      </trkpt>
      <trkpt lat="45.91854" lon="4.74776">
        <ele>171</ele>
        <time>2017-08-26T10:19:41Z</time>
      </trkpt>
      <trkpt lat="45.91858" lon="4.74771">
        <ele>171</ele>
        <time>2017-08-26T10:19:42Z</time>
      </trkpt>
      <trkpt lat="45.91862" lon="4.74767">
        <ele>171</ele>
        <time>2017-08-26T10:19:43Z</time>
      </trkpt>
      <trkpt lat="45.91871" lon="4.74764">
        <ele>171</ele>
        <time>2017-08-26T10:19:45Z</time>
      </trkpt>
      <trkpt lat="45.91875" lon="4.74766">
        <ele>172</ele>
        <time>2017-08-26T10:19:46Z</time>
      </trkpt>
      <trkpt lat="45.9188" lon="4.74769">
        <ele>172</ele>
        <time>2017-08-26T10:19:47Z</time>
      </trkpt>
      <trkpt lat="45.91885" lon="4.74772">
        <ele>172</ele>
        <time>2017-08-26T10:19:48Z</time>
      </trkpt>
      <trkpt lat="45.9189" lon="4.74775">
        <ele>172</ele>
        <time>2017-08-26T10:19:49Z</time>
      </trkpt>
      <trkpt lat="45.91895" lon="4.74778">
        <ele>172</ele>
        <time>2017-08-26T10:19:50Z</time>
      </trkpt>
      <trkpt lat="45.919" lon="4.74781">
        <ele>172</ele>
        <time>2017-08-26T10:19:51Z</time>
      </trkpt>
      <trkpt lat="45.91905" lon="4.74783">
        <ele>172</ele>
        <time>2017-08-26T10:19:52Z</time>
      </trkpt>
      <trkpt lat="45.91909" lon="4.74786">
        <ele>172</ele>
        <time>2017-08-26T10:19:53Z</time>
      </trkpt>
      <trkpt lat="45.91914" lon="4.74788">
        <ele>172</ele>
        <time>2017-08-26T10:19:54Z</time>
      </trkpt>
      <trkpt lat="45.91922" lon="4.74792">
        <ele>171</ele>
        <time>2017-08-26T10:19:56Z</time>
      </trkpt>
      <trkpt lat="45.91926" lon="4.74795">
        <ele>170</ele>
        <time>2017-08-26T10:19:57Z</time>
      </trkpt>
      <trkpt lat="45.91934" lon="4.74799">
        <ele>170</ele>
        <time>2017-08-26T10:19:59Z</time>
      </trkpt>
      <trkpt lat="45.91938" lon="4.74802">
        <ele>170</ele>
        <time>2017-08-26T10:20:00Z</time>
      </trkpt>
      <trkpt lat="45.91943" lon="4.74804">
        <ele>170</ele>
        <time>2017-08-26T10:20:01Z</time>
      </trkpt>
      <trkpt lat="45.91948" lon="4.74806">
        <ele>170</ele>
        <time>2017-08-26T10:20:02Z</time>
      </trkpt>
      <trkpt lat="45.91953" lon="4.74809">
        <ele>170</ele>
        <time>2017-08-26T10:20:03Z</time>
      </trkpt>
      <trkpt lat="45.91958" lon="4.74812">
        <ele>170</ele>
        <time>2017-08-26T10:20:04Z</time>
      </trkpt>
      <trkpt lat="45.91963" lon="4.74814">
        <ele>170</ele>
        <time>2017-08-26T10:20:05Z</time>
      </trkpt>
      <trkpt lat="45.91968" lon="4.74817">
        <ele>170</ele>
        <time>2017-08-26T10:20:06Z</time>
      </trkpt>
      <trkpt lat="45.91973" lon="4.7482">
        <ele>169</ele>
        <time>2017-08-26T10:20:07Z</time>
      </trkpt>
      <trkpt lat="45.91978" lon="4.74822">
        <ele>169</ele>
        <time>2017-08-26T10:20:08Z</time>
      </trkpt>
      <trkpt lat="45.91983" lon="4.74825">
        <ele>169</ele>
        <time>2017-08-26T10:20:09Z</time>
      </trkpt>
      <trkpt lat="45.91987" lon="4.74829">
        <ele>169</ele>
        <time>2017-08-26T10:20:10Z</time>
      </trkpt>
      <trkpt lat="45.91992" lon="4.74831">
        <ele>169</ele>
        <time>2017-08-26T10:20:11Z</time>
      </trkpt>
      <trkpt lat="45.91996" lon="4.74834">
        <ele>168</ele>
        <time>2017-08-26T10:20:12Z</time>
      </trkpt>
      <trkpt lat="45.92001" lon="4.74837">
        <ele>168</ele>
        <time>2017-08-26T10:20:13Z</time>
      </trkpt>
      <trkpt lat="45.92007" lon="4.74839">
        <ele>168</ele>
        <time>2017-08-26T10:20:14Z</time>
      </trkpt>
      <trkpt lat="45.92012" lon="4.74842">
        <ele>168</ele>
        <time>2017-08-26T10:20:15Z</time>
      </trkpt>
      <trkpt lat="45.92018" lon="4.74845">
        <ele>169</ele>
        <time>2017-08-26T10:20:16Z</time>
      </trkpt>
      <trkpt lat="45.92023" lon="4.74848">
        <ele>169</ele>
        <time>2017-08-26T10:20:17Z</time>
      </trkpt>
      <trkpt lat="45.92028" lon="4.74851">
        <ele>169</ele>
        <time>2017-08-26T10:20:18Z</time>
      </trkpt>
      <trkpt lat="45.92033" lon="4.74854">
        <ele>169</ele>
        <time>2017-08-26T10:20:19Z</time>
      </trkpt>
      <trkpt lat="45.92037" lon="4.74856">
        <ele>169</ele>
        <time>2017-08-26T10:20:20Z</time>
      </trkpt>
      <trkpt lat="45.92042" lon="4.74859">
        <ele>169</ele>
        <time>2017-08-26T10:20:21Z</time>
      </trkpt>
      <trkpt lat="45.92046" lon="4.74861">
        <ele>169</ele>
        <time>2017-08-26T10:20:22Z</time>
      </trkpt>
      <trkpt lat="45.92051" lon="4.74863">
        <ele>169</ele>
        <time>2017-08-26T10:20:23Z</time>
      </trkpt>
      <trkpt lat="45.92055" lon="4.74866">
        <ele>169</ele>
        <time>2017-08-26T10:20:24Z</time>
      </trkpt>
      <trkpt lat="45.9206" lon="4.74868">
        <ele>169</ele>
        <time>2017-08-26T10:20:25Z</time>
      </trkpt>
      <trkpt lat="45.92064" lon="4.74871">
        <ele>169</ele>
        <time>2017-08-26T10:20:26Z</time>
      </trkpt>
      <trkpt lat="45.92069" lon="4.74873">
        <ele>169</ele>
        <time>2017-08-26T10:20:27Z</time>
      </trkpt>
      <trkpt lat="45.92074" lon="4.74875">
        <ele>169</ele>
        <time>2017-08-26T10:20:28Z</time>
      </trkpt>
      <trkpt lat="45.92079" lon="4.74878">
        <ele>169</ele>
        <time>2017-08-26T10:20:29Z</time>
      </trkpt>
      <trkpt lat="45.92083" lon="4.7488">
        <ele>169</ele>
        <time>2017-08-26T10:20:30Z</time>
      </trkpt>
      <trkpt lat="45.92087" lon="4.74883">
        <ele>170</ele>
        <time>2017-08-26T10:20:31Z</time>
      </trkpt>
      <trkpt lat="45.92092" lon="4.74886">
        <ele>170</ele>
        <time>2017-08-26T10:20:32Z</time>
      </trkpt>
      <trkpt lat="45.92096" lon="4.74889">
        <ele>170</ele>
        <time>2017-08-26T10:20:33Z</time>
      </trkpt>
      <trkpt lat="45.921" lon="4.74891">
        <ele>170</ele>
        <time>2017-08-26T10:20:34Z</time>
      </trkpt>
      <trkpt lat="45.92105" lon="4.74894">
        <ele>170</ele>
        <time>2017-08-26T10:20:35Z</time>
      </trkpt>
      <trkpt lat="45.9211" lon="4.74897">
        <ele>170</ele>
        <time>2017-08-26T10:20:36Z</time>
      </trkpt>
      <trkpt lat="45.92115" lon="4.749">
        <ele>170</ele>
        <time>2017-08-26T10:20:37Z</time>
      </trkpt>
      <trkpt lat="45.9212" lon="4.74903">
        <ele>170</ele>
        <time>2017-08-26T10:20:38Z</time>
      </trkpt>
      <trkpt lat="45.92124" lon="4.74905">
        <ele>170</ele>
        <time>2017-08-26T10:20:39Z</time>
      </trkpt>
      <trkpt lat="45.92129" lon="4.74908">
        <ele>170</ele>
        <time>2017-08-26T10:20:40Z</time>
      </trkpt>
      <trkpt lat="45.92137" lon="4.74913">
        <ele>170</ele>
        <time>2017-08-26T10:20:42Z</time>
      </trkpt>
      <trkpt lat="45.92141" lon="4.74915">
        <ele>170</ele>
        <time>2017-08-26T10:20:43Z</time>
      </trkpt>
      <trkpt lat="45.92146" lon="4.74917">
        <ele>170</ele>
        <time>2017-08-26T10:20:44Z</time>
      </trkpt>
      <trkpt lat="45.92151" lon="4.74919">
        <ele>170</ele>
        <time>2017-08-26T10:20:45Z</time>
      </trkpt>
      <trkpt lat="45.92157" lon="4.74922">
        <ele>170</ele>
        <time>2017-08-26T10:20:46Z</time>
      </trkpt>
      <trkpt lat="45.92162" lon="4.74926">
        <ele>170</ele>
        <time>2017-08-26T10:20:47Z</time>
      </trkpt>
      <trkpt lat="45.92166" lon="4.74928">
        <ele>170</ele>
        <time>2017-08-26T10:20:48Z</time>
      </trkpt>
      <trkpt lat="45.92172" lon="4.74931">
        <ele>171</ele>
        <time>2017-08-26T10:20:49Z</time>
      </trkpt>
      <trkpt lat="45.92176" lon="4.74933">
        <ele>171</ele>
        <time>2017-08-26T10:20:50Z</time>
      </trkpt>
      <trkpt lat="45.92181" lon="4.74935">
        <ele>171</ele>
        <time>2017-08-26T10:20:51Z</time>
      </trkpt>
      <trkpt lat="45.92186" lon="4.74938">
        <ele>171</ele>
        <time>2017-08-26T10:20:52Z</time>
      </trkpt>
      <trkpt lat="45.9219" lon="4.7494">
        <ele>171</ele>
        <time>2017-08-26T10:20:53Z</time>
      </trkpt>
      <trkpt lat="45.92195" lon="4.74943">
        <ele>171</ele>
        <time>2017-08-26T10:20:54Z</time>
      </trkpt>
      <trkpt lat="45.92199" lon="4.74945">
        <ele>171</ele>
        <time>2017-08-26T10:20:55Z</time>
      </trkpt>
      <trkpt lat="45.92203" lon="4.74948">
        <ele>171</ele>
        <time>2017-08-26T10:20:56Z</time>
      </trkpt>
      <trkpt lat="45.92207" lon="4.7495">
        <ele>171</ele>
        <time>2017-08-26T10:20:57Z</time>
      </trkpt>
      <trkpt lat="45.92216" lon="4.74955">
        <ele>171</ele>
        <time>2017-08-26T10:20:59Z</time>
      </trkpt>
      <trkpt lat="45.9222" lon="4.74957">
        <ele>171</ele>
        <time>2017-08-26T10:21:00Z</time>
      </trkpt>
      <trkpt lat="45.92227" lon="4.74962">
        <ele>171</ele>
        <time>2017-08-26T10:21:02Z</time>
      </trkpt>
      <trkpt lat="45.92231" lon="4.74964">
        <ele>171</ele>
        <time>2017-08-26T10:21:03Z</time>
      </trkpt>
      <trkpt lat="45.92239" lon="4.74964">
        <ele>172</ele>
        <time>2017-08-26T10:21:05Z</time>
      </trkpt>
      <trkpt lat="45.92243" lon="4.74961">
        <ele>172</ele>
        <time>2017-08-26T10:21:06Z</time>
      </trkpt>
      <trkpt lat="45.92247" lon="4.74953">
        <ele>172</ele>
        <time>2017-08-26T10:21:08Z</time>
      </trkpt>
      <trkpt lat="45.92248" lon="4.74948">
        <ele>172</ele>
        <time>2017-08-26T10:21:09Z</time>
      </trkpt>
      <trkpt lat="45.92251" lon="4.74937">
        <ele>172</ele>
        <time>2017-08-26T10:21:11Z</time>
      </trkpt>
      <trkpt lat="45.92252" lon="4.74931">
        <ele>172</ele>
        <time>2017-08-26T10:21:12Z</time>
      </trkpt>
      <trkpt lat="45.92254" lon="4.74925">
        <ele>172</ele>
        <time>2017-08-26T10:21:13Z</time>
      </trkpt>
      <trkpt lat="45.92257" lon="4.7492">
        <ele>172</ele>
        <time>2017-08-26T10:21:14Z</time>
      </trkpt>
      <trkpt lat="45.9226" lon="4.74916">
        <ele>172</ele>
        <time>2017-08-26T10:21:15Z</time>
      </trkpt>
      <trkpt lat="45.92264" lon="4.74912">
        <ele>172</ele>
        <time>2017-08-26T10:21:16Z</time>
      </trkpt>
      <trkpt lat="45.92268" lon="4.74909">
        <ele>172</ele>
        <time>2017-08-26T10:21:17Z</time>
      </trkpt>
      <trkpt lat="45.92272" lon="4.74904">
        <ele>172</ele>
        <time>2017-08-26T10:21:18Z</time>
      </trkpt>
      <trkpt lat="45.92275" lon="4.74899">
        <ele>172</ele>
        <time>2017-08-26T10:21:19Z</time>
      </trkpt>
      <trkpt lat="45.92278" lon="4.74894">
        <ele>172</ele>
        <time>2017-08-26T10:21:20Z</time>
      </trkpt>
      <trkpt lat="45.92282" lon="4.74888">
        <ele>172</ele>
        <time>2017-08-26T10:21:21Z</time>
      </trkpt>
      <trkpt lat="45.92286" lon="4.74883">
        <ele>172</ele>
        <time>2017-08-26T10:21:22Z</time>
      </trkpt>
      <trkpt lat="45.9229" lon="4.74878">
        <ele>172</ele>
        <time>2017-08-26T10:21:23Z</time>
      </trkpt>
      <trkpt lat="45.92293" lon="4.74873">
        <ele>172</ele>
        <time>2017-08-26T10:21:24Z</time>
      </trkpt>
      <trkpt lat="45.92298" lon="4.74863">
        <ele>172</ele>
        <time>2017-08-26T10:21:26Z</time>
      </trkpt>
      <trkpt lat="45.92301" lon="4.74859">
        <ele>172</ele>
        <time>2017-08-26T10:21:27Z</time>
      </trkpt>
      <trkpt lat="45.92306" lon="4.74851">
        <ele>172</ele>
        <time>2017-08-26T10:21:29Z</time>
      </trkpt>
      <trkpt lat="45.92308" lon="4.74847">
        <ele>172</ele>
        <time>2017-08-26T10:21:30Z</time>
      </trkpt>
      <trkpt lat="45.92313" lon="4.74838">
        <ele>172</ele>
        <time>2017-08-26T10:21:32Z</time>
      </trkpt>
      <trkpt lat="45.92315" lon="4.74834">
        <ele>172</ele>
        <time>2017-08-26T10:21:33Z</time>
      </trkpt>
      <trkpt lat="45.9232" lon="4.74824">
        <ele>171</ele>
        <time>2017-08-26T10:21:35Z</time>
      </trkpt>
      <trkpt lat="45.92323" lon="4.74818">
        <ele>171</ele>
        <time>2017-08-26T10:21:36Z</time>
      </trkpt>
      <trkpt lat="45.92327" lon="4.74812">
        <ele>171</ele>
        <time>2017-08-26T10:21:37Z</time>
      </trkpt>
      <trkpt lat="45.9233" lon="4.74805">
        <ele>171</ele>
        <time>2017-08-26T10:21:38Z</time>
      </trkpt>
      <trkpt lat="45.92334" lon="4.74799">
        <ele>171</ele>
        <time>2017-08-26T10:21:39Z</time>
      </trkpt>
      <trkpt lat="45.92337" lon="4.74793">
        <ele>171</ele>
        <time>2017-08-26T10:21:40Z</time>
      </trkpt>
      <trkpt lat="45.92341" lon="4.74787">
        <ele>171</ele>
        <time>2017-08-26T10:21:41Z</time>
      </trkpt>
      <trkpt lat="45.92344" lon="4.74782">
        <ele>171</ele>
        <time>2017-08-26T10:21:42Z</time>
      </trkpt>
      <trkpt lat="45.9235" lon="4.74772">
        <ele>171</ele>
        <time>2017-08-26T10:21:44Z</time>
      </trkpt>
      <trkpt lat="45.92352" lon="4.74768">
        <ele>171</ele>
        <time>2017-08-26T10:21:45Z</time>
      </trkpt>
      <trkpt lat="45.92356" lon="4.7476">
        <ele>171</ele>
        <time>2017-08-26T10:21:47Z</time>
      </trkpt>
      <trkpt lat="45.92358" lon="4.74756">
        <ele>171</ele>
        <time>2017-08-26T10:21:48Z</time>
      </trkpt>
      <trkpt lat="45.92363" lon="4.74747">
        <ele>171</ele>
        <time>2017-08-26T10:21:50Z</time>
      </trkpt>
      <trkpt lat="45.92366" lon="4.74742">
        <ele>171</ele>
        <time>2017-08-26T10:21:51Z</time>
      </trkpt>
      <trkpt lat="45.92369" lon="4.74736">
        <ele>171</ele>
        <time>2017-08-26T10:21:52Z</time>
      </trkpt>
      <trkpt lat="45.92372" lon="4.7473">
        <ele>171</ele>
        <time>2017-08-26T10:21:53Z</time>
      </trkpt>
      <trkpt lat="45.92375" lon="4.74724">
        <ele>171</ele>
        <time>2017-08-26T10:21:54Z</time>
      </trkpt>
      <trkpt lat="45.92378" lon="4.74719">
        <ele>171</ele>
        <time>2017-08-26T10:21:55Z</time>
      </trkpt>
      <trkpt lat="45.92381" lon="4.74712">
        <ele>171</ele>
        <time>2017-08-26T10:21:56Z</time>
      </trkpt>
      <trkpt lat="45.92384" lon="4.74707">
        <ele>171</ele>
        <time>2017-08-26T10:21:57Z</time>
      </trkpt>
      <trkpt lat="45.92389" lon="4.74697">
        <ele>171</ele>
        <time>2017-08-26T10:21:59Z</time>
      </trkpt>
      <trkpt lat="45.92392" lon="4.74692">
        <ele>171</ele>
        <time>2017-08-26T10:22:00Z</time>
      </trkpt>
      <trkpt lat="45.92397" lon="4.74683">
        <ele>171</ele>
        <time>2017-08-26T10:22:02Z</time>
      </trkpt>
      <trkpt lat="45.924" lon="4.74679">
        <ele>171</ele>
        <time>2017-08-26T10:22:03Z</time>
      </trkpt>
      <trkpt lat="45.92404" lon="4.7467">
        <ele>171</ele>
        <time>2017-08-26T10:22:05Z</time>
      </trkpt>
      <trkpt lat="45.92406" lon="4.74666">
        <ele>171</ele>
        <time>2017-08-26T10:22:06Z</time>
      </trkpt>
      <trkpt lat="45.92411" lon="4.74656">
        <ele>171</ele>
        <time>2017-08-26T10:22:08Z</time>
      </trkpt>
      <trkpt lat="45.92414" lon="4.74651">
        <ele>171</ele>
        <time>2017-08-26T10:22:09Z</time>
      </trkpt>
      <trkpt lat="45.92418" lon="4.74641">
        <ele>171</ele>
        <time>2017-08-26T10:22:11Z</time>
      </trkpt>
      <trkpt lat="45.9242" lon="4.74636">
        <ele>171</ele>
        <time>2017-08-26T10:22:12Z</time>
      </trkpt>
      <trkpt lat="45.92425" lon="4.7463">
        <ele>171</ele>
        <time>2017-08-26T10:22:14Z</time>
      </trkpt>
      <trkpt lat="45.92426" lon="4.74626">
        <ele>171</ele>
        <time>2017-08-26T10:22:15Z</time>
      </trkpt>
      <trkpt lat="45.92429" lon="4.74614">
        <ele>171</ele>
        <time>2017-08-26T10:22:17Z</time>
      </trkpt>
      <trkpt lat="45.92429" lon="4.74607">
        <ele>171</ele>
        <time>2017-08-26T10:22:18Z</time>
      </trkpt>
      <trkpt lat="45.92429" lon="4.746">
        <ele>171</ele>
        <time>2017-08-26T10:22:19Z</time>
      </trkpt>
      <trkpt lat="45.92427" lon="4.74594">
        <ele>171</ele>
        <time>2017-08-26T10:22:20Z</time>
      </trkpt>
      <trkpt lat="45.92421" lon="4.74586">
        <ele>171</ele>
        <time>2017-08-26T10:22:22Z</time>
      </trkpt>
      <trkpt lat="45.92418" lon="4.74583">
        <ele>171</ele>
        <time>2017-08-26T10:22:23Z</time>
      </trkpt>
      <trkpt lat="45.92412" lon="4.74579">
        <ele>171</ele>
        <time>2017-08-26T10:22:25Z</time>
      </trkpt>
      <trkpt lat="45.92408" lon="4.74576">
        <ele>171</ele>
        <time>2017-08-26T10:22:26Z</time>
      </trkpt>
      <trkpt lat="45.92401" lon="4.74571">
        <ele>171</ele>
        <time>2017-08-26T10:22:28Z</time>
      </trkpt>
      <trkpt lat="45.92397" lon="4.74568">
        <ele>171</ele>
        <time>2017-08-26T10:22:29Z</time>
      </trkpt>
      <trkpt lat="45.92389" lon="4.74562">
        <ele>171</ele>
        <time>2017-08-26T10:22:31Z</time>
      </trkpt>
      <trkpt lat="45.92385" lon="4.74558">
        <ele>171</ele>
        <time>2017-08-26T10:22:32Z</time>
      </trkpt>
      <trkpt lat="45.92377" lon="4.74553">
        <ele>171</ele>
        <time>2017-08-26T10:22:34Z</time>
      </trkpt>
      <trkpt lat="45.92373" lon="4.74551">
        <ele>170</ele>
        <time>2017-08-26T10:22:35Z</time>
      </trkpt>
      <trkpt lat="45.92366" lon="4.74546">
        <ele>170</ele>
        <time>2017-08-26T10:22:37Z</time>
      </trkpt>
      <trkpt lat="45.92362" lon="4.74544">
        <ele>170</ele>
        <time>2017-08-26T10:22:38Z</time>
      </trkpt>
      <trkpt lat="45.92356" lon="4.74541">
        <ele>171</ele>
        <time>2017-08-26T10:22:40Z</time>
      </trkpt>
      <trkpt lat="45.92354" lon="4.7454">
        <ele>171</ele>
        <time>2017-08-26T10:22:41Z</time>
      </trkpt>
      <trkpt lat="45.92347" lon="4.74536">
        <ele>171</ele>
        <time>2017-08-26T10:22:43Z</time>
      </trkpt>
      <trkpt lat="45.92344" lon="4.74534">
        <ele>171</ele>
        <time>2017-08-26T10:22:44Z</time>
      </trkpt>
      <trkpt lat="45.92336" lon="4.74528">
        <ele>171</ele>
        <time>2017-08-26T10:22:46Z</time>
      </trkpt>
      <trkpt lat="45.92331" lon="4.74525">
        <ele>171</ele>
        <time>2017-08-26T10:22:47Z</time>
      </trkpt>
      <trkpt lat="45.92326" lon="4.74521">
        <ele>171</ele>
        <time>2017-08-26T10:22:48Z</time>
      </trkpt>
      <trkpt lat="45.92322" lon="4.74518">
        <ele>171</ele>
        <time>2017-08-26T10:22:49Z</time>
      </trkpt>
      <trkpt lat="45.92317" lon="4.74515">
        <ele>171</ele>
        <time>2017-08-26T10:22:50Z</time>
      </trkpt>
      <trkpt lat="45.92313" lon="4.74512">
        <ele>171</ele>
        <time>2017-08-26T10:22:51Z</time>
      </trkpt>
      <trkpt lat="45.92305" lon="4.74507">
        <ele>171</ele>
        <time>2017-08-26T10:22:53Z</time>
      </trkpt>
      <trkpt lat="45.92302" lon="4.74505">
        <ele>171</ele>
        <time>2017-08-26T10:22:54Z</time>
      </trkpt>
      <trkpt lat="45.92295" lon="4.74502">
        <ele>171</ele>
        <time>2017-08-26T10:22:56Z</time>
      </trkpt>
      <trkpt lat="45.92292" lon="4.74501">
        <ele>171</ele>
        <time>2017-08-26T10:22:57Z</time>
      </trkpt>
      <trkpt lat="45.92283" lon="4.74497">
        <ele>171</ele>
        <time>2017-08-26T10:23:00Z</time>
      </trkpt>
      <trkpt lat="45.92281" lon="4.74495">
        <ele>171</ele>
        <time>2017-08-26T10:23:01Z</time>
      </trkpt>
      <trkpt lat="45.92274" lon="4.74491">
        <ele>171</ele>
        <time>2017-08-26T10:23:03Z</time>
      </trkpt>
      <trkpt lat="45.92271" lon="4.74489">
        <ele>171</ele>
        <time>2017-08-26T10:23:04Z</time>
      </trkpt>
      <trkpt lat="45.92263" lon="4.74483">
        <ele>171</ele>
        <time>2017-08-26T10:23:06Z</time>
      </trkpt>
      <trkpt lat="45.9226" lon="4.74482">
        <ele>171</ele>
        <time>2017-08-26T10:23:07Z</time>
      </trkpt>
      <trkpt lat="45.92254" lon="4.74478">
        <ele>171</ele>
        <time>2017-08-26T10:23:09Z</time>
      </trkpt>
      <trkpt lat="45.92251" lon="4.74475">
        <ele>171</ele>
        <time>2017-08-26T10:23:10Z</time>
      </trkpt>
      <trkpt lat="45.92245" lon="4.74466">
        <ele>171</ele>
        <time>2017-08-26T10:23:13Z</time>
      </trkpt>
      <trkpt lat="45.92244" lon="4.74462">
        <ele>171</ele>
        <time>2017-08-26T10:23:14Z</time>
      </trkpt>
      <trkpt lat="45.92243" lon="4.74451">
        <ele>171</ele>
        <time>2017-08-26T10:23:16Z</time>
      </trkpt>
      <trkpt lat="45.92243" lon="4.74445">
        <ele>171</ele>
        <time>2017-08-26T10:23:17Z</time>
      </trkpt>
      <trkpt lat="45.92245" lon="4.74434">
        <ele>171</ele>
        <time>2017-08-26T10:23:19Z</time>
      </trkpt>
      <trkpt lat="45.92246" lon="4.74429">
        <ele>171</ele>
        <time>2017-08-26T10:23:20Z</time>
      </trkpt>
      <trkpt lat="45.92249" lon="4.7442">
        <ele>171</ele>
        <time>2017-08-26T10:23:22Z</time>
      </trkpt>
      <trkpt lat="45.9225" lon="4.74415">
        <ele>171</ele>
        <time>2017-08-26T10:23:23Z</time>
      </trkpt>
      <trkpt lat="45.92252" lon="4.74406">
        <ele>171</ele>
        <time>2017-08-26T10:23:25Z</time>
      </trkpt>
      <trkpt lat="45.92254" lon="4.74402">
        <ele>171</ele>
        <time>2017-08-26T10:23:26Z</time>
      </trkpt>
      <trkpt lat="45.92257" lon="4.74394">
        <ele>171</ele>
        <time>2017-08-26T10:23:28Z</time>
      </trkpt>
      <trkpt lat="45.92258" lon="4.74389">
        <ele>171</ele>
        <time>2017-08-26T10:23:29Z</time>
      </trkpt>
      <trkpt lat="45.92263" lon="4.74379">
        <ele>171</ele>
        <time>2017-08-26T10:23:31Z</time>
      </trkpt>
      <trkpt lat="45.92265" lon="4.74374">
        <ele>171</ele>
        <time>2017-08-26T10:23:32Z</time>
      </trkpt>
      <trkpt lat="45.92271" lon="4.74365">
        <ele>171</ele>
        <time>2017-08-26T10:23:34Z</time>
      </trkpt>
      <trkpt lat="45.92273" lon="4.74361">
        <ele>171</ele>
        <time>2017-08-26T10:23:35Z</time>
      </trkpt>
      <trkpt lat="45.92279" lon="4.74355">
        <ele>171</ele>
        <time>2017-08-26T10:23:37Z</time>
      </trkpt>
      <trkpt lat="45.92282" lon="4.74352">
        <ele>171</ele>
        <time>2017-08-26T10:23:38Z</time>
      </trkpt>
      <trkpt lat="45.92287" lon="4.74346">
        <ele>171</ele>
        <time>2017-08-26T10:23:40Z</time>
      </trkpt>
      <trkpt lat="45.9229" lon="4.74342">
        <ele>171</ele>
        <time>2017-08-26T10:23:41Z</time>
      </trkpt>
      <trkpt lat="45.92294" lon="4.74339">
        <ele>171</ele>
        <time>2017-08-26T10:23:42Z</time>
      </trkpt>
      <trkpt lat="45.92298" lon="4.74335">
        <ele>171</ele>
        <time>2017-08-26T10:23:43Z</time>
      </trkpt>
      <trkpt lat="45.92302" lon="4.74331">
        <ele>170</ele>
        <time>2017-08-26T10:23:44Z</time>
      </trkpt>
      <trkpt lat="45.92306" lon="4.74328">
        <ele>170</ele>
        <time>2017-08-26T10:23:45Z</time>
      </trkpt>
      <trkpt lat="45.9231" lon="4.74324">
        <ele>170</ele>
        <time>2017-08-26T10:23:46Z</time>
      </trkpt>
      <trkpt lat="45.92313" lon="4.74321">
        <ele>170</ele>
        <time>2017-08-26T10:23:47Z</time>
      </trkpt>
      <trkpt lat="45.92321" lon="4.74315">
        <ele>170</ele>
        <time>2017-08-26T10:23:49Z</time>
      </trkpt>
      <trkpt lat="45.92325" lon="4.74313">
        <ele>170</ele>
        <time>2017-08-26T10:23:50Z</time>
      </trkpt>
      <trkpt lat="45.92332" lon="4.74309">
        <ele>170</ele>
        <time>2017-08-26T10:23:52Z</time>
      </trkpt>
      <trkpt lat="45.92336" lon="4.74308">
        <ele>170</ele>
        <time>2017-08-26T10:23:53Z</time>
      </trkpt>
      <trkpt lat="45.92343" lon="4.74307">
        <ele>170</ele>
        <time>2017-08-26T10:23:55Z</time>
      </trkpt>
      <trkpt lat="45.92347" lon="4.74308">
        <ele>170</ele>
        <time>2017-08-26T10:23:56Z</time>
      </trkpt>
      <trkpt lat="45.92353" lon="4.74309">
        <ele>170</ele>
        <time>2017-08-26T10:23:58Z</time>
      </trkpt>
      <trkpt lat="45.92356" lon="4.7431">
        <ele>170</ele>
        <time>2017-08-26T10:23:59Z</time>
      </trkpt>
      <trkpt lat="45.92364" lon="4.74315">
        <ele>170</ele>
        <time>2017-08-26T10:24:02Z</time>
      </trkpt>
      <trkpt lat="45.92367" lon="4.74316">
        <ele>170</ele>
        <time>2017-08-26T10:24:03Z</time>
      </trkpt>
      <trkpt lat="45.92373" lon="4.7432">
        <ele>170</ele>
        <time>2017-08-26T10:24:05Z</time>
      </trkpt>
      <trkpt lat="45.92376" lon="4.74322">
        <ele>170</ele>
        <time>2017-08-26T10:24:06Z</time>
      </trkpt>
      <trkpt lat="45.92385" lon="4.74326">
        <ele>170</ele>
        <time>2017-08-26T10:24:08Z</time>
      </trkpt>
      <trkpt lat="45.92389" lon="4.74326">
        <ele>170</ele>
        <time>2017-08-26T10:24:09Z</time>
      </trkpt>
      <trkpt lat="45.92395" lon="4.74325">
        <ele>170</ele>
        <time>2017-08-26T10:24:10Z</time>
      </trkpt>
      <trkpt lat="45.92399" lon="4.74323">
        <ele>170</ele>
        <time>2017-08-26T10:24:11Z</time>
      </trkpt>
      <trkpt lat="45.92404" lon="4.74319">
        <ele>170</ele>
        <time>2017-08-26T10:24:12Z</time>
      </trkpt>
      <trkpt lat="45.92408" lon="4.74314">
        <ele>170</ele>
        <time>2017-08-26T10:24:13Z</time>
      </trkpt>
      <trkpt lat="45.92413" lon="4.74304">
        <ele>170</ele>
        <time>2017-08-26T10:24:15Z</time>
      </trkpt>
      <trkpt lat="45.92416" lon="4.74299">
        <ele>170</ele>
        <time>2017-08-26T10:24:16Z</time>
      </trkpt>
      <trkpt lat="45.9242" lon="4.7429">
        <ele>170</ele>
        <time>2017-08-26T10:24:18Z</time>
      </trkpt>
      <trkpt lat="45.92423" lon="4.74286">
        <ele>170</ele>
        <time>2017-08-26T10:24:19Z</time>
      </trkpt>
      <trkpt lat="45.92427" lon="4.74277">
        <ele>170</ele>
        <time>2017-08-26T10:24:21Z</time>
      </trkpt>
      <trkpt lat="45.92429" lon="4.74272">
        <ele>170</ele>
        <time>2017-08-26T10:24:22Z</time>
      </trkpt>
      <trkpt lat="45.92434" lon="4.74262">
        <ele>170</ele>
        <time>2017-08-26T10:24:24Z</time>
      </trkpt>
      <trkpt lat="45.92437" lon="4.74256">
        <ele>170</ele>
        <time>2017-08-26T10:24:25Z</time>
      </trkpt>
      <trkpt lat="45.92442" lon="4.74246">
        <ele>171</ele>
        <time>2017-08-26T10:24:27Z</time>
      </trkpt>
      <trkpt lat="45.92444" lon="4.74242">
        <ele>171</ele>
        <time>2017-08-26T10:24:28Z</time>
      </trkpt>
      <trkpt lat="45.92448" lon="4.74233">
        <ele>171</ele>
        <time>2017-08-26T10:24:30Z</time>
      </trkpt>
      <trkpt lat="45.9245" lon="4.74229">
        <ele>171</ele>
        <time>2017-08-26T10:24:31Z</time>
      </trkpt>
      <trkpt lat="45.92454" lon="4.74221">
        <ele>171</ele>
        <time>2017-08-26T10:24:33Z</time>
      </trkpt>
      <trkpt lat="45.92456" lon="4.74216">
        <ele>171</ele>
        <time>2017-08-26T10:24:34Z</time>
      </trkpt>
      <trkpt lat="45.92458" lon="4.7421">
        <ele>171</ele>
        <time>2017-08-26T10:24:35Z</time>
      </trkpt>
      <trkpt lat="45.9246" lon="4.74204">
        <ele>171</ele>
        <time>2017-08-26T10:24:36Z</time>
      </trkpt>
      <trkpt lat="45.92464" lon="4.74194">
        <ele>171</ele>
        <time>2017-08-26T10:24:38Z</time>
      </trkpt>
      <trkpt lat="45.92466" lon="4.74189">
        <ele>171</ele>
        <time>2017-08-26T10:24:39Z</time>
      </trkpt>
      <trkpt lat="45.92469" lon="4.7418">
        <ele>171</ele>
        <time>2017-08-26T10:24:41Z</time>
      </trkpt>
      <trkpt lat="45.9247" lon="4.74175">
        <ele>171</ele>
        <time>2017-08-26T10:24:42Z</time>
      </trkpt>
      <trkpt lat="45.92474" lon="4.74163">
        <ele>171</ele>
        <time>2017-08-26T10:24:44Z</time>
      </trkpt>
      <trkpt lat="45.92476" lon="4.74157">
        <ele>171</ele>
        <time>2017-08-26T10:24:45Z</time>
      </trkpt>
      <trkpt lat="45.92478" lon="4.74151">
        <ele>171</ele>
        <time>2017-08-26T10:24:46Z</time>
      </trkpt>
      <trkpt lat="45.9248" lon="4.74144">
        <ele>171</ele>
        <time>2017-08-26T10:24:47Z</time>
      </trkpt>
      <trkpt lat="45.92483" lon="4.74138">
        <ele>171</ele>
        <time>2017-08-26T10:24:48Z</time>
      </trkpt>
      <trkpt lat="45.92485" lon="4.74133">
        <ele>171</ele>
        <time>2017-08-26T10:24:49Z</time>
      </trkpt>
      <trkpt lat="45.92488" lon="4.74123">
        <ele>172</ele>
        <time>2017-08-26T10:24:51Z</time>
      </trkpt>
      <trkpt lat="45.92489" lon="4.74118">
        <ele>172</ele>
        <time>2017-08-26T10:24:52Z</time>
      </trkpt>
      <trkpt lat="45.92494" lon="4.7411">
        <ele>172</ele>
        <time>2017-08-26T10:24:54Z</time>
      </trkpt>
      <trkpt lat="45.92497" lon="4.74105">
        <ele>172</ele>
        <time>2017-08-26T10:24:55Z</time>
      </trkpt>
      <trkpt lat="45.925" lon="4.74101">
        <ele>172</ele>
        <time>2017-08-26T10:24:56Z</time>
      </trkpt>
      <trkpt lat="45.92503" lon="4.74096">
        <ele>172</ele>
        <time>2017-08-26T10:24:57Z</time>
      </trkpt>
      <trkpt lat="45.92507" lon="4.74092">
        <ele>172</ele>
        <time>2017-08-26T10:24:58Z</time>
      </trkpt>
      <trkpt lat="45.92511" lon="4.74087">
        <ele>172</ele>
        <time>2017-08-26T10:24:59Z</time>
      </trkpt>
      <trkpt lat="45.92516" lon="4.74084">
        <ele>172</ele>
        <time>2017-08-26T10:25:00Z</time>
      </trkpt>
      <trkpt lat="45.92519" lon="4.74079">
        <ele>172</ele>
        <time>2017-08-26T10:25:01Z</time>
      </trkpt>
      <trkpt lat="45.92522" lon="4.74075">
        <ele>172</ele>
        <time>2017-08-26T10:25:02Z</time>
      </trkpt>
      <trkpt lat="45.92526" lon="4.7407">
        <ele>172</ele>
        <time>2017-08-26T10:25:03Z</time>
      </trkpt>
      <trkpt lat="45.92532" lon="4.74061">
        <ele>172</ele>
        <time>2017-08-26T10:25:05Z</time>
      </trkpt>
      <trkpt lat="45.92535" lon="4.74057">
        <ele>172</ele>
        <time>2017-08-26T10:25:06Z</time>
      </trkpt>
      <trkpt lat="45.92541" lon="4.74049">
        <ele>172</ele>
        <time>2017-08-26T10:25:08Z</time>
      </trkpt>
      <trkpt lat="45.92544" lon="4.74045">
        <ele>172</ele>
        <time>2017-08-26T10:25:09Z</time>
      </trkpt>
      <trkpt lat="45.92549" lon="4.74035">
        <ele>172</ele>
        <time>2017-08-26T10:25:11Z</time>
      </trkpt>
      <trkpt lat="45.92552" lon="4.74031">
        <ele>172</ele>
        <time>2017-08-26T10:25:12Z</time>
      </trkpt>
      <trkpt lat="45.92556" lon="4.74021">
        <ele>172</ele>
        <time>2017-08-26T10:25:14Z</time>
      </trkpt>
      <trkpt lat="45.92556" lon="4.74016">
        <ele>172</ele>
        <time>2017-08-26T10:25:15Z</time>
      </trkpt>
      <trkpt lat="45.92554" lon="4.74005">
        <ele>172</ele>
        <time>2017-08-26T10:25:17Z</time>
      </trkpt>
      <trkpt lat="45.9255" lon="4.74001">
        <ele>172</ele>
        <time>2017-08-26T10:25:18Z</time>
      </trkpt>
      <trkpt lat="45.92546" lon="4.73998">
        <ele>172</ele>
        <time>2017-08-26T10:25:19Z</time>
      </trkpt>
      <trkpt lat="45.92542" lon="4.73995">
        <ele>172</ele>
        <time>2017-08-26T10:25:20Z</time>
      </trkpt>
      <trkpt lat="45.92537" lon="4.73991">
        <ele>172</ele>
        <time>2017-08-26T10:25:21Z</time>
      </trkpt>
      <trkpt lat="45.92533" lon="4.73989">
        <ele>172</ele>
        <time>2017-08-26T10:25:22Z</time>
      </trkpt>
      <trkpt lat="45.92529" lon="4.73986">
        <ele>172</ele>
        <time>2017-08-26T10:25:23Z</time>
      </trkpt>
      <trkpt lat="45.92525" lon="4.73984">
        <ele>172</ele>
        <time>2017-08-26T10:25:24Z</time>
      </trkpt>
      <trkpt lat="45.92516" lon="4.7398">
        <ele>172</ele>
        <time>2017-08-26T10:25:26Z</time>
      </trkpt>
      <trkpt lat="45.92512" lon="4.73979">
        <ele>172</ele>
        <time>2017-08-26T10:25:27Z</time>
      </trkpt>
      <trkpt lat="45.92508" lon="4.73976">
        <ele>172</ele>
        <time>2017-08-26T10:25:28Z</time>
      </trkpt>
      <trkpt lat="45.92503" lon="4.73974">
        <ele>172</ele>
        <time>2017-08-26T10:25:29Z</time>
      </trkpt>
      <trkpt lat="45.92495" lon="4.73971">
        <ele>172</ele>
        <time>2017-08-26T10:25:31Z</time>
      </trkpt>
      <trkpt lat="45.92491" lon="4.7397">
        <ele>172</ele>
        <time>2017-08-26T10:25:32Z</time>
      </trkpt>
      <trkpt lat="45.92485" lon="4.73967">
        <ele>172</ele>
        <time>2017-08-26T10:25:34Z</time>
      </trkpt>
      <trkpt lat="45.92482" lon="4.73965">
        <ele>172</ele>
        <time>2017-08-26T10:25:35Z</time>
      </trkpt>
      <trkpt lat="45.92476" lon="4.7396">
        <ele>172</ele>
        <time>2017-08-26T10:25:37Z</time>
      </trkpt>
      <trkpt lat="45.92472" lon="4.73956">
        <ele>172</ele>
        <time>2017-08-26T10:25:38Z</time>
      </trkpt>
      <trkpt lat="45.92467" lon="4.73947">
        <ele>172</ele>
        <time>2017-08-26T10:25:40Z</time>
      </trkpt>
      <trkpt lat="45.92465" lon="4.73941">
        <ele>172</ele>
        <time>2017-08-26T10:25:41Z</time>
      </trkpt>
      <trkpt lat="45.92464" lon="4.73928">
        <ele>172</ele>
        <time>2017-08-26T10:25:43Z</time>
      </trkpt>
      <trkpt lat="45.92464" lon="4.73922">
        <ele>172</ele>
        <time>2017-08-26T10:25:44Z</time>
      </trkpt>
      <trkpt lat="45.92465" lon="4.7391">
        <ele>171</ele>
        <time>2017-08-26T10:25:46Z</time>
      </trkpt>
      <trkpt lat="45.92465" lon="4.73905">
        <ele>171</ele>
        <time>2017-08-26T10:25:47Z</time>
      </trkpt>
      <trkpt lat="45.92464" lon="4.73894">
        <ele>171</ele>
        <time>2017-08-26T10:25:49Z</time>
      </trkpt>
      <trkpt lat="45.92463" lon="4.73887">
        <ele>171</ele>
        <time>2017-08-26T10:25:50Z</time>
      </trkpt>
      <trkpt lat="45.92463" lon="4.73881">
        <ele>171</ele>
        <time>2017-08-26T10:25:51Z</time>
      </trkpt>
      <trkpt lat="45.92463" lon="4.73874">
        <ele>171</ele>
        <time>2017-08-26T10:25:52Z</time>
      </trkpt>
      <trkpt lat="45.92463" lon="4.73862">
        <ele>171</ele>
        <time>2017-08-26T10:25:54Z</time>
      </trkpt>
      <trkpt lat="45.92464" lon="4.73857">
        <ele>171</ele>
        <time>2017-08-26T10:25:55Z</time>
      </trkpt>
      <trkpt lat="45.92464" lon="4.73847">
        <ele>171</ele>
        <time>2017-08-26T10:25:57Z</time>
      </trkpt>
      <trkpt lat="45.92464" lon="4.73842">
        <ele>171</ele>
        <time>2017-08-26T10:25:58Z</time>
      </trkpt>
      <trkpt lat="45.92463" lon="4.73832">
        <ele>171</ele>
        <time>2017-08-26T10:26:00Z</time>
      </trkpt>
      <trkpt lat="45.92464" lon="4.73827">
        <ele>172</ele>
        <time>2017-08-26T10:26:01Z</time>
      </trkpt>
      <trkpt lat="45.92463" lon="4.73815">
        <ele>172</ele>
        <time>2017-08-26T10:26:03Z</time>
      </trkpt>
      <trkpt lat="45.92463" lon="4.73809">
        <ele>172</ele>
        <time>2017-08-26T10:26:04Z</time>
      </trkpt>
      <trkpt lat="45.92463" lon="4.73802">
        <ele>172</ele>
        <time>2017-08-26T10:26:05Z</time>
      </trkpt>
      <trkpt lat="45.92463" lon="4.73794">
        <ele>172</ele>
        <time>2017-08-26T10:26:06Z</time>
      </trkpt>
      <trkpt lat="45.92462" lon="4.73787">
        <ele>172</ele>
        <time>2017-08-26T10:26:07Z</time>
      </trkpt>
      <trkpt lat="45.92463" lon="4.7378">
        <ele>172</ele>
        <time>2017-08-26T10:26:08Z</time>
      </trkpt>
      <trkpt lat="45.92463" lon="4.73774">
        <ele>173</ele>
        <time>2017-08-26T10:26:09Z</time>
      </trkpt>
      <trkpt lat="45.92463" lon="4.73767">
        <ele>173</ele>
        <time>2017-08-26T10:26:10Z</time>
      </trkpt>
      <trkpt lat="45.92463" lon="4.73756">
        <ele>173</ele>
        <time>2017-08-26T10:26:12Z</time>
      </trkpt>
      <trkpt lat="45.92464" lon="4.7375">
        <ele>173</ele>
        <time>2017-08-26T10:26:13Z</time>
      </trkpt>
      <trkpt lat="45.92465" lon="4.73739">
        <ele>174</ele>
        <time>2017-08-26T10:26:15Z</time>
      </trkpt>
      <trkpt lat="45.92466" lon="4.73734">
        <ele>174</ele>
        <time>2017-08-26T10:26:16Z</time>
      </trkpt>
      <trkpt lat="45.92465" lon="4.73725">
        <ele>174</ele>
        <time>2017-08-26T10:26:18Z</time>
      </trkpt>
      <trkpt lat="45.92464" lon="4.73721">
        <ele>174</ele>
        <time>2017-08-26T10:26:19Z</time>
      </trkpt>
      <trkpt lat="45.92462" lon="4.73712">
        <ele>174</ele>
        <time>2017-08-26T10:26:39.397Z</time>
      </trkpt>
    </trkseg>
  </trk>
</gpx>